Hébergeur de fichiers indépendant

Current.gpx

À propos

Type de fichier
Fichier GPX de 445 Ko (application/xml)
Confidentialité
Fichier public, envoyé le 1er septembre 2019 à 16:01 depuis l'adresse IP 88.170.x.x (France)
Sécurité
Ne contient aucun Virus ou Malware connus - Dernière vérification: 17 jours
Statistiques
La présente page de téléchargement a été vue 13 fois depuis l'envoi du fichier
Page de téléchargement

Aperçu du fichier


<?xml version="1.0" encoding="UTF-8" standalone="no" ?><gpx xmlns="http://www.topografix.com/GPX/1/1" xmlns:gpxx="http://www.garmin.com/xmlschemas/GpxExtensions/v3" xmlns:gpxtrkx="http://www.garmin.com/xmlschemas/TrackStatsExtension/v1" xmlns:wptx1="http://www.garmin.com/xmlschemas/WaypointExtension/v1" xmlns:gpxtpx="http://www.garmin.com/xmlschemas/TrackPointExtension/v1" creator="eTrex 30x" version="1.1" xmlns:xsi="http://www.w3.org/2001/XMLSchema-instance" xsi:schemaLocation="http://www.topografix.com/GPX/1/1 http://www.topografix.com/GPX/1/1/gpx.xsd http://www.garmin.com/xmlschemas/GpxExtensions/v3 http://www8.garmin.com/xmlschemas/GpxExtensionsv3.xsd http://www.garmin.com/xmlschemas/TrackStatsExtension/v1 http://www8.garmin.com/xmlschemas/TrackStatsExtension.xsd http://www.garmin.com/xmlschemas/WaypointExtension/v1 http://www8.garmin.com/xmlschemas/WaypointExtensionv1.xsd http://www.garmin.com/xmlschemas/TrackPointExtension/v1 http://www.garmin.com/xmlschemas/TrackPointExtensionv1.xsd"><metadata><link href="http://www.garmin.com"><text>Garmin International</text></link><time>2019-08-18T19:56:10Z</time></metadata><trk><name>Tracé actuel: 17 AOU 2019 10:49</name><extensions><gpxx:TrackExtension><gpxx:DisplayColor>Cyan</gpxx:DisplayColor></gpxx:TrackExtension><gpxtrkx:TrackStatsExtension><gpxtrkx:Distance>35052</gpxtrkx:Distance></gpxtrkx:TrackStatsExtension></extensions><trkseg><trkpt lat="45.1705284789" lon="6.4307452273"><ele>1233.03</ele><time>2019-08-17T08:49:18Z</time></trkpt><trkpt lat="45.1705036685" lon="6.4307666849"><ele>1233.51</ele><time>2019-08-17T08:49:28Z</time></trkpt><trkpt lat="45.1202409994" lon="6.4178666845"><ele>1522.39</ele><time>2019-08-17T09:27:27Z</time></trkpt><trkpt lat="45.1201734412" lon="6.4178484119"><ele>1522.39</ele><time>2019-08-17T09:27:28Z</time></trkpt><trkpt lat="45.1201123372" lon="6.4178263675"><ele>1515.66</ele><time>2019-08-17T09:27:29Z</time></trkpt><trkpt lat="45.1200622972" lon="6.4178102743"><ele>1523.83</ele><time>2019-08-17T09:27:30Z</time></trkpt><trkpt lat="45.1200098265" lon="6.4178079274"><ele>1521.90</ele><time>2019-08-17T09:27:32Z</time></trkpt></trkseg><trkseg><trkpt lat="45.1202888601" lon="6.4175967034"><ele>1487.78</ele><time>2019-08-17T09:27:44Z</time></trkpt><trkpt lat="45.1203047018" lon="6.4176008943"><ele>1487.78</ele><time>2019-08-17T09:27:45Z</time></trkpt><trkpt lat="45.1203440130" lon="6.4177111164"><ele>1488.26</ele><time>2019-08-17T09:27:57Z</time></trkpt><trkpt lat="45.1202289294" lon="6.4177437220"><ele>1481.53</ele><time>2019-08-17T09:28:09Z</time></trkpt><trkpt lat="45.1202288456" lon="6.4177421294"><ele>1493.55</ele><time>2019-08-17T09:28:10Z</time></trkpt><trkpt lat="45.1202257443" lon="6.4177428000"><ele>1494.03</ele><time>2019-08-17T09:28:11Z</time></trkpt><trkpt lat="45.1202270016" lon="6.4177302271"><ele>1491.14</ele><time>2019-08-17T09:28:12Z</time></trkpt><trkpt lat="45.1200699247" lon="6.4176943526"><ele>1490.18</ele><time>2019-08-17T09:28:26Z</time></trkpt><trkpt lat="45.1199430227" lon="6.4176824503"><ele>1491.62</ele><time>2019-08-17T09:28:37Z</time></trkpt><trkpt lat="45.1197918132" lon="6.4176874794"><ele>1494.03</ele><time>2019-08-17T09:28:51Z</time></trkpt><trkpt lat="45.1196338143" lon="6.4176782593"><ele>1497.39</ele><time>2019-08-17T09:29:06Z</time></trkpt><trkpt lat="45.1194509212" lon="6.4175893273"><ele>1500.27</ele><time>2019-08-17T09:29:24Z</time></trkpt><trkpt lat="45.1192675252" lon="6.4174955338"><ele>1500.76</ele><time>2019-08-17T09:29:41Z</time></trkpt><trkpt lat="45.1191775035" lon="6.4174642693"><ele>1501.24</ele><time>2019-08-17T09:29:53Z</time></trkpt><trkpt lat="45.1190947741" lon="6.4174293168"><ele>1502.20</ele><time>2019-08-17T09:30:06Z</time></trkpt><trkpt lat="45.1189876534" lon="6.4174562227"><ele>1502.20</ele><time>2019-08-17T09:30:21Z</time></trkpt><trkpt lat="45.1189801935" lon="6.4174021594"><ele>1504.60</ele><time>2019-08-17T09:30:37Z</time></trkpt><trkpt lat="45.1189563889" lon="6.4172814600"><ele>1505.56</ele><time>2019-08-17T09:30:45Z</time></trkpt><trkpt lat="45.1189587358" lon="6.4172506146"><ele>1505.56</ele><time>2019-08-17T09:30:48Z</time></trkpt><trkpt lat="45.1190456562" lon="6.4170688950"><ele>1507.00</ele><time>2019-08-17T09:31:04Z</time></trkpt><trkpt lat="45.1192118693" lon="6.4169622771"><ele>1508.45</ele><time>2019-08-17T09:31:19Z</time></trkpt><trkpt lat="45.1193741430" lon="6.4169169310"><ele>1507.48</ele><time>2019-08-17T09:31:34Z</time></trkpt><trkpt lat="45.1194966864" lon="6.4168052841"><ele>1507.00</ele><time>2019-08-17T09:31:47Z</time></trkpt><trkpt lat="45.1195416972" lon="6.4165700879"><ele>1507.97</ele><time>2019-08-17T09:32:04Z</time></trkpt><trkpt lat="45.1195562817" lon="6.4164889511"><ele>1510.85</ele><time>2019-08-17T09:32:13Z</time></trkpt><trkpt lat="45.1195705310" lon="6.4164231531"><ele>1511.81</ele><time>2019-08-17T09:32:19Z</time></trkpt><trkpt lat="45.1195752248" lon="6.4162680041"><ele>1513.25</ele><time>2019-08-17T09:32:29Z</time></trkpt><trkpt lat="45.1195388474" lon="6.4160805847"><ele>1516.62</ele><time>2019-08-17T09:32:42Z</time></trkpt><trkpt lat="45.1194935013" lon="6.4159585442"><ele>1519.50</ele><time>2019-08-17T09:32:54Z</time></trkpt><trkpt lat="45.1194450539" lon="6.4157724660"><ele>1522.87</ele><time>2019-08-17T09:33:08Z</time></trkpt><trkpt lat="45.1193885598" lon="6.4156039059"><ele>1524.79</ele><time>2019-08-17T09:33:23Z</time></trkpt><trkpt lat="45.1193860453" lon="6.4155122917"><ele>1525.75</ele><time>2019-08-17T09:33:30Z</time></trkpt><trkpt lat="45.1194750611" lon="6.4153966215"><ele>1526.71</ele><time>2019-08-17T09:33:45Z</time></trkpt><trkpt lat="45.1195543539" lon="6.4152929373"><ele>1529.11</ele><time>2019-08-17T09:34:00Z</time></trkpt><trkpt lat="45.1195926592" lon="6.4152043406"><ele>1530.56</ele><time>2019-08-17T09:34:11Z</time></trkpt><trkpt lat="45.1195867080" lon="6.4151830506"><ele>1530.56</ele><time>2019-08-17T09:34:13Z</time></trkpt><trkpt lat="45.1195750572" lon="6.4150695596"><ele>1532.48</ele><time>2019-08-17T09:34:24Z</time></trkpt><trkpt lat="45.1195670944" lon="6.4150634408"><ele>1533.92</ele><time>2019-08-17T09:34:26Z</time></trkpt><trkpt lat="45.1195685193" lon="6.4150604233"><ele>1532.48</ele><time>2019-08-17T09:34:28Z</time></trkpt><trkpt lat="45.1194766536" lon="6.4150600880"><ele>1534.88</ele><time>2019-08-17T09:34:42Z</time></trkpt><trkpt lat="45.1194888912" lon="6.4150695596"><ele>1535.84</ele><time>2019-08-17T09:34:58Z</time></trkpt><trkpt lat="45.1195520069" lon="6.4150332659"><ele>1538.73</ele><time>2019-08-17T09:35:31Z</time></trkpt><trkpt lat="45.1195184793" lon="6.4150899276"><ele>1541.61</ele><time>2019-08-17T09:36:08Z</time></trkpt><trkpt lat="45.1195402723" lon="6.4150463417"><ele>1544.01</ele><time>2019-08-17T09:36:46Z</time></trkpt><trkpt lat="45.1196262706" lon="6.4149044361"><ele>1546.42</ele><time>2019-08-17T09:37:19Z</time></trkpt><trkpt lat="45.1196103450" lon="6.4149333537"><ele>1548.82</ele><time>2019-08-17T09:37:48Z</time></trkpt><trkpt lat="45.1196033880" lon="6.4149380475"><ele>1550.26</ele><time>2019-08-17T09:37:52Z</time></trkpt><trkpt lat="45.1195219997" lon="6.4150333498"><ele>1550.74</ele><time>2019-08-17T09:38:17Z</time></trkpt><trkpt lat="45.1195250172" lon="6.4150340203"><ele>1552.19</ele><time>2019-08-17T09:38:20Z</time></trkpt><trkpt lat="45.1195157971" lon="6.4150386304"><ele>1551.71</ele><time>2019-08-17T09:38:29Z</time></trkpt><trkpt lat="45.1195157971" lon="6.4150876645"><ele>1552.19</ele><time>2019-08-17T09:38:46Z</time></trkpt><trkpt lat="45.1195138693" lon="6.4150797855"><ele>1531.52</ele><time>2019-08-17T09:38:52Z</time></trkpt><trkpt lat="45.1195137016" lon="6.4150795341"><ele>1556.51</ele><time>2019-08-17T09:38:53Z</time></trkpt><trkpt lat="45.1195143722" lon="6.4150753431"><ele>1548.34</ele><time>2019-08-17T09:38:54Z</time></trkpt><trkpt lat="45.1195121929" lon="6.4150671288"><ele>1563.72</ele><time>2019-08-17T09:38:55Z</time></trkpt><trkpt lat="45.1195137855" lon="6.4150522090"><ele>1556.99</ele><time>2019-08-17T09:38:57Z</time></trkpt><trkpt lat="45.1195075829" lon="6.4149457589"><ele>1556.03</ele><time>2019-08-17T09:39:08Z</time></trkpt><trkpt lat="45.1194438804" lon="6.4148889296"><ele>1558.43</ele><time>2019-08-17T09:39:21Z</time></trkpt><trkpt lat="45.1193793397" lon="6.4148497861"><ele>1560.84</ele><time>2019-08-17T09:39:37Z</time></trkpt><trkpt lat="45.1193175651" lon="6.4147884306"><ele>1563.72</ele><time>2019-08-17T09:39:49Z</time></trkpt><trkpt lat="45.1192966942" lon="6.4147774503"><ele>1565.16</ele><time>2019-08-17T09:39:53Z</time></trkpt><trkpt lat="45.1192189101" lon="6.4146891888"><ele>1567.57</ele><time>2019-08-17T09:40:07Z</time></trkpt><trkpt lat="45.1191964466" lon="6.4145723451"><ele>1569.97</ele><time>2019-08-17T09:40:20Z</time></trkpt><trkpt lat="45.1191297267" lon="6.4144989196"><ele>1573.33</ele><time>2019-08-17T09:40:33Z</time></trkpt><trkpt lat="45.1190594025" lon="6.4144420065"><ele>1575.74</ele><time>2019-08-17T09:40:44Z</time></trkpt><trkpt lat="45.1190055069" lon="6.4143786393"><ele>1578.62</ele><time>2019-08-17T09:40:56Z</time></trkpt><trkpt lat="45.1190610789" lon="6.4143129252"><ele>1581.03</ele><time>2019-08-17T09:41:08Z</time></trkpt><trkpt lat="45.1191220153" lon="6.4142742008"><ele>1584.39</ele><time>2019-08-17T09:41:20Z</time></trkpt><trkpt lat="45.1190279704" lon="6.4142297767"><ele>1586.79</ele><time>2019-08-17T09:41:32Z</time></trkpt><trkpt lat="45.1189495996" lon="6.4141540881"><ele>1590.16</ele><time>2019-08-17T09:41:46Z</time></trkpt><trkpt lat="45.1188983023" lon="6.4140795730"><ele>1593.04</ele><time>2019-08-17T09:41:58Z</time></trkpt><trkpt lat="45.1188726537" lon="6.4140607975"><ele>1593.52</ele><time>2019-08-17T09:42:02Z</time></trkpt><trkpt lat="45.1188257150" lon="6.4139691833"><ele>1596.89</ele><time>2019-08-17T09:42:15Z</time></trkpt><trkpt lat="45.1188783534" lon="6.4139318839"><ele>1598.33</ele><time>2019-08-17T09:42:28Z</time></trkpt><trkpt lat="45.1189960353" lon="6.4139715303"><ele>1602.17</ele><time>2019-08-17T09:42:42Z</time></trkpt><trkpt lat="45.1190771721" lon="6.4139490668"><ele>1605.06</ele><time>2019-08-17T09:42:54Z</time></trkpt><trkpt lat="45.1191530284" lon="6.4139464684"><ele>1606.50</ele><time>2019-08-17T09:43:02Z</time></trkpt><trkpt lat="45.1191780064" lon="6.4139369130"><ele>1607.46</ele><time>2019-08-17T09:43:04Z</time></trkpt><trkpt lat="45.1193147153" lon="6.4138911478"><ele>1609.86</ele><time>2019-08-17T09:43:20Z</time></trkpt><trkpt lat="45.1194079220" lon="6.4139355719"><ele>1613.23</ele><time>2019-08-17T09:43:34Z</time></trkpt><trkpt lat="45.1194520947" lon="6.4138912316"><ele>1616.11</ele><time>2019-08-17T09:43:46Z</time></trkpt><trkpt lat="45.1194450539" lon="6.4137779083"><ele>1619.48</ele><time>2019-08-17T09:43:58Z</time></trkpt><trkpt lat="45.1194277871" lon="6.4136769064"><ele>1622.36</ele><time>2019-08-17T09:44:10Z</time></trkpt><trkpt lat="45.1193984505" lon="6.4135565422"><ele>1625.25</ele><time>2019-08-17T09:44:23Z</time></trkpt><trkpt lat="45.1193635818" lon="6.4134425484"><ele>1628.61</ele><time>2019-08-17T09:44:37Z</time></trkpt><trkpt lat="45.1193195768" lon="6.4133804385"><ele>1631.98</ele><time>2019-08-17T09:44:51Z</time></trkpt><trkpt lat="45.1192873903" lon="6.4133267943"><ele>1634.86</ele><time>2019-08-17T09:45:03Z</time></trkpt><trkpt lat="45.1192663517" lon="6.4132771734"><ele>1638.22</ele><time>2019-08-17T09:45:20Z</time></trkpt><trkpt lat="45.1192490011" lon="6.4132980444"><ele>1640.15</ele><time>2019-08-17T09:45:35Z</time></trkpt><trkpt lat="45.1192593947" lon="6.4133094437"><ele>1633.42</ele><time>2019-08-17T09:45:45Z</time></trkpt><trkpt lat="45.1192606520" lon="6.4133069292"><ele>1644.95</ele><time>2019-08-17T09:45:46Z</time></trkpt><trkpt lat="45.1192569640" lon="6.4133053366"><ele>1643.51</ele><time>2019-08-17T09:45:47Z</time></trkpt><trkpt lat="45.1192447264" lon="6.4133271296"><ele>1642.55</ele><time>2019-08-17T09:46:10Z</time></trkpt><trkpt lat="45.1192231011" lon="6.4132760838"><ele>1644.47</ele><time>2019-08-17T09:46:38Z</time></trkpt><trkpt lat="45.1191688702" lon="6.4132150635"><ele>1645.91</ele><time>2019-08-17T09:46:45Z</time></trkpt><trkpt lat="45.1191018987" lon="6.4131469186"><ele>1649.28</ele><time>2019-08-17T09:46:56Z</time></trkpt><trkpt lat="45.1190154813" lon="6.4130971301"><ele>1651.68</ele><time>2019-08-17T09:47:08Z</time></trkpt><trkpt lat="45.1189609990" lon="6.4130027499"><ele>1655.05</ele><time>2019-08-17T09:47:21Z</time></trkpt><trkpt lat="45.1190585643" lon="6.4129263069"><ele>1658.41</ele><time>2019-08-17T09:47:35Z</time></trkpt><trkpt lat="45.1189841330" lon="6.4128887560"><ele>1661.30</ele><time>2019-08-17T09:47:48Z</time></trkpt><trkpt lat="45.1189588197" lon="6.4128143247"><ele>1665.14</ele><time>2019-08-17T09:48:02Z</time></trkpt><trkpt lat="45.1189885754" lon="6.4127396420"><ele>1668.51</ele><time>2019-08-17T09:48:16Z</time></trkpt><trkpt lat="45.1190379448" lon="6.4126529731"><ele>1671.39</ele><time>2019-08-17T09:48:29Z</time></trkpt><trkpt lat="45.1190118771" lon="6.4126196969"><ele>1672.83</ele><time>2019-08-17T09:48:46Z</time></trkpt><trkpt lat="45.1189736556" lon="6.4125789609"><ele>1674.75</ele><time>2019-08-17T09:49:03Z</time></trkpt><trkpt lat="45.1189207658" lon="6.4125188626"><ele>1678.12</ele><time>2019-08-17T09:49:14Z</time></trkpt><trkpt lat="45.1188599132" lon="6.4125228021"><ele>1680.04</ele><time>2019-08-17T09:49:27Z</time></trkpt><trkpt lat="45.1188490167" lon="6.4125338662"><ele>1681.48</ele><time>2019-08-17T09:49:51Z</time></trkpt><trkpt lat="45.1188562252" lon="6.4125037752"><ele>1681.48</ele><time>2019-08-17T09:50:08Z</time></trkpt><trkpt lat="45.1188586559" lon="6.4124980755"><ele>1686.29</ele><time>2019-08-17T09:50:11Z</time></trkpt><trkpt lat="45.1188415568" lon="6.4124779589"><ele>1683.89</ele><time>2019-08-17T09:50:14Z</time></trkpt><trkpt lat="45.1187952887" lon="6.4124718402"><ele>1685.33</ele><time>2019-08-17T09:50:21Z</time></trkpt><trkpt lat="45.1187767647" lon="6.4124579262"><ele>1686.29</ele><time>2019-08-17T09:50:23Z</time></trkpt><trkpt lat="45.1186482701" lon="6.4124031924"><ele>1688.69</ele><time>2019-08-17T09:50:36Z</time></trkpt><trkpt lat="45.1185969729" lon="6.4123180322"><ele>1692.06</ele><time>2019-08-17T09:50:47Z</time></trkpt><trkpt lat="45.1185172610" lon="6.4122809004"><ele>1695.42</ele><time>2019-08-17T09:50:59Z</time></trkpt><trkpt lat="45.1184362080" lon="6.4122239035"><ele>1698.31</ele><time>2019-08-17T09:51:13Z</time></trkpt><trkpt lat="45.1183914486" lon="6.4121327922"><ele>1701.19</ele><time>2019-08-17T09:51:26Z</time></trkpt><trkpt lat="45.1183351222" lon="6.4121393301"><ele>1702.63</ele><time>2019-08-17T09:51:43Z</time></trkpt><trkpt lat="45.1182896085" lon="6.4120038785"><ele>1706.48</ele><time>2019-08-17T09:51:58Z</time></trkpt><trkpt lat="45.1182316896" lon="6.4119059779"><ele>1709.36</ele><time>2019-08-17T09:52:13Z</time></trkpt><trkpt lat="45.1182105672" lon="6.4118749648"><ele>1710.80</ele><time>2019-08-17T09:52:19Z</time></trkpt><trkpt lat="45.1181470323" lon="6.4117684308"><ele>1714.17</ele><time>2019-08-17T09:52:35Z</time></trkpt><trkpt lat="45.1181490440" lon="6.4117520023"><ele>1717.53</ele><time>2019-08-17T09:52:47Z</time></trkpt><trkpt lat="45.1181522291" lon="6.4117174689"><ele>1717.53</ele><time>2019-08-17T09:52:56Z</time></trkpt><trkpt lat="45.1181264129" lon="6.4116623998"><ele>1718.97</ele><time>2019-08-17T09:53:04Z</time></trkpt><trkpt lat="45.1181745250" lon="6.4115824364"><ele>1722.34</ele><time>2019-08-17T09:53:19Z</time></trkpt><trkpt lat="45.1182210445" lon="6.4115553629"><ele>1725.22</ele><time>2019-08-17T09:53:32Z</time></trkpt><trkpt lat="45.1182399038" lon="6.4115950931"><ele>1727.15</ele><time>2019-08-17T09:53:46Z</time></trkpt><trkpt lat="45.1182458550" lon="6.4115831908"><ele>1729.07</ele><time>2019-08-17T09:54:03Z</time></trkpt><trkpt lat="45.1182405744" lon="6.4115850348"><ele>1718.97</ele><time>2019-08-17T09:54:07Z</time></trkpt><trkpt lat="45.1182393171" lon="6.4115941711"><ele>1734.36</ele><time>2019-08-17T09:54:08Z</time></trkpt><trkpt lat="45.1182426699" lon="6.4116023853"><ele>1730.51</ele><time>2019-08-17T09:54:09Z</time></trkpt><trkpt lat="45.1182479504" lon="6.4116164669"><ele>1729.07</ele><time>2019-08-17T09:54:11Z</time></trkpt><trkpt lat="45.1182953082" lon="6.4116601367"><ele>1730.99</ele><time>2019-08-17T09:54:20Z</time></trkpt><trkpt lat="45.1183527242" lon="6.4116729610"><ele>1734.36</ele><time>2019-08-17T09:54:31Z</time></trkpt><trkpt lat="45.1184336934" lon="6.4116635732"><ele>1736.76</ele><time>2019-08-17T09:54:43Z</time></trkpt><trkpt lat="45.1185048558" lon="6.4115805086"><ele>1739.16</ele><time>2019-08-17T09:54:56Z</time></trkpt><trkpt lat="45.1185382158" lon="6.4115093462"><ele>1742.05</ele><time>2019-08-17T09:55:09Z</time></trkpt><trkpt lat="45.1185621880" lon="6.4114758186"><ele>1743.97</ele><time>2019-08-17T09:55:24Z</time></trkpt><trkpt lat="45.1185958833" lon="6.4115282055"><ele>1744.93</ele><time>2019-08-17T09:55:30Z</time></trkpt><trkpt lat="45.1186803728" lon="6.4115335699"><ele>1746.85</ele><time>2019-08-17T09:55:44Z</time></trkpt><trkpt lat="45.1187326759" lon="6.4114348311"><ele>1750.22</ele><time>2019-08-17T09:55:56Z</time></trkpt><trkpt lat="45.1187092904" lon="6.4113120362"><ele>1753.10</ele><time>2019-08-17T09:56:09Z</time></trkpt><trkpt lat="45.1187537983" lon="6.4112253673"><ele>1755.02</ele><time>2019-08-17T09:56:23Z</time></trkpt><trkpt lat="45.1187469251" lon="6.4112140518"><ele>1756.47</ele><time>2019-08-17T09:56:42Z</time></trkpt><trkpt lat="45.1187565643" lon="6.4112068433"><ele>1757.43</ele><time>2019-08-17T09:57:08Z</time></trkpt><trkpt lat="45.1187426504" lon="6.4111894090"><ele>1759.35</ele><time>2019-08-17T09:57:41Z</time></trkpt><trkpt lat="45.1187361963" lon="6.4111811109"><ele>1759.83</ele><time>2019-08-17T09:57:49Z</time></trkpt><trkpt lat="45.1187279820" lon="6.4111095294"><ele>1761.75</ele><time>2019-08-17T09:58:01Z</time></trkpt><trkpt lat="45.1187463384" lon="6.4110165741"><ele>1764.16</ele><time>2019-08-17T09:58:14Z</time></trkpt><trkpt lat="45.1187448297" lon="6.4109154884"><ele>1767.04</ele><time>2019-08-17T09:58:25Z</time></trkpt><trkpt lat="45.1187423151" lon="6.4107968844"><ele>1769.92</ele><time>2019-08-17T09:58:37Z</time></trkpt><trkpt lat="45.1187300775" lon="6.4107636921"><ele>1770.89</ele><time>2019-08-17T09:58:40Z</time></trkpt><trkpt lat="45.1187187620" lon="6.4107347745"><ele>1771.37</ele><time>2019-08-17T09:58:43Z</time></trkpt><trkpt lat="45.1186411455" lon="6.4105916955"><ele>1774.25</ele><time>2019-08-17T09:58:57Z</time></trkpt><trkpt lat="45.1186329313" lon="6.4105704892"><ele>1774.73</ele><time>2019-08-17T09:58:59Z</time></trkpt><trkpt lat="45.1186552271" lon="6.4104273263"><ele>1777.13</ele><time>2019-08-17T09:59:13Z</time></trkpt><trkpt lat="45.1186730806" lon="6.4103406575"><ele>1778.58</ele><time>2019-08-17T09:59:21Z</time></trkpt><trkpt lat="45.1186935324" lon="6.4102850854"><ele>1779.54</ele><time>2019-08-17T09:59:26Z</time></trkpt><trkpt lat="45.1187487692" lon="6.4101982489"><ele>1780.98</ele><time>2019-08-17T09:59:36Z</time></trkpt><trkpt lat="45.1188033354" lon="6.4100874402"><ele>1783.38</ele><time>2019-08-17T09:59:50Z</time></trkpt><trkpt lat="45.1188439038" lon="6.4099956583"><ele>1786.75</ele><time>2019-08-17T10:00:03Z</time></trkpt><trkpt lat="45.1189030800" lon="6.4098819997"><ele>1789.63</ele><time>2019-08-17T10:00:17Z</time></trkpt><trkpt lat="45.1189167425" lon="6.4097365737"><ele>1792.52</ele><time>2019-08-17T10:00:31Z</time></trkpt><trkpt lat="45.1189945266" lon="6.4096191432"><ele>1794.92</ele><time>2019-08-17T10:00:45Z</time></trkpt><trkpt lat="45.1190626714" lon="6.4095289540"><ele>1796.84</ele><time>2019-08-17T10:01:01Z</time></trkpt><trkpt lat="45.1190632582" lon="6.4095209073"><ele>1797.32</ele><time>2019-08-17T10:01:02Z</time></trkpt><trkpt lat="45.1190495118" lon="6.4093179815"><ele>1798.28</ele><time>2019-08-17T10:01:18Z</time></trkpt><trkpt lat="45.1190496795" lon="6.4093263634"><ele>1787.23</ele><time>2019-08-17T10:01:28Z</time></trkpt><trkpt lat="45.1190492604" lon="6.4093239326"><ele>1806.45</ele><time>2019-08-17T10:01:29Z</time></trkpt><trkpt lat="45.1190487575" lon="6.4093234297"><ele>1790.59</ele><time>2019-08-17T10:01:30Z</time></trkpt><trkpt lat="45.1190505177" lon="6.4093205798"><ele>1807.90</ele><time>2019-08-17T10:01:31Z</time></trkpt><trkpt lat="45.1190539543" lon="6.4093158860"><ele>1801.17</ele><time>2019-08-17T10:01:32Z</time></trkpt><trkpt lat="45.1190418005" lon="6.4092666004"><ele>1799.73</ele><time>2019-08-17T10:01:47Z</time></trkpt><trkpt lat="45.1190231927" lon="6.4091294724"><ele>1801.17</ele><time>2019-08-17T10:02:01Z</time></trkpt><trkpt lat="45.1190200914" lon="6.4091141336"><ele>1801.65</ele><time>2019-08-17T10:02:02Z</time></trkpt><trkpt lat="45.1189773437" lon="6.4089305699"><ele>1803.57</ele><time>2019-08-17T10:02:15Z</time></trkpt><trkpt lat="45.1189491805" lon="6.4087740798"><ele>1806.45</ele><time>2019-08-17T10:02:30Z</time></trkpt><trkpt lat="45.1189350151" lon="6.4086527936"><ele>1808.86</ele><time>2019-08-17T10:02:44Z</time></trkpt><trkpt lat="45.1189165749" lon="6.4085055236"><ele>1811.74</ele><time>2019-08-17T10:02:58Z</time></trkpt><trkpt lat="45.1189594064" lon="6.4083738439"><ele>1814.63</ele><time>2019-08-17T10:03:13Z</time></trkpt><trkpt lat="45.1189631782" lon="6.4082920365"><ele>1817.51</ele><time>2019-08-17T10:03:24Z</time></trkpt><trkpt lat="45.1189974602" lon="6.4082139172"><ele>1819.91</ele><time>2019-08-17T10:03:38Z</time></trkpt><trkpt lat="45.1190329995" lon="6.4081176929"><ele>1823.28</ele><time>2019-08-17T10:03:50Z</time></trkpt><trkpt lat="45.1190230250" lon="6.4080241509"><ele>1825.68</ele><time>2019-08-17T10:04:07Z</time></trkpt><trkpt lat="45.1190213487" lon="6.4078737795"><ele>1828.56</ele><time>2019-08-17T10:04:22Z</time></trkpt><trkpt lat="45.1190332510" lon="6.4078084845"><ele>1829.53</ele><time>2019-08-17T10:04:29Z</time></trkpt><trkpt lat="45.1190840453" lon="6.4076735359"><ele>1832.41</ele><time>2019-08-17T10:04:42Z</time></trkpt><trkpt lat="45.1191557944" lon="6.4075768925"><ele>1834.33</ele><time>2019-08-17T10:04:56Z</time></trkpt><trkpt lat="45.1192117017" lon="6.4074016269"><ele>1835.77</ele><time>2019-08-17T10:05:11Z</time></trkpt><trkpt lat="45.1192185748" lon="6.4073737152"><ele>1836.26</ele><time>2019-08-17T10:05:13Z</time></trkpt><trkpt lat="45.1192648429" lon="6.4071579650"><ele>1838.18</ele><time>2019-08-17T10:05:28Z</time></trkpt><trkpt lat="45.1192944311" lon="6.4069637563"><ele>1839.62</ele><time>2019-08-17T10:05:42Z</time></trkpt><trkpt lat="45.1192806847" lon="6.4068366028"><ele>1841.54</ele><time>2019-08-17T10:05:53Z</time></trkpt><trkpt lat="45.1193474047" lon="6.4067145623"><ele>1843.95</ele><time>2019-08-17T10:06:07Z</time></trkpt><trkpt lat="45.1193354186" lon="6.4065695554"><ele>1846.35</ele><time>2019-08-17T10:06:22Z</time></trkpt><trkpt lat="45.1193461474" lon="6.4064424857"><ele>1849.23</ele><time>2019-08-17T10:06:35Z</time></trkpt><trkpt lat="45.1193194091" lon="6.4063048549"><ele>1852.12</ele><time>2019-08-17T10:06:48Z</time></trkpt><trkpt lat="45.1192888152" lon="6.4061928727"><ele>1855.00</ele><time>2019-08-17T10:07:01Z</time></trkpt><trkpt lat="45.1192757394" lon="6.4061061200"><ele>1856.92</ele><time>2019-08-17T10:07:12Z</time></trkpt><trkpt lat="45.1192940120" lon="6.4059630409"><ele>1859.33</ele><time>2019-08-17T10:07:26Z</time></trkpt><trkpt lat="45.1192776673" lon="6.4058689959"><ele>1861.25</ele><time>2019-08-17T10:07:36Z</time></trkpt><trkpt lat="45.1192590594" lon="6.4057692513"><ele>1861.73</ele><time>2019-08-17T10:07:44Z</time></trkpt><trkpt lat="45.1192614064" lon="6.4057404175"><ele>1862.21</ele><time>2019-08-17T10:07:46Z</time></trkpt><trkpt lat="45.1193125360" lon="6.4056257531"><ele>1864.61</ele><time>2019-08-17T10:07:59Z</time></trkpt><trkpt lat="45.1193871349" lon="6.4055358153"><ele>1867.02</ele><time>2019-08-17T10:08:14Z</time></trkpt><trkpt lat="45.1194391865" lon="6.4054460451"><ele>1870.38</ele><time>2019-08-17T10:08:28Z</time></trkpt><trkpt lat="45.1194373425" lon="6.4054233301"><ele>1871.34</ele><time>2019-08-17T10:08:42Z</time></trkpt><trkpt lat="45.1194527652" lon="6.4054147806"><ele>1872.79</ele><time>2019-08-17T10:09:11Z</time></trkpt><trkpt lat="45.1195261907" lon="6.4053462166"><ele>1875.67</ele><time>2019-08-17T10:09:27Z</time></trkpt><trkpt lat="45.1195395179" lon="6.4053030498"><ele>1877.11</ele><time>2019-08-17T10:09:42Z</time></trkpt><trkpt lat="45.1195938326" lon="6.4052261878"><ele>1879.03</ele><time>2019-08-17T10:10:02Z</time></trkpt><trkpt lat="45.1196126081" lon="6.4052213263"><ele>1880.00</ele><time>2019-08-17T10:10:06Z</time></trkpt><trkpt lat="45.1196489856" lon="6.4052041434"><ele>1880.96</ele><time>2019-08-17T10:10:11Z</time></trkpt><trkpt lat="45.1197190583" lon="6.4051458053"><ele>1882.40</ele><time>2019-08-17T10:10:23Z</time></trkpt><trkpt lat="45.1197973453" lon="6.4051070809"><ele>1885.28</ele><time>2019-08-17T10:10:35Z</time></trkpt><trkpt lat="45.1198230777" lon="6.4050028101"><ele>1888.65</ele><time>2019-08-17T10:10:50Z</time></trkpt><trkpt lat="45.1198575273" lon="6.4048614912"><ele>1892.01</ele><time>2019-08-17T10:11:07Z</time></trkpt><trkpt lat="45.1199068129" lon="6.4047507662"><ele>1894.90</ele><time>2019-08-17T10:11:23Z</time></trkpt><trkpt lat="45.1199319586" lon="6.4046628401"><ele>1897.30</ele><time>2019-08-17T10:11:36Z</time></trkpt><trkpt lat="45.1200054679" lon="6.4045618381"><ele>1900.18</ele><time>2019-08-17T10:11:50Z</time></trkpt><trkpt lat="45.1200782228" lon="6.4044446591"><ele>1903.07</ele><time>2019-08-17T10:12:07Z</time></trkpt><trkpt lat="45.1200943161" lon="6.4044055995"><ele>1903.55</ele><time>2019-08-17T10:12:12Z</time></trkpt><trkpt lat="45.1201455295" lon="6.4043092076"><ele>1905.95</ele><time>2019-08-17T10:12:26Z</time></trkpt><trkpt lat="45.1201609522" lon="6.4041811321"><ele>1909.32</ele><time>2019-08-17T10:12:42Z</time></trkpt><trkpt lat="45.1202027779" lon="6.4040554874"><ele>1911.72</ele><time>2019-08-17T10:12:57Z</time></trkpt><trkpt lat="45.1202644687" lon="6.4039712492"><ele>1913.16</ele><time>2019-08-17T10:13:07Z</time></trkpt><trkpt lat="45.1202810649" lon="6.4039558265"><ele>1913.16</ele><time>2019-08-17T10:13:09Z</time></trkpt><trkpt lat="45.1203008462" lon="6.4039312676"><ele>1913.16</ele><time>2019-08-17T10:13:12Z</time></trkpt><trkpt lat="45.1203136705" lon="6.4037630428"><ele>1914.60</ele><time>2019-08-17T10:13:28Z</time></trkpt><trkpt lat="45.1203358825" lon="6.4036026131"><ele>1916.53</ele><time>2019-08-17T10:13:43Z</time></trkpt><trkpt lat="45.1203491259" lon="6.4034153614"><ele>1918.45</ele><time>2019-08-17T10:13:56Z</time></trkpt><trkpt lat="45.1203137543" lon="6.4033277705"><ele>1918.45</ele><time>2019-08-17T10:14:02Z</time></trkpt><trkpt lat="45.1202197094" lon="6.4031150378"><ele>1919.89</ele><time>2019-08-17T10:14:19Z</time></trkpt><trkpt lat="45.1201615389" lon="6.4029237628"><ele>1921.81</ele><time>2019-08-17T10:14:34Z</time></trkpt><trkpt lat="45.1201778837" lon="6.4027860481"><ele>1923.74</ele><time>2019-08-17T10:14:47Z</time></trkpt><trkpt lat="45.1201866847" lon="6.4026339166"><ele>1926.14</ele><time>2019-08-17T10:15:00Z</time></trkpt><trkpt lat="45.1201638021" lon="6.4025547076"><ele>1926.62</ele><time>2019-08-17T10:15:08Z</time></trkpt><trkpt lat="45.1200543344" lon="6.4024758339"><ele>1925.18</ele><time>2019-08-17T10:15:21Z</time></trkpt><trkpt lat="45.1199640613" lon="6.4022589102"><ele>1925.18</ele><time>2019-08-17T10:15:37Z</time></trkpt><trkpt lat="45.1199633069" lon="6.4020541403"><ele>1925.66</ele><time>2019-08-17T10:15:53Z</time></trkpt><trkpt lat="45.1199465431" lon="6.4019484445"><ele>1927.58</ele><time>2019-08-17T10:16:05Z</time></trkpt><trkpt lat="45.1199089084" lon="6.4017961454"><ele>1929.50</ele><time>2019-08-17T10:16:20Z</time></trkpt><trkpt lat="45.1199076511" lon="6.4017036092"><ele>1930.46</ele><time>2019-08-17T10:16:27Z</time></trkpt><trkpt lat="45.1198731177" lon="6.4015079755"><ele>1932.39</ele><time>2019-08-17T10:16:43Z</time></trkpt><trkpt lat="45.1198253408" lon="6.4013922215"><ele>1934.79</ele><time>2019-08-17T10:16:56Z</time></trkpt><trkpt lat="45.1198364887" lon="6.4013643935"><ele>1935.75</ele><time>2019-08-17T10:17:01Z</time></trkpt><trkpt lat="45.1198553480" lon="6.4012720250"><ele>1937.19</ele><time>2019-08-17T10:17:13Z</time></trkpt><trkpt lat="45.1198271848" lon="6.4011252578"><ele>1939.12</ele><time>2019-08-17T10:17:27Z</time></trkpt><trkpt lat="45.1197893824" lon="6.4010040555"><ele>1941.52</ele><time>2019-08-17T10:17:40Z</time></trkpt><trkpt lat="45.1197509095" lon="6.4008695260"><ele>1943.44</ele><time>2019-08-17T10:17:54Z</time></trkpt><trkpt lat="45.1197312959" lon="6.4007815160"><ele>1945.36</ele><time>2019-08-17T10:18:04Z</time></trkpt><trkpt lat="45.1196986064" lon="6.4006111119"><ele>1947.29</ele><time>2019-08-17T10:18:20Z</time></trkpt><trkpt lat="45.1196856983" lon="6.4004782587"><ele>1949.21</ele><time>2019-08-17T10:18:33Z</time></trkpt><trkpt lat="45.1196402684" lon="6.4003421366"><ele>1951.13</ele><time>2019-08-17T10:18:46Z</time></trkpt><trkpt lat="45.1196043938" lon="6.4001725707"><ele>1953.06</ele><time>2019-08-17T10:19:01Z</time></trkpt><trkpt lat="45.1196561940" lon="6.4000772685"><ele>1954.98</ele><time>2019-08-17T10:19:14Z</time></trkpt><trkpt lat="45.1196581218" lon="6.4000335988"><ele>1956.42</ele><time>2019-08-17T10:19:21Z</time></trkpt><trkpt lat="45.1196626481" lon="6.3999443315"><ele>1955.94</ele><time>2019-08-17T10:19:34Z</time></trkpt><trkpt lat="45.1196701080" lon="6.3999572396"><ele>1957.38</ele><time>2019-08-17T10:19:36Z</time></trkpt><trkpt lat="45.1196717843" lon="6.3999656215"><ele>1957.38</ele><time>2019-08-17T10:19:41Z</time></trkpt><trkpt lat="45.1196432859" lon="6.3998864964"><ele>1957.86</ele><time>2019-08-17T10:20:00Z</time></trkpt><trkpt lat="45.1196267735" lon="6.3998072874"><ele>1959.30</ele><time>2019-08-17T10:20:07Z</time></trkpt><trkpt lat="45.1196256001" lon="6.3997962233"><ele>1959.30</ele><time>2019-08-17T10:20:08Z</time></trkpt><trkpt lat="45.1196136978" lon="6.3996815588"><ele>1960.27</ele><time>2019-08-17T10:20:18Z</time></trkpt><trkpt lat="45.1196332276" lon="6.3995048683"><ele>1962.19</ele><time>2019-08-17T10:20:33Z</time></trkpt><trkpt lat="45.1196371671" lon="6.3993550837"><ele>1963.63</ele><time>2019-08-17T10:20:47Z</time></trkpt><trkpt lat="45.1196329761" lon="6.3991944026"><ele>1966.51</ele><time>2019-08-17T10:21:03Z</time></trkpt><trkpt lat="45.1196318027" lon="6.3990666624"><ele>1968.44</ele><time>2019-08-17T10:21:16Z</time></trkpt><trkpt lat="45.1196378376" lon="6.3989436161"><ele>1970.84</ele><time>2019-08-17T10:21:31Z</time></trkpt><trkpt lat="45.1196322218" lon="6.3988205697"><ele>1972.76</ele><time>2019-08-17T10:21:45Z</time></trkpt><trkpt lat="45.1196556073" lon="6.3986941706"><ele>1976.13</ele><time>2019-08-17T10:21:59Z</time></trkpt><trkpt lat="45.1197051443" lon="6.3985804282"><ele>1978.05</ele><time>2019-08-17T10:22:13Z</time></trkpt><trkpt lat="45.1197551005" lon="6.3984905742"><ele>1980.45</ele><time>2019-08-17T10:22:26Z</time></trkpt><trkpt lat="45.1197712775" lon="6.3983980380"><ele>1982.86</ele><time>2019-08-17T10:22:39Z</time></trkpt><trkpt lat="45.1197348163" lon="6.3982459065"><ele>1985.26</ele><time>2019-08-17T10:22:54Z</time></trkpt><trkpt lat="45.1197250932" lon="6.3981087785"><ele>1987.66</ele><time>2019-08-17T10:23:10Z</time></trkpt><trkpt lat="45.1197465509" lon="6.3980140630"><ele>1990.55</ele><time>2019-08-17T10:23:22Z</time></trkpt><trkpt lat="45.1197360735" lon="6.3978802878"><ele>1992.95</ele><time>2019-08-17T10:23:37Z</time></trkpt><trkpt lat="45.1197576988" lon="6.3978066947"><ele>1994.39</ele><time>2019-08-17T10:23:48Z</time></trkpt><trkpt lat="45.1197929028" lon="6.3977158349"><ele>1997.28</ele><time>2019-08-17T10:24:02Z</time></trkpt><trkpt lat="45.1198161207" lon="6.3976027630"><ele>1999.68</ele><time>2019-08-17T10:24:17Z</time></trkpt><trkpt lat="45.1198063977" lon="6.3974907808"><ele>2001.60</ele><time>2019-08-17T10:24:29Z</time></trkpt><trkpt lat="45.1198161207" lon="6.3973079715"><ele>2004.01</ele><time>2019-08-17T10:24:45Z</time></trkpt><trkpt lat="45.1198343933" lon="6.3971340470"><ele>2006.89</ele><time>2019-08-17T10:24:59Z</time></trkpt><trkpt lat="45.1198382489" lon="6.3970306143"><ele>2008.81</ele><time>2019-08-17T10:25:12Z</time></trkpt><trkpt lat="45.1198496483" lon="6.3969491422"><ele>2010.25</ele><time>2019-08-17T10:25:23Z</time></trkpt><trkpt lat="45.1198417693" lon="6.3969343901"><ele>2009.29</ele><time>2019-08-17T10:25:43Z</time></trkpt><trkpt lat="45.1198550966" lon="6.3969254214"><ele>2010.25</ele><time>2019-08-17T10:26:18Z</time></trkpt><trkpt lat="45.1198526658" lon="6.3969475497"><ele>2010.73</ele><time>2019-08-17T10:26:42Z</time></trkpt><trkpt lat="45.1198468823" lon="6.3969679177"><ele>2011.22</ele><time>2019-08-17T10:27:14Z</time></trkpt><trkpt lat="45.1198479719" lon="6.3969482202"><ele>2012.18</ele><time>2019-08-17T10:27:47Z</time></trkpt><trkpt lat="45.1198408473" lon="6.3969375752"><ele>2013.14</ele><time>2019-08-17T10:28:26Z</time></trkpt><trkpt lat="45.1198480558" lon="6.3969273493"><ele>2014.10</ele><time>2019-08-17T10:29:08Z</time></trkpt><trkpt lat="45.1198457927" lon="6.3969286904"><ele>2016.02</ele><time>2019-08-17T10:29:26Z</time></trkpt><trkpt lat="45.1198606286" lon="6.3969478011"><ele>2017.46</ele><time>2019-08-17T10:29:54Z</time></trkpt><trkpt lat="45.1198682562" lon="6.3969446160"><ele>2017.94</ele><time>2019-08-17T10:30:27Z</time></trkpt><trkpt lat="45.1198633108" lon="6.3968201447"><ele>2020.35</ele><time>2019-08-17T10:30:40Z</time></trkpt><trkpt lat="45.1198667474" lon="6.3966748025"><ele>2022.75</ele><time>2019-08-17T10:30:54Z</time></trkpt><trkpt lat="45.1198843494" lon="6.3965616468"><ele>2025.15</ele><time>2019-08-17T10:31:09Z</time></trkpt><trkpt lat="45.1199255884" lon="6.3964710385"><ele>2027.56</ele><time>2019-08-17T10:31:23Z</time></trkpt><trkpt lat="45.1199243311" lon="6.3963429630"><ele>2029.96</ele><time>2019-08-17T10:31:37Z</time></trkpt><trkpt lat="45.1199322939" lon="6.3962324895"><ele>2032.36</ele><time>2019-08-17T10:31:50Z</time></trkpt><trkpt lat="45.1199654024" lon="6.3961246982"><ele>2034.29</ele><time>2019-08-17T10:32:03Z</time></trkpt><trkpt lat="45.1199593674" lon="6.3960024901"><ele>2036.21</ele><time>2019-08-17T10:32:15Z</time></trkpt><trkpt lat="45.1199633908" lon="6.3959091157"><ele>2037.65</ele><time>2019-08-17T10:32:27Z</time></trkpt><trkpt lat="45.1199698448" lon="6.3958994765"><ele>2038.61</ele><time>2019-08-17T10:32:49Z</time></trkpt><trkpt lat="45.1199597865" lon="6.3958651107"><ele>2039.09</ele><time>2019-08-17T10:33:03Z</time></trkpt><trkpt lat="45.1199574396" lon="6.3958604168"><ele>2033.33</ele><time>2019-08-17T10:33:05Z</time></trkpt><trkpt lat="45.1199613791" lon="6.3958580699"><ele>2044.38</ele><time>2019-08-17T10:33:06Z</time></trkpt><trkpt lat="45.1199715212" lon="6.3958496880"><ele>2041.02</ele><time>2019-08-17T10:33:07Z</time></trkpt><trkpt lat="45.1199880335" lon="6.3958392944"><ele>2040.05</ele><time>2019-08-17T10:33:09Z</time></trkpt><trkpt lat="45.1199979242" lon="6.3958151545"><ele>2041.02</ele><time>2019-08-17T10:33:13Z</time></trkpt><trkpt lat="45.1200057194" lon="6.3958019111"><ele>2033.81</ele><time>2019-08-17T10:33:15Z</time></trkpt><trkpt lat="45.1200139336" lon="6.3957925234"><ele>2043.42</ele><time>2019-08-17T10:33:16Z</time></trkpt><trkpt lat="45.1200305298" lon="6.3957684673"><ele>2041.98</ele><time>2019-08-17T10:33:20Z</time></trkpt><trkpt lat="45.1200611237" lon="6.3956839778"><ele>2043.42</ele><time>2019-08-17T10:33:30Z</time></trkpt><trkpt lat="45.1200610399" lon="6.3956383802"><ele>2044.38</ele><time>2019-08-17T10:33:34Z</time></trkpt><trkpt lat="45.1201111637" lon="6.3954943791"><ele>2045.34</ele><time>2019-08-17T10:33:45Z</time></trkpt><trkpt lat="45.1201322023" lon="6.3954284973"><ele>2045.82</ele><time>2019-08-17T10:33:51Z</time></trkpt><trkpt lat="45.1201674901" lon="6.3953303453"><ele>2046.78</ele><time>2019-08-17T10:33:58Z</time></trkpt><trkpt lat="45.1201725192" lon="6.3951400761"><ele>2049.19</ele><time>2019-08-17T10:34:14Z</time></trkpt><trkpt lat="45.1202044543" lon="6.3950730208"><ele>2049.67</ele><time>2019-08-17T10:34:20Z</time></trkpt><trkpt lat="45.1202089805" lon="6.3950571790"><ele>2049.67</ele><time>2019-08-17T10:34:22Z</time></trkpt><trkpt lat="45.1202249900" lon="6.3949238230"><ele>2051.11</ele><time>2019-08-17T10:34:32Z</time></trkpt><trkpt lat="45.1202605292" lon="6.3948190492"><ele>2051.59</ele><time>2019-08-17T10:34:40Z</time></trkpt><trkpt lat="45.1202836633" lon="6.3945727050"><ele>2053.51</ele><time>2019-08-17T10:34:56Z</time></trkpt><trkpt lat="45.1202864293" lon="6.3945386745"><ele>2053.51</ele><time>2019-08-17T10:34:58Z</time></trkpt><trkpt lat="45.1202952303" lon="6.3944883831"><ele>2053.99</ele><time>2019-08-17T10:35:02Z</time></trkpt><trkpt lat="45.1202969905" lon="6.3944542687"><ele>2053.99</ele><time>2019-08-17T10:35:04Z</time></trkpt><trkpt lat="45.1202984992" lon="6.3944235072"><ele>2054.47</ele><time>2019-08-17T10:35:06Z</time></trkpt><trkpt lat="45.1203046180" lon="6.3942269515"><ele>2056.88</ele><time>2019-08-17T10:35:21Z</time></trkpt><trkpt lat="45.1203212980" lon="6.3940813579"><ele>2058.32</ele><time>2019-08-17T10:35:33Z</time></trkpt><trkpt lat="45.1203173585" lon="6.3940686174"><ele>2058.80</ele><time>2019-08-17T10:35:34Z</time></trkpt><trkpt lat="45.1203198731" lon="6.3939259574"><ele>2060.72</ele><time>2019-08-17T10:35:47Z</time></trkpt><trkpt lat="45.1203433424" lon="6.3937967923"><ele>2062.17</ele><time>2019-08-17T10:35:59Z</time></trkpt><trkpt lat="45.1203506347" lon="6.3936567307"><ele>2064.09</ele><time>2019-08-17T10:36:12Z</time></trkpt><trkpt lat="45.1203291770" lon="6.3935051858"><ele>2065.53</ele><time>2019-08-17T10:36:24Z</time></trkpt><trkpt lat="45.1203036122" lon="6.3933553174"><ele>2067.45</ele><time>2019-08-17T10:36:37Z</time></trkpt><trkpt lat="45.1203013491" lon="6.3932276610"><ele>2069.38</ele><time>2019-08-17T10:36:51Z</time></trkpt><trkpt lat="45.1202931348" lon="6.3930979930"><ele>2072.74</ele><time>2019-08-17T10:37:05Z</time></trkpt><trkpt lat="45.1202754490" lon="6.3929417543"><ele>2075.62</ele><time>2019-08-17T10:37:20Z</time></trkpt><trkpt lat="45.1202628762" lon="6.3927752059"><ele>2077.55</ele><time>2019-08-17T10:37:34Z</time></trkpt><trkpt lat="45.1202808134" lon="6.3927519880"><ele>2076.59</ele><time>2019-08-17T10:37:45Z</time></trkpt><trkpt lat="45.1202710066" lon="6.3927423488"><ele>2078.99</ele><time>2019-08-17T10:37:53Z</time></trkpt><trkpt lat="45.1202739403" lon="6.3927431870"><ele>2077.55</ele><time>2019-08-17T10:37:55Z</time></trkpt><trkpt lat="45.1202745270" lon="6.3927407563"><ele>2078.51</ele><time>2019-08-17T10:38:06Z</time></trkpt><trkpt lat="45.1202682406" lon="6.3927269261"><ele>2078.99</ele><time>2019-08-17T10:38:44Z</time></trkpt><trkpt lat="45.1202696655" lon="6.3927231543"><ele>2074.66</ele><time>2019-08-17T10:39:06Z</time></trkpt><trkpt lat="45.1202689949" lon="6.3927229866"><ele>2083.31</ele><time>2019-08-17T10:39:07Z</time></trkpt><trkpt lat="45.1202539075" lon="6.3927114196"><ele>2079.95</ele><time>2019-08-17T10:39:09Z</time></trkpt><trkpt lat="45.1202238165" lon="6.3926750422"><ele>2079.95</ele><time>2019-08-17T10:39:13Z</time></trkpt><trkpt lat="45.1202172786" lon="6.3924860302"><ele>2080.91</ele><time>2019-08-17T10:39:28Z</time></trkpt><trkpt lat="45.1202364732" lon="6.3924758881"><ele>2081.87</ele><time>2019-08-17T10:39:50Z</time></trkpt><trkpt lat="45.1202468667" lon="6.3924875390"><ele>2081.87</ele><time>2019-08-17T10:40:09Z</time></trkpt><trkpt lat="45.1202312764" lon="6.3924458809"><ele>2082.83</ele><time>2019-08-17T10:40:23Z</time></trkpt><trkpt lat="45.1202036999" lon="6.3923329767"><ele>2083.79</ele><time>2019-08-17T10:40:39Z</time></trkpt><trkpt lat="45.1201876905" lon="6.3922898099"><ele>2083.79</ele><time>2019-08-17T10:41:03Z</time></trkpt><trkpt lat="45.1202057116" lon="6.3921878021"><ele>2083.79</ele><time>2019-08-17T10:41:11Z</time></trkpt><trkpt lat="45.1202170271" lon="6.3921649195"><ele>2084.28</ele><time>2019-08-17T10:41:13Z</time></trkpt><trkpt lat="45.1202430949" lon="6.3920374308"><ele>2084.28</ele><time>2019-08-17T10:41:21Z</time></trkpt><trkpt lat="45.1202381495" lon="6.3918599859"><ele>2082.83</ele><time>2019-08-17T10:41:32Z</time></trkpt><trkpt lat="45.1202597748" lon="6.3916256279"><ele>2083.31</ele><time>2019-08-17T10:41:48Z</time></trkpt><trkpt lat="45.1202603616" lon="6.3914686348"><ele>2083.31</ele><time>2019-08-17T10:41:58Z</time></trkpt><trkpt lat="45.1202753652" lon="6.3912917767"><ele>2083.79</ele><time>2019-08-17T10:42:11Z</time></trkpt><trkpt lat="45.1202805620" lon="6.3912528008"><ele>2084.76</ele><time>2019-08-17T10:42:14Z</time></trkpt><trkpt lat="45.1203344576" lon="6.3911056146"><ele>2086.20</ele><time>2019-08-17T10:42:26Z</time></trkpt><trkpt lat="45.1203781273" lon="6.3910423312"><ele>2089.56</ele><time>2019-08-17T10:42:35Z</time></trkpt><trkpt lat="45.1203914545" lon="6.3910138328"><ele>2087.16</ele><time>2019-08-17T10:42:38Z</time></trkpt><trkpt lat="45.1203889400" lon="6.3909662236"><ele>2088.60</ele><time>2019-08-17T10:42:48Z</time></trkpt><trkpt lat="45.1203893591" lon="6.3909636252"><ele>2088.60</ele><time>2019-08-17T10:42:53Z</time></trkpt><trkpt lat="45.1203899458" lon="6.3906928059"><ele>2088.60</ele><time>2019-08-17T10:43:11Z</time></trkpt><trkpt lat="45.1204085536" lon="6.3905988447"><ele>2089.08</ele><time>2019-08-17T10:43:16Z</time></trkpt><trkpt lat="45.1204228867" lon="6.3905084878"><ele>2089.08</ele><time>2019-08-17T10:43:22Z</time></trkpt><trkpt lat="45.1204399858" lon="6.3904560171"><ele>2089.56</ele><time>2019-08-17T10:43:26Z</time></trkpt><trkpt lat="45.1204456855" lon="6.3904354814"><ele>2089.56</ele><time>2019-08-17T10:43:28Z</time></trkpt><trkpt lat="45.1204834878" lon="6.3901762292"><ele>2091.00</ele><time>2019-08-17T10:43:44Z</time></trkpt><trkpt lat="45.1204985753" lon="6.3901012111"><ele>2091.49</ele><time>2019-08-17T10:43:49Z</time></trkpt><trkpt lat="45.1205169316" lon="6.3900367543"><ele>2091.97</ele><time>2019-08-17T10:43:54Z</time></trkpt><trkpt lat="45.1205349527" lon="6.3899621554"><ele>2092.45</ele><time>2019-08-17T10:43:59Z</time></trkpt><trkpt lat="45.1205461845" lon="6.3898948487"><ele>2092.93</ele><time>2019-08-17T10:44:03Z</time></trkpt><trkpt lat="45.1205549017" lon="6.3898307271"><ele>2092.93</ele><time>2019-08-17T10:44:07Z</time></trkpt><trkpt lat="45.1205922011" lon="6.3895600755"><ele>2094.37</ele><time>2019-08-17T10:44:24Z</time></trkpt><trkpt lat="45.1206139941" lon="6.3893193472"><ele>2095.81</ele><time>2019-08-17T10:44:39Z</time></trkpt><trkpt lat="45.1206158381" lon="6.3892806228"><ele>2095.81</ele><time>2019-08-17T10:44:42Z</time></trkpt><trkpt lat="45.1206186041" lon="6.3892377913"><ele>2096.29</ele><time>2019-08-17T10:44:46Z</time></trkpt><trkpt lat="45.1206383854" lon="6.3891739212"><ele>2097.25</ele><time>2019-08-17T10:44:51Z</time></trkpt><trkpt lat="45.1206376310" lon="6.3890984003"><ele>2098.21</ele><time>2019-08-17T10:44:57Z</time></trkpt><trkpt lat="45.1206429955" lon="6.3890731707"><ele>2098.21</ele><time>2019-08-17T10:44:59Z</time></trkpt><trkpt lat="45.1206517965" lon="6.3890123181"><ele>2099.18</ele><time>2019-08-17T10:45:04Z</time></trkpt><trkpt lat="45.1206579991" lon="6.3889883459"><ele>2099.66</ele><time>2019-08-17T10:45:06Z</time></trkpt><trkpt lat="45.1206480246" lon="6.3888515532"><ele>2101.10</ele><time>2019-08-17T10:45:17Z</time></trkpt><trkpt lat="45.1206213702" lon="6.3886331208"><ele>2103.50</ele><time>2019-08-17T10:45:33Z</time></trkpt><trkpt lat="45.1206185203" lon="6.3884455338"><ele>2105.91</ele><time>2019-08-17T10:45:49Z</time></trkpt><trkpt lat="45.1206212025" lon="6.3884028699"><ele>2107.35</ele><time>2019-08-17T10:45:59Z</time></trkpt><trkpt lat="45.1206278242" lon="6.3884144370"><ele>2105.42</ele><time>2019-08-17T10:46:03Z</time></trkpt><trkpt lat="45.1206128206" lon="6.3883315399"><ele>2105.42</ele><time>2019-08-17T10:46:15Z</time></trkpt><trkpt lat="45.1206082944" lon="6.3883035444"><ele>2107.83</ele><time>2019-08-17T10:46:21Z</time></trkpt><trkpt lat="45.1206059474" lon="6.3883029576"><ele>2106.39</ele><time>2019-08-17T10:46:23Z</time></trkpt><trkpt lat="45.1206253935" lon="6.3883260917"><ele>2107.83</ele><time>2019-08-17T10:46:38Z</time></trkpt><trkpt lat="45.1206563227" lon="6.3883286901"><ele>2108.31</ele><time>2019-08-17T10:46:48Z</time></trkpt><trkpt lat="45.1206693985" lon="6.3883200567"><ele>2108.31</ele><time>2019-08-17T10:47:10Z</time></trkpt><trkpt lat="45.1206950471" lon="6.3883249182"><ele>2108.79</ele><time>2019-08-17T10:47:34Z</time></trkpt><trkpt lat="45.1206553169" lon="6.3882963359"><ele>2109.27</ele><time>2019-08-17T10:48:07Z</time></trkpt><trkpt lat="45.1206512097" lon="6.3883076515"><ele>2109.27</ele><time>2019-08-17T10:48:37Z</time></trkpt><trkpt lat="45.1206553169" lon="6.3883111719"><ele>2109.75</ele><time>2019-08-17T10:49:02Z</time></trkpt><trkpt lat="45.1206518803" lon="6.3883089088"><ele>2110.23</ele><time>2019-08-17T10:49:36Z</time></trkpt><trkpt lat="45.1206643693" lon="6.3883035444"><ele>2110.71</ele><time>2019-08-17T10:50:06Z</time></trkpt><trkpt lat="45.1206805464" lon="6.3883058913"><ele>2110.71</ele><time>2019-08-17T10:50:37Z</time></trkpt><trkpt lat="45.1206834801" lon="6.3883037958"><ele>2111.19</ele><time>2019-08-17T10:50:57Z</time></trkpt><trkpt lat="45.1206688117" lon="6.3883118425"><ele>2111.19</ele><time>2019-08-17T10:51:07Z</time></trkpt><trkpt lat="45.1206556521" lon="6.3881811686"><ele>2111.19</ele><time>2019-08-17T10:51:16Z</time></trkpt><trkpt lat="45.1206530537" lon="6.3881163765"><ele>2111.67</ele><time>2019-08-17T10:51:33Z</time></trkpt><trkpt lat="45.1206616033" lon="6.3880839385"><ele>2111.67</ele><time>2019-08-17T10:51:37Z</time></trkpt><trkpt lat="45.1206688955" lon="6.3880416937"><ele>2112.63</ele><time>2019-08-17T10:51:40Z</time></trkpt><trkpt lat="45.1206705719" lon="6.3880197331"><ele>2112.63</ele><time>2019-08-17T10:51:42Z</time></trkpt><trkpt lat="45.1206763554" lon="6.3878303859"><ele>2114.56</ele><time>2019-08-17T10:51:58Z</time></trkpt><trkpt lat="45.1206818037" lon="6.3877841178"><ele>2114.56</ele><time>2019-08-17T10:52:01Z</time></trkpt><trkpt lat="45.1206828933" lon="6.3877385203"><ele>2115.52</ele><time>2019-08-17T10:52:04Z</time></trkpt><trkpt lat="45.1206848212" lon="6.3876754045"><ele>2116.48</ele><time>2019-08-17T10:52:20Z</time></trkpt><trkpt lat="45.1206789538" lon="6.3876997959"><ele>2116.48</ele><time>2019-08-17T10:52:38Z</time></trkpt><trkpt lat="45.1206683926" lon="6.3876938447"><ele>2115.04</ele><time>2019-08-17T10:52:47Z</time></trkpt><trkpt lat="45.1206745952" lon="6.3876965269"><ele>2116.48</ele><time>2019-08-17T10:52:49Z</time></trkpt><trkpt lat="45.1206709910" lon="6.3876881450"><ele>2111.67</ele><time>2019-08-17T10:52:56Z</time></trkpt><trkpt lat="45.1206726674" lon="6.3876800146"><ele>2119.36</ele><time>2019-08-17T10:52:57Z</time></trkpt><trkpt lat="45.1206906047" lon="6.3876370993"><ele>2116.48</ele><time>2019-08-17T10:53:00Z</time></trkpt><trkpt lat="45.1207421534" lon="6.3874842972"><ele>2116.96</ele><time>2019-08-17T10:53:14Z</time></trkpt><trkpt lat="45.1207639463" lon="6.3874538708"><ele>2118.40</ele><time>2019-08-17T10:53:17Z</time></trkpt><trkpt lat="45.1208574884" lon="6.3872349355"><ele>2119.36</ele><time>2019-08-17T10:53:32Z</time></trkpt><trkpt lat="45.1208895911" lon="6.3870892581"><ele>2120.81</ele><time>2019-08-17T10:53:47Z</time></trkpt><trkpt lat="45.1208931953" lon="6.3870724943"><ele>2121.29</ele><time>2019-08-17T10:54:14Z</time></trkpt><trkpt lat="45.1209062710" lon="6.3870187663"><ele>2122.25</ele><time>2019-08-17T10:54:29Z</time></trkpt><trkpt lat="45.1209362783" lon="6.3868873380"><ele>2123.69</ele><time>2019-08-17T10:54:39Z</time></trkpt><trkpt lat="45.1209960412" lon="6.3867590949"><ele>2125.13</ele><time>2019-08-17T10:54:51Z</time></trkpt><trkpt lat="45.1210383698" lon="6.3865967374"><ele>2127.53</ele><time>2019-08-17T10:55:05Z</time></trkpt><trkpt lat="45.1210742444" lon="6.3864879403"><ele>2128.98</ele><time>2019-08-17T10:55:15Z</time></trkpt><trkpt lat="45.1211061794" lon="6.3863096572"><ele>2130.42</ele><time>2019-08-17T10:55:29Z</time></trkpt><trkpt lat="45.1211480889" lon="6.3861604594"><ele>2130.90</ele><time>2019-08-17T10:55:40Z</time></trkpt><trkpt lat="45.1211838797" lon="6.3859859481"><ele>2133.30</ele><time>2019-08-17T10:55:54Z</time></trkpt><trkpt lat="45.1211986318" lon="6.3859270234"><ele>2133.78</ele><time>2019-08-17T10:55:58Z</time></trkpt><trkpt lat="45.1211868133" lon="6.3857688569"><ele>2133.78</ele><time>2019-08-17T10:56:08Z</time></trkpt><trkpt lat="45.1211949438" lon="6.3857445493"><ele>2133.78</ele><time>2019-08-17T10:56:10Z</time></trkpt><trkpt lat="45.1212139707" lon="6.3855535258"><ele>2135.71</ele><time>2019-08-17T10:56:25Z</time></trkpt><trkpt lat="45.1212086063" lon="6.3855192438"><ele>2136.67</ele><time>2019-08-17T10:56:40Z</time></trkpt><trkpt lat="45.1211975422" lon="6.3855075091"><ele>2137.63</ele><time>2019-08-17T10:57:07Z</time></trkpt><trkpt lat="45.1211959496" lon="6.3854425494"><ele>2138.59</ele><time>2019-08-17T10:57:35Z</time></trkpt><trkpt lat="45.1212026551" lon="6.3853734825"><ele>2139.07</ele><time>2019-08-17T10:57:53Z</time></trkpt><trkpt lat="45.1212385297" lon="6.3852673676"><ele>2139.55</ele><time>2019-08-17T10:58:01Z</time></trkpt><trkpt lat="45.1213412918" lon="6.3850542996"><ele>2140.99</ele><time>2019-08-17T10:58:17Z</time></trkpt><trkpt lat="45.1214138791" lon="6.3848944567"><ele>2142.44</ele><time>2019-08-17T10:58:30Z</time></trkpt><trkpt lat="45.1214147173" lon="6.3848674670"><ele>2142.44</ele><time>2019-08-17T10:58:32Z</time></trkpt><trkpt lat="45.1214429643" lon="6.3847838156"><ele>2143.40</ele><time>2019-08-17T10:58:39Z</time></trkpt><trkpt lat="45.1214890648" lon="6.3846579194"><ele>2144.36</ele><time>2019-08-17T10:58:50Z</time></trkpt><trkpt lat="45.1214977819" lon="6.3843987510"><ele>2145.80</ele><time>2019-08-17T10:59:07Z</time></trkpt><trkpt lat="45.1215365063" lon="6.3841870241"><ele>2147.24</ele><time>2019-08-17T10:59:22Z</time></trkpt><trkpt lat="45.1215399429" lon="6.3839537557"><ele>2148.68</ele><time>2019-08-17T10:59:37Z</time></trkpt><trkpt lat="45.1215349976" lon="6.3838265184"><ele>2149.65</ele><time>2019-08-17T10:59:46Z</time></trkpt><trkpt lat="45.1215584669" lon="6.3837222476"><ele>2150.61</ele><time>2019-08-17T10:59:53Z</time></trkpt><trkpt lat="45.1215673517" lon="6.3836215809"><ele>2150.61</ele><time>2019-08-17T10:59:59Z</time></trkpt><trkpt lat="45.1216036454" lon="6.3833580539"><ele>2151.57</ele><time>2019-08-17T11:00:16Z</time></trkpt><trkpt lat="45.1216189004" lon="6.3833142165"><ele>2152.05</ele><time>2019-08-17T11:00:19Z</time></trkpt><trkpt lat="45.1216983609" lon="6.3830949459"><ele>2152.53</ele><time>2019-08-17T11:00:34Z</time></trkpt><trkpt lat="45.1217136160" lon="6.3829610869"><ele>2153.01</ele><time>2019-08-17T11:00:42Z</time></trkpt><trkpt lat="45.1217502449" lon="6.3828863204"><ele>2153.49</ele><time>2019-08-17T11:00:49Z</time></trkpt><trkpt lat="45.1217846945" lon="6.3828273118"><ele>2153.97</ele><time>2019-08-17T11:00:54Z</time></trkpt><trkpt lat="45.1218553539" lon="6.3826757669"><ele>2154.45</ele><time>2019-08-17T11:01:04Z</time></trkpt><trkpt lat="45.1219510753" lon="6.3824566640"><ele>2155.89</ele><time>2019-08-17T11:01:21Z</time></trkpt><trkpt lat="45.1219955832" lon="6.3823280018"><ele>2155.89</ele><time>2019-08-17T11:01:32Z</time></trkpt><trkpt lat="45.1220307872" lon="6.3821297698"><ele>2156.37</ele><time>2019-08-17T11:01:47Z</time></trkpt><trkpt lat="45.1220700983" lon="6.3818731159"><ele>2154.93</ele><time>2019-08-17T11:02:04Z</time></trkpt><trkpt lat="45.1221401710" lon="6.3816809189"><ele>2154.93</ele><time>2019-08-17T11:02:18Z</time></trkpt><trkpt lat="45.1221667416" lon="6.3816125225"><ele>2154.93</ele><time>2019-08-17T11:02:23Z</time></trkpt><trkpt lat="45.1222456153" lon="6.3814295456"><ele>2153.01</ele><time>2019-08-17T11:02:38Z</time></trkpt><trkpt lat="45.1222620439" lon="6.3811924215"><ele>2152.53</ele><time>2019-08-17T11:02:53Z</time></trkpt><trkpt lat="45.1222644746" lon="6.3811245281"><ele>2152.53</ele><time>2019-08-17T11:02:58Z</time></trkpt><trkpt lat="45.1223417558" lon="6.3809308223"><ele>2153.97</ele><time>2019-08-17T11:03:13Z</time></trkpt><trkpt lat="45.1223477907" lon="6.3808754180"><ele>2154.45</ele><time>2019-08-17T11:03:17Z</time></trkpt><trkpt lat="45.1223417558" lon="6.3807796966"><ele>2154.45</ele><time>2019-08-17T11:03:32Z</time></trkpt><trkpt lat="45.1223411690" lon="6.3807261363"><ele>2153.01</ele><time>2019-08-17T11:03:37Z</time></trkpt><trkpt lat="45.1223329548" lon="6.3806332648"><ele>2153.01</ele><time>2019-08-17T11:03:46Z</time></trkpt><trkpt lat="45.1222125906" lon="6.3805567380"><ele>2153.01</ele><time>2019-08-17T11:03:58Z</time></trkpt><trkpt lat="45.1221458707" lon="6.3805346098"><ele>2153.01</ele><time>2019-08-17T11:04:04Z</time></trkpt><trkpt lat="45.1220467966" lon="6.3804243039"><ele>2153.97</ele><time>2019-08-17T11:04:17Z</time></trkpt><trkpt lat="45.1220307034" lon="6.3804062828"><ele>2154.45</ele><time>2019-08-17T11:04:19Z</time></trkpt><trkpt lat="45.1218764763" lon="6.3802471105"><ele>2155.41</ele><time>2019-08-17T11:04:36Z</time></trkpt><trkpt lat="45.1217710320" lon="6.3801310211"><ele>2155.41</ele><time>2019-08-17T11:04:48Z</time></trkpt><trkpt lat="45.1217554417" lon="6.3800910395"><ele>2155.89</ele><time>2019-08-17T11:04:51Z</time></trkpt><trkpt lat="45.1216734666" lon="6.3799186237"><ele>2155.89</ele><time>2019-08-17T11:05:05Z</time></trkpt><trkpt lat="45.1216614805" lon="6.3798172865"><ele>2155.89</ele><time>2019-08-17T11:05:12Z</time></trkpt><trkpt lat="45.1216288749" lon="6.3797586132"><ele>2154.93</ele><time>2019-08-17T11:05:17Z</time></trkpt><trkpt lat="45.1216234267" lon="6.3797280192"><ele>2154.93</ele><time>2019-08-17T11:05:19Z</time></trkpt><trkpt lat="45.1215058286" lon="6.3795211539"><ele>2154.93</ele><time>2019-08-17T11:05:35Z</time></trkpt><trkpt lat="45.1214167289" lon="6.3793960121"><ele>2156.86</ele><time>2019-08-17T11:05:49Z</time></trkpt><trkpt lat="45.1213407889" lon="6.3793002907"><ele>2156.86</ele><time>2019-08-17T11:05:59Z</time></trkpt><trkpt lat="45.1212629210" lon="6.3791773282"><ele>2153.97</ele><time>2019-08-17T11:06:12Z</time></trkpt><trkpt lat="45.1212525275" lon="6.3791535236"><ele>2139.07</ele><time>2019-08-17T11:06:15Z</time></trkpt><trkpt lat="45.1212448161" lon="6.3791229296"><ele>2160.22</ele><time>2019-08-17T11:06:17Z</time></trkpt><trkpt lat="45.1212393679" lon="6.3791122846"><ele>2155.89</ele><time>2019-08-17T11:06:18Z</time></trkpt><trkpt lat="45.1211942732" lon="6.3790707104"><ele>2153.01</ele><time>2019-08-17T11:06:25Z</time></trkpt><trkpt lat="45.1211444847" lon="6.3790022302"><ele>2152.05</ele><time>2019-08-17T11:06:32Z</time></trkpt><trkpt lat="45.1211263798" lon="6.3788838778"><ele>2152.53</ele><time>2019-08-17T11:06:41Z</time></trkpt><trkpt lat="45.1210914273" lon="6.3787560537"><ele>2152.53</ele><time>2019-08-17T11:06:53Z</time></trkpt><trkpt lat="45.1210895833" lon="6.3787372783"><ele>2153.97</ele><time>2019-08-17T11:06:55Z</time></trkpt><trkpt lat="45.1211299840" lon="6.3786302414"><ele>2154.93</ele><time>2019-08-17T11:07:08Z</time></trkpt><trkpt lat="45.1211523637" lon="6.3786047604"><ele>2155.89</ele><time>2019-08-17T11:07:12Z</time></trkpt><trkpt lat="45.1212123781" lon="6.3785310835"><ele>2157.82</ele><time>2019-08-17T11:07:26Z</time></trkpt><trkpt lat="45.1212839596" lon="6.3784500305"><ele>2159.74</ele><time>2019-08-17T11:07:38Z</time></trkpt><trkpt lat="45.1212826185" lon="6.3783687260"><ele>2162.14</ele><time>2019-08-17T11:07:51Z</time></trkpt><trkpt lat="45.1212453190" lon="6.3783072028"><ele>2164.06</ele><time>2019-08-17T11:08:03Z</time></trkpt><trkpt lat="45.1212480012" lon="6.3783023413"><ele>2163.58</ele><time>2019-08-17T11:08:17Z</time></trkpt><trkpt lat="45.1212739851" lon="6.3782622758"><ele>2165.51</ele><time>2019-08-17T11:08:41Z</time></trkpt><trkpt lat="45.1211929321" lon="6.3783027604"><ele>2165.99</ele><time>2019-08-17T11:08:56Z</time></trkpt><trkpt lat="45.1211961173" lon="6.3783260621"><ele>2164.55</ele><time>2019-08-17T11:09:03Z</time></trkpt><trkpt lat="45.1211594883" lon="6.3783683907"><ele>2164.06</ele><time>2019-08-17T11:09:17Z</time></trkpt><trkpt lat="45.1210822072" lon="6.3784337696"><ele>2162.62</ele><time>2019-08-17T11:09:29Z</time></trkpt><trkpt lat="45.1210190076" lon="6.3784680516"><ele>2164.06</ele><time>2019-08-17T11:09:40Z</time></trkpt><trkpt lat="45.1209650282" lon="6.3784861565"><ele>2164.55</ele><time>2019-08-17T11:09:48Z</time></trkpt><trkpt lat="45.1209438220" lon="6.3785309158"><ele>2158.30</ele><time>2019-08-17T11:09:56Z</time></trkpt><trkpt lat="45.1209366973" lon="6.3785396330"><ele>2158.30</ele><time>2019-08-17T11:09:57Z</time></trkpt><trkpt lat="45.1209323388" lon="6.3785394654"><ele>2165.99</ele><time>2019-08-17T11:09:58Z</time></trkpt><trkpt lat="45.1209211070" lon="6.3785679638"><ele>2163.58</ele><time>2019-08-17T11:09:59Z</time></trkpt><trkpt lat="45.1209157426" lon="6.3785534631"><ele>2163.58</ele><time>2019-08-17T11:10:20Z</time></trkpt><trkpt lat="45.1209154073" lon="6.3785771001"><ele>2163.58</ele><time>2019-08-17T11:10:46Z</time></trkpt><trkpt lat="45.1209217776" lon="6.3785687182"><ele>2163.58</ele><time>2019-08-17T11:11:03Z</time></trkpt><trkpt lat="45.1209175028" lon="6.3785753399"><ele>2163.58</ele><time>2019-08-17T11:11:26Z</time></trkpt><trkpt lat="45.1209089532" lon="6.3785753399"><ele>2163.58</ele><time>2019-08-17T11:11:43Z</time></trkpt><trkpt lat="45.1209233701" lon="6.3785563130"><ele>2163.58</ele><time>2019-08-17T11:12:09Z</time></trkpt><trkpt lat="45.1209560595" lon="6.3785198517"><ele>2163.58</ele><time>2019-08-17T11:12:39Z</time></trkpt><trkpt lat="45.1209485997" lon="6.3785045128"><ele>2163.58</ele><time>2019-08-17T11:12:57Z</time></trkpt><trkpt lat="45.1209190115" lon="6.3784968015"><ele>2163.58</ele><time>2019-08-17T11:13:14Z</time></trkpt><trkpt lat="45.1209286507" lon="6.3784692250"><ele>2163.58</ele><time>2019-08-17T11:13:34Z</time></trkpt><trkpt lat="45.1209845580" lon="6.3783746772"><ele>2165.99</ele><time>2019-08-17T11:13:47Z</time></trkpt><trkpt lat="45.1209554728" lon="6.3782990724"><ele>2168.87</ele><time>2019-08-17T11:14:01Z</time></trkpt><trkpt lat="45.1209786069" lon="6.3781988248"><ele>2171.76</ele><time>2019-08-17T11:14:16Z</time></trkpt><trkpt lat="45.1210038364" lon="6.3781241421"><ele>2174.16</ele><time>2019-08-17T11:14:32Z</time></trkpt><trkpt lat="45.1209799480" lon="6.3780651335"><ele>2176.08</ele><time>2019-08-17T11:14:46Z</time></trkpt><trkpt lat="45.1209047623" lon="6.3780387305"><ele>2178.00</ele><time>2019-08-17T11:15:00Z</time></trkpt><trkpt lat="45.1208378747" lon="6.3780020177"><ele>2179.93</ele><time>2019-08-17T11:15:12Z</time></trkpt><trkpt lat="45.1207709033" lon="6.3779715914"><ele>2181.85</ele><time>2019-08-17T11:15:24Z</time></trkpt><trkpt lat="45.1207103021" lon="6.3778960705"><ele>2184.25</ele><time>2019-08-17T11:15:39Z</time></trkpt><trkpt lat="45.1206414867" lon="6.3778419234"><ele>2185.69</ele><time>2019-08-17T11:15:50Z</time></trkpt><trkpt lat="45.1205611881" lon="6.3777213078"><ele>2186.66</ele><time>2019-08-17T11:16:05Z</time></trkpt><trkpt lat="45.1205406524" lon="6.3776591979"><ele>2187.14</ele><time>2019-08-17T11:16:11Z</time></trkpt><trkpt lat="45.1204643771" lon="6.3775491435"><ele>2187.62</ele><time>2019-08-17T11:16:25Z</time></trkpt><trkpt lat="45.1204202045" lon="6.3774908055"><ele>2188.10</ele><time>2019-08-17T11:16:45Z</time></trkpt><trkpt lat="45.1203783788" lon="6.3774014544"><ele>2189.54</ele><time>2019-08-17T11:16:58Z</time></trkpt><trkpt lat="45.1203114912" lon="6.3773646578"><ele>2190.50</ele><time>2019-08-17T11:17:11Z</time></trkpt><trkpt lat="45.1202248223" lon="6.3772739656"><ele>2192.90</ele><time>2019-08-17T11:17:25Z</time></trkpt><trkpt lat="45.1201941445" lon="6.3772516698"><ele>2193.39</ele><time>2019-08-17T11:17:30Z</time></trkpt><trkpt lat="45.1200710144" lon="6.3772911485"><ele>2194.35</ele><time>2019-08-17T11:17:44Z</time></trkpt><trkpt lat="45.1200251654" lon="6.3772328943"><ele>2196.75</ele><time>2019-08-17T11:17:59Z</time></trkpt><trkpt lat="45.1199751254" lon="6.3771444652"><ele>2199.15</ele><time>2019-08-17T11:18:13Z</time></trkpt><trkpt lat="45.1198871993" lon="6.3771007117"><ele>2201.56</ele><time>2019-08-17T11:18:27Z</time></trkpt><trkpt lat="45.1197500713" lon="6.3771174755"><ele>2203.96</ele><time>2019-08-17T11:18:39Z</time></trkpt><trkpt lat="45.1197260153" lon="6.3771354966"><ele>2203.96</ele><time>2019-08-17T11:19:01Z</time></trkpt><trkpt lat="45.1196781546" lon="6.3771100156"><ele>2205.88</ele><time>2019-08-17T11:19:13Z</time></trkpt><trkpt lat="45.1195385959" lon="6.3772308826"><ele>2206.36</ele><time>2019-08-17T11:19:24Z</time></trkpt><trkpt lat="45.1193443034" lon="6.3771546911"><ele>2205.40</ele><time>2019-08-17T11:19:41Z</time></trkpt><trkpt lat="45.1192333270" lon="6.3771078363"><ele>2204.44</ele><time>2019-08-17T11:19:54Z</time></trkpt><trkpt lat="45.1191581413" lon="6.3769579679"><ele>2205.40</ele><time>2019-08-17T11:20:08Z</time></trkpt><trkpt lat="45.1191262063" lon="6.3768536132"><ele>2208.29</ele><time>2019-08-17T11:20:23Z</time></trkpt><trkpt lat="45.1190771721" lon="6.3767848816"><ele>2211.17</ele><time>2019-08-17T11:20:36Z</time></trkpt><trkpt lat="45.1190466620" lon="6.3766063470"><ele>2211.65</ele><time>2019-08-17T11:20:51Z</time></trkpt><trkpt lat="45.1190060098" lon="6.3764584903"><ele>2213.09</ele><time>2019-08-17T11:21:05Z</time></trkpt><trkpt lat="45.1189992204" lon="6.3764539640"><ele>2213.09</ele><time>2019-08-17T11:21:06Z</time></trkpt><trkpt lat="45.1188889146" lon="6.3763600867"><ele>2214.05</ele><time>2019-08-17T11:21:20Z</time></trkpt><trkpt lat="45.1187793631" lon="6.3763144892"><ele>2214.05</ele><time>2019-08-17T11:21:31Z</time></trkpt><trkpt lat="45.1186385471" lon="6.3762987312"><ele>2215.98</ele><time>2019-08-17T11:21:46Z</time></trkpt><trkpt lat="45.1185616013" lon="6.3762786984"><ele>2217.42</ele><time>2019-08-17T11:21:56Z</time></trkpt><trkpt lat="45.1185372937" lon="6.3762431592"><ele>2217.90</ele><time>2019-08-17T11:22:00Z</time></trkpt><trkpt lat="45.1184603479" lon="6.3760241400"><ele>2218.86</ele><time>2019-08-17T11:22:18Z</time></trkpt><trkpt lat="45.1184201147" lon="6.3759036921"><ele>2221.74</ele><time>2019-08-17T11:22:34Z</time></trkpt><trkpt lat="45.1183430851" lon="6.3757703360"><ele>2224.15</ele><time>2019-08-17T11:22:48Z</time></trkpt><trkpt lat="45.1183283329" lon="6.3757424243"><ele>2224.15</ele><time>2019-08-17T11:22:51Z</time></trkpt><trkpt lat="45.1182596851" lon="6.3755639736"><ele>2225.11</ele><time>2019-08-17T11:23:05Z</time></trkpt><trkpt lat="45.1182300970" lon="6.3754070643"><ele>2226.07</ele><time>2019-08-17T11:23:20Z</time></trkpt><trkpt lat="45.1182371378" lon="6.3752980996"><ele>2227.99</ele><time>2019-08-17T11:23:39Z</time></trkpt><trkpt lat="45.1181958988" lon="6.3752422761"><ele>2228.95</ele><time>2019-08-17T11:23:54Z</time></trkpt><trkpt lat="45.1182125788" lon="6.3751950022"><ele>2230.40</ele><time>2019-08-17T11:24:10Z</time></trkpt><trkpt lat="45.1182949729" lon="6.3752076589"><ele>2231.36</ele><time>2019-08-17T11:24:31Z</time></trkpt><trkpt lat="45.1183612738" lon="6.3752490655"><ele>2231.36</ele><time>2019-08-17T11:24:43Z</time></trkpt><trkpt lat="45.1183818094" lon="6.3752517477"><ele>2231.36</ele><time>2019-08-17T11:24:45Z</time></trkpt><trkpt lat="45.1188042574" lon="6.3753900491"><ele>2231.36</ele><time>2019-08-17T11:25:05Z</time></trkpt><trkpt lat="45.1180866826" lon="6.3751095068"><ele>2230.88</ele><time>2019-08-17T11:32:59Z</time></trkpt><trkpt lat="45.1181332022" lon="6.3750896417"><ele>2230.40</ele><time>2019-08-17T11:33:08Z</time></trkpt><trkpt lat="45.1181503851" lon="6.3750890549"><ele>2230.40</ele><time>2019-08-17T11:33:20Z</time></trkpt><trkpt lat="45.1181636285" lon="6.3751240913"><ele>2230.40</ele><time>2019-08-17T11:33:32Z</time></trkpt><trkpt lat="45.1181606110" lon="6.3751608878"><ele>2229.92</ele><time>2019-08-17T11:33:46Z</time></trkpt><trkpt lat="45.1182259899" lon="6.3751929067"><ele>2230.40</ele><time>2019-08-17T11:34:02Z</time></trkpt><trkpt lat="45.1182613615" lon="6.3752044737"><ele>2231.36</ele><time>2019-08-17T11:34:19Z</time></trkpt><trkpt lat="45.1182874292" lon="6.3751944993"><ele>2231.36</ele><time>2019-08-17T11:34:35Z</time></trkpt><trkpt lat="45.1183187775" lon="6.3752078265"><ele>2231.84</ele><time>2019-08-17T11:34:48Z</time></trkpt><trkpt lat="45.1183318533" lon="6.3752485625"><ele>2231.84</ele><time>2019-08-17T11:35:00Z</time></trkpt><trkpt lat="45.1183149219" lon="6.3752619736"><ele>2230.88</ele><time>2019-08-17T11:35:07Z</time></trkpt><trkpt lat="45.1182940509" lon="6.3752922323"><ele>2230.88</ele><time>2019-08-17T11:35:20Z</time></trkpt><trkpt lat="45.1183139160" lon="6.3752556033"><ele>2230.40</ele><time>2019-08-17T11:35:39Z</time></trkpt><trkpt lat="45.1183367148" lon="6.3752470538"><ele>2233.28</ele><time>2019-08-17T11:35:53Z</time></trkpt><trkpt lat="45.1183192804" lon="6.3752284460"><ele>2231.84</ele><time>2019-08-17T11:36:04Z</time></trkpt><trkpt lat="45.1182807237" lon="6.3751988579"><ele>2231.84</ele><time>2019-08-17T11:36:20Z</time></trkpt><trkpt lat="45.1182761975" lon="6.3751609717"><ele>2231.84</ele><time>2019-08-17T11:36:33Z</time></trkpt><trkpt lat="45.1182698272" lon="6.3751709461"><ele>2231.84</ele><time>2019-08-17T11:36:48Z</time></trkpt><trkpt lat="45.1182375569" lon="6.3751551881"><ele>2231.36</ele><time>2019-08-17T11:37:02Z</time></trkpt><trkpt lat="45.1182189491" lon="6.3751273602"><ele>2231.36</ele><time>2019-08-17T11:37:16Z</time></trkpt><trkpt lat="45.1182073820" lon="6.3751233369"><ele>2231.84</ele><time>2019-08-17T11:37:33Z</time></trkpt><trkpt lat="45.1181797218" lon="6.3751057349"><ele>2231.84</ele><time>2019-08-17T11:37:48Z</time></trkpt><trkpt lat="45.1181922108" lon="6.3751699403"><ele>2231.84</ele><time>2019-08-17T11:38:01Z</time></trkpt><trkpt lat="45.1182092261" lon="6.3751719519"><ele>2231.84</ele><time>2019-08-17T11:38:19Z</time></trkpt><trkpt lat="45.1182057057" lon="6.3751359936"><ele>2232.32</ele><time>2019-08-17T11:38:28Z</time></trkpt><trkpt lat="45.1181958988" lon="6.3750649989"><ele>2232.32</ele><time>2019-08-17T11:38:42Z</time></trkpt><trkpt lat="45.1181945577" lon="6.3750730455"><ele>2233.28</ele><time>2019-08-17T11:38:44Z</time></trkpt><trkpt lat="45.1181965694" lon="6.3750569522"><ele>2233.76</ele><time>2019-08-17T11:38:46Z</time></trkpt><trkpt lat="45.1181634609" lon="6.3750171382"><ele>2233.76</ele><time>2019-08-17T11:38:51Z</time></trkpt><trkpt lat="45.1181043684" lon="6.3750050683"><ele>2231.84</ele><time>2019-08-17T11:39:05Z</time></trkpt><trkpt lat="45.1180749480" lon="6.3749602251"><ele>2231.36</ele><time>2019-08-17T11:39:17Z</time></trkpt><trkpt lat="45.1180877723" lon="6.3750028051"><ele>2231.84</ele><time>2019-08-17T11:39:32Z</time></trkpt><trkpt lat="45.1180938911" lon="6.3750284538"><ele>2231.84</ele><time>2019-08-17T11:39:34Z</time></trkpt><trkpt lat="45.1181000099" lon="6.3750878815"><ele>2231.36</ele><time>2019-08-17T11:39:38Z</time></trkpt><trkpt lat="45.1181476191" lon="6.3751322217"><ele>2230.88</ele><time>2019-08-17T11:39:48Z</time></trkpt><trkpt lat="45.1181373093" lon="6.3751259353"><ele>2232.32</ele><time>2019-08-17T11:39:57Z</time></trkpt><trkpt lat="45.1181202102" lon="6.3750898931"><ele>2232.32</ele><time>2019-08-17T11:40:03Z</time></trkpt><trkpt lat="45.1180777978" lon="6.3749513403"><ele>2232.32</ele><time>2019-08-17T11:40:15Z</time></trkpt><trkpt lat="45.1179535780" lon="6.3748027291"><ele>2230.88</ele><time>2019-08-17T11:40:31Z</time></trkpt><trkpt lat="45.1179157756" lon="6.3747122046"><ele>2230.40</ele><time>2019-08-17T11:40:40Z</time></trkpt><trkpt lat="45.1179006882" lon="6.3746942673"><ele>2230.40</ele><time>2019-08-17T11:40:49Z</time></trkpt><trkpt lat="45.1179042924" lon="6.3746930938"><ele>2230.88</ele><time>2019-08-17T11:40:53Z</time></trkpt><trkpt lat="45.1178971678" lon="6.3746763300"><ele>2232.80</ele><time>2019-08-17T11:40:55Z</time></trkpt><trkpt lat="45.1178916357" lon="6.3746648468"><ele>2232.80</ele><time>2019-08-17T11:40:56Z</time></trkpt><trkpt lat="45.1178683341" lon="6.3746364322"><ele>2229.92</ele><time>2019-08-17T11:40:59Z</time></trkpt><trkpt lat="45.1178260054" lon="6.3745450694"><ele>2229.43</ele><time>2019-08-17T11:41:10Z</time></trkpt><trkpt lat="45.1178093255" lon="6.3744662795"><ele>2229.43</ele><time>2019-08-17T11:41:16Z</time></trkpt><trkpt lat="45.1177949924" lon="6.3743279781"><ele>2229.43</ele><time>2019-08-17T11:41:31Z</time></trkpt><trkpt lat="45.1177844312" lon="6.3742497750"><ele>2228.95</ele><time>2019-08-17T11:41:47Z</time></trkpt><trkpt lat="45.1177566871" lon="6.3742004894"><ele>2227.99</ele><time>2019-08-17T11:41:59Z</time></trkpt><trkpt lat="45.1177534182" lon="6.3741875812"><ele>2227.51</ele><time>2019-08-17T11:42:01Z</time></trkpt><trkpt lat="45.1177183818" lon="6.3741470128"><ele>2225.11</ele><time>2019-08-17T11:42:14Z</time></trkpt><trkpt lat="45.1176714431" lon="6.3741318416"><ele>2222.22</ele><time>2019-08-17T11:42:28Z</time></trkpt><trkpt lat="45.1176310424" lon="6.3740815502"><ele>2221.74</ele><time>2019-08-17T11:42:41Z</time></trkpt><trkpt lat="45.1176081598" lon="6.3740602601"><ele>2220.78</ele><time>2019-08-17T11:42:45Z</time></trkpt><trkpt lat="45.1175444573" lon="6.3740408979"><ele>2221.74</ele><time>2019-08-17T11:42:55Z</time></trkpt><trkpt lat="45.1174588781" lon="6.3739794586"><ele>2222.71</ele><time>2019-08-17T11:43:07Z</time></trkpt><trkpt lat="45.1174028870" lon="6.3739238866"><ele>2221.26</ele><time>2019-08-17T11:43:17Z</time></trkpt><trkpt lat="45.1173575409" lon="6.3738755230"><ele>2219.82</ele><time>2019-08-17T11:43:31Z</time></trkpt><trkpt lat="45.1173178945" lon="6.3737991638"><ele>2218.86</ele><time>2019-08-17T11:43:39Z</time></trkpt><trkpt lat="45.1173096802" lon="6.3737782091"><ele>2218.86</ele><time>2019-08-17T11:43:41Z</time></trkpt><trkpt lat="45.1172681898" lon="6.3736691605"><ele>2218.86</ele><time>2019-08-17T11:43:55Z</time></trkpt><trkpt lat="45.1172572095" lon="6.3736773748"><ele>2218.86</ele><time>2019-08-17T11:44:02Z</time></trkpt><trkpt lat="45.1172495820" lon="6.3736592699"><ele>2218.86</ele><time>2019-08-17T11:44:16Z</time></trkpt><trkpt lat="45.1172822714" lon="6.3736725133"><ele>2218.86</ele><time>2019-08-17T11:44:47Z</time></trkpt><trkpt lat="45.1172620710" lon="6.3736712560"><ele>2219.34</ele><time>2019-08-17T11:45:10Z</time></trkpt><trkpt lat="45.1172722131" lon="6.3736568391"><ele>2219.34</ele><time>2019-08-17T11:45:27Z</time></trkpt><trkpt lat="45.1172753982" lon="6.3734507281"><ele>2219.34</ele><time>2019-08-17T11:45:42Z</time></trkpt><trkpt lat="45.1172699500" lon="6.3734077290"><ele>2219.34</ele><time>2019-08-17T11:45:45Z</time></trkpt><trkpt lat="45.1172550302" lon="6.3733690884"><ele>2219.34</ele><time>2019-08-17T11:45:48Z</time></trkpt><trkpt lat="45.1172504202" lon="6.3733094092"><ele>2220.78</ele><time>2019-08-17T11:45:52Z</time></trkpt><trkpt lat="45.1172416192" lon="6.3731636479"><ele>2221.74</ele><time>2019-08-17T11:46:03Z</time></trkpt><trkpt lat="45.1172502525" lon="6.3729949202"><ele>2224.15</ele><time>2019-08-17T11:46:19Z</time></trkpt><trkpt lat="45.1172668487" lon="6.3728235103"><ele>2225.11</ele><time>2019-08-17T11:46:32Z</time></trkpt><trkpt lat="45.1172650885" lon="6.3727965206"><ele>2224.63</ele><time>2019-08-17T11:46:35Z</time></trkpt><trkpt lat="45.1172556169" lon="6.3727230951"><ele>2218.38</ele><time>2019-08-17T11:46:41Z</time></trkpt><trkpt lat="45.1172524318" lon="6.3727145456"><ele>2230.88</ele><time>2019-08-17T11:46:42Z</time></trkpt><trkpt lat="45.1172514260" lon="6.3727032300"><ele>2217.42</ele><time>2019-08-17T11:46:43Z</time></trkpt><trkpt lat="45.1172518451" lon="6.3726883940"><ele>2231.36</ele><time>2019-08-17T11:46:44Z</time></trkpt><trkpt lat="45.1172486600" lon="6.3726738095"><ele>2227.03</ele><time>2019-08-17T11:46:45Z</time></trkpt><trkpt lat="45.1172510907" lon="6.3726397790"><ele>2225.59</ele><time>2019-08-17T11:46:47Z</time></trkpt><trkpt lat="45.1172442175" lon="6.3724832051"><ele>2226.07</ele><time>2019-08-17T11:46:58Z</time></trkpt><trkpt lat="45.1172307227" lon="6.3723976258"><ele>2226.07</ele><time>2019-08-17T11:47:03Z</time></trkpt><trkpt lat="45.1171997096" lon="6.3723095320"><ele>2226.07</ele><time>2019-08-17T11:47:09Z</time></trkpt><trkpt lat="45.1171720494" lon="6.3721998967"><ele>2226.07</ele><time>2019-08-17T11:47:21Z</time></trkpt><trkpt lat="45.1171121188" lon="6.3720567338"><ele>2222.71</ele><time>2019-08-17T11:47:34Z</time></trkpt><trkpt lat="45.1171078440" lon="6.3720285706"><ele>2222.22</ele><time>2019-08-17T11:47:36Z</time></trkpt><trkpt lat="45.1171054970" lon="6.3720185123"><ele>2226.55</ele><time>2019-08-17T11:47:37Z</time></trkpt><trkpt lat="45.1170976181" lon="6.3719962165"><ele>2225.11</ele><time>2019-08-17T11:47:39Z</time></trkpt><trkpt lat="45.1171051618" lon="6.3719646167"><ele>2234.72</ele><time>2019-08-17T11:47:41Z</time></trkpt><trkpt lat="45.1171039045" lon="6.3719543908"><ele>2231.36</ele><time>2019-08-17T11:47:42Z</time></trkpt><trkpt lat="45.1170977019" lon="6.3719425723"><ele>2227.03</ele><time>2019-08-17T11:47:43Z</time></trkpt><trkpt lat="45.1170864701" lon="6.3719124813"><ele>2225.59</ele><time>2019-08-17T11:47:45Z</time></trkpt><trkpt lat="45.1170596480" lon="6.3718491979"><ele>2225.11</ele><time>2019-08-17T11:47:50Z</time></trkpt><trkpt lat="45.1170585584" lon="6.3717834000"><ele>2225.11</ele><time>2019-08-17T11:47:55Z</time></trkpt><trkpt lat="45.1170243602" lon="6.3715461921"><ele>2225.11</ele><time>2019-08-17T11:48:11Z</time></trkpt><trkpt lat="45.1170286350" lon="6.3714614511"><ele>2225.11</ele><time>2019-08-17T11:48:17Z</time></trkpt><trkpt lat="45.1170218457" lon="6.3714126684"><ele>2225.11</ele><time>2019-08-17T11:48:21Z</time></trkpt><trkpt lat="45.1170137152" lon="6.3713860139"><ele>2225.11</ele><time>2019-08-17T11:48:23Z</time></trkpt><trkpt lat="45.1170164812" lon="6.3712569326"><ele>2228.47</ele><time>2019-08-17T11:48:37Z</time></trkpt><trkpt lat="45.1169897430" lon="6.3711067289"><ele>2228.47</ele><time>2019-08-17T11:48:49Z</time></trkpt><trkpt lat="45.1169873960" lon="6.3709890470"><ele>2228.95</ele><time>2019-08-17T11:48:57Z</time></trkpt><trkpt lat="45.1169542037" lon="6.3708069082"><ele>2230.40</ele><time>2019-08-17T11:49:11Z</time></trkpt><trkpt lat="45.1169394515" lon="6.3707287051"><ele>2230.88</ele><time>2019-08-17T11:49:17Z</time></trkpt><trkpt lat="45.1169265434" lon="6.3706328161"><ele>2230.88</ele><time>2019-08-17T11:49:24Z</time></trkpt><trkpt lat="45.1169603225" lon="6.3705206662"><ele>2230.88</ele><time>2019-08-17T11:49:37Z</time></trkpt><trkpt lat="45.1169790141" lon="6.3704866357"><ele>2231.36</ele><time>2019-08-17T11:49:50Z</time></trkpt><trkpt lat="45.1169787627" lon="6.3704705425"><ele>2231.36</ele><time>2019-08-17T11:50:14Z</time></trkpt><trkpt lat="45.1170085184" lon="6.3704723865"><ele>2231.36</ele><time>2019-08-17T11:50:34Z</time></trkpt><trkpt lat="45.1169993822" lon="6.3704696205"><ele>2227.99</ele><time>2019-08-17T11:50:55Z</time></trkpt><trkpt lat="45.1170018129" lon="6.3704654295"><ele>2234.24</ele><time>2019-08-17T11:50:56Z</time></trkpt><trkpt lat="45.1170058362" lon="6.3704739790"><ele>2231.84</ele><time>2019-08-17T11:51:25Z</time></trkpt><trkpt lat="45.1170000527" lon="6.3704616576"><ele>2231.84</ele><time>2019-08-17T11:51:43Z</time></trkpt><trkpt lat="45.1169916708" lon="6.3704624958"><ele>2232.32</ele><time>2019-08-17T11:52:06Z</time></trkpt><trkpt lat="45.1169932634" lon="6.3704365958"><ele>2232.32</ele><time>2019-08-17T11:52:25Z</time></trkpt><trkpt lat="45.1169921737" lon="6.3702890743"><ele>2233.76</ele><time>2019-08-17T11:52:37Z</time></trkpt><trkpt lat="45.1170003042" lon="6.3701723982"><ele>2236.16</ele><time>2019-08-17T11:52:51Z</time></trkpt><trkpt lat="45.1170016453" lon="6.3700371142"><ele>2239.05</ele><time>2019-08-17T11:53:06Z</time></trkpt><trkpt lat="45.1170043275" lon="6.3699520379"><ele>2241.45</ele><time>2019-08-17T11:53:17Z</time></trkpt><trkpt lat="45.1170272101" lon="6.3698926102"><ele>2243.37</ele><time>2019-08-17T11:53:29Z</time></trkpt><trkpt lat="45.1170521881" lon="6.3698134013"><ele>2245.30</ele><time>2019-08-17T11:53:41Z</time></trkpt><trkpt lat="45.1170557924" lon="6.3697948772"><ele>2246.74</ele><time>2019-08-17T11:54:01Z</time></trkpt><trkpt lat="45.1170935947" lon="6.3697019219"><ele>2248.18</ele><time>2019-08-17T11:54:14Z</time></trkpt><trkpt lat="45.1170978695" lon="6.3696328551"><ele>2249.14</ele><time>2019-08-17T11:54:27Z</time></trkpt><trkpt lat="45.1171295531" lon="6.3695766125"><ele>2249.62</ele><time>2019-08-17T11:54:47Z</time></trkpt><trkpt lat="45.1171421260" lon="6.3695026003"><ele>2250.10</ele><time>2019-08-17T11:54:53Z</time></trkpt><trkpt lat="45.1171933394" lon="6.3694084715"><ele>2252.51</ele><time>2019-08-17T11:55:08Z</time></trkpt><trkpt lat="45.1172406971" lon="6.3693324476"><ele>2253.95</ele><time>2019-08-17T11:55:21Z</time></trkpt><trkpt lat="45.1172773261" lon="6.3692266680"><ele>2255.39</ele><time>2019-08-17T11:55:33Z</time></trkpt><trkpt lat="45.1173014659" lon="6.3690699264"><ele>2257.31</ele><time>2019-08-17T11:55:48Z</time></trkpt><trkpt lat="45.1173050702" lon="6.3689509034"><ele>2258.27</ele><time>2019-08-17T11:56:01Z</time></trkpt><trkpt lat="45.1173013821" lon="6.3689289428"><ele>2258.75</ele><time>2019-08-17T11:56:04Z</time></trkpt><trkpt lat="45.1172937546" lon="6.3688637316"><ele>2258.75</ele><time>2019-08-17T11:56:09Z</time></trkpt><trkpt lat="45.1173065789" lon="6.3687716145"><ele>2257.31</ele><time>2019-08-17T11:56:16Z</time></trkpt><trkpt lat="45.1173343230" lon="6.3686286192"><ele>2258.75</ele><time>2019-08-17T11:56:29Z</time></trkpt><trkpt lat="45.1173515059" lon="6.3684884738"><ele>2260.20</ele><time>2019-08-17T11:56:44Z</time></trkpt><trkpt lat="45.1173861232" lon="6.3683968596"><ele>2263.08</ele><time>2019-08-17T11:56:56Z</time></trkpt><trkpt lat="45.1173792500" lon="6.3682334963"><ele>2265.00</ele><time>2019-08-17T11:57:12Z</time></trkpt><trkpt lat="45.1174178906" lon="6.3680990506"><ele>2266.93</ele><time>2019-08-17T11:57:27Z</time></trkpt><trkpt lat="45.1174528431" lon="6.3680200931"><ele>2268.85</ele><time>2019-08-17T11:57:40Z</time></trkpt><trkpt lat="45.1174888853" lon="6.3679325860"><ele>2269.81</ele><time>2019-08-17T11:57:58Z</time></trkpt><trkpt lat="45.1175157912" lon="6.3678596634"><ele>2270.77</ele><time>2019-08-17T11:58:06Z</time></trkpt><trkpt lat="45.1175520848" lon="6.3677138183"><ele>2272.21</ele><time>2019-08-17T11:58:19Z</time></trkpt><trkpt lat="45.1175568625" lon="6.3676500320"><ele>2273.17</ele><time>2019-08-17T11:58:34Z</time></trkpt><trkpt lat="45.1175542641" lon="6.3675885927"><ele>2273.17</ele><time>2019-08-17T11:58:46Z</time></trkpt><trkpt lat="45.1176015381" lon="6.3674559910"><ele>2274.14</ele><time>2019-08-17T11:59:00Z</time></trkpt><trkpt lat="45.1176297851" lon="6.3673604373"><ele>2275.10</ele><time>2019-08-17T11:59:14Z</time></trkpt><trkpt lat="45.1176237501" lon="6.3672324456"><ele>2275.10</ele><time>2019-08-17T11:59:25Z</time></trkpt><trkpt lat="45.1176351495" lon="6.3671115786"><ele>2276.54</ele><time>2019-08-17T11:59:39Z</time></trkpt><trkpt lat="45.1176492311" lon="6.3670316990"><ele>2277.98</ele><time>2019-08-17T11:59:53Z</time></trkpt><trkpt lat="45.1176209003" lon="6.3668975048"><ele>2277.98</ele><time>2019-08-17T12:00:06Z</time></trkpt><trkpt lat="45.1176327188" lon="6.3668528292"><ele>2279.90</ele><time>2019-08-17T12:00:18Z</time></trkpt><trkpt lat="45.1176219061" lon="6.3668523263"><ele>2280.38</ele><time>2019-08-17T12:00:40Z</time></trkpt><trkpt lat="45.1176203974" lon="6.3668475486"><ele>2254.91</ele><time>2019-08-17T12:01:03Z</time></trkpt><trkpt lat="45.1176186372" lon="6.3668445311"><ele>2295.28</ele><time>2019-08-17T12:01:04Z</time></trkpt><trkpt lat="45.1176152844" lon="6.3668390829"><ele>2287.59</ele><time>2019-08-17T12:01:05Z</time></trkpt><trkpt lat="45.1176112611" lon="6.3668332994"><ele>2282.31</ele><time>2019-08-17T12:01:06Z</time></trkpt><trkpt lat="45.1176003646" lon="6.3666683435"><ele>2281.83</ele><time>2019-08-17T12:01:19Z</time></trkpt><trkpt lat="45.1176173799" lon="6.3665271923"><ele>2284.23</ele><time>2019-08-17T12:01:32Z</time></trkpt><trkpt lat="45.1176195592" lon="6.3664543536"><ele>2286.63</ele><time>2019-08-17T12:01:46Z</time></trkpt><trkpt lat="45.1176115125" lon="6.3663716242"><ele>2287.11</ele><time>2019-08-17T12:02:01Z</time></trkpt><trkpt lat="45.1176294498" lon="6.3662576303"><ele>2289.04</ele><time>2019-08-17T12:02:14Z</time></trkpt><trkpt lat="45.1176427770" lon="6.3661491685"><ele>2291.44</ele><time>2019-08-17T12:02:28Z</time></trkpt><trkpt lat="45.1176685933" lon="6.3660598174"><ele>2293.36</ele><time>2019-08-17T12:02:41Z</time></trkpt><trkpt lat="45.1176887099" lon="6.3659463264"><ele>2295.77</ele><time>2019-08-17T12:02:55Z</time></trkpt><trkpt lat="45.1176973432" lon="6.3659096975"><ele>2297.21</ele><time>2019-08-17T12:03:03Z</time></trkpt><trkpt lat="45.1177346427" lon="6.3657953683"><ele>2299.13</ele><time>2019-08-17T12:03:17Z</time></trkpt><trkpt lat="45.1177746244" lon="6.3656954560"><ele>2300.57</ele><time>2019-08-17T12:03:31Z</time></trkpt><trkpt lat="45.1177945733" lon="6.3656260539"><ele>2303.46</ele><time>2019-08-17T12:03:42Z</time></trkpt><trkpt lat="45.1178375725" lon="6.3655549753"><ele>2304.90</ele><time>2019-08-17T12:03:57Z</time></trkpt><trkpt lat="45.1178367343" lon="6.3654898480"><ele>2305.38</ele><time>2019-08-17T12:04:14Z</time></trkpt><trkpt lat="45.1178323757" lon="6.3654880039"><ele>2306.34</ele><time>2019-08-17T12:04:32Z</time></trkpt><trkpt lat="45.1178695913" lon="6.3653872535"><ele>2306.34</ele><time>2019-08-17T12:04:45Z</time></trkpt><trkpt lat="45.1179099083" lon="6.3652663026"><ele>2307.78</ele><time>2019-08-17T12:04:58Z</time></trkpt><trkpt lat="45.1179335453" lon="6.3652072102"><ele>2309.22</ele><time>2019-08-17T12:05:05Z</time></trkpt><trkpt lat="45.1179558411" lon="6.3650906179"><ele>2310.67</ele><time>2019-08-17T12:05:18Z</time></trkpt><trkpt lat="45.1179486327" lon="6.3649863470"><ele>2312.59</ele><time>2019-08-17T12:05:31Z</time></trkpt><trkpt lat="45.1179662347" lon="6.3648490515"><ele>2314.03</ele><time>2019-08-17T12:05:44Z</time></trkpt><trkpt lat="45.1180085633" lon="6.3647545036"><ele>2315.95</ele><time>2019-08-17T12:05:57Z</time></trkpt><trkpt lat="45.1180379838" lon="6.3646556810"><ele>2317.88</ele><time>2019-08-17T12:06:10Z</time></trkpt><trkpt lat="45.1180601120" lon="6.3645146973"><ele>2319.80</ele><time>2019-08-17T12:06:24Z</time></trkpt><trkpt lat="45.1180850063" lon="6.3644355722"><ele>2321.72</ele><time>2019-08-17T12:06:36Z</time></trkpt><trkpt lat="45.1180709247" lon="6.3643256016"><ele>2323.64</ele><time>2019-08-17T12:06:57Z</time></trkpt><trkpt lat="45.1181096490" lon="6.3642853685"><ele>2325.57</ele><time>2019-08-17T12:07:09Z</time></trkpt><trkpt lat="45.1181571744" lon="6.3642038126"><ele>2327.49</ele><time>2019-08-17T12:07:23Z</time></trkpt><trkpt lat="45.1181966532" lon="6.3640906569"><ele>2329.89</ele><time>2019-08-17T12:07:37Z</time></trkpt><trkpt lat="45.1181896962" lon="6.3640826102"><ele>2329.89</ele><time>2019-08-17T12:07:47Z</time></trkpt><trkpt lat="45.1181856729" lon="6.3640974462"><ele>2322.20</ele><time>2019-08-17T12:08:09Z</time></trkpt><trkpt lat="45.1181859244" lon="6.3640960213"><ele>2334.70</ele><time>2019-08-17T12:08:10Z</time></trkpt><trkpt lat="45.1181879360" lon="6.3640821911"><ele>2332.30</ele><time>2019-08-17T12:08:11Z</time></trkpt><trkpt lat="45.1181916241" lon="6.3640515972"><ele>2330.85</ele><time>2019-08-17T12:08:13Z</time></trkpt><trkpt lat="45.1182083879" lon="6.3639287185"><ele>2332.78</ele><time>2019-08-17T12:08:23Z</time></trkpt><trkpt lat="45.1182186138" lon="6.3638443127"><ele>2334.22</ele><time>2019-08-17T12:08:33Z</time></trkpt><trkpt lat="45.1182145905" lon="6.3637397066"><ele>2336.14</ele><time>2019-08-17T12:08:45Z</time></trkpt><trkpt lat="45.1182414126" lon="6.3636496849"><ele>2338.54</ele><time>2019-08-17T12:08:57Z</time></trkpt><trkpt lat="45.1182717551" lon="6.3635542151"><ele>2340.47</ele><time>2019-08-17T12:09:09Z</time></trkpt><trkpt lat="45.1182061248" lon="6.3635666203"><ele>2341.43</ele><time>2019-08-17T12:09:31Z</time></trkpt><trkpt lat="45.1182029396" lon="6.3634366170"><ele>2342.39</ele><time>2019-08-17T12:09:51Z</time></trkpt><trkpt lat="45.1182406582" lon="6.3633080386"><ele>2344.31</ele><time>2019-08-17T12:10:05Z</time></trkpt><trkpt lat="45.1182974037" lon="6.3632326014"><ele>2346.72</ele><time>2019-08-17T12:10:19Z</time></trkpt><trkpt lat="45.1183069590" lon="6.3630722556"><ele>2349.60</ele><time>2019-08-17T12:10:36Z</time></trkpt><trkpt lat="45.1183119044" lon="6.3629766181"><ele>2352.00</ele><time>2019-08-17T12:10:50Z</time></trkpt><trkpt lat="45.1182870101" lon="6.3629045337"><ele>2352.48</ele><time>2019-08-17T12:11:10Z</time></trkpt><trkpt lat="45.1182816457" lon="6.3627623767"><ele>2354.41</ele><time>2019-08-17T12:11:25Z</time></trkpt><trkpt lat="45.1183008403" lon="6.3626419287"><ele>2357.29</ele><time>2019-08-17T12:11:40Z</time></trkpt><trkpt lat="45.1182880159" lon="6.3624545932"><ele>2359.21</ele><time>2019-08-17T12:11:56Z</time></trkpt><trkpt lat="45.1182926260" lon="6.3622673415"><ele>2360.65</ele><time>2019-08-17T12:12:12Z</time></trkpt><trkpt lat="45.1182840765" lon="6.3621230051"><ele>2362.58</ele><time>2019-08-17T12:12:26Z</time></trkpt><trkpt lat="45.1182735153" lon="6.3620941713"><ele>2363.06</ele><time>2019-08-17T12:12:41Z</time></trkpt><trkpt lat="45.1182744373" lon="6.3620249368"><ele>2363.06</ele><time>2019-08-17T12:12:47Z</time></trkpt><trkpt lat="45.1182768680" lon="6.3619950972"><ele>2363.06</ele><time>2019-08-17T12:12:49Z</time></trkpt><trkpt lat="45.1182782091" lon="6.3618251961"><ele>2364.98</ele><time>2019-08-17T12:13:03Z</time></trkpt><trkpt lat="45.1182965655" lon="6.3616694603"><ele>2366.90</ele><time>2019-08-17T12:13:17Z</time></trkpt><trkpt lat="45.1183285005" lon="6.3615419716"><ele>2368.35</ele><time>2019-08-17T12:13:31Z</time></trkpt><trkpt lat="45.1183048636" lon="6.3614257984"><ele>2369.79</ele><time>2019-08-17T12:13:45Z</time></trkpt><trkpt lat="45.1182896923" lon="6.3613267243"><ele>2370.75</ele><time>2019-08-17T12:13:57Z</time></trkpt><trkpt lat="45.1182724256" lon="6.3611957990"><ele>2370.75</ele><time>2019-08-17T12:14:06Z</time></trkpt><trkpt lat="45.1182716712" lon="6.3610130735"><ele>2370.75</ele><time>2019-08-17T12:14:19Z</time></trkpt><trkpt lat="45.1182988286" lon="6.3608812261"><ele>2373.15</ele><time>2019-08-17T12:14:33Z</time></trkpt><trkpt lat="45.1183113176" lon="6.3607719261"><ele>2374.59</ele><time>2019-08-17T12:14:45Z</time></trkpt><trkpt lat="45.1183366310" lon="6.3605894521"><ele>2377.48</ele><time>2019-08-17T12:15:01Z</time></trkpt><trkpt lat="45.1183732599" lon="6.3605403341"><ele>2377.96</ele><time>2019-08-17T12:15:21Z</time></trkpt><trkpt lat="45.1183797978" lon="6.3604540005"><ele>2378.92</ele><time>2019-08-17T12:15:31Z</time></trkpt><trkpt lat="45.1184088830" lon="6.3603085745"><ele>2379.88</ele><time>2019-08-17T12:15:46Z</time></trkpt><trkpt lat="45.1183891855" lon="6.3603388332"><ele>2380.84</ele><time>2019-08-17T12:16:13Z</time></trkpt><trkpt lat="45.1184012555" lon="6.3603245839"><ele>2380.84</ele><time>2019-08-17T12:16:35Z</time></trkpt><trkpt lat="45.1184423268" lon="6.3602553494"><ele>2381.80</ele><time>2019-08-17T12:16:52Z</time></trkpt><trkpt lat="45.1184539776" lon="6.3601966761"><ele>2382.76</ele><time>2019-08-17T12:16:57Z</time></trkpt><trkpt lat="45.1184669696" lon="6.3602038845"><ele>2385.17</ele><time>2019-08-17T12:17:09Z</time></trkpt><trkpt lat="45.1184921153" lon="6.3600713667"><ele>2385.65</ele><time>2019-08-17T12:17:24Z</time></trkpt><trkpt lat="45.1185151655" lon="6.3600186445"><ele>2387.09</ele><time>2019-08-17T12:17:36Z</time></trkpt><trkpt lat="45.1185481064" lon="6.3599686883"><ele>2388.05</ele><time>2019-08-17T12:17:48Z</time></trkpt><trkpt lat="45.1186057739" lon="6.3598352484"><ele>2389.49</ele><time>2019-08-17T12:18:01Z</time></trkpt><trkpt lat="45.1186589990" lon="6.3597203325"><ele>2391.90</ele><time>2019-08-17T12:18:15Z</time></trkpt><trkpt lat="45.1186797023" lon="6.3597930036"><ele>2393.34</ele><time>2019-08-17T12:18:33Z</time></trkpt><trkpt lat="45.1187149063" lon="6.3596551213"><ele>2392.38</ele><time>2019-08-17T12:18:47Z</time></trkpt><trkpt lat="45.1187220309" lon="6.3596477453"><ele>2393.82</ele><time>2019-08-17T12:18:49Z</time></trkpt><trkpt lat="45.1187470928" lon="6.3595633395"><ele>2396.22</ele><time>2019-08-17T12:19:02Z</time></trkpt><trkpt lat="45.1187755913" lon="6.3594669476"><ele>2398.63</ele><time>2019-08-17T12:19:14Z</time></trkpt><trkpt lat="45.1188253798" lon="6.3593454100"><ele>2400.55</ele><time>2019-08-17T12:19:27Z</time></trkpt><trkpt lat="45.1188434847" lon="6.3592739124"><ele>2401.03</ele><time>2019-08-17T12:19:41Z</time></trkpt><trkpt lat="45.1188906748" lon="6.3592850603"><ele>2401.51</ele><time>2019-08-17T12:20:06Z</time></trkpt><trkpt lat="45.1188905910" lon="6.3591403887"><ele>2401.51</ele><time>2019-08-17T12:20:20Z</time></trkpt><trkpt lat="45.1189193409" lon="6.3590119779"><ele>2401.99</ele><time>2019-08-17T12:20:32Z</time></trkpt><trkpt lat="45.1189470012" lon="6.3589010853"><ele>2402.95</ele><time>2019-08-17T12:20:41Z</time></trkpt><trkpt lat="45.1189799421" lon="6.3587701600"><ele>2403.91</ele><time>2019-08-17T12:20:53Z</time></trkpt><trkpt lat="45.1190391183" lon="6.3586397376"><ele>2405.84</ele><time>2019-08-17T12:21:07Z</time></trkpt><trkpt lat="45.1191297267" lon="6.3584828284"><ele>2407.76</ele><time>2019-08-17T12:21:23Z</time></trkpt><trkpt lat="45.1191965304" lon="6.3584137615"><ele>2409.20</ele><time>2019-08-17T12:21:36Z</time></trkpt><trkpt lat="45.1192443073" lon="6.3583061378"><ele>2411.60</ele><time>2019-08-17T12:21:51Z</time></trkpt><trkpt lat="45.1192749012" lon="6.3583323732"><ele>2405.36</ele><time>2019-08-17T12:22:04Z</time></trkpt><trkpt lat="45.1192728896" lon="6.3583321217"><ele>2414.01</ele><time>2019-08-17T12:22:05Z</time></trkpt><trkpt lat="45.1192655135" lon="6.3583314512"><ele>2411.60</ele><time>2019-08-17T12:22:08Z</time></trkpt><trkpt lat="45.1192847081" lon="6.3582456205"><ele>2412.57</ele><time>2019-08-17T12:22:22Z</time></trkpt><trkpt lat="45.1192883123" lon="6.3582042139"><ele>2413.53</ele><time>2019-08-17T12:22:27Z</time></trkpt><trkpt lat="45.1192981191" lon="6.3580789883"><ele>2414.97</ele><time>2019-08-17T12:22:38Z</time></trkpt><trkpt lat="45.1193276234" lon="6.3579878770"><ele>2415.93</ele><time>2019-08-17T12:22:50Z</time></trkpt><trkpt lat="45.1193901524" lon="6.3579036389"><ele>2416.89</ele><time>2019-08-17T12:23:01Z</time></trkpt><trkpt lat="45.1194738876" lon="6.3578657527"><ele>2418.81</ele><time>2019-08-17T12:23:13Z</time></trkpt><trkpt lat="45.1194945071" lon="6.3578183949"><ele>2419.78</ele><time>2019-08-17T12:23:25Z</time></trkpt><trkpt lat="45.1195284538" lon="6.3577981107"><ele>2421.22</ele><time>2019-08-17T12:23:46Z</time></trkpt><trkpt lat="45.1196071599" lon="6.3578751404"><ele>2422.18</ele><time>2019-08-17T12:23:58Z</time></trkpt><trkpt lat="45.1195997838" lon="6.3578756433"><ele>2422.18</ele><time>2019-08-17T12:24:06Z</time></trkpt><trkpt lat="45.1195841096" lon="6.3579250127"><ele>2422.18</ele><time>2019-08-17T12:24:20Z</time></trkpt><trkpt lat="45.1194855385" lon="6.3578884676"><ele>2200.11</ele><time>2019-08-17T12:24:57Z</time></trkpt><trkpt lat="45.1191267930" lon="6.3578377571"><ele>2200.59</ele><time>2019-08-17T12:25:30Z</time></trkpt><trkpt lat="45.1192051638" lon="6.3576618209"><ele>2200.59</ele><time>2019-08-17T12:25:54Z</time></trkpt><trkpt lat="45.1187600009" lon="6.3571262173"><ele>2200.59</ele><time>2019-08-17T12:26:18Z</time></trkpt><trkpt lat="45.1192511804" lon="6.3576313108"><ele>2202.04</ele><time>2019-08-17T12:26:41Z</time></trkpt><trkpt lat="45.1194563694" lon="6.3577794190"><ele>2204.92</ele><time>2019-08-17T12:27:06Z</time></trkpt><trkpt lat="45.1194494125" lon="6.3577788323"><ele>2207.81</ele><time>2019-08-17T12:27:18Z</time></trkpt><trkpt lat="45.1194691099" lon="6.3578248490"><ele>2210.69</ele><time>2019-08-17T12:27:51Z</time></trkpt><trkpt lat="45.1195013802" lon="6.3578550238"><ele>2213.57</ele><time>2019-08-17T12:28:16Z</time></trkpt><trkpt lat="45.1195455529" lon="6.3578932453"><ele>2216.46</ele><time>2019-08-17T12:28:27Z</time></trkpt><trkpt lat="45.1195453852" lon="6.3578870427"><ele>2219.34</ele><time>2019-08-17T12:29:00Z</time></trkpt><trkpt lat="45.1195424516" lon="6.3578603044"><ele>2222.22</ele><time>2019-08-17T12:29:26Z</time></trkpt><trkpt lat="45.1195435412" lon="6.3578572031"><ele>2225.11</ele><time>2019-08-17T12:29:49Z</time></trkpt><trkpt lat="45.1195187308" lon="6.3578381762"><ele>2228.47</ele><time>2019-08-17T12:30:14Z</time></trkpt><trkpt lat="45.1195194852" lon="6.3578381762"><ele>2228.95</ele><time>2019-08-17T12:30:15Z</time></trkpt><trkpt lat="45.1195168868" lon="6.3578468096"><ele>2231.84</ele><time>2019-08-17T12:30:42Z</time></trkpt><trkpt lat="45.1195103489" lon="6.3578339014"><ele>2234.72</ele><time>2019-08-17T12:31:09Z</time></trkpt><trkpt lat="45.1195080858" lon="6.3578355778"><ele>2238.09</ele><time>2019-08-17T12:31:47Z</time></trkpt><trkpt lat="45.1194978599" lon="6.3578313030"><ele>2240.97</ele><time>2019-08-17T12:32:15Z</time></trkpt><trkpt lat="45.1195018832" lon="6.3578353263"><ele>2243.85</ele><time>2019-08-17T12:32:44Z</time></trkpt><trkpt lat="45.1195161324" lon="6.3578148745"><ele>2247.22</ele><time>2019-08-17T12:33:13Z</time></trkpt><trkpt lat="45.1195131149" lon="6.3578261901"><ele>2250.10</ele><time>2019-08-17T12:33:43Z</time></trkpt><trkpt lat="45.1195116062" lon="6.3578291237"><ele>2253.47</ele><time>2019-08-17T12:34:16Z</time></trkpt><trkpt lat="45.1195247658" lon="6.3578349072"><ele>2256.35</ele><time>2019-08-17T12:34:47Z</time></trkpt><trkpt lat="45.1195235085" lon="6.3578387629"><ele>2259.24</ele><time>2019-08-17T12:35:18Z</time></trkpt><trkpt lat="45.1195160486" lon="6.3578385115"><ele>2262.12</ele><time>2019-08-17T12:35:49Z</time></trkpt><trkpt lat="45.1195097622" lon="6.3578336500"><ele>2265.48</ele><time>2019-08-17T12:36:21Z</time></trkpt><trkpt lat="45.1195091754" lon="6.3578314707"><ele>2268.37</ele><time>2019-08-17T12:36:54Z</time></trkpt><trkpt lat="45.1195070799" lon="6.3578361645"><ele>2271.73</ele><time>2019-08-17T12:37:27Z</time></trkpt><trkpt lat="45.1194999553" lon="6.3578333147"><ele>2274.62</ele><time>2019-08-17T12:38:00Z</time></trkpt><trkpt lat="45.1195021346" lon="6.3578318059"><ele>2277.50</ele><time>2019-08-17T12:38:33Z</time></trkpt><trkpt lat="45.1195041463" lon="6.3578414451"><ele>2280.38</ele><time>2019-08-17T12:39:05Z</time></trkpt><trkpt lat="45.1195270289" lon="6.3578451332"><ele>2283.27</ele><time>2019-08-17T12:39:39Z</time></trkpt><trkpt lat="45.1195253525" lon="6.3578390144"><ele>2286.63</ele><time>2019-08-17T12:40:15Z</time></trkpt><trkpt lat="45.1195184793" lon="6.3578282855"><ele>2289.52</ele><time>2019-08-17T12:40:51Z</time></trkpt><trkpt lat="45.1195166353" lon="6.3578256033"><ele>2292.88</ele><time>2019-08-17T12:41:19Z</time></trkpt><trkpt lat="45.1195176411" lon="6.3578247651"><ele>2292.88</ele><time>2019-08-17T12:41:20Z</time></trkpt><trkpt lat="45.1195154618" lon="6.3578147069"><ele>2295.28</ele><time>2019-08-17T12:41:52Z</time></trkpt><trkpt lat="45.1195119414" lon="6.3578162994"><ele>2297.69</ele><time>2019-08-17T12:42:25Z</time></trkpt><trkpt lat="45.1195344888" lon="6.3578137849"><ele>2301.05</ele><time>2019-08-17T12:42:53Z</time></trkpt><trkpt lat="45.1195126120" lon="6.3578274474"><ele>2301.53</ele><time>2019-08-17T12:43:37Z</time></trkpt><trkpt lat="45.1195071638" lon="6.3578220829"><ele>2304.42</ele><time>2019-08-17T12:44:21Z</time></trkpt><trkpt lat="45.1195125282" lon="6.3578470610"><ele>2306.82</ele><time>2019-08-17T12:44:55Z</time></trkpt><trkpt lat="45.1194976922" lon="6.3578254357"><ele>2309.70</ele><time>2019-08-17T12:45:35Z</time></trkpt><trkpt lat="45.1194964349" lon="6.3578287885"><ele>2312.11</ele><time>2019-08-17T12:46:14Z</time></trkpt><trkpt lat="45.1195070799" lon="6.3578406069"><ele>2314.51</ele><time>2019-08-17T12:46:57Z</time></trkpt><trkpt lat="45.1195118576" lon="6.3578456361"><ele>2316.91</ele><time>2019-08-17T12:47:31Z</time></trkpt><trkpt lat="45.1195138693" lon="6.3578459714"><ele>2318.36</ele><time>2019-08-17T12:47:33Z</time></trkpt><trkpt lat="45.1195179764" lon="6.3578473125"><ele>2320.76</ele><time>2019-08-17T12:48:08Z</time></trkpt><trkpt lat="45.1195140369" lon="6.3578360807"><ele>2323.64</ele><time>2019-08-17T12:48:52Z</time></trkpt><trkpt lat="45.1195204072" lon="6.3578304648"><ele>2326.53</ele><time>2019-08-17T12:49:31Z</time></trkpt><trkpt lat="45.1195285376" lon="6.3578225020"><ele>2327.01</ele><time>2019-08-17T12:50:07Z</time></trkpt><trkpt lat="45.1195402723" lon="6.3578317221"><ele>2329.41</ele><time>2019-08-17T12:50:45Z</time></trkpt><trkpt lat="45.1195248496" lon="6.3578426186"><ele>2331.81</ele><time>2019-08-17T12:51:02Z</time></trkpt><trkpt lat="45.1195075829" lon="6.3578598853"><ele>2333.26</ele><time>2019-08-17T12:51:39Z</time></trkpt><trkpt lat="45.1195115224" lon="6.3578455523"><ele>2336.14</ele><time>2019-08-17T12:52:07Z</time></trkpt><trkpt lat="45.1195141207" lon="6.3578477316"><ele>2336.62</ele><time>2019-08-17T12:52:46Z</time></trkpt><trkpt lat="45.1195036434" lon="6.3578558620"><ele>2338.54</ele><time>2019-08-17T12:53:26Z</time></trkpt><trkpt lat="45.1195033081" lon="6.3578427024"><ele>2340.47</ele><time>2019-08-17T12:54:00Z</time></trkpt><trkpt lat="45.1195116062" lon="6.3578345720"><ele>2342.87</ele><time>2019-08-17T12:54:24Z</time></trkpt><trkpt lat="45.1194982789" lon="6.3578478154"><ele>2345.27</ele><time>2019-08-17T12:55:00Z</time></trkpt><trkpt lat="45.1194898132" lon="6.3578425348"><ele>2347.20</ele><time>2019-08-17T12:55:37Z</time></trkpt><trkpt lat="45.1195071638" lon="6.3578517549"><ele>2349.60</ele><time>2019-08-17T12:56:21Z</time></trkpt><trkpt lat="45.1194928307" lon="6.3578403555"><ele>2350.08</ele><time>2019-08-17T12:57:01Z</time></trkpt><trkpt lat="45.1194970217" lon="6.3578324765"><ele>2352.00</ele><time>2019-08-17T12:57:40Z</time></trkpt><trkpt lat="45.1195023023" lon="6.3578432053"><ele>2353.44</ele><time>2019-08-17T12:58:16Z</time></trkpt><trkpt lat="45.1195145398" lon="6.3578355778"><ele>2354.89</ele><time>2019-08-17T12:58:57Z</time></trkpt><trkpt lat="45.1195228379" lon="6.3578434568"><ele>2356.33</ele><time>2019-08-17T12:59:32Z</time></trkpt><trkpt lat="45.1194981113" lon="6.3578379247"><ele>2358.73</ele><time>2019-08-17T13:00:12Z</time></trkpt><trkpt lat="45.1195042301" lon="6.3578338176"><ele>2360.65</ele><time>2019-08-17T13:00:55Z</time></trkpt><trkpt lat="45.1194860414" lon="6.3578310516"><ele>2362.10</ele><time>2019-08-17T13:01:33Z</time></trkpt><trkpt lat="45.1195153780" lon="6.3578466419"><ele>2363.54</ele><time>2019-08-17T13:02:06Z</time></trkpt><trkpt lat="45.1195191499" lon="6.3578428701"><ele>2363.06</ele><time>2019-08-17T13:02:17Z</time></trkpt><trkpt lat="45.1195158809" lon="6.3578505814"><ele>2365.46</ele><time>2019-08-17T13:02:24Z</time></trkpt><trkpt lat="45.1195050683" lon="6.3578613102"><ele>2361.62</ele><time>2019-08-17T13:02:28Z</time></trkpt><trkpt lat="45.1195022184" lon="6.3578620646"><ele>2361.62</ele><time>2019-08-17T13:02:29Z</time></trkpt><trkpt lat="45.1195007097" lon="6.3578618970"><ele>2364.02</ele><time>2019-08-17T13:02:31Z</time></trkpt><trkpt lat="45.1195006259" lon="6.3578587957"><ele>2362.10</ele><time>2019-08-17T13:02:33Z</time></trkpt><trkpt lat="45.1195039786" lon="6.3578539342"><ele>2364.50</ele><time>2019-08-17T13:02:38Z</time></trkpt><trkpt lat="45.1195150428" lon="6.3578476477"><ele>2363.54</ele><time>2019-08-17T13:02:49Z</time></trkpt><trkpt lat="45.1195209101" lon="6.3578548562"><ele>2345.27</ele><time>2019-08-17T13:02:52Z</time></trkpt><trkpt lat="45.1195239276" lon="6.3578575384"><ele>2376.52</ele><time>2019-08-17T13:02:53Z</time></trkpt><trkpt lat="45.1195285376" lon="6.3578593824"><ele>2367.38</ele><time>2019-08-17T13:02:54Z</time></trkpt><trkpt lat="45.1195371710" lon="6.3578613941"><ele>2364.02</ele><time>2019-08-17T13:02:56Z</time></trkpt><trkpt lat="45.1195299625" lon="6.3578589633"><ele>2367.38</ele><time>2019-08-17T13:03:06Z</time></trkpt><trkpt lat="45.1195288729" lon="6.3578595500"><ele>2363.54</ele><time>2019-08-17T13:03:08Z</time></trkpt><trkpt lat="45.1195367519" lon="6.3578293752"><ele>2365.46</ele><time>2019-08-17T13:03:34Z</time></trkpt><trkpt lat="45.1195614785" lon="6.3578358293"><ele>2366.42</ele><time>2019-08-17T13:03:55Z</time></trkpt><trkpt lat="45.1195477322" lon="6.3578494918"><ele>2366.42</ele><time>2019-08-17T13:04:13Z</time></trkpt><trkpt lat="45.1195429545" lon="6.3578499947"><ele>2365.46</ele><time>2019-08-17T13:04:15Z</time></trkpt><trkpt lat="45.1195757277" lon="6.3577732164"><ele>2365.46</ele><time>2019-08-17T13:04:26Z</time></trkpt><trkpt lat="45.1195747219" lon="6.3577663433"><ele>2365.46</ele><time>2019-08-17T13:04:27Z</time></trkpt><trkpt lat="45.1196354907" lon="6.3576195762"><ele>2367.38</ele><time>2019-08-17T13:04:42Z</time></trkpt><trkpt lat="45.1196904760" lon="6.3575504255"><ele>2370.27</ele><time>2019-08-17T13:04:55Z</time></trkpt><trkpt lat="45.1197328884" lon="6.3574702945"><ele>2372.67</ele><time>2019-08-17T13:05:07Z</time></trkpt><trkpt lat="45.1197968423" lon="6.3573910855"><ele>2376.04</ele><time>2019-08-17T13:05:22Z</time></trkpt><trkpt lat="45.1198574435" lon="6.3572645187"><ele>2377.96</ele><time>2019-08-17T13:05:37Z</time></trkpt><trkpt lat="45.1199247502" lon="6.3571523689"><ele>2378.92</ele><time>2019-08-17T13:05:50Z</time></trkpt><trkpt lat="45.1199937332" lon="6.3570366148"><ele>2380.36</ele><time>2019-08-17T13:06:03Z</time></trkpt><trkpt lat="45.1200514007" lon="6.3569957949"><ele>2382.76</ele><time>2019-08-17T13:06:17Z</time></trkpt><trkpt lat="45.1200524904" lon="6.3569804560"><ele>2383.25</ele><time>2019-08-17T13:06:19Z</time></trkpt><trkpt lat="45.1201218087" lon="6.3568425737"><ele>2384.69</ele><time>2019-08-17T13:06:34Z</time></trkpt><trkpt lat="45.1201457810" lon="6.3568085432"><ele>2384.69</ele><time>2019-08-17T13:06:37Z</time></trkpt><trkpt lat="45.1202313602" lon="6.3566950522"><ele>2386.13</ele><time>2019-08-17T13:06:51Z</time></trkpt><trkpt lat="45.1202927157" lon="6.3566017617"><ele>2387.09</ele><time>2019-08-17T13:07:05Z</time></trkpt><trkpt lat="45.1203521434" lon="6.3565003406"><ele>2388.53</ele><time>2019-08-17T13:07:17Z</time></trkpt><trkpt lat="45.1203884371" lon="6.3564032782"><ele>2389.97</ele><time>2019-08-17T13:07:27Z</time></trkpt><trkpt lat="45.1204010099" lon="6.3563799765"><ele>2390.46</ele><time>2019-08-17T13:07:29Z</time></trkpt><trkpt lat="45.1204684842" lon="6.3562873565"><ele>2392.38</ele><time>2019-08-17T13:07:43Z</time></trkpt><trkpt lat="45.1205237210" lon="6.3562035374"><ele>2394.30</ele><time>2019-08-17T13:07:54Z</time></trkpt><trkpt lat="45.1205578353" lon="6.3561051339"><ele>2396.22</ele><time>2019-08-17T13:08:06Z</time></trkpt><trkpt lat="45.1206201967" lon="6.3560172915"><ele>2398.15</ele><time>2019-08-17T13:08:18Z</time></trkpt><trkpt lat="45.1206521317" lon="6.3559497334"><ele>2400.07</ele><time>2019-08-17T13:08:29Z</time></trkpt><trkpt lat="45.1207027584" lon="6.3558791578"><ele>2401.99</ele><time>2019-08-17T13:08:42Z</time></trkpt><trkpt lat="45.1207876671" lon="6.3558328059"><ele>2404.39</ele><time>2019-08-17T13:08:55Z</time></trkpt><trkpt lat="45.1208372880" lon="6.3557592966"><ele>2406.80</ele><time>2019-08-17T13:09:08Z</time></trkpt><trkpt lat="45.1208750904" lon="6.3556516729"><ele>2408.72</ele><time>2019-08-17T13:09:21Z</time></trkpt><trkpt lat="45.1209291536" lon="6.3555226754"><ele>2410.64</ele><time>2019-08-17T13:09:35Z</time></trkpt><trkpt lat="45.1209739968" lon="6.3554383535"><ele>2413.05</ele><time>2019-08-17T13:09:48Z</time></trkpt><trkpt lat="45.1209892519" lon="6.3554032333"><ele>2413.05</ele><time>2019-08-17T13:09:51Z</time></trkpt><trkpt lat="45.1210304908" lon="6.3552241120"><ele>2414.01</ele><time>2019-08-17T13:10:07Z</time></trkpt><trkpt lat="45.1210960373" lon="6.3550935220"><ele>2416.41</ele><time>2019-08-17T13:10:22Z</time></trkpt><trkpt lat="45.1211306546" lon="6.3550084457"><ele>2417.37</ele><time>2019-08-17T13:10:34Z</time></trkpt><trkpt lat="45.1211780962" lon="6.3548448309"><ele>2419.78</ele><time>2019-08-17T13:10:49Z</time></trkpt><trkpt lat="45.1212272979" lon="6.3547153305"><ele>2420.74</ele><time>2019-08-17T13:11:02Z</time></trkpt><trkpt lat="45.1212628372" lon="6.3546036836"><ele>2420.74</ele><time>2019-08-17T13:11:11Z</time></trkpt><trkpt lat="45.1213087700" lon="6.3544653822"><ele>2423.14</ele><time>2019-08-17T13:11:24Z</time></trkpt><trkpt lat="45.1213707961" lon="6.3542888593"><ele>2425.06</ele><time>2019-08-17T13:11:40Z</time></trkpt><trkpt lat="45.1213855483" lon="6.3542108238"><ele>2426.50</ele><time>2019-08-17T13:11:55Z</time></trkpt><trkpt lat="45.1213882305" lon="6.3542170264"><ele>2426.99</ele><time>2019-08-17T13:12:01Z</time></trkpt><trkpt lat="45.1213900745" lon="6.3542183675"><ele>2425.54</ele><time>2019-08-17T13:12:04Z</time></trkpt><trkpt lat="45.1213953551" lon="6.3542220555"><ele>2422.18</ele><time>2019-08-17T13:12:10Z</time></trkpt><trkpt lat="45.1213961933" lon="6.3542200439"><ele>2422.18</ele><time>2019-08-17T13:12:11Z</time></trkpt><trkpt lat="45.1213942654" lon="6.3542213850"><ele>2431.31</ele><time>2019-08-17T13:12:12Z</time></trkpt><trkpt lat="45.1214001328" lon="6.3542095665"><ele>2427.95</ele><time>2019-08-17T13:12:13Z</time></trkpt><trkpt lat="45.1214039046" lon="6.3542042021"><ele>2426.99</ele><time>2019-08-17T13:12:14Z</time></trkpt><trkpt lat="45.1214114483" lon="6.3541938923"><ele>2426.02</ele><time>2019-08-17T13:12:16Z</time></trkpt><trkpt lat="45.1214469876" lon="6.3541553356"><ele>2426.50</ele><time>2019-08-17T13:12:21Z</time></trkpt><trkpt lat="45.1215271186" lon="6.3540414255"><ele>2426.99</ele><time>2019-08-17T13:12:36Z</time></trkpt><trkpt lat="45.1215450559" lon="6.3539451174"><ele>2428.43</ele><time>2019-08-17T13:12:48Z</time></trkpt><trkpt lat="45.1215546951" lon="6.3539115060"><ele>2428.43</ele><time>2019-08-17T13:12:51Z</time></trkpt><trkpt lat="45.1215779129" lon="6.3537793234"><ele>2430.35</ele><time>2019-08-17T13:13:04Z</time></trkpt><trkpt lat="45.1216273662" lon="6.3537234999"><ele>2432.75</ele><time>2019-08-17T13:13:16Z</time></trkpt><trkpt lat="45.1216293778" lon="6.3537055627"><ele>2433.71</ele><time>2019-08-17T13:13:37Z</time></trkpt><trkpt lat="45.1216422860" lon="6.3536788244"><ele>2434.68</ele><time>2019-08-17T13:13:57Z</time></trkpt><trkpt lat="45.1216371730" lon="6.3537097536"><ele>2421.22</ele><time>2019-08-17T13:14:05Z</time></trkpt><trkpt lat="45.1216392685" lon="6.3537203986"><ele>2443.33</ele><time>2019-08-17T13:14:06Z</time></trkpt><trkpt lat="45.1216268633" lon="6.3537161238"><ele>2436.60</ele><time>2019-08-17T13:14:07Z</time></trkpt><trkpt lat="45.1216193195" lon="6.3537334744"><ele>2434.68</ele><time>2019-08-17T13:14:10Z</time></trkpt><trkpt lat="45.1216441300" lon="6.3537369948"><ele>2436.12</ele><time>2019-08-17T13:14:17Z</time></trkpt><trkpt lat="45.1216883026" lon="6.3537385873"><ele>2438.52</ele><time>2019-08-17T13:14:29Z</time></trkpt><trkpt lat="45.1217379235" lon="6.3536805846"><ele>2440.92</ele><time>2019-08-17T13:14:41Z</time></trkpt><trkpt lat="45.1217954233" lon="6.3535914011"><ele>2442.85</ele><time>2019-08-17T13:14:54Z</time></trkpt><trkpt lat="45.1218281128" lon="6.3535893895"><ele>2439.00</ele><time>2019-08-17T13:15:15Z</time></trkpt><trkpt lat="45.1218318008" lon="6.3535834383"><ele>2448.13</ele><time>2019-08-17T13:15:16Z</time></trkpt><trkpt lat="45.1218360756" lon="6.3535737991"><ele>2444.77</ele><time>2019-08-17T13:15:17Z</time></trkpt><trkpt lat="45.1218468044" lon="6.3535565324"><ele>2444.29</ele><time>2019-08-17T13:15:19Z</time></trkpt><trkpt lat="45.1218880434" lon="6.3535024691"><ele>2445.73</ele><time>2019-08-17T13:15:25Z</time></trkpt><trkpt lat="45.1219409332" lon="6.3534133695"><ele>2447.65</ele><time>2019-08-17T13:15:39Z</time></trkpt><trkpt lat="45.1220023725" lon="6.3533100206"><ele>2449.58</ele><time>2019-08-17T13:15:52Z</time></trkpt><trkpt lat="45.1220585313" lon="6.3532175682"><ele>2451.02</ele><time>2019-08-17T13:16:05Z</time></trkpt><trkpt lat="45.1221167017" lon="6.3531206734"><ele>2452.46</ele><time>2019-08-17T13:16:20Z</time></trkpt><trkpt lat="45.1221447811" lon="6.3530565519"><ele>2454.86</ele><time>2019-08-17T13:16:36Z</time></trkpt><trkpt lat="45.1221736148" lon="6.3529527001"><ele>2457.27</ele><time>2019-08-17T13:16:55Z</time></trkpt><trkpt lat="45.1222330425" lon="6.3528394606"><ele>2460.15</ele><time>2019-08-17T13:17:10Z</time></trkpt><trkpt lat="45.1222456153" lon="6.3527726568"><ele>2460.63</ele><time>2019-08-17T13:17:15Z</time></trkpt><trkpt lat="45.1223108266" lon="6.3526510354"><ele>2462.55</ele><time>2019-08-17T13:17:28Z</time></trkpt><trkpt lat="45.1223700028" lon="6.3526061084"><ele>2465.44</ele><time>2019-08-17T13:17:41Z</time></trkpt><trkpt lat="45.1223906223" lon="6.3525957987"><ele>2462.55</ele><time>2019-08-17T13:17:57Z</time></trkpt><trkpt lat="45.1223899517" lon="6.3525961339"><ele>2470.24</ele><time>2019-08-17T13:17:58Z</time></trkpt><trkpt lat="45.1223902870" lon="6.3525941223"><ele>2467.84</ele><time>2019-08-17T13:17:59Z</time></trkpt><trkpt lat="45.1224191207" lon="6.3525075372"><ele>2466.88</ele><time>2019-08-17T13:18:14Z</time></trkpt><trkpt lat="45.1224207971" lon="6.3524426613"><ele>2467.84</ele><time>2019-08-17T13:18:21Z</time></trkpt><trkpt lat="45.1224528160" lon="6.3523342833"><ele>2470.24</ele><time>2019-08-17T13:18:35Z</time></trkpt><trkpt lat="45.1224684063" lon="6.3522160985"><ele>2473.13</ele><time>2019-08-17T13:18:47Z</time></trkpt><trkpt lat="45.1224846672" lon="6.3521368895"><ele>2474.57</ele><time>2019-08-17T13:18:56Z</time></trkpt><trkpt lat="45.1224976592" lon="6.3520964887"><ele>2475.05</ele><time>2019-08-17T13:19:00Z</time></trkpt><trkpt lat="45.1224948093" lon="6.3519472908"><ele>2476.49</ele><time>2019-08-17T13:19:13Z</time></trkpt><trkpt lat="45.1225188654" lon="6.3518924732"><ele>2477.45</ele><time>2019-08-17T13:19:26Z</time></trkpt><trkpt lat="45.1225570869" lon="6.3518362306"><ele>2479.38</ele><time>2019-08-17T13:19:39Z</time></trkpt><trkpt lat="45.1225881837" lon="6.3517883699"><ele>2479.86</ele><time>2019-08-17T13:19:50Z</time></trkpt><trkpt lat="45.1225927100" lon="6.3517389167"><ele>2480.82</ele><time>2019-08-17T13:20:01Z</time></trkpt><trkpt lat="45.1225680672" lon="6.3517349772"><ele>2484.66</ele><time>2019-08-17T13:20:23Z</time></trkpt><trkpt lat="45.1225658040" lon="6.3517335523"><ele>2483.22</ele><time>2019-08-17T13:20:24Z</time></trkpt><trkpt lat="45.1225559134" lon="6.3517253380"><ele>2481.78</ele><time>2019-08-17T13:20:26Z</time></trkpt><trkpt lat="45.1225725934" lon="6.3516986836"><ele>2483.70</ele><time>2019-08-17T13:20:39Z</time></trkpt><trkpt lat="45.1225782093" lon="6.3516954985"><ele>2477.45</ele><time>2019-08-17T13:20:50Z</time></trkpt><trkpt lat="45.1225790475" lon="6.3516944926"><ele>2486.11</ele><time>2019-08-17T13:20:51Z</time></trkpt><trkpt lat="45.1225787960" lon="6.3516546786"><ele>2485.15</ele><time>2019-08-17T13:21:00Z</time></trkpt><trkpt lat="45.1225678157" lon="6.3516147807"><ele>2488.03</ele><time>2019-08-17T13:21:15Z</time></trkpt><trkpt lat="45.1225711685" lon="6.3515890483"><ele>2489.95</ele><time>2019-08-17T13:21:25Z</time></trkpt><trkpt lat="45.1225899439" lon="6.3515557721"><ele>2491.39</ele><time>2019-08-17T13:21:43Z</time></trkpt><trkpt lat="45.1226101443" lon="6.3514905609"><ele>2494.28</ele><time>2019-08-17T13:21:58Z</time></trkpt><trkpt lat="45.1226257347" lon="6.3513932470"><ele>2497.64</ele><time>2019-08-17T13:22:13Z</time></trkpt><trkpt lat="45.1226300932" lon="6.3513649162"><ele>2499.08</ele><time>2019-08-17T13:22:35Z</time></trkpt><trkpt lat="45.1226261538" lon="6.3513641618"><ele>2494.76</ele><time>2019-08-17T13:22:44Z</time></trkpt><trkpt lat="45.1226258185" lon="6.3513603900"><ele>2501.49</ele><time>2019-08-17T13:22:45Z</time></trkpt><trkpt lat="45.1226286683" lon="6.3513615634"><ele>2499.08</ele><time>2019-08-17T13:22:48Z</time></trkpt><trkpt lat="45.1226373017" lon="6.3513632398"><ele>2500.05</ele><time>2019-08-17T13:22:56Z</time></trkpt><trkpt lat="45.1226820610" lon="6.3512964360"><ele>2502.45</ele><time>2019-08-17T13:23:10Z</time></trkpt><trkpt lat="45.1226300932" lon="6.3513276167"><ele>2502.45</ele><time>2019-08-17T13:23:28Z</time></trkpt><trkpt lat="45.1226329431" lon="6.3513272814"><ele>2505.81</ele><time>2019-08-17T13:23:29Z</time></trkpt><trkpt lat="45.1226874255" lon="6.3513109367"><ele>2505.81</ele><time>2019-08-17T13:23:42Z</time></trkpt><trkpt lat="45.1226939633" lon="6.3513334841"><ele>2507.26</ele><time>2019-08-17T13:23:56Z</time></trkpt><trkpt lat="45.1227004174" lon="6.3513575401"><ele>2508.22</ele><time>2019-08-17T13:24:08Z</time></trkpt><trkpt lat="45.1226916164" lon="6.3513609767"><ele>2508.70</ele><time>2019-08-17T13:24:32Z</time></trkpt><trkpt lat="45.1226903591" lon="6.3513684366"><ele>2504.37</ele><time>2019-08-17T13:24:34Z</time></trkpt><trkpt lat="45.1226889342" lon="6.3513738848"><ele>2507.74</ele><time>2019-08-17T13:24:35Z</time></trkpt><trkpt lat="45.1226901915" lon="6.3513722084"><ele>2511.58</ele><time>2019-08-17T13:24:36Z</time></trkpt><trkpt lat="45.1226881798" lon="6.3513732143"><ele>2508.22</ele><time>2019-08-17T13:24:37Z</time></trkpt><trkpt lat="45.1226798818" lon="6.3513662573"><ele>2510.62</ele><time>2019-08-17T13:24:45Z</time></trkpt><trkpt lat="45.1226863358" lon="6.3513652515"><ele>2508.70</ele><time>2019-08-17T13:25:06Z</time></trkpt><trkpt lat="45.1226971485" lon="6.3513579592"><ele>2509.18</ele><time>2019-08-17T13:25:25Z</time></trkpt><trkpt lat="45.1226964779" lon="6.3513569534"><ele>2509.18</ele><time>2019-08-17T13:25:26Z</time></trkpt><trkpt lat="45.1226984896" lon="6.3513595518"><ele>2439.00</ele><time>2019-08-17T13:25:36Z</time></trkpt><trkpt lat="45.1226984058" lon="6.3513561152"><ele>2555.80</ele><time>2019-08-17T13:25:37Z</time></trkpt><trkpt lat="45.1226921193" lon="6.3513528462"><ele>2524.56</ele><time>2019-08-17T13:25:38Z</time></trkpt><trkpt lat="45.1226924546" lon="6.3513622340"><ele>2513.02</ele><time>2019-08-17T13:25:39Z</time></trkpt><trkpt lat="45.1226934604" lon="6.3513656706"><ele>2509.66</ele><time>2019-08-17T13:25:40Z</time></trkpt><trkpt lat="45.1226885989" lon="6.3513634913"><ele>2509.18</ele><time>2019-08-17T13:25:42Z</time></trkpt><trkpt lat="45.1226732600" lon="6.3513437938"><ele>2509.66</ele><time>2019-08-17T13:26:12Z</time></trkpt><trkpt lat="45.1226663869" lon="6.3514074124"><ele>2510.14</ele><time>2019-08-17T13:26:44Z</time></trkpt><trkpt lat="45.1226607710" lon="6.3513670117"><ele>2511.10</ele><time>2019-08-17T13:27:19Z</time></trkpt><trkpt lat="45.1226730086" lon="6.3513577078"><ele>2511.58</ele><time>2019-08-17T13:27:51Z</time></trkpt><trkpt lat="45.1226884313" lon="6.3513749745"><ele>2512.06</ele><time>2019-08-17T13:28:18Z</time></trkpt><trkpt lat="45.1227284130" lon="6.3513429556"><ele>2512.54</ele><time>2019-08-17T13:28:48Z</time></trkpt><trkpt lat="45.1226841565" lon="6.3513329811"><ele>2513.02</ele><time>2019-08-17T13:29:14Z</time></trkpt><trkpt lat="45.1226573344" lon="6.3513895590"><ele>2513.02</ele><time>2019-08-17T13:29:43Z</time></trkpt><trkpt lat="45.1226418279" lon="6.3513401058"><ele>2513.02</ele><time>2019-08-17T13:30:05Z</time></trkpt><trkpt lat="45.1226645429" lon="6.3513063267"><ele>2513.50</ele><time>2019-08-17T13:30:37Z</time></trkpt><trkpt lat="45.1226663031" lon="6.3513138704"><ele>2513.98</ele><time>2019-08-17T13:31:11Z</time></trkpt><trkpt lat="45.1226549875" lon="6.3513138704"><ele>2514.47</ele><time>2019-08-17T13:31:36Z</time></trkpt><trkpt lat="45.1226765290" lon="6.3513834402"><ele>2514.95</ele><time>2019-08-17T13:32:05Z</time></trkpt><trkpt lat="45.1226642076" lon="6.3513129484"><ele>2514.95</ele><time>2019-08-17T13:32:32Z</time></trkpt><trkpt lat="45.1226469409" lon="6.3513128646"><ele>2515.43</ele><time>2019-08-17T13:33:01Z</time></trkpt><trkpt lat="45.1226830669" lon="6.3513372559"><ele>2516.39</ele><time>2019-08-17T13:33:28Z</time></trkpt><trkpt lat="45.1226804685" lon="6.3513370045"><ele>2515.43</ele><time>2019-08-17T13:33:31Z</time></trkpt><trkpt lat="45.1226906106" lon="6.3513432909"><ele>2515.43</ele><time>2019-08-17T13:34:03Z</time></trkpt><trkpt lat="45.1226952206" lon="6.3513400219"><ele>2516.87</ele><time>2019-08-17T13:34:07Z</time></trkpt><trkpt lat="45.1226942148" lon="6.3513480686"><ele>2515.91</ele><time>2019-08-17T13:34:35Z</time></trkpt><trkpt lat="45.1226917002" lon="6.3513470627"><ele>2518.31</ele><time>2019-08-17T13:35:10Z</time></trkpt><trkpt lat="45.1226720866" lon="6.3513536844"><ele>2517.35</ele><time>2019-08-17T13:35:47Z</time></trkpt><trkpt lat="45.1226892695" lon="6.3513682690"><ele>2518.79</ele><time>2019-08-17T13:36:22Z</time></trkpt><trkpt lat="45.1226826478" lon="6.3513614796"><ele>2516.87</ele><time>2019-08-17T13:36:32Z</time></trkpt><trkpt lat="45.1226794627" lon="6.3513658382"><ele>2518.31</ele><time>2019-08-17T13:36:35Z</time></trkpt><trkpt lat="45.1226782892" lon="6.3513731305"><ele>2516.87</ele><time>2019-08-17T13:36:39Z</time></trkpt><trkpt lat="45.1226805523" lon="6.3513741363"><ele>2518.31</ele><time>2019-08-17T13:36:41Z</time></trkpt><trkpt lat="45.1226734277" lon="6.3513539359"><ele>2486.11</ele><time>2019-08-17T13:37:15Z</time></trkpt><trkpt lat="45.1226759423" lon="6.3513589650"><ele>2541.38</ele><time>2019-08-17T13:37:16Z</time></trkpt><trkpt lat="45.1226766128" lon="6.3513629045"><ele>2514.47</ele><time>2019-08-17T13:37:17Z</time></trkpt><trkpt lat="45.1226807199" lon="6.3513596356"><ele>2527.92</ele><time>2019-08-17T13:37:19Z</time></trkpt><trkpt lat="45.1226886827" lon="6.3513566181"><ele>2522.64</ele><time>2019-08-17T13:37:20Z</time></trkpt><trkpt lat="45.1227091346" lon="6.3513488229"><ele>2519.27</ele><time>2019-08-17T13:37:22Z</time></trkpt><trkpt lat="45.1226453483" lon="6.3512914907"><ele>2518.31</ele><time>2019-08-17T13:37:47Z</time></trkpt><trkpt lat="45.1226781216" lon="6.3512996212"><ele>2518.79</ele><time>2019-08-17T13:38:08Z</time></trkpt><trkpt lat="45.1226668898" lon="6.3513491582"><ele>2513.50</ele><time>2019-08-17T13:38:18Z</time></trkpt><trkpt lat="45.1226663031" lon="6.3513446320"><ele>2523.60</ele><time>2019-08-17T13:38:19Z</time></trkpt><trkpt lat="45.1226720028" lon="6.3513336517"><ele>2523.60</ele><time>2019-08-17T13:38:20Z</time></trkpt><trkpt lat="45.1226790436" lon="6.3513251860"><ele>2520.71</ele><time>2019-08-17T13:38:21Z</time></trkpt><trkpt lat="45.1226866711" lon="6.3513087574"><ele>2519.75</ele><time>2019-08-17T13:38:23Z</time></trkpt><trkpt lat="45.1226755232" lon="6.3513420336"><ele>2520.23</ele><time>2019-08-17T13:38:53Z</time></trkpt><trkpt lat="45.1226761099" lon="6.3512822706"><ele>2520.23</ele><time>2019-08-17T13:39:17Z</time></trkpt><trkpt lat="45.1226740144" lon="6.3512702845"><ele>2520.23</ele><time>2019-08-17T13:39:31Z</time></trkpt><trkpt lat="45.1226263214" lon="6.3513164688"><ele>2517.35</ele><time>2019-08-17T13:39:44Z</time></trkpt><trkpt lat="45.1226204541" lon="6.3513772376"><ele>2514.95</ele><time>2019-08-17T13:39:58Z</time></trkpt><trkpt lat="45.1226088032" lon="6.3513850328"><ele>2513.50</ele><time>2019-08-17T13:40:14Z</time></trkpt><trkpt lat="45.1225746050" lon="6.3514929917"><ele>2511.10</ele><time>2019-08-17T13:40:26Z</time></trkpt><trkpt lat="45.1225758623" lon="6.3514984399"><ele>2511.10</ele><time>2019-08-17T13:40:27Z</time></trkpt><trkpt lat="45.1225652173" lon="6.3515198976"><ele>2509.66</ele><time>2019-08-17T13:40:38Z</time></trkpt><trkpt lat="45.1225603558" lon="6.3515477255"><ele>2507.74</ele><time>2019-08-17T13:40:41Z</time></trkpt><trkpt lat="45.1225495432" lon="6.3515726198"><ele>2505.81</ele><time>2019-08-17T13:40:54Z</time></trkpt><trkpt lat="45.1225445978" lon="6.3516266830"><ele>2503.89</ele><time>2019-08-17T13:41:06Z</time></trkpt><trkpt lat="45.1225629542" lon="6.3516876195"><ele>2501.01</ele><time>2019-08-17T13:41:21Z</time></trkpt><trkpt lat="45.1225612778" lon="6.3517451193"><ele>2499.08</ele><time>2019-08-17T13:41:33Z</time></trkpt><trkpt lat="45.1225184463" lon="6.3518498931"><ele>2497.64</ele><time>2019-08-17T13:41:47Z</time></trkpt><trkpt lat="45.1224927977" lon="6.3518848456"><ele>2497.64</ele><time>2019-08-17T13:41:52Z</time></trkpt><trkpt lat="45.1224773750" lon="6.3518977538"><ele>2497.64</ele><time>2019-08-17T13:41:55Z</time></trkpt><trkpt lat="45.1224736031" lon="6.3519331254"><ele>2497.16</ele><time>2019-08-17T13:41:58Z</time></trkpt><trkpt lat="45.1224796381" lon="6.3520268351"><ele>2495.72</ele><time>2019-08-17T13:42:05Z</time></trkpt><trkpt lat="45.1224409975" lon="6.3521528151"><ele>2494.76</ele><time>2019-08-17T13:42:21Z</time></trkpt><trkpt lat="45.1224544924" lon="6.3521495461"><ele>2493.80</ele><time>2019-08-17T13:42:39Z</time></trkpt><trkpt lat="45.1224518102" lon="6.3521881867"><ele>2493.80</ele><time>2019-08-17T13:42:50Z</time></trkpt><trkpt lat="45.1224615332" lon="6.3522592653"><ele>2492.84</ele><time>2019-08-17T13:43:06Z</time></trkpt><trkpt lat="45.1224576775" lon="6.3523176871"><ele>2491.39</ele><time>2019-08-17T13:43:19Z</time></trkpt><trkpt lat="45.1224456076" lon="6.3523056172"><ele>2491.39</ele><time>2019-08-17T13:43:33Z</time></trkpt><trkpt lat="45.1224387344" lon="6.3523066230"><ele>2491.39</ele><time>2019-08-17T13:43:55Z</time></trkpt><trkpt lat="45.1224306878" lon="6.3523151726"><ele>2491.87</ele><time>2019-08-17T13:44:19Z</time></trkpt><trkpt lat="45.1224192046" lon="6.3522803877"><ele>2491.87</ele><time>2019-08-17T13:44:48Z</time></trkpt><trkpt lat="45.1224192046" lon="6.3523290865"><ele>2492.36</ele><time>2019-08-17T13:45:14Z</time></trkpt><trkpt lat="45.1224197913" lon="6.3523554057"><ele>2492.36</ele><time>2019-08-17T13:45:48Z</time></trkpt><trkpt lat="45.1224046201" lon="6.3523352053"><ele>2493.32</ele><time>2019-08-17T13:46:12Z</time></trkpt><trkpt lat="45.1224231441" lon="6.3523508795"><ele>2493.32</ele><time>2019-08-17T13:46:34Z</time></trkpt><trkpt lat="45.1224190369" lon="6.3523410726"><ele>2493.32</ele><time>2019-08-17T13:46:57Z</time></trkpt><trkpt lat="45.1223921310" lon="6.3523418270"><ele>2493.80</ele><time>2019-08-17T13:47:26Z</time></trkpt><trkpt lat="45.1224224735" lon="6.3523100596"><ele>2494.28</ele><time>2019-08-17T13:47:56Z</time></trkpt><trkpt lat="45.1224458590" lon="6.3523011748"><ele>2494.28</ele><time>2019-08-17T13:48:23Z</time></trkpt><trkpt lat="45.1224436797" lon="6.3524170127"><ele>2494.76</ele><time>2019-08-17T13:48:54Z</time></trkpt><trkpt lat="45.1224316098" lon="6.3523899391"><ele>2495.24</ele><time>2019-08-17T13:49:21Z</time></trkpt><trkpt lat="45.1224245690" lon="6.3523557410"><ele>2495.24</ele><time>2019-08-17T13:49:50Z</time></trkpt><trkpt lat="45.1224332862" lon="6.3523799647"><ele>2496.68</ele><time>2019-08-17T13:50:16Z</time></trkpt><trkpt lat="45.1224451046" lon="6.3523837365"><ele>2496.68</ele><time>2019-08-17T13:50:42Z</time></trkpt><trkpt lat="45.1225002576" lon="6.3524095528"><ele>2497.16</ele><time>2019-08-17T13:51:10Z</time></trkpt><trkpt lat="45.1224285085" lon="6.3524201978"><ele>2497.64</ele><time>2019-08-17T13:51:28Z</time></trkpt><trkpt lat="45.1224014349" lon="6.3523860835"><ele>2494.28</ele><time>2019-08-17T13:51:45Z</time></trkpt><trkpt lat="45.1223980822" lon="6.3523877598"><ele>2499.57</ele><time>2019-08-17T13:51:46Z</time></trkpt><trkpt lat="45.1223977469" lon="6.3523875084"><ele>2499.57</ele><time>2019-08-17T13:51:47Z</time></trkpt><trkpt lat="45.1224005967" lon="6.3524248078"><ele>2497.64</ele><time>2019-08-17T13:52:16Z</time></trkpt><trkpt lat="45.1223831624" lon="6.3524837326"><ele>2497.16</ele><time>2019-08-17T13:52:32Z</time></trkpt><trkpt lat="45.1223823242" lon="6.3525906019"><ele>2496.20</ele><time>2019-08-17T13:52:44Z</time></trkpt><trkpt lat="45.1223759539" lon="6.3526268955"><ele>2495.24</ele><time>2019-08-17T13:52:56Z</time></trkpt><trkpt lat="45.1223142631" lon="6.3527165819"><ele>2494.28</ele><time>2019-08-17T13:53:09Z</time></trkpt><trkpt lat="45.1222892012" lon="6.3527122233"><ele>2492.84</ele><time>2019-08-17T13:53:12Z</time></trkpt><trkpt lat="45.1222431846" lon="6.3527851459"><ele>2491.87</ele><time>2019-08-17T13:53:23Z</time></trkpt><trkpt lat="45.1221529953" lon="6.3529476710"><ele>2489.95</ele><time>2019-08-17T13:53:40Z</time></trkpt><trkpt lat="45.1220786478" lon="6.3530808594"><ele>2488.03</ele><time>2019-08-17T13:53:54Z</time></trkpt><trkpt lat="45.1219845191" lon="6.3532392774"><ele>2485.15</ele><time>2019-08-17T13:54:10Z</time></trkpt><trkpt lat="45.1219066512" lon="6.3533804286"><ele>2482.26</ele><time>2019-08-17T13:54:24Z</time></trkpt><trkpt lat="45.1218413562" lon="6.3535165507"><ele>2479.38</ele><time>2019-08-17T13:54:37Z</time></trkpt><trkpt lat="45.1218280289" lon="6.3535488211"><ele>2478.42</ele><time>2019-08-17T13:54:41Z</time></trkpt><trkpt lat="45.1217453834" lon="6.3536328916"><ele>2476.49</ele><time>2019-08-17T13:54:55Z</time></trkpt><trkpt lat="45.1217062399" lon="6.3536815904"><ele>2476.01</ele><time>2019-08-17T13:55:04Z</time></trkpt><trkpt lat="45.1216981933" lon="6.3537266012"><ele>2475.53</ele><time>2019-08-17T13:55:06Z</time></trkpt><trkpt lat="45.1216425374" lon="6.3537865318"><ele>2473.61</ele><time>2019-08-17T13:55:18Z</time></trkpt><trkpt lat="45.1215886418" lon="6.3539177086"><ele>2471.69</ele><time>2019-08-17T13:55:32Z</time></trkpt><trkpt lat="45.1215497497" lon="6.3540477119"><ele>2468.80</ele><time>2019-08-17T13:55:45Z</time></trkpt><trkpt lat="45.1215164736" lon="6.3540923037"><ele>2467.84</ele><time>2019-08-17T13:55:56Z</time></trkpt><trkpt lat="45.1214605663" lon="6.3541482948"><ele>2465.44</ele><time>2019-08-17T13:56:06Z</time></trkpt><trkpt lat="45.1214398630" lon="6.3541670702"><ele>2465.44</ele><time>2019-08-17T13:56:09Z</time></trkpt><trkpt lat="45.1212968677" lon="6.3542913739"><ele>2464.48</ele><time>2019-08-17T13:56:25Z</time></trkpt><trkpt lat="45.1213673595" lon="6.3541926350"><ele>2464.48</ele><time>2019-08-17T13:56:52Z</time></trkpt><trkpt lat="45.1213734783" lon="6.3542123325"><ele>2464.00</ele><time>2019-08-17T13:57:09Z</time></trkpt><trkpt lat="45.1213311497" lon="6.3542562537"><ele>2464.48</ele><time>2019-08-17T13:57:18Z</time></trkpt><trkpt lat="45.1212602388" lon="6.3544724230"><ele>2463.04</ele><time>2019-08-17T13:57:36Z</time></trkpt><trkpt lat="45.1212019008" lon="6.3546569087"><ele>2461.59</ele><time>2019-08-17T13:57:52Z</time></trkpt><trkpt lat="45.1211277209" lon="6.3548043463"><ele>2461.11</ele><time>2019-08-17T13:58:06Z</time></trkpt><trkpt lat="45.1210539602" lon="6.3549687993"><ele>2460.15</ele><time>2019-08-17T13:58:20Z</time></trkpt><trkpt lat="45.1210276410" lon="6.3551008981"><ele>2458.71</ele><time>2019-08-17T13:58:34Z</time></trkpt><trkpt lat="45.1210039202" lon="6.3551585656"><ele>2458.71</ele><time>2019-08-17T13:58:40Z</time></trkpt><trkpt lat="45.1209962089" lon="6.3551987987"><ele>2458.23</ele><time>2019-08-17T13:58:43Z</time></trkpt><trkpt lat="45.1209338475" lon="6.3554168120"><ele>2456.31</ele><time>2019-08-17T13:58:59Z</time></trkpt><trkpt lat="45.1208408084" lon="6.3555427082"><ele>2454.38</ele><time>2019-08-17T13:59:12Z</time></trkpt><trkpt lat="45.1207700651" lon="6.3556414470"><ele>2452.94</ele><time>2019-08-17T13:59:25Z</time></trkpt><trkpt lat="45.1206614356" lon="6.3558281120"><ele>2450.54</ele><time>2019-08-17T13:59:42Z</time></trkpt><trkpt lat="45.1205962244" lon="6.3559163734"><ele>2448.62</ele><time>2019-08-17T13:59:55Z</time></trkpt><trkpt lat="45.1205387246" lon="6.3560232427"><ele>2446.21</ele><time>2019-08-17T14:00:08Z</time></trkpt><trkpt lat="45.1205147523" lon="6.3560918905"><ele>2443.81</ele><time>2019-08-17T14:00:14Z</time></trkpt><trkpt lat="45.1204912830" lon="6.3562502246"><ele>2441.89</ele><time>2019-08-17T14:00:30Z</time></trkpt><trkpt lat="45.1204511337" lon="6.3563094009"><ele>2439.48</ele><time>2019-08-17T14:00:44Z</time></trkpt><trkpt lat="45.1204156782" lon="6.3563465327"><ele>2439.48</ele><time>2019-08-17T14:00:57Z</time></trkpt><trkpt lat="45.1202796400" lon="6.3565688208"><ele>2437.56</ele><time>2019-08-17T14:01:16Z</time></trkpt><trkpt lat="45.1202019397" lon="6.3567175157"><ele>2436.12</ele><time>2019-08-17T14:01:28Z</time></trkpt><trkpt lat="45.1201010216" lon="6.3568392210"><ele>2435.16</ele><time>2019-08-17T14:01:41Z</time></trkpt><trkpt lat="45.1199965831" lon="6.3570248801"><ele>2433.23</ele><time>2019-08-17T14:01:57Z</time></trkpt><trkpt lat="45.1199395861" lon="6.3571263012"><ele>2431.31</ele><time>2019-08-17T14:02:09Z</time></trkpt><trkpt lat="45.1199235767" lon="6.3571382873"><ele>2430.83</ele><time>2019-08-17T14:02:11Z</time></trkpt><trkpt lat="45.1198300347" lon="6.3572899997"><ele>2429.39</ele><time>2019-08-17T14:02:26Z</time></trkpt><trkpt lat="45.1197434496" lon="6.3574300613"><ele>2428.43</ele><time>2019-08-17T14:02:40Z</time></trkpt><trkpt lat="45.1196618099" lon="6.3575447258"><ele>2425.06</ele><time>2019-08-17T14:02:53Z</time></trkpt><trkpt lat="45.1195725426" lon="6.3577114418"><ele>2422.66</ele><time>2019-08-17T14:03:07Z</time></trkpt><trkpt lat="45.1194879692" lon="6.3578571193"><ele>2419.30</ele><time>2019-08-17T14:03:24Z</time></trkpt><trkpt lat="45.1194430422" lon="6.3579299580"><ele>2419.30</ele><time>2019-08-17T14:03:35Z</time></trkpt><trkpt lat="45.1193449739" lon="6.3579996116"><ele>2415.93</ele><time>2019-08-17T14:03:47Z</time></trkpt><trkpt lat="45.1193188224" lon="6.3580405153"><ele>2415.45</ele><time>2019-08-17T14:03:51Z</time></trkpt><trkpt lat="45.1192702074" lon="6.3581754640"><ele>2413.53</ele><time>2019-08-17T14:04:05Z</time></trkpt><trkpt lat="45.1192653459" lon="6.3582324609"><ele>2412.57</ele><time>2019-08-17T14:04:11Z</time></trkpt><trkpt lat="45.1192074269" lon="6.3583273441"><ele>2412.57</ele><time>2019-08-17T14:04:20Z</time></trkpt><trkpt lat="45.1191254519" lon="6.3584763743"><ele>2409.20</ele><time>2019-08-17T14:04:36Z</time></trkpt><trkpt lat="45.1191039104" lon="6.3584974129"><ele>2408.72</ele><time>2019-08-17T14:04:39Z</time></trkpt><trkpt lat="45.1190035790" lon="6.3586519752"><ele>2406.80</ele><time>2019-08-17T14:04:54Z</time></trkpt><trkpt lat="45.1190034952" lon="6.3586737681"><ele>2405.36</ele><time>2019-08-17T14:05:06Z</time></trkpt><trkpt lat="45.1189348474" lon="6.3588286657"><ele>2403.91</ele><time>2019-08-17T14:05:19Z</time></trkpt><trkpt lat="45.1188565604" lon="6.3590504508"><ele>2402.95</ele><time>2019-08-17T14:05:35Z</time></trkpt><trkpt lat="45.1188143995" lon="6.3591294922"><ele>2402.47</ele><time>2019-08-17T14:05:43Z</time></trkpt><trkpt lat="45.1187876612" lon="6.3593254611"><ele>2401.51</ele><time>2019-08-17T14:05:59Z</time></trkpt><trkpt lat="45.1187255513" lon="6.3594715577"><ele>2400.55</ele><time>2019-08-17T14:06:13Z</time></trkpt><trkpt lat="45.1186714880" lon="6.3595640939"><ele>2400.07</ele><time>2019-08-17T14:06:26Z</time></trkpt><trkpt lat="45.1186129823" lon="6.3596863020"><ele>2396.70</ele><time>2019-08-17T14:06:40Z</time></trkpt><trkpt lat="45.1185600925" lon="6.3597963564"><ele>2394.30</ele><time>2019-08-17T14:06:54Z</time></trkpt><trkpt lat="45.1185031794" lon="6.3599032257"><ele>2391.42</ele><time>2019-08-17T14:07:07Z</time></trkpt><trkpt lat="45.1184615213" lon="6.3600140344"><ele>2390.46</ele><time>2019-08-17T14:07:17Z</time></trkpt><trkpt lat="45.1183745172" lon="6.3601785712"><ele>2388.05</ele><time>2019-08-17T14:07:32Z</time></trkpt><trkpt lat="45.1183230523" lon="6.3603187166"><ele>2385.17</ele><time>2019-08-17T14:07:47Z</time></trkpt><trkpt lat="45.1183135808" lon="6.3603488915"><ele>2384.69</ele><time>2019-08-17T14:07:50Z</time></trkpt><trkpt lat="45.1182590984" lon="6.3605160266"><ele>2382.28</ele><time>2019-08-17T14:08:04Z</time></trkpt><trkpt lat="45.1182472799" lon="6.3605839200"><ele>2382.28</ele><time>2019-08-17T14:08:09Z</time></trkpt><trkpt lat="45.1182718389" lon="6.3606151845"><ele>2381.32</ele><time>2019-08-17T14:08:22Z</time></trkpt><trkpt lat="45.1182528958" lon="6.3606892806"><ele>2380.84</ele><time>2019-08-17T14:08:29Z</time></trkpt><trkpt lat="45.1182333659" lon="6.3608688209"><ele>2377.96</ele><time>2019-08-17T14:08:44Z</time></trkpt><trkpt lat="45.1182093937" lon="6.3610482775"><ele>2375.55</ele><time>2019-08-17T14:09:00Z</time></trkpt><trkpt lat="45.1182095613" lon="6.3611325994"><ele>2374.59</ele><time>2019-08-17T14:09:06Z</time></trkpt><trkpt lat="45.1182443462" lon="6.3613226172"><ele>2374.11</ele><time>2019-08-17T14:09:20Z</time></trkpt><trkpt lat="45.1182572544" lon="6.3614437357"><ele>2374.11</ele><time>2019-08-17T14:09:28Z</time></trkpt><trkpt lat="45.1182875130" lon="6.3615710568"><ele>2372.67</ele><time>2019-08-17T14:09:44Z</time></trkpt><trkpt lat="45.1182927098" lon="6.3616246171"><ele>2372.67</ele><time>2019-08-17T14:09:57Z</time></trkpt><trkpt lat="45.1182409935" lon="6.3618910778"><ele>2369.79</ele><time>2019-08-17T14:10:15Z</time></trkpt><trkpt lat="45.1182362158" lon="6.3620014675"><ele>2368.35</ele><time>2019-08-17T14:10:31Z</time></trkpt><trkpt lat="45.1182593498" lon="6.3622893859"><ele>2366.42</ele><time>2019-08-17T14:10:50Z</time></trkpt><trkpt lat="45.1182525605" lon="6.3623233326"><ele>2365.46</ele><time>2019-08-17T14:10:54Z</time></trkpt><trkpt lat="45.1182608586" lon="6.3624613825"><ele>2364.50</ele><time>2019-08-17T14:11:03Z</time></trkpt><trkpt lat="45.1182410773" lon="6.3625588641"><ele>2363.06</ele><time>2019-08-17T14:11:11Z</time></trkpt><trkpt lat="45.1182445139" lon="6.3626153581"><ele>2362.58</ele><time>2019-08-17T14:11:15Z</time></trkpt><trkpt lat="45.1182444301" lon="6.3627863489"><ele>2360.65</ele><time>2019-08-17T14:11:29Z</time></trkpt><trkpt lat="45.1182408258" lon="6.3628713414"><ele>2358.73</ele><time>2019-08-17T14:11:37Z</time></trkpt><trkpt lat="45.1182571705" lon="6.3629828207"><ele>2357.29</ele><time>2019-08-17T14:11:46Z</time></trkpt><trkpt lat="45.1182437595" lon="6.3631280791"><ele>2354.41</ele><time>2019-08-17T14:12:01Z</time></trkpt><trkpt lat="45.1182393171" lon="6.3633002434"><ele>2350.56</ele><time>2019-08-17T14:12:16Z</time></trkpt><trkpt lat="45.1182063762" lon="6.3634118903"><ele>2348.16</ele><time>2019-08-17T14:12:30Z</time></trkpt><trkpt lat="45.1181879360" lon="6.3635087013"><ele>2346.23</ele><time>2019-08-17T14:12:39Z</time></trkpt><trkpt lat="45.1181839965" lon="6.3635366131"><ele>2346.23</ele><time>2019-08-17T14:12:41Z</time></trkpt><trkpt lat="45.1181780454" lon="6.3636987191"><ele>2344.31</ele><time>2019-08-17T14:12:56Z</time></trkpt><trkpt lat="45.1181673165" lon="6.3638393674"><ele>2341.43</ele><time>2019-08-17T14:13:10Z</time></trkpt><trkpt lat="45.1181645505" lon="6.3638500124"><ele>2341.43</ele><time>2019-08-17T14:13:11Z</time></trkpt><trkpt lat="45.1181466132" lon="6.3640113641"><ele>2338.06</ele><time>2019-08-17T14:13:27Z</time></trkpt><trkpt lat="45.1181401592" lon="6.3640409522"><ele>2337.58</ele><time>2019-08-17T14:13:30Z</time></trkpt><trkpt lat="45.1181083918" lon="6.3642512541"><ele>2334.70</ele><time>2019-08-17T14:13:47Z</time></trkpt><trkpt lat="45.1180663984" lon="6.3643815089"><ele>2331.33</ele><time>2019-08-17T14:14:01Z</time></trkpt><trkpt lat="45.1180579327" lon="6.3644888811"><ele>2328.93</ele><time>2019-08-17T14:14:14Z</time></trkpt><trkpt lat="45.1180419233" lon="6.3645607140"><ele>2326.53</ele><time>2019-08-17T14:14:25Z</time></trkpt><trkpt lat="45.1180383191" lon="6.3645957503"><ele>2325.57</ele><time>2019-08-17T14:14:28Z</time></trkpt><trkpt lat="45.1180135924" lon="6.3647498935"><ele>2323.64</ele><time>2019-08-17T14:14:42Z</time></trkpt><trkpt lat="45.1179981697" lon="6.3647436071"><ele>2323.16</ele><time>2019-08-17T14:14:54Z</time></trkpt><trkpt lat="45.1179977506" lon="6.3648099918"><ele>2322.20</ele><time>2019-08-17T14:15:09Z</time></trkpt><trkpt lat="45.1179573499" lon="6.3649738580"><ele>2320.28</ele><time>2019-08-17T14:15:23Z</time></trkpt><trkpt lat="45.1179600321" lon="6.3650958147"><ele>2318.36</ele><time>2019-08-17T14:15:35Z</time></trkpt><trkpt lat="45.1179293543" lon="6.3651482016"><ele>2317.40</ele><time>2019-08-17T14:15:59Z</time></trkpt><trkpt lat="45.1179170329" lon="6.3652056176"><ele>2316.43</ele><time>2019-08-17T14:16:04Z</time></trkpt><trkpt lat="45.1178907976" lon="6.3653240539"><ele>2314.99</ele><time>2019-08-17T14:16:17Z</time></trkpt><trkpt lat="45.1178797334" lon="6.3653498702"><ele>2314.51</ele><time>2019-08-17T14:16:20Z</time></trkpt><trkpt lat="45.1178260893" lon="6.3654647861"><ele>2312.59</ele><time>2019-08-17T14:16:34Z</time></trkpt><trkpt lat="45.1178042963" lon="6.3655855693"><ele>2312.11</ele><time>2019-08-17T14:16:45Z</time></trkpt><trkpt lat="45.1177687570" lon="6.3656698074"><ele>2309.70</ele><time>2019-08-17T14:16:57Z</time></trkpt><trkpt lat="45.1177151967" lon="6.3657692168"><ele>2306.82</ele><time>2019-08-17T14:17:10Z</time></trkpt><trkpt lat="45.1176823396" lon="6.3658830430"><ele>2304.90</ele><time>2019-08-17T14:17:23Z</time></trkpt><trkpt lat="45.1176626422" lon="6.3660235237"><ele>2302.01</ele><time>2019-08-17T14:17:37Z</time></trkpt><trkpt lat="45.1176370773" lon="6.3661303092"><ele>2299.61</ele><time>2019-08-17T14:17:49Z</time></trkpt><trkpt lat="45.1176276058" lon="6.3662500028"><ele>2297.69</ele><time>2019-08-17T14:18:01Z</time></trkpt><trkpt lat="45.1175932400" lon="6.3663074188"><ele>2296.25</ele><time>2019-08-17T14:18:09Z</time></trkpt><trkpt lat="45.1176090818" lon="6.3664674293"><ele>2294.32</ele><time>2019-08-17T14:18:22Z</time></trkpt><trkpt lat="45.1175972633" lon="6.3665627316"><ele>2291.44</ele><time>2019-08-17T14:18:34Z</time></trkpt><trkpt lat="45.1176022924" lon="6.3667113427"><ele>2289.52</ele><time>2019-08-17T14:18:47Z</time></trkpt><trkpt lat="45.1175975148" lon="6.3668713532"><ele>2287.11</ele><time>2019-08-17T14:19:00Z</time></trkpt><trkpt lat="45.1175903063" lon="6.3668851834"><ele>2286.63</ele><time>2019-08-17T14:19:02Z</time></trkpt><trkpt lat="45.1175945811" lon="6.3670415059"><ele>2285.19</ele><time>2019-08-17T14:19:16Z</time></trkpt><trkpt lat="45.1176167931" lon="6.3671068847"><ele>2285.19</ele><time>2019-08-17T14:19:28Z</time></trkpt><trkpt lat="45.1176196430" lon="6.3671940565"><ele>2283.75</ele><time>2019-08-17T14:19:40Z</time></trkpt><trkpt lat="45.1176195592" lon="6.3672660571"><ele>2282.79</ele><time>2019-08-17T14:19:49Z</time></trkpt><trkpt lat="45.1176092494" lon="6.3674039394"><ele>2281.83</ele><time>2019-08-17T14:20:02Z</time></trkpt><trkpt lat="45.1175975148" lon="6.3674230501"><ele>2281.83</ele><time>2019-08-17T14:20:04Z</time></trkpt><trkpt lat="45.1175758895" lon="6.3675385527"><ele>2280.38</ele><time>2019-08-17T14:20:15Z</time></trkpt><trkpt lat="45.1175703574" lon="6.3676467631"><ele>2280.38</ele><time>2019-08-17T14:20:22Z</time></trkpt><trkpt lat="45.1175171323" lon="6.3678304106"><ele>2278.46</ele><time>2019-08-17T14:20:35Z</time></trkpt><trkpt lat="45.1174306311" lon="6.3680126332"><ele>2276.06</ele><time>2019-08-17T14:20:51Z</time></trkpt><trkpt lat="45.1173919067" lon="6.3680936024"><ele>2274.62</ele><time>2019-08-17T14:21:00Z</time></trkpt><trkpt lat="45.1173580438" lon="6.3681868929"><ele>2272.21</ele><time>2019-08-17T14:21:10Z</time></trkpt><trkpt lat="45.1173629891" lon="6.3683904894"><ele>2270.29</ele><time>2019-08-17T14:21:25Z</time></trkpt><trkpt lat="45.1173062436" lon="6.3684842829"><ele>2268.37</ele><time>2019-08-17T14:21:38Z</time></trkpt><trkpt lat="45.1173031423" lon="6.3686075807"><ele>2266.45</ele><time>2019-08-17T14:21:50Z</time></trkpt><trkpt lat="45.1172916591" lon="6.3686965127"><ele>2265.48</ele><time>2019-08-17T14:21:59Z</time></trkpt><trkpt lat="45.1172878034" lon="6.3687229995"><ele>2264.52</ele><time>2019-08-17T14:22:01Z</time></trkpt><trkpt lat="45.1172915753" lon="6.3689302001"><ele>2264.04</ele><time>2019-08-17T14:22:15Z</time></trkpt><trkpt lat="45.1173217501" lon="6.3689962495"><ele>2265.48</ele><time>2019-08-17T14:22:24Z</time></trkpt><trkpt lat="45.1173083391" lon="6.3691032864"><ele>2264.04</ele><time>2019-08-17T14:22:35Z</time></trkpt><trkpt lat="45.1172789186" lon="6.3691829145"><ele>2262.60</ele><time>2019-08-17T14:22:41Z</time></trkpt><trkpt lat="45.1172542758" lon="6.3692786358"><ele>2261.16</ele><time>2019-08-17T14:22:52Z</time></trkpt><trkpt lat="45.1172232628" lon="6.3693540730"><ele>2259.72</ele><time>2019-08-17T14:23:02Z</time></trkpt><trkpt lat="45.1171560399" lon="6.3694410771"><ele>2258.27</ele><time>2019-08-17T14:23:14Z</time></trkpt><trkpt lat="45.1171205007" lon="6.3694800530"><ele>2257.79</ele><time>2019-08-17T14:23:19Z</time></trkpt><trkpt lat="45.1170596480" lon="6.3696673047"><ele>2255.87</ele><time>2019-08-17T14:23:36Z</time></trkpt><trkpt lat="45.1170294732" lon="6.3697947096"><ele>2254.91</ele><time>2019-08-17T14:23:48Z</time></trkpt><trkpt lat="45.1170109492" lon="6.3698838931"><ele>2252.51</ele><time>2019-08-17T14:24:00Z</time></trkpt><trkpt lat="45.1169871446" lon="6.3699585758"><ele>2250.10</ele><time>2019-08-17T14:24:13Z</time></trkpt><trkpt lat="45.1169815287" lon="6.3700444065"><ele>2248.66</ele><time>2019-08-17T14:24:25Z</time></trkpt><trkpt lat="45.1169935986" lon="6.3701500185"><ele>2246.26</ele><time>2019-08-17T14:24:36Z</time></trkpt><trkpt lat="45.1169718895" lon="6.3701770920"><ele>2246.26</ele><time>2019-08-17T14:24:51Z</time></trkpt><trkpt lat="45.1169739850" lon="6.3702426385"><ele>2244.82</ele><time>2019-08-17T14:25:03Z</time></trkpt><trkpt lat="45.1169570535" lon="6.3703752402"><ele>2243.37</ele><time>2019-08-17T14:25:15Z</time></trkpt><trkpt lat="45.1169609930" lon="6.3704994600"><ele>2241.93</ele><time>2019-08-17T14:25:28Z</time></trkpt><trkpt lat="45.1169565506" lon="6.3705430459"><ele>2241.45</ele><time>2019-08-17T14:25:39Z</time></trkpt><trkpt lat="45.1169489231" lon="6.3705692813"><ele>2240.97</ele><time>2019-08-17T14:25:41Z</time></trkpt><trkpt lat="45.1169469114" lon="6.3706249371"><ele>2240.01</ele><time>2019-08-17T14:25:55Z</time></trkpt><trkpt lat="45.1169409603" lon="6.3706417847"><ele>2240.01</ele><time>2019-08-17T14:25:59Z</time></trkpt><trkpt lat="45.1169518568" lon="6.3708734605"><ele>2240.97</ele><time>2019-08-17T14:26:15Z</time></trkpt><trkpt lat="45.1169827022" lon="6.3710771408"><ele>2239.05</ele><time>2019-08-17T14:26:29Z</time></trkpt><trkpt lat="45.1170019805" lon="6.3712746184"><ele>2238.57</ele><time>2019-08-17T14:26:43Z</time></trkpt><trkpt lat="45.1169878151" lon="6.3714239839"><ele>2236.64</ele><time>2019-08-17T14:26:57Z</time></trkpt><trkpt lat="45.1169959456" lon="6.3714759517"><ele>2236.64</ele><time>2019-08-17T14:27:02Z</time></trkpt><trkpt lat="45.1169976220" lon="6.3715580106"><ele>2236.16</ele><time>2019-08-17T14:27:08Z</time></trkpt><trkpt lat="45.1169941016" lon="6.3717643730"><ele>2236.16</ele><time>2019-08-17T14:27:22Z</time></trkpt><trkpt lat="45.1170072611" lon="6.3718555681"><ele>2235.68</ele><time>2019-08-17T14:27:28Z</time></trkpt><trkpt lat="45.1170077641" lon="6.3718996570"><ele>2235.68</ele><time>2019-08-17T14:27:30Z</time></trkpt><trkpt lat="45.1170195825" lon="6.3719352800"><ele>2235.20</ele><time>2019-08-17T14:27:33Z</time></trkpt><trkpt lat="45.1170330774" lon="6.3720019162"><ele>2235.20</ele><time>2019-08-17T14:27:38Z</time></trkpt><trkpt lat="45.1170673594" lon="6.3721251301"><ele>2235.20</ele><time>2019-08-17T14:27:47Z</time></trkpt><trkpt lat="45.1170914993" lon="6.3721576519"><ele>2236.16</ele><time>2019-08-17T14:27:51Z</time></trkpt><trkpt lat="45.1170978695" lon="6.3721687160"><ele>2236.16</ele><time>2019-08-17T14:27:52Z</time></trkpt><trkpt lat="45.1171096042" lon="6.3721980527"><ele>2236.16</ele><time>2019-08-17T14:27:54Z</time></trkpt><trkpt lat="45.1171410363" lon="6.3722911756"><ele>2237.61</ele><time>2019-08-17T14:28:08Z</time></trkpt><trkpt lat="45.1171309780" lon="6.3722953666"><ele>2237.61</ele><time>2019-08-17T14:28:35Z</time></trkpt><trkpt lat="45.1171190757" lon="6.3722890802"><ele>2238.09</ele><time>2019-08-17T14:29:02Z</time></trkpt><trkpt lat="45.1171323191" lon="6.3723019045"><ele>2238.09</ele><time>2019-08-17T14:29:19Z</time></trkpt><trkpt lat="45.1171142980" lon="6.3723200932"><ele>2237.61</ele><time>2019-08-17T14:29:36Z</time></trkpt><trkpt lat="45.1171265356" lon="6.3723424729"><ele>2237.61</ele><time>2019-08-17T14:29:38Z</time></trkpt><trkpt lat="45.1171415392" lon="6.3723784313"><ele>2237.61</ele><time>2019-08-17T14:29:41Z</time></trkpt><trkpt lat="45.1171773300" lon="6.3725267909"><ele>2237.61</ele><time>2019-08-17T14:29:51Z</time></trkpt><trkpt lat="45.1171714626" lon="6.3726080954"><ele>2237.61</ele><time>2019-08-17T14:29:55Z</time></trkpt><trkpt lat="45.1171863824" lon="6.3726863824"><ele>2237.61</ele><time>2019-08-17T14:30:10Z</time></trkpt><trkpt lat="45.1172204968" lon="6.3727730513"><ele>2237.61</ele><time>2019-08-17T14:30:17Z</time></trkpt><trkpt lat="45.1172327343" lon="6.3729345705"><ele>2237.61</ele><time>2019-08-17T14:30:28Z</time></trkpt><trkpt lat="45.1172137912" lon="6.3729807548"><ele>2237.61</ele><time>2019-08-17T14:30:32Z</time></trkpt><trkpt lat="45.1172107738" lon="6.3730779849"><ele>2236.16</ele><time>2019-08-17T14:30:40Z</time></trkpt><trkpt lat="45.1172099356" lon="6.3731366582"><ele>2234.72</ele><time>2019-08-17T14:30:45Z</time></trkpt><trkpt lat="45.1172215026" lon="6.3733296096"><ele>2232.32</ele><time>2019-08-17T14:30:57Z</time></trkpt><trkpt lat="45.1172265317" lon="6.3734661508"><ele>2231.36</ele><time>2019-08-17T14:31:06Z</time></trkpt><trkpt lat="45.1172172278" lon="6.3735480420"><ele>2230.40</ele><time>2019-08-17T14:31:12Z</time></trkpt><trkpt lat="45.1172346622" lon="6.3736929651"><ele>2229.92</ele><time>2019-08-17T14:31:21Z</time></trkpt><trkpt lat="45.1172832772" lon="6.3738081325"><ele>2229.43</ele><time>2019-08-17T14:31:30Z</time></trkpt><trkpt lat="45.1173549425" lon="6.3739348669"><ele>2231.36</ele><time>2019-08-17T14:31:43Z</time></trkpt><trkpt lat="45.1174073294" lon="6.3739952166"><ele>2232.32</ele><time>2019-08-17T14:31:52Z</time></trkpt><trkpt lat="45.1174565312" lon="6.3740507886"><ele>2232.80</ele><time>2019-08-17T14:32:08Z</time></trkpt><trkpt lat="45.1175359078" lon="6.3740514591"><ele>2232.80</ele><time>2019-08-17T14:32:21Z</time></trkpt><trkpt lat="45.1175530069" lon="6.3740641158"><ele>2231.84</ele><time>2019-08-17T14:32:23Z</time></trkpt><trkpt lat="45.1176312938" lon="6.3741353620"><ele>2232.80</ele><time>2019-08-17T14:32:35Z</time></trkpt><trkpt lat="45.1176835969" lon="6.3741520420"><ele>2235.20</ele><time>2019-08-17T14:32:47Z</time></trkpt><trkpt lat="45.1177223213" lon="6.3741848990"><ele>2237.61</ele><time>2019-08-17T14:33:00Z</time></trkpt><trkpt lat="45.1177483052" lon="6.3742408063"><ele>2239.53</ele><time>2019-08-17T14:33:11Z</time></trkpt><trkpt lat="45.1177788153" lon="6.3742857333"><ele>2240.49</ele><time>2019-08-17T14:33:25Z</time></trkpt><trkpt lat="45.1177950762" lon="6.3744269684"><ele>2241.45</ele><time>2019-08-17T14:33:38Z</time></trkpt><trkpt lat="45.1178110018" lon="6.3744868152"><ele>2241.45</ele><time>2019-08-17T14:33:43Z</time></trkpt><trkpt lat="45.1178436074" lon="6.3746539503"><ele>2241.93</ele><time>2019-08-17T14:33:57Z</time></trkpt><trkpt lat="45.1178814098" lon="6.3746968657"><ele>2242.41</ele><time>2019-08-17T14:34:03Z</time></trkpt><trkpt lat="45.1179449446" lon="6.3748206664"><ele>2242.89</ele><time>2019-08-17T14:34:16Z</time></trkpt><trkpt lat="45.1180086471" lon="6.3749223389"><ele>2243.85</ele><time>2019-08-17T14:34:28Z</time></trkpt><trkpt lat="45.1180033665" lon="6.3749059942"><ele>2243.85</ele><time>2019-08-17T14:34:45Z</time></trkpt><trkpt lat="45.1180586033" lon="6.3749996200"><ele>2243.85</ele><time>2019-08-17T14:34:58Z</time></trkpt><trkpt lat="45.1180618722" lon="6.3750097621"><ele>2244.33</ele><time>2019-08-17T14:35:13Z</time></trkpt><trkpt lat="45.1181175280" lon="6.3750195689"><ele>2244.82</ele><time>2019-08-17T14:35:37Z</time></trkpt><trkpt lat="45.1182046998" lon="6.3751333952"><ele>2245.30</ele><time>2019-08-17T14:35:53Z</time></trkpt><trkpt lat="45.1182774547" lon="6.3751842733"><ele>2247.22</ele><time>2019-08-17T14:36:08Z</time></trkpt><trkpt lat="45.1183031872" lon="6.3752349000"><ele>2248.18</ele><time>2019-08-17T14:36:20Z</time></trkpt><trkpt lat="45.1183322724" lon="6.3752858620"><ele>2246.74</ele><time>2019-08-17T14:36:31Z</time></trkpt><trkpt lat="45.1183551550" lon="6.3753721118"><ele>2245.78</ele><time>2019-08-17T14:36:45Z</time></trkpt><trkpt lat="45.1183523051" lon="6.3753478043"><ele>2244.82</ele><time>2019-08-17T14:37:04Z</time></trkpt><trkpt lat="45.1183640398" lon="6.3753709383"><ele>2244.82</ele><time>2019-08-17T14:37:19Z</time></trkpt><trkpt lat="45.1183618605" lon="6.3754269294"><ele>2244.82</ele><time>2019-08-17T14:37:33Z</time></trkpt><trkpt lat="45.1183800492" lon="6.3754394185"><ele>2246.26</ele><time>2019-08-17T14:37:48Z</time></trkpt><trkpt lat="45.1183971483" lon="6.3754519075"><ele>2246.74</ele><time>2019-08-17T14:38:04Z</time></trkpt><trkpt lat="45.1183975674" lon="6.3754460402"><ele>2245.30</ele><time>2019-08-17T14:38:06Z</time></trkpt><trkpt lat="45.1183971483" lon="6.3753889594"><ele>2246.26</ele><time>2019-08-17T14:38:19Z</time></trkpt><trkpt lat="45.1183872577" lon="6.3753523305"><ele>2246.26</ele><time>2019-08-17T14:38:34Z</time></trkpt><trkpt lat="45.1183481142" lon="6.3753052242"><ele>2246.26</ele><time>2019-08-17T14:38:48Z</time></trkpt><trkpt lat="45.1183431689" lon="6.3753578626"><ele>2245.30</ele><time>2019-08-17T14:39:04Z</time></trkpt><trkpt lat="45.1183419954" lon="6.3753306214"><ele>2244.82</ele><time>2019-08-17T14:39:21Z</time></trkpt><trkpt lat="45.1183501258" lon="6.3753187191"><ele>2243.85</ele><time>2019-08-17T14:39:36Z</time></trkpt><trkpt lat="45.1183714997" lon="6.3753125165"><ele>2245.30</ele><time>2019-08-17T14:39:42Z</time></trkpt><trkpt lat="45.1182984933" lon="6.3752080780"><ele>2245.30</ele><time>2019-08-17T14:39:55Z</time></trkpt><trkpt lat="45.1182611939" lon="6.3751481473"><ele>2245.30</ele><time>2019-08-17T14:40:10Z</time></trkpt><trkpt lat="45.1182796340" lon="6.3751807529"><ele>2245.78</ele><time>2019-08-17T14:40:26Z</time></trkpt><trkpt lat="45.1182796340" lon="6.3752457965"><ele>2243.85</ele><time>2019-08-17T14:40:40Z</time></trkpt><trkpt lat="45.1182644628" lon="6.3753066491"><ele>2243.37</ele><time>2019-08-17T14:40:51Z</time></trkpt><trkpt lat="45.1182286721" lon="6.3753144443"><ele>2242.41</ele><time>2019-08-17T14:41:03Z</time></trkpt><trkpt lat="45.1182161830" lon="6.3752944116"><ele>2241.93</ele><time>2019-08-17T14:41:17Z</time></trkpt><trkpt lat="45.1182036102" lon="6.3753120974"><ele>2241.93</ele><time>2019-08-17T14:41:36Z</time></trkpt><trkpt lat="45.1182054542" lon="6.3752690982"><ele>2241.93</ele><time>2019-08-17T14:41:54Z</time></trkpt><trkpt lat="45.1181619521" lon="6.3752525859"><ele>2241.93</ele><time>2019-08-17T14:42:16Z</time></trkpt><trkpt lat="45.1181257423" lon="6.3752557710"><ele>2240.49</ele><time>2019-08-17T14:42:34Z</time></trkpt><trkpt lat="45.1180802286" lon="6.3751877937"><ele>2240.49</ele><time>2019-08-17T14:42:41Z</time></trkpt><trkpt lat="45.1180674043" lon="6.3751492370"><ele>2238.57</ele><time>2019-08-17T14:42:44Z</time></trkpt><trkpt lat="45.1180760376" lon="6.3750767335"><ele>2241.45</ele><time>2019-08-17T14:42:52Z</time></trkpt><trkpt lat="45.1181393210" lon="6.3750354107"><ele>2243.85</ele><time>2019-08-17T14:43:03Z</time></trkpt><trkpt lat="45.1182358805" lon="6.3750171382"><ele>2246.26</ele><time>2019-08-17T14:43:15Z</time></trkpt><trkpt lat="45.1182404906" lon="6.3750202395"><ele>2246.26</ele><time>2019-08-17T14:43:16Z</time></trkpt><trkpt lat="45.1182903629" lon="6.3749645837"><ele>2250.10</ele><time>2019-08-17T14:43:30Z</time></trkpt><trkpt lat="45.1182813942" lon="6.3748929184"><ele>2252.51</ele><time>2019-08-17T14:43:46Z</time></trkpt><trkpt lat="45.1182718389" lon="6.3748358376"><ele>2254.43</ele><time>2019-08-17T14:44:04Z</time></trkpt><trkpt lat="45.1182917878" lon="6.3748126198"><ele>2255.87</ele><time>2019-08-17T14:44:17Z</time></trkpt><trkpt lat="45.1182976551" lon="6.3748177327"><ele>2257.31</ele><time>2019-08-17T14:44:38Z</time></trkpt><trkpt lat="45.1182991639" lon="6.3747827802"><ele>2255.87</ele><time>2019-08-17T14:44:48Z</time></trkpt><trkpt lat="45.1182889380" lon="6.3747783378"><ele>2255.87</ele><time>2019-08-17T14:45:03Z</time></trkpt><trkpt lat="45.1182971522" lon="6.3748108596"><ele>2255.87</ele><time>2019-08-17T14:45:33Z</time></trkpt><trkpt lat="45.1183075458" lon="6.3748085126"><ele>2255.87</ele><time>2019-08-17T14:46:00Z</time></trkpt><trkpt lat="45.1183106471" lon="6.3748101052"><ele>2257.31</ele><time>2019-08-17T14:46:02Z</time></trkpt><trkpt lat="45.1182886027" lon="6.3747925870"><ele>2257.31</ele><time>2019-08-17T14:46:08Z</time></trkpt><trkpt lat="45.1182553265" lon="6.3747355901"><ele>2254.91</ele><time>2019-08-17T14:46:13Z</time></trkpt><trkpt lat="45.1181925461" lon="6.3747167308"><ele>2257.79</ele><time>2019-08-17T14:46:22Z</time></trkpt><trkpt lat="45.1181542408" lon="6.3747274596"><ele>2256.35</ele><time>2019-08-17T14:46:27Z</time></trkpt><trkpt lat="45.1180922985" lon="6.3747625798"><ele>2253.95</ele><time>2019-08-17T14:46:40Z</time></trkpt><trkpt lat="45.1181074698" lon="6.3748536073"><ele>2250.58</ele><time>2019-08-17T14:46:52Z</time></trkpt><trkpt lat="45.1181477029" lon="6.3749224227"><ele>2247.70</ele><time>2019-08-17T14:47:00Z</time></trkpt><trkpt lat="45.1181422547" lon="6.3750310522"><ele>2245.30</ele><time>2019-08-17T14:47:14Z</time></trkpt><trkpt lat="45.1180912089" lon="6.3751125243"><ele>2242.41</ele><time>2019-08-17T14:47:26Z</time></trkpt><trkpt lat="45.1181121636" lon="6.3752162922"><ele>2241.93</ele><time>2019-08-17T14:47:38Z</time></trkpt><trkpt lat="45.1181260776" lon="6.3751989417"><ele>2243.37</ele><time>2019-08-17T14:47:41Z</time></trkpt><trkpt lat="45.1181549113" lon="6.3752001990"><ele>2244.82</ele><time>2019-08-17T14:47:52Z</time></trkpt><trkpt lat="45.1181575935" lon="6.3752178010"><ele>2243.37</ele><time>2019-08-17T14:47:55Z</time></trkpt><trkpt lat="45.1181746926" lon="6.3752294518"><ele>2244.82</ele><time>2019-08-17T14:48:20Z</time></trkpt><trkpt lat="45.1181651372" lon="6.3751412742"><ele>2245.30</ele><time>2019-08-17T14:48:43Z</time></trkpt><trkpt lat="45.1181366388" lon="6.3752015401"><ele>2243.85</ele><time>2019-08-17T14:48:52Z</time></trkpt><trkpt lat="45.1181560010" lon="6.3753757160"><ele>2241.45</ele><time>2019-08-17T14:49:06Z</time></trkpt><trkpt lat="45.1181573421" lon="6.3754179608"><ele>2240.49</ele><time>2019-08-17T14:49:12Z</time></trkpt><trkpt lat="45.1181667298" lon="6.3754367363"><ele>2240.01</ele><time>2019-08-17T14:49:14Z</time></trkpt><trkpt lat="45.1182097290" lon="6.3755917177"><ele>2239.05</ele><time>2019-08-17T14:49:23Z</time></trkpt><trkpt lat="45.1182669774" lon="6.3757726829"><ele>2237.13</ele><time>2019-08-17T14:49:40Z</time></trkpt><trkpt lat="45.1182708330" lon="6.3757687435"><ele>2233.28</ele><time>2019-08-17T14:49:59Z</time></trkpt><trkpt lat="45.1182700787" lon="6.3757697493"><ele>2238.57</ele><time>2019-08-17T14:50:00Z</time></trkpt><trkpt lat="45.1182758622" lon="6.3757755328"><ele>2236.64</ele><time>2019-08-17T14:50:29Z</time></trkpt><trkpt lat="45.1182607748" lon="6.3757948950"><ele>2236.64</ele><time>2019-08-17T14:50:52Z</time></trkpt><trkpt lat="45.1183000021" lon="6.3758832403"><ele>2235.68</ele><time>2019-08-17T14:51:04Z</time></trkpt><trkpt lat="45.1183115691" lon="6.3759829849"><ele>2233.28</ele><time>2019-08-17T14:51:16Z</time></trkpt><trkpt lat="45.1183448453" lon="6.3760316838"><ele>2233.28</ele><time>2019-08-17T14:51:32Z</time></trkpt><trkpt lat="45.1184284966" lon="6.3762411475"><ele>2232.32</ele><time>2019-08-17T14:51:50Z</time></trkpt><trkpt lat="45.1184620243" lon="6.3762510382"><ele>2231.36</ele><time>2019-08-17T14:51:55Z</time></trkpt><trkpt lat="45.1184828952" lon="6.3762437459"><ele>2230.88</ele><time>2019-08-17T14:51:57Z</time></trkpt><trkpt lat="45.1185861602" lon="6.3762621861"><ele>2229.43</ele><time>2019-08-17T14:52:10Z</time></trkpt><trkpt lat="45.1186600886" lon="6.3762673829"><ele>2228.47</ele><time>2019-08-17T14:52:17Z</time></trkpt><trkpt lat="45.1187214442" lon="6.3762925286"><ele>2228.47</ele><time>2019-08-17T14:52:23Z</time></trkpt><trkpt lat="45.1188227814" lon="6.3763927761"><ele>2227.51</ele><time>2019-08-17T14:52:36Z</time></trkpt><trkpt lat="45.1189179998" lon="6.3764595799"><ele>2227.03</ele><time>2019-08-17T14:52:48Z</time></trkpt><trkpt lat="45.1189753320" lon="6.3765991386"><ele>2226.55</ele><time>2019-08-17T14:53:00Z</time></trkpt><trkpt lat="45.1189898327" lon="6.3767899107"><ele>2224.15</ele><time>2019-08-17T14:53:15Z</time></trkpt><trkpt lat="45.1190754119" lon="6.3768802676"><ele>2221.74</ele><time>2019-08-17T14:53:30Z</time></trkpt><trkpt lat="45.1191119570" lon="6.3769156393"><ele>2220.30</ele><time>2019-08-17T14:53:36Z</time></trkpt><trkpt lat="45.1191212609" lon="6.3769511785"><ele>2219.82</ele><time>2019-08-17T14:53:39Z</time></trkpt><trkpt lat="45.1192394458" lon="6.3771136198"><ele>2218.38</ele><time>2019-08-17T14:53:55Z</time></trkpt><trkpt lat="45.1192707941" lon="6.3771548588"><ele>2217.90</ele><time>2019-08-17T14:54:00Z</time></trkpt><trkpt lat="45.1192945149" lon="6.3771684375"><ele>2217.90</ele><time>2019-08-17T14:54:03Z</time></trkpt><trkpt lat="45.1194233447" lon="6.3772558607"><ele>2219.34</ele><time>2019-08-17T14:54:18Z</time></trkpt><trkpt lat="45.1194490772" lon="6.3772652484"><ele>2219.34</ele><time>2019-08-17T14:54:21Z</time></trkpt><trkpt lat="45.1194999553" lon="6.3772562798"><ele>2219.34</ele><time>2019-08-17T14:54:26Z</time></trkpt><trkpt lat="45.1195484865" lon="6.3772163820"><ele>2219.34</ele><time>2019-08-17T14:54:31Z</time></trkpt><trkpt lat="45.1196106803" lon="6.3772265241"><ele>2219.34</ele><time>2019-08-17T14:54:38Z</time></trkpt><trkpt lat="45.1196369994" lon="6.3772432879"><ele>2218.38</ele><time>2019-08-17T14:54:41Z</time></trkpt><trkpt lat="45.1197480597" lon="6.3772553578"><ele>2215.01</ele><time>2019-08-17T14:54:55Z</time></trkpt><trkpt lat="45.1197691821" lon="6.3772543520"><ele>2215.01</ele><time>2019-08-17T14:54:58Z</time></trkpt><trkpt lat="45.1198271848" lon="6.3772940822"><ele>2212.61</ele><time>2019-08-17T14:55:12Z</time></trkpt><trkpt lat="45.1198516600" lon="6.3773758896"><ele>2209.73</ele><time>2019-08-17T14:55:25Z</time></trkpt><trkpt lat="45.1198902167" lon="6.3774101716"><ele>2207.81</ele><time>2019-08-17T14:55:35Z</time></trkpt><trkpt lat="45.1199163683" lon="6.3774302881"><ele>2206.84</ele><time>2019-08-17T14:55:38Z</time></trkpt><trkpt lat="45.1199948229" lon="6.3774129376"><ele>2205.40</ele><time>2019-08-17T14:55:45Z</time></trkpt><trkpt lat="45.1200367324" lon="6.3774240855"><ele>2205.40</ele><time>2019-08-17T14:55:52Z</time></trkpt><trkpt lat="45.1201203000" lon="6.3775018696"><ele>2203.00</ele><time>2019-08-17T14:56:06Z</time></trkpt><trkpt lat="45.1201607846" lon="6.3775510713"><ele>2202.04</ele><time>2019-08-17T14:56:14Z</time></trkpt><trkpt lat="45.1202586014" lon="6.3776179589"><ele>2200.11</ele><time>2019-08-17T14:56:27Z</time></trkpt><trkpt lat="45.1203049533" lon="6.3776679989"><ele>2199.15</ele><time>2019-08-17T14:56:33Z</time></trkpt><trkpt lat="45.1203369722" lon="6.3777098246"><ele>2199.15</ele><time>2019-08-17T14:56:37Z</time></trkpt><trkpt lat="45.1204331126" lon="6.3778028637"><ele>2198.19</ele><time>2019-08-17T14:56:49Z</time></trkpt><trkpt lat="45.1204646286" lon="6.3778280094"><ele>2197.71</ele><time>2019-08-17T14:56:53Z</time></trkpt><trkpt lat="45.1204792131" lon="6.3778494671"><ele>2197.23</ele><time>2019-08-17T14:56:55Z</time></trkpt><trkpt lat="45.1206087973" lon="6.3779316097"><ele>2195.79</ele><time>2019-08-17T14:57:10Z</time></trkpt><trkpt lat="45.1207144093" lon="6.3780233916"><ele>2193.39</ele><time>2019-08-17T14:57:23Z</time></trkpt><trkpt lat="45.1208175067" lon="6.3780698273"><ele>2190.02</ele><time>2019-08-17T14:57:37Z</time></trkpt><trkpt lat="45.1209329255" lon="6.3781105634"><ele>2187.14</ele><time>2019-08-17T14:57:52Z</time></trkpt><trkpt lat="45.1210245397" lon="6.3781550713"><ele>2185.21</ele><time>2019-08-17T14:58:05Z</time></trkpt><trkpt lat="45.1211102866" lon="6.3782043569"><ele>2182.81</ele><time>2019-08-17T14:58:19Z</time></trkpt><trkpt lat="45.1211250387" lon="6.3782607671"><ele>2180.41</ele><time>2019-08-17T14:58:31Z</time></trkpt><trkpt lat="45.1211755816" lon="6.3783197757"><ele>2178.48</ele><time>2019-08-17T14:58:45Z</time></trkpt><trkpt lat="45.1212221012" lon="6.3783648703"><ele>2176.08</ele><time>2019-08-17T14:58:57Z</time></trkpt><trkpt lat="45.1212621666" lon="6.3784292433"><ele>2173.68</ele><time>2019-08-17T14:59:10Z</time></trkpt><trkpt lat="45.1212028228" lon="6.3785074465"><ele>2170.79</ele><time>2019-08-17T14:59:27Z</time></trkpt><trkpt lat="45.1211344264" lon="6.3785891701"><ele>2168.87</ele><time>2019-08-17T14:59:40Z</time></trkpt><trkpt lat="45.1210883260" lon="6.3786691334"><ele>2166.95</ele><time>2019-08-17T14:59:52Z</time></trkpt><trkpt lat="45.1210615039" lon="6.3787775114"><ele>2165.99</ele><time>2019-08-17T15:00:05Z</time></trkpt><trkpt lat="45.1210559718" lon="6.3788324967"><ele>2165.51</ele><time>2019-08-17T15:00:23Z</time></trkpt><trkpt lat="45.1210651081" lon="6.3788877334"><ele>2165.03</ele><time>2019-08-17T15:00:37Z</time></trkpt><trkpt lat="45.1210901700" lon="6.3789480831"><ele>2165.03</ele><time>2019-08-17T15:00:52Z</time></trkpt><trkpt lat="45.1211197581" lon="6.3789693732"><ele>2164.55</ele><time>2019-08-17T15:01:06Z</time></trkpt><trkpt lat="45.1211238652" lon="6.3790917490"><ele>2164.55</ele><time>2019-08-17T15:01:17Z</time></trkpt><trkpt lat="45.1211812813" lon="6.3791616540"><ele>2165.51</ele><time>2019-08-17T15:01:28Z</time></trkpt><trkpt lat="45.1212163176" lon="6.3792368397"><ele>2166.95</ele><time>2019-08-17T15:01:38Z</time></trkpt><trkpt lat="45.1212552935" lon="6.3792723790"><ele>2166.95</ele><time>2019-08-17T15:01:43Z</time></trkpt><trkpt lat="45.1212723088" lon="6.3793076668"><ele>2167.43</ele><time>2019-08-17T15:01:46Z</time></trkpt><trkpt lat="45.1213744842" lon="6.3794427831"><ele>2168.39</ele><time>2019-08-17T15:02:02Z</time></trkpt><trkpt lat="45.1214369293" lon="6.3794867042"><ele>2168.87</ele><time>2019-08-17T15:02:12Z</time></trkpt><trkpt lat="45.1214547828" lon="6.3795074914"><ele>2168.87</ele><time>2019-08-17T15:02:15Z</time></trkpt><trkpt lat="45.1215233468" lon="6.3795918971"><ele>2166.95</ele><time>2019-08-17T15:02:23Z</time></trkpt><trkpt lat="45.1215708721" lon="6.3796991017"><ele>2166.95</ele><time>2019-08-17T15:02:32Z</time></trkpt><trkpt lat="45.1216041483" lon="6.3797350600"><ele>2166.47</ele><time>2019-08-17T15:02:36Z</time></trkpt><trkpt lat="45.1216615643" lon="6.3798874430"><ele>2166.47</ele><time>2019-08-17T15:02:48Z</time></trkpt><trkpt lat="45.1216712873" lon="6.3800438493"><ele>2167.91</ele><time>2019-08-17T15:02:58Z</time></trkpt><trkpt lat="45.1216944214" lon="6.3800858427"><ele>2167.91</ele><time>2019-08-17T15:03:02Z</time></trkpt><trkpt lat="45.1217534300" lon="6.3801559992"><ele>2167.91</ele><time>2019-08-17T15:03:10Z</time></trkpt><trkpt lat="45.1218382549" lon="6.3802727591"><ele>2168.39</ele><time>2019-08-17T15:03:24Z</time></trkpt><trkpt lat="45.1218700223" lon="6.3803135790"><ele>2167.91</ele><time>2019-08-17T15:03:31Z</time></trkpt><trkpt lat="45.1218711957" lon="6.3803326897"><ele>2167.91</ele><time>2019-08-17T15:03:49Z</time></trkpt><trkpt lat="45.1218810864" lon="6.3802817278"><ele>2166.95</ele><time>2019-08-17T15:04:26Z</time></trkpt><trkpt lat="45.1218830142" lon="6.3802858349"><ele>2168.39</ele><time>2019-08-17T15:04:27Z</time></trkpt><trkpt lat="45.1219003648" lon="6.3803048618"><ele>2173.68</ele><time>2019-08-17T15:04:29Z</time></trkpt><trkpt lat="45.1219106745" lon="6.3803115673"><ele>2168.87</ele><time>2019-08-17T15:04:30Z</time></trkpt><trkpt lat="45.1219348144" lon="6.3803251460"><ele>2167.91</ele><time>2019-08-17T15:04:32Z</time></trkpt><trkpt lat="45.1220620517" lon="6.3804726675"><ele>2166.47</ele><time>2019-08-17T15:04:47Z</time></trkpt><trkpt lat="45.1220776420" lon="6.3804914430"><ele>2166.47</ele><time>2019-08-17T15:04:49Z</time></trkpt><trkpt lat="45.1221500617" lon="6.3805864099"><ele>2166.47</ele><time>2019-08-17T15:04:58Z</time></trkpt><trkpt lat="45.1222235709" lon="6.3806031737"><ele>2165.99</ele><time>2019-08-17T15:05:09Z</time></trkpt><trkpt lat="45.1222781371" lon="6.3806485198"><ele>2165.99</ele><time>2019-08-17T15:05:25Z</time></trkpt><trkpt lat="45.1223627944" lon="6.3807096239"><ele>2165.51</ele><time>2019-08-17T15:05:40Z</time></trkpt><trkpt lat="45.1223765407" lon="6.3807565626"><ele>2165.51</ele><time>2019-08-17T15:05:45Z</time></trkpt><trkpt lat="45.1223804802" lon="6.3808545470"><ele>2165.51</ele><time>2019-08-17T15:05:52Z</time></trkpt><trkpt lat="45.1223720144" lon="6.3808994740"><ele>2165.51</ele><time>2019-08-17T15:05:55Z</time></trkpt><trkpt lat="45.1223550830" lon="6.3809728157"><ele>2165.51</ele><time>2019-08-17T15:06:00Z</time></trkpt><trkpt lat="45.1222949009" lon="6.3811219297"><ele>2165.51</ele><time>2019-08-17T15:06:14Z</time></trkpt><trkpt lat="45.1222897042" lon="6.3811862189"><ele>2165.03</ele><time>2019-08-17T15:06:18Z</time></trkpt><trkpt lat="45.1222957391" lon="6.3812121190"><ele>2165.03</ele><time>2019-08-17T15:06:20Z</time></trkpt><trkpt lat="45.1222749520" lon="6.3814211637"><ele>2165.03</ele><time>2019-08-17T15:06:33Z</time></trkpt><trkpt lat="45.1222263370" lon="6.3815376721"><ele>2164.55</ele><time>2019-08-17T15:06:46Z</time></trkpt><trkpt lat="45.1221523248" lon="6.3816710282"><ele>2166.47</ele><time>2019-08-17T15:06:59Z</time></trkpt><trkpt lat="45.1220968366" lon="6.3818291109"><ele>2167.91</ele><time>2019-08-17T15:07:13Z</time></trkpt><trkpt lat="45.1220471319" lon="6.3820567634"><ele>2168.39</ele><time>2019-08-17T15:07:30Z</time></trkpt><trkpt lat="45.1220231596" lon="6.3822634611"><ele>2169.35</ele><time>2019-08-17T15:07:45Z</time></trkpt><trkpt lat="45.1220205612" lon="6.3822897803"><ele>2169.35</ele><time>2019-08-17T15:07:47Z</time></trkpt><trkpt lat="45.1219967566" lon="6.3823911175"><ele>2169.35</ele><time>2019-08-17T15:07:54Z</time></trkpt><trkpt lat="45.1219635643" lon="6.3824767806"><ele>2169.35</ele><time>2019-08-17T15:08:01Z</time></trkpt><trkpt lat="45.1219499018" lon="6.3824983221"><ele>2169.35</ele><time>2019-08-17T15:08:03Z</time></trkpt><trkpt lat="45.1219088305" lon="6.3826354500"><ele>2169.83</ele><time>2019-08-17T15:08:12Z</time></trkpt><trkpt lat="45.1218468882" lon="6.3827097137"><ele>2169.83</ele><time>2019-08-17T15:08:19Z</time></trkpt><trkpt lat="45.1218327228" lon="6.3827927783"><ele>2169.83</ele><time>2019-08-17T15:08:25Z</time></trkpt><trkpt lat="45.1217193156" lon="6.3829731569"><ele>2168.87</ele><time>2019-08-17T15:08:41Z</time></trkpt><trkpt lat="45.1216810942" lon="6.3832363486"><ele>2167.91</ele><time>2019-08-17T15:08:57Z</time></trkpt><trkpt lat="45.1215872169" lon="6.3834500033"><ele>2166.95</ele><time>2019-08-17T15:09:14Z</time></trkpt><trkpt lat="45.1215797570" lon="6.3836120255"><ele>2166.95</ele><time>2019-08-17T15:09:24Z</time></trkpt><trkpt lat="45.1215419546" lon="6.3838603813"><ele>2166.95</ele><time>2019-08-17T15:09:41Z</time></trkpt><trkpt lat="45.1215478219" lon="6.3840734493"><ele>2165.03</ele><time>2019-08-17T15:09:56Z</time></trkpt><trkpt lat="45.1215569582" lon="6.3841810729"><ele>2164.55</ele><time>2019-08-17T15:10:04Z</time></trkpt><trkpt lat="45.1215036493" lon="6.3844161015"><ele>2163.10</ele><time>2019-08-17T15:10:21Z</time></trkpt><trkpt lat="45.1215004642" lon="6.3844379783"><ele>2162.62</ele><time>2019-08-17T15:10:23Z</time></trkpt><trkpt lat="45.1214832813" lon="6.3846418262"><ele>2161.66</ele><time>2019-08-17T15:10:37Z</time></trkpt><trkpt lat="45.1214713790" lon="6.3847090490"><ele>2161.18</ele><time>2019-08-17T15:10:42Z</time></trkpt><trkpt lat="45.1213982049" lon="6.3849580754"><ele>2159.26</ele><time>2019-08-17T15:11:00Z</time></trkpt><trkpt lat="45.1213801000" lon="6.3849935308"><ele>2158.78</ele><time>2019-08-17T15:11:04Z</time></trkpt><trkpt lat="45.1213521883" lon="6.3850614242"><ele>2158.30</ele><time>2019-08-17T15:11:09Z</time></trkpt><trkpt lat="45.1212384459" lon="6.3853165694"><ele>2157.82</ele><time>2019-08-17T15:11:28Z</time></trkpt><trkpt lat="45.1211900823" lon="6.3855619915"><ele>2157.34</ele><time>2019-08-17T15:11:46Z</time></trkpt><trkpt lat="45.1211894955" lon="6.3856799249"><ele>2154.93</ele><time>2019-08-17T15:11:55Z</time></trkpt><trkpt lat="45.1211950276" lon="6.3857361674"><ele>2153.97</ele><time>2019-08-17T15:11:59Z</time></trkpt><trkpt lat="45.1211919263" lon="6.3858205732"><ele>2153.01</ele><time>2019-08-17T15:12:04Z</time></trkpt><trkpt lat="45.1211970393" lon="6.3858918194"><ele>2152.53</ele><time>2019-08-17T15:12:09Z</time></trkpt><trkpt lat="45.1211235300" lon="6.3861341402"><ele>2151.57</ele><time>2019-08-17T15:12:26Z</time></trkpt><trkpt lat="45.1211189199" lon="6.3862390816"><ele>2150.61</ele><time>2019-08-17T15:12:32Z</time></trkpt><trkpt lat="45.1211224403" lon="6.3862659037"><ele>2150.61</ele><time>2019-08-17T15:12:34Z</time></trkpt><trkpt lat="45.1210665330" lon="6.3865373097"><ele>2150.13</ele><time>2019-08-17T15:12:53Z</time></trkpt><trkpt lat="45.1210196782" lon="6.3867176045"><ele>2147.24</ele><time>2019-08-17T15:13:08Z</time></trkpt><trkpt lat="45.1209500246" lon="6.3869471010"><ele>2145.32</ele><time>2019-08-17T15:13:25Z</time></trkpt><trkpt lat="45.1208955422" lon="6.3871070277"><ele>2142.44</ele><time>2019-08-17T15:13:40Z</time></trkpt><trkpt lat="45.1208499447" lon="6.3873049244"><ele>2140.51</ele><time>2019-08-17T15:13:54Z</time></trkpt><trkpt lat="45.1207937021" lon="6.3874152303"><ele>2139.55</ele><time>2019-08-17T15:14:03Z</time></trkpt><trkpt lat="45.1207413990" lon="6.3874667790"><ele>2138.59</ele><time>2019-08-17T15:14:19Z</time></trkpt><trkpt lat="45.1207304187" lon="6.3875542860"><ele>2140.03</ele><time>2019-08-17T15:14:28Z</time></trkpt><trkpt lat="45.1207181811" lon="6.3875843771"><ele>2138.59</ele><time>2019-08-17T15:14:35Z</time></trkpt><trkpt lat="45.1207017526" lon="6.3876171503"><ele>2133.78</ele><time>2019-08-17T15:14:39Z</time></trkpt><trkpt lat="45.1206937060" lon="6.3876472414"><ele>2147.24</ele><time>2019-08-17T15:14:41Z</time></trkpt><trkpt lat="45.1206938736" lon="6.3876649272"><ele>2142.44</ele><time>2019-08-17T15:14:42Z</time></trkpt><trkpt lat="45.1206931192" lon="6.3876904082"><ele>2138.59</ele><time>2019-08-17T15:14:44Z</time></trkpt><trkpt lat="45.1206507906" lon="6.3878692780"><ele>2137.15</ele><time>2019-08-17T15:14:58Z</time></trkpt><trkpt lat="45.1206462644" lon="6.3879913185"><ele>2136.67</ele><time>2019-08-17T15:15:16Z</time></trkpt><trkpt lat="45.1206258964" lon="6.3881702721"><ele>2135.23</ele><time>2019-08-17T15:15:28Z</time></trkpt><trkpt lat="45.1205765270" lon="6.3883597031"><ele>2132.82</ele><time>2019-08-17T15:15:44Z</time></trkpt><trkpt lat="45.1205692347" lon="6.3884592801"><ele>2132.34</ele><time>2019-08-17T15:15:51Z</time></trkpt><trkpt lat="45.1205823943" lon="6.3887167722"><ele>2131.38</ele><time>2019-08-17T15:16:09Z</time></trkpt><trkpt lat="45.1205802150" lon="6.3887842465"><ele>2130.42</ele><time>2019-08-17T15:16:14Z</time></trkpt><trkpt lat="45.1206076238" lon="6.3890167605"><ele>2127.53</ele><time>2019-08-17T15:16:30Z</time></trkpt><trkpt lat="45.1205876749" lon="6.3892166689"><ele>2125.61</ele><time>2019-08-17T15:16:46Z</time></trkpt><trkpt lat="45.1205828972" lon="6.3892404735"><ele>2125.13</ele><time>2019-08-17T15:16:48Z</time></trkpt><trkpt lat="45.1205785386" lon="6.3892613444"><ele>2125.13</ele><time>2019-08-17T15:16:50Z</time></trkpt><trkpt lat="45.1205780357" lon="6.3893377874"><ele>2124.65</ele><time>2019-08-17T15:16:55Z</time></trkpt><trkpt lat="45.1205616072" lon="6.3896165695"><ele>2122.25</ele><time>2019-08-17T15:17:12Z</time></trkpt><trkpt lat="45.1205160934" lon="6.3898590580"><ele>2121.29</ele><time>2019-08-17T15:17:28Z</time></trkpt><trkpt lat="45.1204771176" lon="6.3901131134"><ele>2121.29</ele><time>2019-08-17T15:17:44Z</time></trkpt><trkpt lat="45.1204538997" lon="6.3903152850"><ele>2120.32</ele><time>2019-08-17T15:17:59Z</time></trkpt><trkpt lat="45.1204456016" lon="6.3903512433"><ele>2120.32</ele><time>2019-08-17T15:18:02Z</time></trkpt><trkpt lat="45.1203892753" lon="6.3905438595"><ele>2118.88</ele><time>2019-08-17T15:18:17Z</time></trkpt><trkpt lat="45.1203523111" lon="6.3908021897"><ele>2117.92</ele><time>2019-08-17T15:18:33Z</time></trkpt><trkpt lat="45.1203562506" lon="6.3910353743"><ele>2117.92</ele><time>2019-08-17T15:18:49Z</time></trkpt><trkpt lat="45.1203248184" lon="6.3910840731"><ele>2116.96</ele><time>2019-08-17T15:19:04Z</time></trkpt><trkpt lat="45.1203180291" lon="6.3910965621"><ele>2111.67</ele><time>2019-08-17T15:19:16Z</time></trkpt><trkpt lat="45.1203161851" lon="6.3911070395"><ele>2119.84</ele><time>2019-08-17T15:19:17Z</time></trkpt><trkpt lat="45.1203071326" lon="6.3911274914"><ele>2116.48</ele><time>2019-08-17T15:19:19Z</time></trkpt><trkpt lat="45.1202509739" lon="6.3912601769"><ele>2115.52</ele><time>2019-08-17T15:19:29Z</time></trkpt><trkpt lat="45.1202262472" lon="6.3915435690"><ele>2114.56</ele><time>2019-08-17T15:19:47Z</time></trkpt><trkpt lat="45.1202274207" lon="6.3918156456"><ele>2113.12</ele><time>2019-08-17T15:20:03Z</time></trkpt><trkpt lat="45.1202192064" lon="6.3920759037"><ele>2113.12</ele><time>2019-08-17T15:20:19Z</time></trkpt><trkpt lat="45.1201998442" lon="6.3921857066"><ele>2113.12</ele><time>2019-08-17T15:20:26Z</time></trkpt><trkpt lat="45.1201836672" lon="6.3922383450"><ele>2114.56</ele><time>2019-08-17T15:20:29Z</time></trkpt><trkpt lat="45.1202052925" lon="6.3925187197"><ele>2115.04</ele><time>2019-08-17T15:20:48Z</time></trkpt><trkpt lat="45.1202301867" lon="6.3927576039"><ele>2112.15</ele><time>2019-08-17T15:21:08Z</time></trkpt><trkpt lat="45.1202320307" lon="6.3927706797"><ele>2113.12</ele><time>2019-08-17T15:21:26Z</time></trkpt><trkpt lat="45.1202323660" lon="6.3927711826"><ele>2111.67</ele><time>2019-08-17T15:21:40Z</time></trkpt><trkpt lat="45.1202270854" lon="6.3927736972"><ele>2112.63</ele><time>2019-08-17T15:21:44Z</time></trkpt><trkpt lat="45.1202329528" lon="6.3928062189"><ele>2116.00</ele><time>2019-08-17T15:21:46Z</time></trkpt><trkpt lat="45.1202524826" lon="6.3928453624"><ele>2112.15</ele><time>2019-08-17T15:21:49Z</time></trkpt><trkpt lat="45.1202596910" lon="6.3928977493"><ele>2112.15</ele><time>2019-08-17T15:21:53Z</time></trkpt><trkpt lat="45.1202861778" lon="6.3930731826"><ele>2108.79</ele><time>2019-08-17T15:22:09Z</time></trkpt><trkpt lat="45.1202822383" lon="6.3932307623"><ele>2106.39</ele><time>2019-08-17T15:22:24Z</time></trkpt><trkpt lat="45.1202894468" lon="6.3933843188"><ele>2103.98</ele><time>2019-08-17T15:22:39Z</time></trkpt><trkpt lat="45.1202924643" lon="6.3934971392"><ele>2102.54</ele><time>2019-08-17T15:22:48Z</time></trkpt><trkpt lat="45.1203218009" lon="6.3936135639"><ele>2101.10</ele><time>2019-08-17T15:22:58Z</time></trkpt><trkpt lat="45.1203118265" lon="6.3938607462"><ele>2098.70</ele><time>2019-08-17T15:23:16Z</time></trkpt><trkpt lat="45.1202972420" lon="6.3939541206"><ele>2096.77</ele><time>2019-08-17T15:23:25Z</time></trkpt><trkpt lat="45.1202973258" lon="6.3941076770"><ele>2095.33</ele><time>2019-08-17T15:23:36Z</time></trkpt><trkpt lat="45.1202990860" lon="6.3943273667"><ele>2093.41</ele><time>2019-08-17T15:23:52Z</time></trkpt><trkpt lat="45.1202685758" lon="6.3945516665"><ele>2091.00</ele><time>2019-08-17T15:24:07Z</time></trkpt><trkpt lat="45.1202333719" lon="6.3947938196"><ele>2090.04</ele><time>2019-08-17T15:24:23Z</time></trkpt><trkpt lat="45.1202012692" lon="6.3949938957"><ele>2089.08</ele><time>2019-08-17T15:24:38Z</time></trkpt><trkpt lat="45.1201565936" lon="6.3952086400"><ele>2087.64</ele><time>2019-08-17T15:24:52Z</time></trkpt><trkpt lat="45.1201555878" lon="6.3953269925"><ele>2086.68</ele><time>2019-08-17T15:25:01Z</time></trkpt><trkpt lat="45.1201021951" lon="6.3955369592"><ele>2084.76</ele><time>2019-08-17T15:25:17Z</time></trkpt><trkpt lat="45.1200290211" lon="6.3957236242"><ele>2083.31</ele><time>2019-08-17T15:25:33Z</time></trkpt><trkpt lat="45.1200196333" lon="6.3957578223"><ele>2082.83</ele><time>2019-08-17T15:25:36Z</time></trkpt><trkpt lat="45.1199650671" lon="6.3958891667"><ele>2079.95</ele><time>2019-08-17T15:25:49Z</time></trkpt><trkpt lat="45.1199505664" lon="6.3960004784"><ele>2078.99</ele><time>2019-08-17T15:26:01Z</time></trkpt><trkpt lat="45.1199387480" lon="6.3961162325"><ele>2076.10</ele><time>2019-08-17T15:26:11Z</time></trkpt><trkpt lat="45.1199223194" lon="6.3962475769"><ele>2073.22</ele><time>2019-08-17T15:26:25Z</time></trkpt><trkpt lat="45.1199259236" lon="6.3963526860"><ele>2072.26</ele><time>2019-08-17T15:26:33Z</time></trkpt><trkpt lat="45.1199203916" lon="6.3964623213"><ele>2070.82</ele><time>2019-08-17T15:26:44Z</time></trkpt><trkpt lat="45.1198928989" lon="6.3965642452"><ele>2068.41</ele><time>2019-08-17T15:26:56Z</time></trkpt><trkpt lat="45.1198661607" lon="6.3966833521"><ele>2066.01</ele><time>2019-08-17T15:27:09Z</time></trkpt><trkpt lat="45.1198457927" lon="6.3968113437"><ele>2064.09</ele><time>2019-08-17T15:27:23Z</time></trkpt><trkpt lat="45.1198379137" lon="6.3969471306"><ele>2061.68</ele><time>2019-08-17T15:27:37Z</time></trkpt><trkpt lat="45.1198191382" lon="6.3970215619"><ele>2060.24</ele><time>2019-08-17T15:27:46Z</time></trkpt><trkpt lat="45.1197891310" lon="6.3971864339"><ele>2057.84</ele><time>2019-08-17T15:28:02Z</time></trkpt><trkpt lat="45.1197923999" lon="6.3973249868"><ele>2055.92</ele><time>2019-08-17T15:28:15Z</time></trkpt><trkpt lat="45.1197767258" lon="6.3974956423"><ele>2053.51</ele><time>2019-08-17T15:28:29Z</time></trkpt><trkpt lat="45.1197932381" lon="6.3976535574"><ele>2051.11</ele><time>2019-08-17T15:28:44Z</time></trkpt><trkpt lat="45.1197498199" lon="6.3977632765"><ele>2048.71</ele><time>2019-08-17T15:28:59Z</time></trkpt><trkpt lat="45.1197525859" lon="6.3978071138"><ele>2048.23</ele><time>2019-08-17T15:29:09Z</time></trkpt><trkpt lat="45.1197514124" lon="6.3978065271"><ele>2046.78</ele><time>2019-08-17T15:29:11Z</time></trkpt><trkpt lat="45.1197491493" lon="6.3978081197"><ele>2048.23</ele><time>2019-08-17T15:29:15Z</time></trkpt><trkpt lat="45.1197488979" lon="6.3978056889"><ele>2046.30</ele><time>2019-08-17T15:29:19Z</time></trkpt><trkpt lat="45.1197398454" lon="6.3979399670"><ele>2045.34</ele><time>2019-08-17T15:29:32Z</time></trkpt><trkpt lat="45.1197329722" lon="6.3980935235"><ele>2042.94</ele><time>2019-08-17T15:29:48Z</time></trkpt><trkpt lat="45.1197312959" lon="6.3982751593"><ele>2040.05</ele><time>2019-08-17T15:30:01Z</time></trkpt><trkpt lat="45.1197695173" lon="6.3983366825"><ele>2039.57</ele><time>2019-08-17T15:30:06Z</time></trkpt><trkpt lat="45.1197684277" lon="6.3984439708"><ele>2036.69</ele><time>2019-08-17T15:30:18Z</time></trkpt><trkpt lat="45.1197239198" lon="6.3985006325"><ele>2034.77</ele><time>2019-08-17T15:30:27Z</time></trkpt><trkpt lat="45.1196538471" lon="6.3986549433"><ele>2032.36</ele><time>2019-08-17T15:30:42Z</time></trkpt><trkpt lat="45.1196496561" lon="6.3987925742"><ele>2029.48</ele><time>2019-08-17T15:30:58Z</time></trkpt><trkpt lat="45.1196520869" lon="6.3987785764"><ele>2021.31</ele><time>2019-08-17T15:31:05Z</time></trkpt><trkpt lat="45.1196551044" lon="6.3987816777"><ele>2034.29</ele><time>2019-08-17T15:31:06Z</time></trkpt><trkpt lat="45.1196558587" lon="6.3987907302"><ele>2031.88</ele><time>2019-08-17T15:31:07Z</time></trkpt><trkpt lat="45.1196319703" lon="6.3988495711"><ele>2029.00</ele><time>2019-08-17T15:31:20Z</time></trkpt><trkpt lat="45.1196148712" lon="6.3990056422"><ele>2025.64</ele><time>2019-08-17T15:31:35Z</time></trkpt><trkpt lat="45.1195581257" lon="6.3989334740"><ele>2024.19</ele><time>2019-08-17T15:31:49Z</time></trkpt><trkpt lat="45.1195093431" lon="6.3989273552"><ele>2022.75</ele><time>2019-08-17T15:31:54Z</time></trkpt><trkpt lat="45.1194427069" lon="6.3989121839"><ele>2021.79</ele><time>2019-08-17T15:32:06Z</time></trkpt><trkpt lat="45.1194541063" lon="6.3989075739"><ele>2022.75</ele><time>2019-08-17T15:32:20Z</time></trkpt><trkpt lat="45.1194499992" lon="6.3989485614"><ele>2014.58</ele><time>2019-08-17T15:32:26Z</time></trkpt><trkpt lat="45.1194482390" lon="6.3989438675"><ele>2024.67</ele><time>2019-08-17T15:32:27Z</time></trkpt><trkpt lat="45.1194472332" lon="6.3989383355"><ele>2027.56</ele><time>2019-08-17T15:32:28Z</time></trkpt><trkpt lat="45.1194416173" lon="6.3989467174"><ele>2024.19</ele><time>2019-08-17T15:32:29Z</time></trkpt><trkpt lat="45.1194556151" lon="6.3989771437"><ele>2021.79</ele><time>2019-08-17T15:32:44Z</time></trkpt><trkpt lat="45.1194524299" lon="6.3989714440"><ele>2021.79</ele><time>2019-08-17T15:33:12Z</time></trkpt><trkpt lat="45.1194512565" lon="6.3989550155"><ele>2020.83</ele><time>2019-08-17T15:33:39Z</time></trkpt><trkpt lat="45.1194444671" lon="6.3989457954"><ele>2020.83</ele><time>2019-08-17T15:34:02Z</time></trkpt><trkpt lat="45.1194384322" lon="6.3989661634"><ele>2020.35</ele><time>2019-08-17T15:34:30Z</time></trkpt><trkpt lat="45.1194474008" lon="6.3989628106"><ele>2020.35</ele><time>2019-08-17T15:34:53Z</time></trkpt><trkpt lat="45.1194497477" lon="6.3989720307"><ele>2020.35</ele><time>2019-08-17T15:35:20Z</time></trkpt><trkpt lat="45.1194452215" lon="6.3989577815"><ele>2020.35</ele><time>2019-08-17T15:35:46Z</time></trkpt><trkpt lat="45.1194440480" lon="6.3989690971"><ele>2020.35</ele><time>2019-08-17T15:36:02Z</time></trkpt><trkpt lat="45.1194413658" lon="6.3989732880"><ele>2019.87</ele><time>2019-08-17T15:36:29Z</time></trkpt><trkpt lat="45.1194453053" lon="6.3989704382"><ele>2019.87</ele><time>2019-08-17T15:36:44Z</time></trkpt><trkpt lat="45.1194394380" lon="6.3989618886"><ele>2019.87</ele><time>2019-08-17T15:37:03Z</time></trkpt><trkpt lat="45.1194551121" lon="6.3990141079"><ele>2019.87</ele><time>2019-08-17T15:37:18Z</time></trkpt><trkpt lat="45.1194591355" lon="6.3990142755"><ele>2021.79</ele><time>2019-08-17T15:37:20Z</time></trkpt><trkpt lat="45.1194649190" lon="6.3990369905"><ele>2021.79</ele><time>2019-08-17T15:37:30Z</time></trkpt><trkpt lat="45.1194714569" lon="6.3990612980"><ele>2020.35</ele><time>2019-08-17T15:37:32Z</time></trkpt><trkpt lat="45.1194736362" lon="6.3991043810"><ele>2009.29</ele><time>2019-08-17T15:37:37Z</time></trkpt><trkpt lat="45.1194716245" lon="6.3991348911"><ele>2043.90</ele><time>2019-08-17T15:37:39Z</time></trkpt><trkpt lat="45.1194730494" lon="6.3991462905"><ele>2025.15</ele><time>2019-08-17T15:37:40Z</time></trkpt><trkpt lat="45.1194701158" lon="6.3991503976"><ele>2019.39</ele><time>2019-08-17T15:37:41Z</time></trkpt><trkpt lat="45.1194702834" lon="6.3991502300"><ele>2019.39</ele><time>2019-08-17T15:37:42Z</time></trkpt><trkpt lat="45.1194766536" lon="6.3991943188"><ele>2018.43</ele><time>2019-08-17T15:37:50Z</time></trkpt><trkpt lat="45.1194983628" lon="6.3993299380"><ele>2017.46</ele><time>2019-08-17T15:38:00Z</time></trkpt><trkpt lat="45.1195765659" lon="6.3994208816"><ele>2016.98</ele><time>2019-08-17T15:38:12Z</time></trkpt><trkpt lat="45.1196214091" lon="6.3995767850"><ele>2016.98</ele><time>2019-08-17T15:38:25Z</time></trkpt><trkpt lat="45.1196219958" lon="6.3998155855"><ele>2015.54</ele><time>2019-08-17T15:38:40Z</time></trkpt><trkpt lat="45.1196493208" lon="6.3999962993"><ele>2014.10</ele><time>2019-08-17T15:38:55Z</time></trkpt><trkpt lat="45.1196420286" lon="6.4000862371"><ele>2013.14</ele><time>2019-08-17T15:39:07Z</time></trkpt><trkpt lat="45.1196351554" lon="6.4001283143"><ele>2012.18</ele><time>2019-08-17T15:39:18Z</time></trkpt><trkpt lat="45.1196396817" lon="6.4001473412"><ele>2012.18</ele><time>2019-08-17T15:39:32Z</time></trkpt><trkpt lat="45.1196497399" lon="6.4001385402"><ele>2011.70</ele><time>2019-08-17T15:39:47Z</time></trkpt><trkpt lat="45.1196552720" lon="6.4001533762"><ele>2011.22</ele><time>2019-08-17T15:40:10Z</time></trkpt><trkpt lat="45.1196471415" lon="6.4001651108"><ele>2010.73</ele><time>2019-08-17T15:40:46Z</time></trkpt><trkpt lat="45.1196520869" lon="6.4001491014"><ele>2010.73</ele><time>2019-08-17T15:41:23Z</time></trkpt><trkpt lat="45.1196422800" lon="6.4001320023"><ele>2010.73</ele><time>2019-08-17T15:41:57Z</time></trkpt><trkpt lat="45.1196437050" lon="6.4001363609"><ele>2010.73</ele><time>2019-08-17T15:42:30Z</time></trkpt><trkpt lat="45.1196372509" lon="6.4001356903"><ele>2009.29</ele><time>2019-08-17T15:43:07Z</time></trkpt><trkpt lat="45.1196461357" lon="6.4001306612"><ele>2008.81</ele><time>2019-08-17T15:43:55Z</time></trkpt><trkpt lat="45.1196354069" lon="6.4001329243"><ele>2010.25</ele><time>2019-08-17T15:44:18Z</time></trkpt><trkpt lat="45.1196310483" lon="6.4001247101"><ele>2010.25</ele><time>2019-08-17T15:45:01Z</time></trkpt><trkpt lat="45.1196274441" lon="6.4001221955"><ele>2011.22</ele><time>2019-08-17T15:45:43Z</time></trkpt><trkpt lat="45.1196241751" lon="6.4001183398"><ele>2011.22</ele><time>2019-08-17T15:46:20Z</time></trkpt><trkpt lat="45.1196273603" lon="6.4001311641"><ele>2011.22</ele><time>2019-08-17T15:47:04Z</time></trkpt><trkpt lat="45.1196325570" lon="6.4001402166"><ele>2010.73</ele><time>2019-08-17T15:47:41Z</time></trkpt><trkpt lat="45.1196470577" lon="6.4001444075"><ele>2010.73</ele><time>2019-08-17T15:48:20Z</time></trkpt><trkpt lat="45.1196370833" lon="6.4001349360"><ele>2010.73</ele><time>2019-08-17T15:48:44Z</time></trkpt><trkpt lat="45.1196363289" lon="6.4001417253"><ele>2011.70</ele><time>2019-08-17T15:49:02Z</time></trkpt><trkpt lat="45.1196141168" lon="6.4001445752"><ele>2010.25</ele><time>2019-08-17T15:49:15Z</time></trkpt><trkpt lat="45.1196384244" lon="6.4002167434"><ele>2009.77</ele><time>2019-08-17T15:49:21Z</time></trkpt><trkpt lat="45.1196562778" lon="6.4002600778"><ele>2009.77</ele><time>2019-08-17T15:49:25Z</time></trkpt><trkpt lat="45.1196799148" lon="6.4004480839"><ele>2006.89</ele><time>2019-08-17T15:49:41Z</time></trkpt><trkpt lat="45.1196921524" lon="6.4005382732"><ele>2006.41</ele><time>2019-08-17T15:49:48Z</time></trkpt><trkpt lat="45.1196836028" lon="6.4006168954"><ele>2004.97</ele><time>2019-08-17T15:49:56Z</time></trkpt><trkpt lat="45.1196877100" lon="6.4006703719"><ele>2004.49</ele><time>2019-08-17T15:50:00Z</time></trkpt><trkpt lat="45.1196966786" lon="6.4006965235"><ele>2004.01</ele><time>2019-08-17T15:50:02Z</time></trkpt><trkpt lat="45.1197030488" lon="6.4007442165"><ele>2003.52</ele><time>2019-08-17T15:50:05Z</time></trkpt><trkpt lat="45.1197546814" lon="6.4009026345"><ele>2002.56</ele><time>2019-08-17T15:50:20Z</time></trkpt><trkpt lat="45.1197832637" lon="6.4009892195"><ele>2001.60</ele><time>2019-08-17T15:50:27Z</time></trkpt><trkpt lat="45.1197957527" lon="6.4010716137"><ele>2000.16</ele><time>2019-08-17T15:50:35Z</time></trkpt><trkpt lat="45.1198364049" lon="6.4011557680"><ele>1997.76</ele><time>2019-08-17T15:50:44Z</time></trkpt><trkpt lat="45.1198800746" lon="6.4013329614"><ele>1995.83</ele><time>2019-08-17T15:51:01Z</time></trkpt><trkpt lat="45.1198878698" lon="6.4013498928"><ele>1994.87</ele><time>2019-08-17T15:51:05Z</time></trkpt><trkpt lat="45.1198947430" lon="6.4014050458"><ele>1994.39</ele><time>2019-08-17T15:51:09Z</time></trkpt><trkpt lat="45.1198898815" lon="6.4016834088"><ele>1991.51</ele><time>2019-08-17T15:51:28Z</time></trkpt><trkpt lat="45.1199088246" lon="6.4018746000"><ele>1990.55</ele><time>2019-08-17T15:51:42Z</time></trkpt><trkpt lat="45.1199228223" lon="6.4019152522"><ele>1989.59</ele><time>2019-08-17T15:51:47Z</time></trkpt><trkpt lat="45.1199172903" lon="6.4021005761"><ele>1987.18</ele><time>2019-08-17T15:51:59Z</time></trkpt><trkpt lat="45.1199384127" lon="6.4022279810"><ele>1986.70</ele><time>2019-08-17T15:52:07Z</time></trkpt><trkpt lat="45.1199894585" lon="6.4024335891"><ele>1986.70</ele><time>2019-08-17T15:52:21Z</time></trkpt><trkpt lat="45.1200834196" lon="6.4025981259"><ele>1986.70</ele><time>2019-08-17T15:52:36Z</time></trkpt><trkpt lat="45.1201129239" lon="6.4025634248"><ele>1988.14</ele><time>2019-08-17T15:52:48Z</time></trkpt><trkpt lat="45.1201662328" lon="6.4026455674"><ele>1988.62</ele><time>2019-08-17T15:53:00Z</time></trkpt><trkpt lat="45.1201491337" lon="6.4028874692"><ele>1986.70</ele><time>2019-08-17T15:53:18Z</time></trkpt><trkpt lat="45.1201495528" lon="6.4029680192"><ele>1985.74</ele><time>2019-08-17T15:53:24Z</time></trkpt><trkpt lat="45.1201621257" lon="6.4030027203"><ele>1985.74</ele><time>2019-08-17T15:53:27Z</time></trkpt><trkpt lat="45.1201891992" lon="6.4031090867"><ele>1985.26</ele><time>2019-08-17T15:53:35Z</time></trkpt><trkpt lat="45.1202871837" lon="6.4033058099"><ele>1983.82</ele><time>2019-08-17T15:53:50Z</time></trkpt><trkpt lat="45.1203000080" lon="6.4033397567"><ele>1983.82</ele><time>2019-08-17T15:53:52Z</time></trkpt><trkpt lat="45.1203077193" lon="6.4033613820"><ele>1983.34</ele><time>2019-08-17T15:53:53Z</time></trkpt><trkpt lat="45.1203155983" lon="6.4033726137"><ele>1983.34</ele><time>2019-08-17T15:53:54Z</time></trkpt><trkpt lat="45.1203236450" lon="6.4033817500"><ele>1983.34</ele><time>2019-08-17T15:53:55Z</time></trkpt><trkpt lat="45.1203312725" lon="6.4033954125"><ele>1983.34</ele><time>2019-08-17T15:53:56Z</time></trkpt><trkpt lat="45.1203360502" lon="6.4034100808"><ele>1983.34</ele><time>2019-08-17T15:53:57Z</time></trkpt><trkpt lat="45.1203424204" lon="6.4034485538"><ele>1983.34</ele><time>2019-08-17T15:54:00Z</time></trkpt><trkpt lat="45.1203445159" lon="6.4034649823"><ele>1982.86</ele><time>2019-08-17T15:54:01Z</time></trkpt><trkpt lat="45.1203309372" lon="6.4036182035"><ele>1981.90</ele><time>2019-08-17T15:54:10Z</time></trkpt><trkpt lat="45.1203274168" lon="6.4036317822"><ele>1981.90</ele><time>2019-08-17T15:54:11Z</time></trkpt><trkpt lat="45.1203096472" lon="6.4037979115"><ele>1980.93</ele><time>2019-08-17T15:54:24Z</time></trkpt><trkpt lat="45.1203129161" lon="6.4039135817"><ele>1980.93</ele><time>2019-08-17T15:54:32Z</time></trkpt><trkpt lat="45.1203069650" lon="6.4039296750"><ele>1980.93</ele><time>2019-08-17T15:54:33Z</time></trkpt><trkpt lat="45.1202988345" lon="6.4039465226"><ele>1980.45</ele><time>2019-08-17T15:54:34Z</time></trkpt><trkpt lat="45.1202715933" lon="6.4040978160"><ele>1979.97</ele><time>2019-08-17T15:54:48Z</time></trkpt><trkpt lat="45.1202690788" lon="6.4041165076"><ele>1979.49</ele><time>2019-08-17T15:55:17Z</time></trkpt><trkpt lat="45.1201707590" lon="6.4041654579"><ele>1976.61</ele><time>2019-08-17T15:55:32Z</time></trkpt><trkpt lat="45.1201498043" lon="6.4042338543"><ele>1975.65</ele><time>2019-08-17T15:55:45Z</time></trkpt><trkpt lat="45.1201155223" lon="6.4043668751"><ele>1973.24</ele><time>2019-08-17T15:55:59Z</time></trkpt><trkpt lat="45.1200815756" lon="6.4044434857"><ele>1971.32</ele><time>2019-08-17T15:56:06Z</time></trkpt><trkpt lat="45.1199844293" lon="6.4045771770"><ele>1967.96</ele><time>2019-08-17T15:56:24Z</time></trkpt><trkpt lat="45.1199089084" lon="6.4047229383"><ele>1966.03</ele><time>2019-08-17T15:56:40Z</time></trkpt><trkpt lat="45.1198659930" lon="6.4048762433"><ele>1962.67</ele><time>2019-08-17T15:56:55Z</time></trkpt><trkpt lat="45.1198168751" lon="6.4049607329"><ele>1959.30</ele><time>2019-08-17T15:57:06Z</time></trkpt><trkpt lat="45.1198003627" lon="6.4051124454"><ele>1956.42</ele><time>2019-08-17T15:57:20Z</time></trkpt><trkpt lat="45.1197226625" lon="6.4051567856"><ele>1953.06</ele><time>2019-08-17T15:57:34Z</time></trkpt><trkpt lat="45.1196421962" lon="6.4052110165"><ele>1951.13</ele><time>2019-08-17T15:57:46Z</time></trkpt><trkpt lat="45.1195301302" lon="6.4053126052"><ele>1948.25</ele><time>2019-08-17T15:58:02Z</time></trkpt><trkpt lat="45.1194614824" lon="6.4054032136"><ele>1945.36</ele><time>2019-08-17T15:58:17Z</time></trkpt><trkpt lat="45.1193878055" lon="6.4055068139"><ele>1942.96</ele><time>2019-08-17T15:58:31Z</time></trkpt><trkpt lat="45.1193328202" lon="6.4056006912"><ele>1940.08</ele><time>2019-08-17T15:58:44Z</time></trkpt><trkpt lat="45.1193142124" lon="6.4056182094"><ele>1939.12</ele><time>2019-08-17T15:58:47Z</time></trkpt><trkpt lat="45.1192573830" lon="6.4058052097"><ele>1936.71</ele><time>2019-08-17T15:59:03Z</time></trkpt><trkpt lat="45.1192865521" lon="6.4059658907"><ele>1935.75</ele><time>2019-08-17T15:59:16Z</time></trkpt><trkpt lat="45.1192868873" lon="6.4059823193"><ele>1935.75</ele><time>2019-08-17T15:59:17Z</time></trkpt><trkpt lat="45.1192784216" lon="6.4060813095"><ele>1933.83</ele><time>2019-08-17T15:59:25Z</time></trkpt><trkpt lat="45.1192764100" lon="6.4060968999"><ele>1933.83</ele><time>2019-08-17T15:59:26Z</time></trkpt><trkpt lat="45.1192811877" lon="6.4062255621"><ele>1931.91</ele><time>2019-08-17T15:59:39Z</time></trkpt><trkpt lat="45.1193159726" lon="6.4063149132"><ele>1929.50</ele><time>2019-08-17T15:59:51Z</time></trkpt><trkpt lat="45.1193495840" lon="6.4064738341"><ele>1926.62</ele><time>2019-08-17T16:00:06Z</time></trkpt><trkpt lat="45.1193311438" lon="6.4066265523"><ele>1923.74</ele><time>2019-08-17T16:00:21Z</time></trkpt><trkpt lat="45.1193062495" lon="6.4067910891"><ele>1920.85</ele><time>2019-08-17T16:00:37Z</time></trkpt><trkpt lat="45.1192826964" lon="6.4068965334"><ele>1919.89</ele><time>2019-08-17T16:00:47Z</time></trkpt><trkpt lat="45.1192801818" lon="6.4069122076"><ele>1919.89</ele><time>2019-08-17T16:00:48Z</time></trkpt><trkpt lat="45.1192811038" lon="6.4069707133"><ele>1918.93</ele><time>2019-08-17T16:00:52Z</time></trkpt><trkpt lat="45.1192821097" lon="6.4069870580"><ele>1918.93</ele><time>2019-08-17T16:00:53Z</time></trkpt><trkpt lat="45.1192716323" lon="6.4071332384"><ele>1917.49</ele><time>2019-08-17T16:01:03Z</time></trkpt><trkpt lat="45.1192665193" lon="6.4071461465"><ele>1917.49</ele><time>2019-08-17T16:01:04Z</time></trkpt><trkpt lat="45.1192609873" lon="6.4071594737"><ele>1917.49</ele><time>2019-08-17T16:01:05Z</time></trkpt><trkpt lat="45.1192566287" lon="6.4071748126"><ele>1917.01</ele><time>2019-08-17T16:01:06Z</time></trkpt><trkpt lat="45.1192531921" lon="6.4071904030"><ele>1917.01</ele><time>2019-08-17T16:01:07Z</time></trkpt><trkpt lat="45.1192505099" lon="6.4072062448"><ele>1917.01</ele><time>2019-08-17T16:01:08Z</time></trkpt><trkpt lat="45.1192484144" lon="6.4072225895"><ele>1917.01</ele><time>2019-08-17T16:01:09Z</time></trkpt><trkpt lat="45.1191623323" lon="6.4075507410"><ele>1915.56</ele><time>2019-08-17T16:01:31Z</time></trkpt><trkpt lat="45.1190651860" lon="6.4077030402"><ele>1913.16</ele><time>2019-08-17T16:01:47Z</time></trkpt><trkpt lat="45.1190381963" lon="6.4078626316"><ele>1910.76</ele><time>2019-08-17T16:02:00Z</time></trkpt><trkpt lat="45.1190313231" lon="6.4080448542"><ele>1908.35</ele><time>2019-08-17T16:02:15Z</time></trkpt><trkpt lat="45.1190040819" lon="6.4081462752"><ele>1905.95</ele><time>2019-08-17T16:02:27Z</time></trkpt><trkpt lat="45.1189568080" lon="6.4082730096"><ele>1902.59</ele><time>2019-08-17T16:02:42Z</time></trkpt><trkpt lat="45.1189483423" lon="6.4082787093"><ele>1902.59</ele><time>2019-08-17T16:02:43Z</time></trkpt><trkpt lat="45.1189527847" lon="6.4083864167"><ele>1900.18</ele><time>2019-08-17T16:02:54Z</time></trkpt><trkpt lat="45.1189020742" lon="6.4084956329"><ele>1897.30</ele><time>2019-08-17T16:03:06Z</time></trkpt><trkpt lat="45.1189081091" lon="6.4085651189"><ele>1895.86</ele><time>2019-08-17T16:03:12Z</time></trkpt><trkpt lat="45.1189309079" lon="6.4087821264"><ele>1892.97</ele><time>2019-08-17T16:03:29Z</time></trkpt><trkpt lat="45.1189559698" lon="6.4090081025"><ele>1889.61</ele><time>2019-08-17T16:03:47Z</time></trkpt><trkpt lat="45.1189619210" lon="6.4090202563"><ele>1889.61</ele><time>2019-08-17T16:03:48Z</time></trkpt><trkpt lat="45.1189678721" lon="6.4090324938"><ele>1889.61</ele><time>2019-08-17T16:03:49Z</time></trkpt><trkpt lat="45.1190131344" lon="6.4091979526"><ele>1886.72</ele><time>2019-08-17T16:04:02Z</time></trkpt><trkpt lat="45.1190357655" lon="6.4094028063"><ele>1885.28</ele><time>2019-08-17T16:04:16Z</time></trkpt><trkpt lat="45.1190143079" lon="6.4095542673"><ele>1885.28</ele><time>2019-08-17T16:04:26Z</time></trkpt><trkpt lat="45.1189069357" lon="6.4097464643"><ele>1882.88</ele><time>2019-08-17T16:04:43Z</time></trkpt><trkpt lat="45.1188762579" lon="6.4099050499"><ele>1880.00</ele><time>2019-08-17T16:04:55Z</time></trkpt><trkpt lat="45.1188726537" lon="6.4099167008"><ele>1880.00</ele><time>2019-08-17T16:04:56Z</time></trkpt><trkpt lat="45.1188175008" lon="6.4100560080"><ele>1877.11</ele><time>2019-08-17T16:05:09Z</time></trkpt><trkpt lat="45.1187490206" lon="6.4101764560"><ele>1873.75</ele><time>2019-08-17T16:05:22Z</time></trkpt><trkpt lat="45.1186995674" lon="6.4102616161"><ele>1872.79</ele><time>2019-08-17T16:05:30Z</time></trkpt><trkpt lat="45.1186912693" lon="6.4102733508"><ele>1872.30</ele><time>2019-08-17T16:05:31Z</time></trkpt><trkpt lat="45.1186834741" lon="6.4102865104"><ele>1872.30</ele><time>2019-08-17T16:05:32Z</time></trkpt><trkpt lat="45.1186777744" lon="6.4102988318"><ele>1872.30</ele><time>2019-08-17T16:05:33Z</time></trkpt><trkpt lat="45.1186729129" lon="6.4103126619"><ele>1872.30</ele><time>2019-08-17T16:05:34Z</time></trkpt><trkpt lat="45.1186696440" lon="6.4103265759"><ele>1872.30</ele><time>2019-08-17T16:05:35Z</time></trkpt><trkpt lat="45.1186657883" lon="6.4103413280"><ele>1871.82</ele><time>2019-08-17T16:05:36Z</time></trkpt><trkpt lat="45.1186347753" lon="6.4104760252"><ele>1870.38</ele><time>2019-08-17T16:05:47Z</time></trkpt><trkpt lat="45.1186545566" lon="6.4106548112"><ele>1867.98</ele><time>2019-08-17T16:06:02Z</time></trkpt><trkpt lat="45.1187415607" lon="6.4107771032"><ele>1866.06</ele><time>2019-08-17T16:06:17Z</time></trkpt><trkpt lat="45.1187190134" lon="6.4109853934"><ele>1862.69</ele><time>2019-08-17T16:06:33Z</time></trkpt><trkpt lat="45.1187477633" lon="6.4110920951"><ele>1860.77</ele><time>2019-08-17T16:06:45Z</time></trkpt><trkpt lat="45.1187150739" lon="6.4111825358"><ele>1858.37</ele><time>2019-08-17T16:06:57Z</time></trkpt><trkpt lat="45.1187068596" lon="6.4113162272"><ele>1855.96</ele><time>2019-08-17T16:07:10Z</time></trkpt><trkpt lat="45.1187087875" lon="6.4113669377"><ele>1855.00</ele><time>2019-08-17T16:07:15Z</time></trkpt><trkpt lat="45.1187015790" lon="6.4114718791"><ele>1852.12</ele><time>2019-08-17T16:07:27Z</time></trkpt><trkpt lat="45.1186173409" lon="6.4115719590"><ele>1849.71</ele><time>2019-08-17T16:07:40Z</time></trkpt><trkpt lat="45.1186073665" lon="6.4115662593"><ele>1849.71</ele><time>2019-08-17T16:07:41Z</time></trkpt><trkpt lat="45.1185613498" lon="6.4115183987"><ele>1849.23</ele><time>2019-08-17T16:07:47Z</time></trkpt><trkpt lat="45.1185508724" lon="6.4115060773"><ele>1848.27</ele><time>2019-08-17T16:07:48Z</time></trkpt><trkpt lat="45.1185114775" lon="6.4115873817"><ele>1846.35</ele><time>2019-08-17T16:07:59Z</time></trkpt><trkpt lat="45.1184321009" lon="6.4117101766"><ele>1842.98</ele><time>2019-08-17T16:08:15Z</time></trkpt><trkpt lat="45.1183690690" lon="6.4117341489"><ele>1841.54</ele><time>2019-08-17T16:08:25Z</time></trkpt><trkpt lat="45.1182885189" lon="6.4116848633"><ele>1839.14</ele><time>2019-08-17T16:08:38Z</time></trkpt><trkpt lat="45.1182263251" lon="6.4116020501"><ele>1836.26</ele><time>2019-08-17T16:08:52Z</time></trkpt><trkpt lat="45.1181716751" lon="6.4115822688"><ele>1834.33</ele><time>2019-08-17T16:09:05Z</time></trkpt><trkpt lat="45.1181175280" lon="6.4116794150"><ele>1831.93</ele><time>2019-08-17T16:09:18Z</time></trkpt><trkpt lat="45.1181299333" lon="6.4117985219"><ele>1829.05</ele><time>2019-08-17T16:09:32Z</time></trkpt><trkpt lat="45.1181332022" lon="6.4118880406"><ele>1826.64</ele><time>2019-08-17T16:09:44Z</time></trkpt><trkpt lat="45.1181431767" lon="6.4118944108"><ele>1826.64</ele><time>2019-08-17T16:09:47Z</time></trkpt><trkpt lat="45.1182119083" lon="6.4120090753"><ele>1824.72</ele><time>2019-08-17T16:09:59Z</time></trkpt><trkpt lat="45.1182255708" lon="6.4120240789"><ele>1824.72</ele><time>2019-08-17T16:10:01Z</time></trkpt><trkpt lat="45.1183304284" lon="6.4121481311"><ele>1821.35</ele><time>2019-08-17T16:10:16Z</time></trkpt><trkpt lat="45.1183834858" lon="6.4122578502"><ele>1818.47</ele><time>2019-08-17T16:10:30Z</time></trkpt><trkpt lat="45.1184742618" lon="6.4123600256"><ele>1815.11</ele><time>2019-08-17T16:10:45Z</time></trkpt><trkpt lat="45.1185262296" lon="6.4124395698"><ele>1812.22</ele><time>2019-08-17T16:11:00Z</time></trkpt><trkpt lat="45.1185418200" lon="6.4124513045"><ele>1810.78</ele><time>2019-08-17T16:11:12Z</time></trkpt><trkpt lat="45.1185983140" lon="6.4124719240"><ele>1810.30</ele><time>2019-08-17T16:11:25Z</time></trkpt><trkpt lat="45.1186735835" lon="6.4125232212"><ele>1807.90</ele><time>2019-08-17T16:11:38Z</time></trkpt><trkpt lat="45.1187662873" lon="6.4125803858"><ele>1805.01</ele><time>2019-08-17T16:11:51Z</time></trkpt><trkpt lat="45.1188537944" lon="6.4125921205"><ele>1802.61</ele><time>2019-08-17T16:12:03Z</time></trkpt><trkpt lat="45.1189446542" lon="6.4126736764"><ele>1800.21</ele><time>2019-08-17T16:12:16Z</time></trkpt><trkpt lat="45.1189983822" lon="6.4127574954"><ele>1797.80</ele><time>2019-08-17T16:12:29Z</time></trkpt><trkpt lat="45.1189977117" lon="6.4128046855"><ele>1794.92</ele><time>2019-08-17T16:12:42Z</time></trkpt><trkpt lat="45.1189515274" lon="6.4128714893"><ele>1792.03</ele><time>2019-08-17T16:12:55Z</time></trkpt><trkpt lat="45.1189534552" lon="6.4129615948"><ele>1789.63</ele><time>2019-08-17T16:13:08Z</time></trkpt><trkpt lat="45.1190171577" lon="6.4130178373"><ele>1787.23</ele><time>2019-08-17T16:13:21Z</time></trkpt><trkpt lat="45.1189912576" lon="6.4130972978"><ele>1784.34</ele><time>2019-08-17T16:13:36Z</time></trkpt><trkpt lat="45.1189744100" lon="6.4131598268"><ele>1780.98</ele><time>2019-08-17T16:13:51Z</time></trkpt><trkpt lat="45.1190697961" lon="6.4132429752"><ele>1779.06</ele><time>2019-08-17T16:14:04Z</time></trkpt><trkpt lat="45.1191414613" lon="6.4132687915"><ele>1776.65</ele><time>2019-08-17T16:14:16Z</time></trkpt><trkpt lat="45.1192333270" lon="6.4133144729"><ele>1774.25</ele><time>2019-08-17T16:14:28Z</time></trkpt><trkpt lat="45.1193233486" lon="6.4133715536"><ele>1772.33</ele><time>2019-08-17T16:14:38Z</time></trkpt><trkpt lat="45.1194432098" lon="6.4134537801"><ele>1770.89</ele><time>2019-08-17T16:14:51Z</time></trkpt><trkpt lat="45.1194848679" lon="6.4135184884"><ele>1769.92</ele><time>2019-08-17T16:14:58Z</time></trkpt><trkpt lat="45.1195098460" lon="6.4135781676"><ele>1767.04</ele><time>2019-08-17T16:15:09Z</time></trkpt><trkpt lat="45.1194994524" lon="6.4136539400"><ele>1763.68</ele><time>2019-08-17T16:15:22Z</time></trkpt><trkpt lat="45.1194136217" lon="6.4136976935"><ele>1760.79</ele><time>2019-08-17T16:15:35Z</time></trkpt><trkpt lat="45.1194199920" lon="6.4137811773"><ele>1758.39</ele><time>2019-08-17T16:15:48Z</time></trkpt><trkpt lat="45.1194254402" lon="6.4138437901"><ele>1755.99</ele><time>2019-08-17T16:15:59Z</time></trkpt><trkpt lat="45.1193755679" lon="6.4139015414"><ele>1753.58</ele><time>2019-08-17T16:16:11Z</time></trkpt><trkpt lat="45.1192836184" lon="6.4138900582"><ele>1751.18</ele><time>2019-08-17T16:16:24Z</time></trkpt><trkpt lat="45.1192155574" lon="6.4139092527"><ele>1749.74</ele><time>2019-08-17T16:16:32Z</time></trkpt><trkpt lat="45.1191256195" lon="6.4139954187"><ele>1748.78</ele><time>2019-08-17T16:16:48Z</time></trkpt><trkpt lat="45.1190660242" lon="6.4139861148"><ele>1747.33</ele><time>2019-08-17T16:17:12Z</time></trkpt><trkpt lat="45.1189899165" lon="6.4139890485"><ele>1744.93</ele><time>2019-08-17T16:17:25Z</time></trkpt><trkpt lat="45.1188997272" lon="6.4139813371"><ele>1742.53</ele><time>2019-08-17T16:17:39Z</time></trkpt><trkpt lat="45.1188405510" lon="6.4140661620"><ele>1740.60</ele><time>2019-08-17T16:17:53Z</time></trkpt><trkpt lat="45.1189262979" lon="6.4141841792"><ele>1737.24</ele><time>2019-08-17T16:18:07Z</time></trkpt><trkpt lat="45.1190212648" lon="6.4142912161"><ele>1734.84</ele><time>2019-08-17T16:18:22Z</time></trkpt><trkpt lat="45.1190811954" lon="6.4143560920"><ele>1732.91</ele><time>2019-08-17T16:18:34Z</time></trkpt><trkpt lat="45.1190491766" lon="6.4143814892"><ele>1730.99</ele><time>2019-08-17T16:18:46Z</time></trkpt><trkpt lat="45.1190039143" lon="6.4144650567"><ele>1727.63</ele><time>2019-08-17T16:19:00Z</time></trkpt><trkpt lat="45.1190714724" lon="6.4145176113"><ele>1725.70</ele><time>2019-08-17T16:19:12Z</time></trkpt><trkpt lat="45.1191583090" lon="6.4145886060"><ele>1723.30</ele><time>2019-08-17T16:19:26Z</time></trkpt><trkpt lat="45.1192029007" lon="6.4147270750"><ele>1719.94</ele><time>2019-08-17T16:19:41Z</time></trkpt><trkpt lat="45.1192453131" lon="6.4148255624"><ele>1718.49</ele><time>2019-08-17T16:19:55Z</time></trkpt><trkpt lat="45.1193334069" lon="6.4148584194"><ele>1716.57</ele><time>2019-08-17T16:20:10Z</time></trkpt><trkpt lat="45.1194168907" lon="6.4148985688"><ele>1714.17</ele><time>2019-08-17T16:20:24Z</time></trkpt><trkpt lat="45.1195057388" lon="6.4149528835"><ele>1711.76</ele><time>2019-08-17T16:20:37Z</time></trkpt><trkpt lat="45.1195667591" lon="6.4150513709"><ele>1709.84</ele><time>2019-08-17T16:20:49Z</time></trkpt><trkpt lat="45.1195633225" lon="6.4152724016"><ele>1707.92</ele><time>2019-08-17T16:21:04Z</time></trkpt><trkpt lat="45.1195160486" lon="6.4153827913"><ele>1707.44</ele><time>2019-08-17T16:21:16Z</time></trkpt><trkpt lat="45.1194469817" lon="6.4154624194"><ele>1705.52</ele><time>2019-08-17T16:21:30Z</time></trkpt><trkpt lat="45.1194370911" lon="6.4154781774"><ele>1705.04</ele><time>2019-08-17T16:21:33Z</time></trkpt><trkpt lat="45.1193989534" lon="6.4155026525"><ele>1705.04</ele><time>2019-08-17T16:21:49Z</time></trkpt><trkpt lat="45.1193961035" lon="6.4155481663"><ele>1705.04</ele><time>2019-08-17T16:22:06Z</time></trkpt><trkpt lat="45.1193784177" lon="6.4155372698"><ele>1705.04</ele><time>2019-08-17T16:22:22Z</time></trkpt><trkpt lat="45.1193698682" lon="6.4155068435"><ele>1706.00</ele><time>2019-08-17T16:22:49Z</time></trkpt><trkpt lat="45.1193546969" lon="6.4155655168"><ele>1706.00</ele><time>2019-08-17T16:23:18Z</time></trkpt><trkpt lat="45.1193590555" lon="6.4155907463"><ele>1706.00</ele><time>2019-08-17T16:23:31Z</time></trkpt><trkpt lat="45.1193969417" lon="6.4157053269"><ele>1705.52</ele><time>2019-08-17T16:23:46Z</time></trkpt><trkpt lat="45.1194384322" lon="6.4158586320"><ele>1705.52</ele><time>2019-08-17T16:24:01Z</time></trkpt><trkpt lat="45.1194404438" lon="6.4158882201"><ele>1704.55</ele><time>2019-08-17T16:24:04Z</time></trkpt><trkpt lat="45.1195136178" lon="6.4160767291"><ele>1701.67</ele><time>2019-08-17T16:24:21Z</time></trkpt><trkpt lat="45.1195515878" lon="6.4162571076"><ele>1698.79</ele><time>2019-08-17T16:24:35Z</time></trkpt><trkpt lat="45.1195598859" lon="6.4162831753"><ele>1698.31</ele><time>2019-08-17T16:24:37Z</time></trkpt><trkpt lat="45.1195645798" lon="6.4164863527"><ele>1697.83</ele><time>2019-08-17T16:24:53Z</time></trkpt><trkpt lat="45.1195658371" lon="6.4165863488"><ele>1695.42</ele><time>2019-08-17T16:25:03Z</time></trkpt><trkpt lat="45.1194895618" lon="6.4167757798"><ele>1694.46</ele><time>2019-08-17T16:25:16Z</time></trkpt><trkpt lat="45.1194199920" lon="6.4168456849"><ele>1696.86</ele><time>2019-08-17T16:25:28Z</time></trkpt><trkpt lat="45.1193229295" lon="6.4168859180"><ele>1697.34</ele><time>2019-08-17T16:25:41Z</time></trkpt><trkpt lat="45.1192294713" lon="6.4169312641"><ele>1698.79</ele><time>2019-08-17T16:25:54Z</time></trkpt><trkpt lat="45.1191122923" lon="6.4169996604"><ele>1699.27</ele><time>2019-08-17T16:26:08Z</time></trkpt><trkpt lat="45.1190228574" lon="6.4171110559"><ele>1699.27</ele><time>2019-08-17T16:26:20Z</time></trkpt><trkpt lat="45.1190127153" lon="6.4171228744"><ele>1699.27</ele><time>2019-08-17T16:26:21Z</time></trkpt><trkpt lat="45.1189760026" lon="6.4173314162"><ele>1699.27</ele><time>2019-08-17T16:26:36Z</time></trkpt><trkpt lat="45.1189762540" lon="6.4173888322"><ele>1699.27</ele><time>2019-08-17T16:26:41Z</time></trkpt><trkpt lat="45.1189659443" lon="6.4174860623"><ele>1698.79</ele><time>2019-08-17T16:27:01Z</time></trkpt><trkpt lat="45.1189778466" lon="6.4174973778"><ele>1698.79</ele><time>2019-08-17T16:27:07Z</time></trkpt><trkpt lat="45.1190975402" lon="6.4174879901"><ele>1699.75</ele><time>2019-08-17T16:27:22Z</time></trkpt><trkpt lat="45.1191532798" lon="6.4175488427"><ele>1700.23</ele><time>2019-08-17T16:27:30Z</time></trkpt><trkpt lat="45.1192707941" lon="6.4175960328"><ele>1700.23</ele><time>2019-08-17T16:27:43Z</time></trkpt><trkpt lat="45.1193789206" lon="6.4176474977"><ele>1701.19</ele><time>2019-08-17T16:27:55Z</time></trkpt><trkpt lat="45.1195401885" lon="6.4177230187"><ele>1701.67</ele><time>2019-08-17T16:28:11Z</time></trkpt><trkpt lat="45.1196740475" lon="6.4177705441"><ele>1700.23</ele><time>2019-08-17T16:28:23Z</time></trkpt><trkpt lat="45.1198448706" lon="6.4177618269"><ele>1697.83</ele><time>2019-08-17T16:28:39Z</time></trkpt><trkpt lat="45.1200435217" lon="6.4177505113"><ele>1695.90</ele><time>2019-08-17T16:28:57Z</time></trkpt><trkpt lat="45.1202295162" lon="6.4177857991"><ele>1694.46</ele><time>2019-08-17T16:29:15Z</time></trkpt><trkpt lat="45.1203673985" lon="6.4177944325"><ele>1694.46</ele><time>2019-08-17T16:29:29Z</time></trkpt><trkpt lat="45.1205301750" lon="6.4178145491"><ele>1693.50</ele><time>2019-08-17T16:29:44Z</time></trkpt><trkpt lat="45.1206145808" lon="6.4177277964"><ele>1692.54</ele><time>2019-08-17T16:29:59Z</time></trkpt><trkpt lat="45.1205952186" lon="6.4177042432"><ele>1692.06</ele><time>2019-08-17T16:30:12Z</time></trkpt><trkpt lat="45.1205968112" lon="6.4177112840"><ele>1691.58</ele><time>2019-08-17T16:30:24Z</time></trkpt><trkpt lat="45.1696910430" lon="6.4301506151"><ele>1411.83</ele><time>2019-08-17T17:12:22Z</time></trkpt><trkpt lat="45.1696835831" lon="6.4301681332"><ele>1410.87</ele><time>2019-08-17T17:12:24Z</time></trkpt><trkpt lat="45.1696928870" lon="6.4301957097"><ele>1411.35</ele><time>2019-08-17T17:12:26Z</time></trkpt><trkpt lat="45.1696911268" lon="6.4301921893"><ele>1407.99</ele><time>2019-08-17T17:12:28Z</time></trkpt><trkpt lat="45.1697015204" lon="6.4301502798"><ele>1404.62</ele><time>2019-08-17T17:12:34Z</time></trkpt><trkpt lat="45.1696942281" lon="6.4301884174"><ele>1403.18</ele><time>2019-08-17T17:12:40Z</time></trkpt><trkpt lat="45.1697264984" lon="6.4301760960"><ele>1400.78</ele><time>2019-08-17T17:12:46Z</time></trkpt><trkpt lat="45.1697313599" lon="6.4301696420"><ele>1397.41</ele><time>2019-08-17T17:12:57Z</time></trkpt><trkpt lat="45.1697191224" lon="6.4301981404"><ele>1394.53</ele><time>2019-08-17T17:13:11Z</time></trkpt><trkpt lat="45.1697263308" lon="6.4302353561"><ele>1391.17</ele><time>2019-08-17T17:13:41Z</time></trkpt><trkpt lat="45.1697284263" lon="6.4302305784"><ele>1388.28</ele><time>2019-08-17T17:14:06Z</time></trkpt><trkpt lat="45.1697077230" lon="6.4302296564"><ele>1387.32</ele><time>2019-08-17T17:14:40Z</time></trkpt><trkpt lat="45.1696979161" lon="6.4302399661"><ele>1387.32</ele><time>2019-08-17T17:15:07Z</time></trkpt><trkpt lat="45.1697145961" lon="6.4302631840"><ele>1387.32</ele><time>2019-08-17T17:15:37Z</time></trkpt><trkpt lat="45.1697259955" lon="6.4302287344"><ele>1387.32</ele><time>2019-08-17T17:16:12Z</time></trkpt><trkpt lat="45.1697283424" lon="6.4302229509"><ele>1387.32</ele><time>2019-08-17T17:16:40Z</time></trkpt><trkpt lat="45.1697169431" lon="6.4301936142"><ele>1387.32</ele><time>2019-08-17T17:17:03Z</time></trkpt><trkpt lat="45.1697354671" lon="6.4302013256"><ele>1387.32</ele><time>2019-08-17T17:17:34Z</time></trkpt><trkpt lat="45.1697088126" lon="6.4302161615"><ele>1387.32</ele><time>2019-08-17T17:18:14Z</time></trkpt><trkpt lat="45.1696912106" lon="6.4302382898"><ele>1387.32</ele><time>2019-08-17T17:18:55Z</time></trkpt><trkpt lat="45.1697261631" lon="6.4302282315"><ele>1386.84</ele><time>2019-08-17T17:19:32Z</time></trkpt><trkpt lat="45.1697218884" lon="6.4302144013"><ele>1386.84</ele><time>2019-08-17T17:19:37Z</time></trkpt><trkpt lat="45.1697080582" lon="6.4302204363"><ele>1386.84</ele><time>2019-08-17T17:20:03Z</time></trkpt><trkpt lat="45.1697028615" lon="6.4302232862"><ele>1388.28</ele><time>2019-08-17T17:20:14Z</time></trkpt><trkpt lat="45.1697065495" lon="6.4302189276"><ele>1386.84</ele><time>2019-08-17T17:20:19Z</time></trkpt><trkpt lat="45.1697084773" lon="6.4302159939"><ele>1387.80</ele><time>2019-08-17T17:20:21Z</time></trkpt><trkpt lat="45.1697165240" lon="6.4302086178"><ele>1386.36</ele><time>2019-08-17T17:21:05Z</time></trkpt><trkpt lat="45.1697159372" lon="6.4302055165"><ele>1387.80</ele><time>2019-08-17T17:21:07Z</time></trkpt><trkpt lat="45.1697211340" lon="6.4301897585"><ele>1388.28</ele><time>2019-08-17T17:21:26Z</time></trkpt><trkpt lat="45.1697316114" lon="6.4301899262"><ele>1388.28</ele><time>2019-08-17T17:22:00Z</time></trkpt><trkpt lat="45.1697354671" lon="6.4301928598"><ele>1384.44</ele><time>2019-08-17T17:22:09Z</time></trkpt><trkpt lat="45.1697363891" lon="6.4301919378"><ele>1388.76</ele><time>2019-08-17T17:22:10Z</time></trkpt><trkpt lat="45.1697374787" lon="6.4301938657"><ele>1387.32</ele><time>2019-08-17T17:22:13Z</time></trkpt><trkpt lat="45.1697471179" lon="6.4301704802"><ele>1386.84</ele><time>2019-08-17T17:22:54Z</time></trkpt><trkpt lat="45.1697251573" lon="6.4301723242"><ele>1387.32</ele><time>2019-08-17T17:23:32Z</time></trkpt><trkpt lat="45.1696920488" lon="6.4301857352"><ele>1387.32</ele><time>2019-08-17T17:24:08Z</time></trkpt><trkpt lat="45.1696872711" lon="6.4301877469"><ele>1388.28</ele><time>2019-08-17T17:24:15Z</time></trkpt><trkpt lat="45.1697058789" lon="6.4301855676"><ele>1388.76</ele><time>2019-08-17T17:24:53Z</time></trkpt><trkpt lat="45.1696989220" lon="6.4301859867"><ele>1388.28</ele><time>2019-08-17T17:25:26Z</time></trkpt><trkpt lat="45.1697057113" lon="6.4301905129"><ele>1386.36</ele><time>2019-08-17T17:25:39Z</time></trkpt></trkseg><trkseg><trkpt lat="45.0902865920" lon="6.4370849635"><ele>1930.46</ele><time>2019-08-18T08:39:42Z</time></trkpt><trkpt lat="45.0900939759" lon="6.4369156491"><ele>1935.27</ele><time>2019-08-18T08:40:06Z</time></trkpt><trkpt lat="45.0900793914" lon="6.4369273838"><ele>1938.64</ele><time>2019-08-18T08:40:08Z</time></trkpt><trkpt lat="45.0900558382" lon="6.4369208459"><ele>1942.48</ele><time>2019-08-18T08:40:11Z</time></trkpt><trkpt lat="45.0900347997" lon="6.4368986338"><ele>1946.33</ele><time>2019-08-18T08:40:14Z</time></trkpt><trkpt lat="45.0900202151" lon="6.4368953649"><ele>1949.21</ele><time>2019-08-18T08:40:17Z</time></trkpt><trkpt lat="45.0900157727" lon="6.4368822053"><ele>1952.57</ele><time>2019-08-18T08:40:19Z</time></trkpt><trkpt lat="45.0900134258" lon="6.4368779305"><ele>1952.57</ele><time>2019-08-18T08:40:20Z</time></trkpt><trkpt lat="45.0900000986" lon="6.4368635137"><ele>1955.94</ele><time>2019-08-18T08:40:24Z</time></trkpt><trkpt lat="45.0899950694" lon="6.4368549641"><ele>1959.30</ele><time>2019-08-18T08:40:28Z</time></trkpt><trkpt lat="45.0899926387" lon="6.4368571434"><ele>1962.67</ele><time>2019-08-18T08:40:33Z</time></trkpt><trkpt lat="45.0899731927" lon="6.4368498512"><ele>1966.03</ele><time>2019-08-18T08:40:39Z</time></trkpt><trkpt lat="45.0899651460" lon="6.4368463308"><ele>1968.92</ele><time>2019-08-18T08:40:47Z</time></trkpt><trkpt lat="45.0899532437" lon="6.4368489292"><ele>1971.80</ele><time>2019-08-18T08:40:59Z</time></trkpt><trkpt lat="45.0899505615" lon="6.4368945267"><ele>1975.65</ele><time>2019-08-18T08:41:10Z</time></trkpt><trkpt lat="45.0899484660" lon="6.4368955325"><ele>1975.65</ele><time>2019-08-18T08:41:11Z</time></trkpt><trkpt lat="45.0899555068" lon="6.4368726499"><ele>1979.01</ele><time>2019-08-18T08:41:25Z</time></trkpt><trkpt lat="45.0899410900" lon="6.4368428942"><ele>1981.41</ele><time>2019-08-18T08:41:33Z</time></trkpt><trkpt lat="45.0899336301" lon="6.4368471690"><ele>1930.95</ele><time>2019-08-18T08:41:36Z</time></trkpt><trkpt lat="45.0899305288" lon="6.4368506055"><ele>1981.41</ele><time>2019-08-18T08:41:37Z</time></trkpt><trkpt lat="45.0899249967" lon="6.4368399605"><ele>1981.41</ele><time>2019-08-18T08:42:01Z</time></trkpt><trkpt lat="45.0899217278" lon="6.4368620049"><ele>1981.90</ele><time>2019-08-18T08:42:37Z</time></trkpt><trkpt lat="45.0899259187" lon="6.4368553832"><ele>1981.90</ele><time>2019-08-18T08:43:02Z</time></trkpt><trkpt lat="45.0899218116" lon="6.4368526172"><ele>1958.34</ele><time>2019-08-18T08:43:12Z</time></trkpt><trkpt lat="45.0899212249" lon="6.4368548803"><ele>1996.80</ele><time>2019-08-18T08:43:13Z</time></trkpt><trkpt lat="45.0899209734" lon="6.4368570596"><ele>1985.26</ele><time>2019-08-18T08:43:14Z</time></trkpt><trkpt lat="45.0899216440" lon="6.4368534554"><ele>1981.90</ele><time>2019-08-18T08:43:15Z</time></trkpt><trkpt lat="45.0899165310" lon="6.4368475880"><ele>1981.41</ele><time>2019-08-18T08:43:17Z</time></trkpt></trkseg><trkseg><trkpt lat="45.0899075624" lon="6.4368542098"><ele>1991.03</ele><time>2019-08-18T08:43:25Z</time></trkpt><trkpt lat="45.0899074785" lon="6.4368521981"><ele>1991.03</ele><time>2019-08-18T08:43:26Z</time></trkpt><trkpt lat="45.0899157766" lon="6.4368403796"><ele>1989.59</ele><time>2019-08-18T08:43:36Z</time></trkpt><trkpt lat="45.0899153575" lon="6.4368444029"><ele>1970.84</ele><time>2019-08-18T08:43:37Z</time></trkpt><trkpt lat="45.0899120886" lon="6.4368474204"><ele>1996.32</ele><time>2019-08-18T08:43:38Z</time></trkpt><trkpt lat="45.0899074785" lon="6.4368425589"><ele>2001.12</ele><time>2019-08-18T08:43:39Z</time></trkpt><trkpt lat="45.0898881163" lon="6.4368324168"><ele>1990.07</ele><time>2019-08-18T08:43:42Z</time></trkpt><trkpt lat="45.0898150261" lon="6.4368624240"><ele>1989.59</ele><time>2019-08-18T08:43:51Z</time></trkpt><trkpt lat="45.0898024533" lon="6.4368596580"><ele>1989.59</ele><time>2019-08-18T08:43:53Z</time></trkpt><trkpt lat="45.0897850189" lon="6.4368553832"><ele>1991.03</ele><time>2019-08-18T08:43:55Z</time></trkpt><trkpt lat="45.0896773953" lon="6.4368589874"><ele>1992.47</ele><time>2019-08-18T08:44:07Z</time></trkpt><trkpt lat="45.0896227453" lon="6.4368615858"><ele>1992.95</ele><time>2019-08-18T08:44:13Z</time></trkpt><trkpt lat="45.0895345677" lon="6.4369662758"><ele>1993.43</ele><time>2019-08-18T08:44:26Z</time></trkpt><trkpt lat="45.0894476473" lon="6.4370784257"><ele>1995.35</ele><time>2019-08-18T08:44:40Z</time></trkpt><trkpt lat="45.0893611461" lon="6.4372196607"><ele>1996.80</ele><time>2019-08-18T08:44:53Z</time></trkpt><trkpt lat="45.0892778300" lon="6.4373093471"><ele>1998.72</ele><time>2019-08-18T08:45:07Z</time></trkpt><trkpt lat="45.0892391056" lon="6.4373585489"><ele>1999.68</ele><time>2019-08-18T08:45:13Z</time></trkpt><trkpt lat="45.0892245211" lon="6.4373841137"><ele>1999.68</ele><time>2019-08-18T08:45:16Z</time></trkpt><trkpt lat="45.0891819410" lon="6.4374157134"><ele>2000.64</ele><time>2019-08-18T08:45:21Z</time></trkpt><trkpt lat="45.0890984572" lon="6.4375364129"><ele>2001.60</ele><time>2019-08-18T08:45:34Z</time></trkpt><trkpt lat="45.0890369341" lon="6.4376578666"><ele>2002.56</ele><time>2019-08-18T08:45:46Z</time></trkpt><trkpt lat="45.0889564678" lon="6.4377949107"><ele>2004.49</ele><time>2019-08-18T08:46:00Z</time></trkpt><trkpt lat="45.0888881553" lon="6.4379187115"><ele>2005.45</ele><time>2019-08-18T08:46:13Z</time></trkpt><trkpt lat="45.0888183340" lon="6.4380381536"><ele>2007.37</ele><time>2019-08-18T08:46:25Z</time></trkpt><trkpt lat="45.0887861475" lon="6.4380996767"><ele>2007.85</ele><time>2019-08-18T08:46:32Z</time></trkpt><trkpt lat="45.0887081120" lon="6.4382161852"><ele>2010.25</ele><time>2019-08-18T08:46:46Z</time></trkpt><trkpt lat="45.0886480138" lon="6.4383178577"><ele>2011.70</ele><time>2019-08-18T08:46:58Z</time></trkpt><trkpt lat="45.0886239577" lon="6.4383922052"><ele>2012.66</ele><time>2019-08-18T08:47:05Z</time></trkpt><trkpt lat="45.0885584112" lon="6.4385024272"><ele>2015.06</ele><time>2019-08-18T08:47:18Z</time></trkpt><trkpt lat="45.0885539688" lon="6.4385072049"><ele>2015.06</ele><time>2019-08-18T08:47:19Z</time></trkpt><trkpt lat="45.0885176752" lon="6.4385761879"><ele>2016.02</ele><time>2019-08-18T08:47:27Z</time></trkpt><trkpt lat="45.0884528831" lon="6.4387182612"><ele>2017.46</ele><time>2019-08-18T08:47:41Z</time></trkpt><trkpt lat="45.0884352811" lon="6.4387503639"><ele>2017.94</ele><time>2019-08-18T08:47:44Z</time></trkpt><trkpt lat="45.0883591734" lon="6.4388733264"><ele>2018.91</ele><time>2019-08-18T08:47:57Z</time></trkpt><trkpt lat="45.0882934593" lon="6.4389982168"><ele>2020.83</ele><time>2019-08-18T08:48:10Z</time></trkpt><trkpt lat="45.0882158428" lon="6.4391692076"><ele>2022.75</ele><time>2019-08-18T08:48:26Z</time></trkpt><trkpt lat="45.0881409086" lon="6.4393215068"><ele>2024.19</ele><time>2019-08-18T08:48:40Z</time></trkpt><trkpt lat="45.0881262403" lon="6.4393675234"><ele>2025.15</ele><time>2019-08-18T08:48:45Z</time></trkpt><trkpt lat="45.0880793016" lon="6.4394570421"><ele>2026.12</ele><time>2019-08-18T08:48:54Z</time></trkpt><trkpt lat="45.0880093127" lon="6.4396056533"><ele>2028.04</ele><time>2019-08-18T08:49:09Z</time></trkpt><trkpt lat="45.0879362226" lon="6.4397252630"><ele>2029.48</ele><time>2019-08-18T08:49:22Z</time></trkpt><trkpt lat="45.0878747832" lon="6.4398476388"><ele>2031.40</ele><time>2019-08-18T08:49:35Z</time></trkpt><trkpt lat="45.0878159422" lon="6.4400020335"><ele>2033.33</ele><time>2019-08-18T08:49:49Z</time></trkpt><trkpt lat="45.0877828337" lon="6.4401087351"><ele>2035.25</ele><time>2019-08-18T08:50:02Z</time></trkpt><trkpt lat="45.0877684169" lon="6.4401669055"><ele>2036.21</ele><time>2019-08-18T08:50:08Z</time></trkpt><trkpt lat="45.0877502281" lon="6.4402205497"><ele>2036.69</ele><time>2019-08-18T08:50:12Z</time></trkpt><trkpt lat="45.0876892079" lon="6.4403561689"><ele>2037.65</ele><time>2019-08-18T08:50:25Z</time></trkpt><trkpt lat="45.0876790658" lon="6.4403785486"><ele>2038.13</ele><time>2019-08-18T08:50:27Z</time></trkpt><trkpt lat="45.0876358151" lon="6.4405282494"><ele>2039.57</ele><time>2019-08-18T08:50:40Z</time></trkpt><trkpt lat="45.0875794888" lon="6.4406807162"><ele>2041.02</ele><time>2019-08-18T08:50:53Z</time></trkpt><trkpt lat="45.0875254255" lon="6.4407732524"><ele>2041.98</ele><time>2019-08-18T08:51:05Z</time></trkpt><trkpt lat="45.0874323025" lon="6.4409245458"><ele>2043.42</ele><time>2019-08-18T08:51:18Z</time></trkpt><trkpt lat="45.0873555243" lon="6.4411069360"><ele>2044.38</ele><time>2019-08-18T08:51:32Z</time></trkpt><trkpt lat="45.0873008743" lon="6.4412292279"><ele>2045.34</ele><time>2019-08-18T08:51:42Z</time></trkpt><trkpt lat="45.0871998724" lon="6.4413397014"><ele>2046.78</ele><time>2019-08-18T08:51:54Z</time></trkpt><trkpt lat="45.0870715454" lon="6.4415044896"><ele>2048.71</ele><time>2019-08-18T08:52:11Z</time></trkpt><trkpt lat="45.0870025624" lon="6.4416981954"><ele>2049.19</ele><time>2019-08-18T08:52:26Z</time></trkpt><trkpt lat="45.0869286340" lon="6.4419005346"><ele>2049.67</ele><time>2019-08-18T08:52:41Z</time></trkpt><trkpt lat="45.0868592318" lon="6.4420935698"><ele>2051.11</ele><time>2019-08-18T08:52:56Z</time></trkpt><trkpt lat="45.0868018996" lon="6.4423015248"><ele>2051.59</ele><time>2019-08-18T08:53:12Z</time></trkpt><trkpt lat="45.0868050009" lon="6.4422812406"><ele>2052.55</ele><time>2019-08-18T08:53:41Z</time></trkpt><trkpt lat="45.0867961161" lon="6.4422632195"><ele>2052.55</ele><time>2019-08-18T08:54:14Z</time></trkpt><trkpt lat="45.0867904164" lon="6.4422530774"><ele>2053.03</ele><time>2019-08-18T08:54:32Z</time></trkpt><trkpt lat="45.0867785141" lon="6.4423329569"><ele>2051.59</ele><time>2019-08-18T08:54:37Z</time></trkpt><trkpt lat="45.0867494289" lon="6.4424210507"><ele>2052.55</ele><time>2019-08-18T08:54:43Z</time></trkpt><trkpt lat="45.0867497642" lon="6.4424535725"><ele>2052.55</ele><time>2019-08-18T08:54:45Z</time></trkpt><trkpt lat="45.0866975449" lon="6.4426943008"><ele>2053.03</ele><time>2019-08-18T08:55:00Z</time></trkpt><trkpt lat="45.0866532046" lon="6.4429046866"><ele>2053.51</ele><time>2019-08-18T08:55:14Z</time></trkpt><trkpt lat="45.0866314955" lon="6.4431085344"><ele>2055.92</ele><time>2019-08-18T08:55:28Z</time></trkpt><trkpt lat="45.0866030809" lon="6.4433169086"><ele>2056.40</ele><time>2019-08-18T08:55:42Z</time></trkpt><trkpt lat="45.0865891669" lon="6.4434369374"><ele>2057.36</ele><time>2019-08-18T08:55:50Z</time></trkpt><trkpt lat="45.0865390431" lon="6.4436456468"><ele>2058.80</ele><time>2019-08-18T08:56:04Z</time></trkpt><trkpt lat="45.0864733290" lon="6.4438805077"><ele>2058.80</ele><time>2019-08-18T08:56:19Z</time></trkpt><trkpt lat="45.0864631031" lon="6.4439727087"><ele>2058.80</ele><time>2019-08-18T08:56:25Z</time></trkpt><trkpt lat="45.0864594989" lon="6.4440862834"><ele>2058.80</ele><time>2019-08-18T08:56:32Z</time></trkpt><trkpt lat="45.0864885841" lon="6.4443859365"><ele>2060.24</ele><time>2019-08-18T08:56:49Z</time></trkpt><trkpt lat="45.0864925236" lon="6.4446586836"><ele>2061.20</ele><time>2019-08-18T08:57:06Z</time></trkpt><trkpt lat="45.0864610076" lon="6.4448249806"><ele>2061.68</ele><time>2019-08-18T08:57:16Z</time></trkpt><trkpt lat="45.0863817986" lon="6.4449994080"><ele>2062.65</ele><time>2019-08-18T08:57:30Z</time></trkpt><trkpt lat="45.0863582455" lon="6.4450301696"><ele>2063.13</ele><time>2019-08-18T08:57:33Z</time></trkpt><trkpt lat="45.0863211975" lon="6.4451001585"><ele>2063.61</ele><time>2019-08-18T08:57:38Z</time></trkpt><trkpt lat="45.0862077065" lon="6.4452295750"><ele>2064.57</ele><time>2019-08-18T08:57:52Z</time></trkpt><trkpt lat="45.0861018430" lon="6.4453559741"><ele>2066.97</ele><time>2019-08-18T08:58:07Z</time></trkpt><trkpt lat="45.0860514678" lon="6.4454203472"><ele>2068.41</ele><time>2019-08-18T08:58:14Z</time></trkpt><trkpt lat="45.0859431736" lon="6.4455272164"><ele>2068.89</ele><time>2019-08-18T08:58:28Z</time></trkpt><trkpt lat="45.0858651381" lon="6.4456834551"><ele>2070.82</ele><time>2019-08-18T08:58:44Z</time></trkpt><trkpt lat="45.0858109072" lon="6.4457449783"><ele>2071.30</ele><time>2019-08-18T08:58:55Z</time></trkpt><trkpt lat="45.0858005136" lon="6.4457647596"><ele>2071.30</ele><time>2019-08-18T08:58:57Z</time></trkpt><trkpt lat="45.0857187063" lon="6.4459349122"><ele>2072.74</ele><time>2019-08-18T08:59:12Z</time></trkpt><trkpt lat="45.0856897887" lon="6.4460006263"><ele>2072.74</ele><time>2019-08-18T08:59:28Z</time></trkpt><trkpt lat="45.0856139325" lon="6.4461614750"><ele>2074.18</ele><time>2019-08-18T08:59:41Z</time></trkpt><trkpt lat="45.0856076460" lon="6.4461711142"><ele>2074.18</ele><time>2019-08-18T08:59:42Z</time></trkpt><trkpt lat="45.0855913013" lon="6.4461810049"><ele>2075.14</ele><time>2019-08-18T08:59:44Z</time></trkpt><trkpt lat="45.0855669100" lon="6.4462238364"><ele>2075.14</ele><time>2019-08-18T08:59:48Z</time></trkpt><trkpt lat="45.0854814146" lon="6.4464215655"><ele>2076.59</ele><time>2019-08-18T09:00:04Z</time></trkpt><trkpt lat="45.0854108389" lon="6.4465943165"><ele>2078.03</ele><time>2019-08-18T09:00:17Z</time></trkpt><trkpt lat="45.0853136089" lon="6.4468329493"><ele>2078.03</ele><time>2019-08-18T09:00:34Z</time></trkpt><trkpt lat="45.0852997787" lon="6.4468531497"><ele>2078.03</ele><time>2019-08-18T09:00:36Z</time></trkpt><trkpt lat="45.0852722861" lon="6.4470891841"><ele>2078.99</ele><time>2019-08-18T09:00:52Z</time></trkpt><trkpt lat="45.0852428656" lon="6.4472472668"><ele>2079.95</ele><time>2019-08-18T09:01:05Z</time></trkpt><trkpt lat="45.0852799136" lon="6.4472439140"><ele>2079.95</ele><time>2019-08-18T09:01:32Z</time></trkpt><trkpt lat="45.0852794945" lon="6.4472484402"><ele>2072.74</ele><time>2019-08-18T09:01:36Z</time></trkpt><trkpt lat="45.0852776505" lon="6.4472481888"><ele>2085.24</ele><time>2019-08-18T09:01:37Z</time></trkpt><trkpt lat="45.0852616411" lon="6.4472918585"><ele>2079.47</ele><time>2019-08-18T09:01:41Z</time></trkpt><trkpt lat="45.0852749683" lon="6.4472970553"><ele>2080.91</ele><time>2019-08-18T09:01:45Z</time></trkpt><trkpt lat="45.0852645747" lon="6.4472999889"><ele>2080.91</ele><time>2019-08-18T09:01:46Z</time></trkpt><trkpt lat="45.0852050632" lon="6.4474547189"><ele>2079.47</ele><time>2019-08-18T09:01:56Z</time></trkpt><trkpt lat="45.0851696916" lon="6.4477042481"><ele>2081.87</ele><time>2019-08-18T09:02:12Z</time></trkpt><trkpt lat="45.0851320568" lon="6.4479596447"><ele>2083.31</ele><time>2019-08-18T09:02:28Z</time></trkpt><trkpt lat="45.0851030555" lon="6.4482029714"><ele>2083.79</ele><time>2019-08-18T09:02:43Z</time></trkpt><trkpt lat="45.0850881357" lon="6.4483346511"><ele>2084.28</ele><time>2019-08-18T09:02:51Z</time></trkpt><trkpt lat="45.0850291271" lon="6.4486044645"><ele>2086.20</ele><time>2019-08-18T09:03:09Z</time></trkpt><trkpt lat="45.0849808473" lon="6.4488628786"><ele>2086.68</ele><time>2019-08-18T09:03:25Z</time></trkpt><trkpt lat="45.0849441346" lon="6.4490774553"><ele>2086.68</ele><time>2019-08-18T09:03:39Z</time></trkpt><trkpt lat="45.0848995429" lon="6.4493093826"><ele>2088.12</ele><time>2019-08-18T09:03:55Z</time></trkpt><trkpt lat="45.0848329067" lon="6.4495833870"><ele>2089.56</ele><time>2019-08-18T09:04:13Z</time></trkpt><trkpt lat="45.0848045759" lon="6.4496517833"><ele>2090.04</ele><time>2019-08-18T09:04:18Z</time></trkpt><trkpt lat="45.0846865587" lon="6.4497908391"><ele>2092.45</ele><time>2019-08-18T09:04:33Z</time></trkpt><trkpt lat="45.0846260414" lon="6.4498387836"><ele>2092.93</ele><time>2019-08-18T09:04:39Z</time></trkpt><trkpt lat="45.0845843833" lon="6.4499403723"><ele>2093.89</ele><time>2019-08-18T09:04:47Z</time></trkpt><trkpt lat="45.0845453236" lon="6.4501109440"><ele>2094.85</ele><time>2019-08-18T09:04:59Z</time></trkpt><trkpt lat="45.0844917633" lon="6.4502777439"><ele>2096.77</ele><time>2019-08-18T09:05:14Z</time></trkpt><trkpt lat="45.0844971277" lon="6.4502800908"><ele>2096.29</ele><time>2019-08-18T09:05:27Z</time></trkpt><trkpt lat="45.0844977144" lon="6.4502696972"><ele>2085.72</ele><time>2019-08-18T09:05:32Z</time></trkpt><trkpt lat="45.0844972953" lon="6.4502707869"><ele>2104.46</ele><time>2019-08-18T09:05:33Z</time></trkpt><trkpt lat="45.0844926853" lon="6.4502790850"><ele>2098.70</ele><time>2019-08-18T09:05:34Z</time></trkpt><trkpt lat="45.0844892487" lon="6.4502864610"><ele>2097.25</ele><time>2019-08-18T09:05:35Z</time></trkpt><trkpt lat="45.0844392926" lon="6.4504162967"><ele>2097.25</ele><time>2019-08-18T09:05:46Z</time></trkpt><trkpt lat="45.0843988080" lon="6.4506042190"><ele>2099.66</ele><time>2019-08-18T09:06:00Z</time></trkpt><trkpt lat="45.0843185931" lon="6.4507851843"><ele>2102.06</ele><time>2019-08-18T09:06:15Z</time></trkpt><trkpt lat="45.0842591655" lon="6.4509441890"><ele>2103.50</ele><time>2019-08-18T09:06:29Z</time></trkpt><trkpt lat="45.0842147414" lon="6.4511144254"><ele>2105.42</ele><time>2019-08-18T09:06:43Z</time></trkpt><trkpt lat="45.0841896795" lon="6.4512784593"><ele>2106.87</ele><time>2019-08-18T09:06:56Z</time></trkpt><trkpt lat="45.0841597561" lon="6.4513912797"><ele>2109.75</ele><time>2019-08-18T09:07:09Z</time></trkpt><trkpt lat="45.0841101352" lon="6.4515061118"><ele>2111.67</ele><time>2019-08-18T09:07:22Z</time></trkpt><trkpt lat="45.0840841513" lon="6.4515837282"><ele>2112.63</ele><time>2019-08-18T09:07:29Z</time></trkpt><trkpt lat="45.0840740930" lon="6.4517721534"><ele>2113.60</ele><time>2019-08-18T09:07:42Z</time></trkpt><trkpt lat="45.0840804633" lon="6.4518023282"><ele>2113.60</ele><time>2019-08-18T09:07:44Z</time></trkpt><trkpt lat="45.0840778649" lon="6.4518319163"><ele>2114.08</ele><time>2019-08-18T09:07:46Z</time></trkpt><trkpt lat="45.0840802956" lon="6.4518610016"><ele>2114.56</ele><time>2019-08-18T09:07:48Z</time></trkpt><trkpt lat="45.0841110572" lon="6.4519783482"><ele>2116.48</ele><time>2019-08-18T09:08:01Z</time></trkpt><trkpt lat="45.0840812176" lon="6.4520792663"><ele>2117.92</ele><time>2019-08-18T09:08:13Z</time></trkpt><trkpt lat="45.0840589218" lon="6.4521393646"><ele>2117.92</ele><time>2019-08-18T09:08:19Z</time></trkpt><trkpt lat="45.0840015057" lon="6.4522223454"><ele>2117.44</ele><time>2019-08-18T09:08:29Z</time></trkpt><trkpt lat="45.0839944649" lon="6.4522287156"><ele>2120.32</ele><time>2019-08-18T09:08:30Z</time></trkpt><trkpt lat="45.0839924533" lon="6.4522345830"><ele>2118.88</ele><time>2019-08-18T09:08:31Z</time></trkpt><trkpt lat="45.0839848258" lon="6.4522472396"><ele>2122.25</ele><time>2019-08-18T09:08:33Z</time></trkpt><trkpt lat="45.0839800481" lon="6.4522534423"><ele>2120.32</ele><time>2019-08-18T09:08:34Z</time></trkpt><trkpt lat="45.0839574169" lon="6.4522811025"><ele>2119.84</ele><time>2019-08-18T09:08:38Z</time></trkpt><trkpt lat="45.0838881824" lon="6.4523448888"><ele>2119.84</ele><time>2019-08-18T09:08:47Z</time></trkpt><trkpt lat="45.0837950595" lon="6.4524303842"><ele>2121.77</ele><time>2019-08-18T09:09:00Z</time></trkpt><trkpt lat="45.0837676506" lon="6.4525468089"><ele>2124.17</ele><time>2019-08-18T09:09:13Z</time></trkpt><trkpt lat="45.0837390684" lon="6.4526017103"><ele>2125.61</ele><time>2019-08-18T09:09:27Z</time></trkpt><trkpt lat="45.0837072171" lon="6.4526728727"><ele>2126.57</ele><time>2019-08-18T09:09:42Z</time></trkpt><trkpt lat="45.0836887769" lon="6.4527465496"><ele>2128.98</ele><time>2019-08-18T09:09:57Z</time></trkpt><trkpt lat="45.0836595241" lon="6.4527951647"><ele>2130.90</ele><time>2019-08-18T09:10:09Z</time></trkpt><trkpt lat="45.0835974142" lon="6.4528869465"><ele>2132.82</ele><time>2019-08-18T09:10:23Z</time></trkpt><trkpt lat="45.0835430156" lon="6.4529862721"><ele>2135.23</ele><time>2019-08-18T09:10:38Z</time></trkpt><trkpt lat="45.0834793132" lon="6.4530590270"><ele>2138.11</ele><time>2019-08-18T09:10:51Z</time></trkpt><trkpt lat="45.0834697578" lon="6.4530697558"><ele>2138.11</ele><time>2019-08-18T09:10:53Z</time></trkpt><trkpt lat="45.0833857711" lon="6.4531272557"><ele>2139.55</ele><time>2019-08-18T09:11:09Z</time></trkpt><trkpt lat="45.0833607931" lon="6.4531094860"><ele>2140.51</ele><time>2019-08-18T09:11:22Z</time></trkpt><trkpt lat="45.0832952466" lon="6.4531451929"><ele>2140.51</ele><time>2019-08-18T09:11:35Z</time></trkpt><trkpt lat="45.0832358189" lon="6.4531886112"><ele>2140.51</ele><time>2019-08-18T09:11:41Z</time></trkpt><trkpt lat="45.0831747148" lon="6.4532004297"><ele>2140.51</ele><time>2019-08-18T09:11:47Z</time></trkpt><trkpt lat="45.0831519999" lon="6.4532164391"><ele>2140.51</ele><time>2019-08-18T09:11:50Z</time></trkpt><trkpt lat="45.0831187237" lon="6.4532454405"><ele>2139.55</ele><time>2019-08-18T09:11:55Z</time></trkpt><trkpt lat="45.0830813404" lon="6.4532917924"><ele>2139.55</ele><time>2019-08-18T09:11:59Z</time></trkpt><trkpt lat="45.0830587093" lon="6.4533069637"><ele>2139.55</ele><time>2019-08-18T09:12:02Z</time></trkpt><trkpt lat="45.0830324739" lon="6.4534724224"><ele>2141.47</ele><time>2019-08-18T09:12:17Z</time></trkpt><trkpt lat="45.0830062386" lon="6.4535444230"><ele>2143.88</ele><time>2019-08-18T09:12:31Z</time></trkpt><trkpt lat="45.0830097590" lon="6.4535959717"><ele>2142.44</ele><time>2019-08-18T09:12:38Z</time></trkpt><trkpt lat="45.0830148719" lon="6.4535931218"><ele>2143.40</ele><time>2019-08-18T09:12:47Z</time></trkpt><trkpt lat="45.0829842780" lon="6.4536075387"><ele>2142.92</ele><time>2019-08-18T09:12:54Z</time></trkpt><trkpt lat="45.0829669274" lon="6.4536222070"><ele>2141.95</ele><time>2019-08-18T09:12:56Z</time></trkpt><trkpt lat="45.0829479843" lon="6.4536328521"><ele>2148.20</ele><time>2019-08-18T09:12:58Z</time></trkpt><trkpt lat="45.0829422008" lon="6.4536320977"><ele>2143.88</ele><time>2019-08-18T09:12:59Z</time></trkpt><trkpt lat="45.0829257723" lon="6.4536390547"><ele>2142.44</ele><time>2019-08-18T09:13:01Z</time></trkpt><trkpt lat="45.0828922447" lon="6.4536632784"><ele>2141.95</ele><time>2019-08-18T09:13:05Z</time></trkpt><trkpt lat="45.0827044062" lon="6.4537279867"><ele>2139.55</ele><time>2019-08-18T09:13:23Z</time></trkpt><trkpt lat="45.0826256163" lon="6.4536982309"><ele>2138.59</ele><time>2019-08-18T09:13:31Z</time></trkpt><trkpt lat="45.0825515203" lon="6.4534685668"><ele>2137.63</ele><time>2019-08-18T09:13:48Z</time></trkpt><trkpt lat="45.0824570563" lon="6.4533528127"><ele>2137.63</ele><time>2019-08-18T09:14:01Z</time></trkpt><trkpt lat="45.0824704673" lon="6.4533739351"><ele>2138.11</ele><time>2019-08-18T09:14:11Z</time></trkpt><trkpt lat="45.0824843813" lon="6.4533747733"><ele>2137.63</ele><time>2019-08-18T09:14:44Z</time></trkpt><trkpt lat="45.0825027376" lon="6.4533829037"><ele>2137.63</ele><time>2019-08-18T09:15:20Z</time></trkpt><trkpt lat="45.0825078506" lon="6.4533482026"><ele>2139.07</ele><time>2019-08-18T09:15:49Z</time></trkpt><trkpt lat="45.0824948587" lon="6.4533278346"><ele>2131.38</ele><time>2019-08-18T09:15:57Z</time></trkpt><trkpt lat="45.0824919250" lon="6.4533272479"><ele>2141.47</ele><time>2019-08-18T09:15:58Z</time></trkpt><trkpt lat="45.0824912544" lon="6.4533258229"><ele>2138.59</ele><time>2019-08-18T09:15:59Z</time></trkpt><trkpt lat="45.0824672822" lon="6.4533538185"><ele>2137.15</ele><time>2019-08-18T09:16:02Z</time></trkpt><trkpt lat="45.0824148953" lon="6.4533856697"><ele>2137.63</ele><time>2019-08-18T09:16:06Z</time></trkpt><trkpt lat="45.0822997279" lon="6.4534261543"><ele>2137.63</ele><time>2019-08-18T09:16:16Z</time></trkpt><trkpt lat="45.0820769370" lon="6.4534256514"><ele>2139.55</ele><time>2019-08-18T09:16:33Z</time></trkpt><trkpt lat="45.0820669625" lon="6.4534503780"><ele>2140.51</ele><time>2019-08-18T09:16:48Z</time></trkpt><trkpt lat="45.0820752606" lon="6.4534619451"><ele>2140.99</ele><time>2019-08-18T09:17:12Z</time></trkpt><trkpt lat="45.0820799544" lon="6.4534595143"><ele>2141.47</ele><time>2019-08-18T09:17:27Z</time></trkpt><trkpt lat="45.0820759311" lon="6.4534622803"><ele>2140.03</ele><time>2019-08-18T09:17:30Z</time></trkpt><trkpt lat="45.0820674654" lon="6.4534815587"><ele>2140.03</ele><time>2019-08-18T09:18:04Z</time></trkpt><trkpt lat="45.0820550602" lon="6.4534685668"><ele>2140.51</ele><time>2019-08-18T09:18:35Z</time></trkpt><trkpt lat="45.0820742548" lon="6.4534844924"><ele>2141.47</ele><time>2019-08-18T09:19:08Z</time></trkpt><trkpt lat="45.0820756797" lon="6.4534928743"><ele>2136.67</ele><time>2019-08-18T09:19:27Z</time></trkpt><trkpt lat="45.0820757635" lon="6.4534915332"><ele>2142.44</ele><time>2019-08-18T09:19:28Z</time></trkpt><trkpt lat="45.0820876658" lon="6.4534922037"><ele>2140.99</ele><time>2019-08-18T09:19:31Z</time></trkpt><trkpt lat="45.0821096264" lon="6.4534816425"><ele>2140.51</ele><time>2019-08-18T09:19:36Z</time></trkpt><trkpt lat="45.0823252089" lon="6.4535119012"><ele>2140.03</ele><time>2019-08-18T09:19:55Z</time></trkpt><trkpt lat="45.0825034082" lon="6.4534494560"><ele>2139.07</ele><time>2019-08-18T09:20:10Z</time></trkpt><trkpt lat="45.0825458206" lon="6.4534784574"><ele>2138.59</ele><time>2019-08-18T09:20:15Z</time></trkpt><trkpt lat="45.0825836230" lon="6.4535681438"><ele>2138.59</ele><time>2019-08-18T09:20:29Z</time></trkpt><trkpt lat="45.0826339982" lon="6.4536704868"><ele>2138.59</ele><time>2019-08-18T09:20:42Z</time></trkpt><trkpt lat="45.0826613232" lon="6.4537413139"><ele>2140.03</ele><time>2019-08-18T09:20:48Z</time></trkpt><trkpt lat="45.0827188231" lon="6.4537687227"><ele>2140.51</ele><time>2019-08-18T09:20:54Z</time></trkpt><trkpt lat="45.0827456452" lon="6.4537764341"><ele>2140.99</ele><time>2019-08-18T09:20:57Z</time></trkpt><trkpt lat="45.0828790851" lon="6.4537453372"><ele>2142.92</ele><time>2019-08-18T09:21:12Z</time></trkpt><trkpt lat="45.0829934143" lon="6.4537333511"><ele>2144.36</ele><time>2019-08-18T09:21:24Z</time></trkpt><trkpt lat="45.0829939172" lon="6.4537527133"><ele>2144.36</ele><time>2019-08-18T09:21:27Z</time></trkpt><trkpt lat="45.0829396863" lon="6.4538749214"><ele>2146.28</ele><time>2019-08-18T09:21:41Z</time></trkpt><trkpt lat="45.0829279516" lon="6.4539094549"><ele>2146.76</ele><time>2019-08-18T09:21:55Z</time></trkpt><trkpt lat="45.0829185639" lon="6.4539269730"><ele>2146.76</ele><time>2019-08-18T09:21:57Z</time></trkpt><trkpt lat="45.0828653388" lon="6.4540555514"><ele>2148.68</ele><time>2019-08-18T09:22:11Z</time></trkpt><trkpt lat="45.0828229263" lon="6.4542065933"><ele>2151.09</ele><time>2019-08-18T09:22:25Z</time></trkpt><trkpt lat="45.0827935059" lon="6.4542899933"><ele>2153.49</ele><time>2019-08-18T09:22:39Z</time></trkpt><trkpt lat="45.0827650912" lon="6.4543950185"><ele>2155.89</ele><time>2019-08-18T09:22:54Z</time></trkpt><trkpt lat="45.0826938450" lon="6.4545267820"><ele>2157.34</ele><time>2019-08-18T09:23:06Z</time></trkpt><trkpt lat="45.0826185755" lon="6.4546198212"><ele>2157.82</ele><time>2019-08-18T09:23:20Z</time></trkpt><trkpt lat="45.0825801864" lon="6.4547163807"><ele>2159.74</ele><time>2019-08-18T09:23:34Z</time></trkpt><trkpt lat="45.0825671945" lon="6.4548177179"><ele>2162.62</ele><time>2019-08-18T09:23:48Z</time></trkpt><trkpt lat="45.0824712217" lon="6.4549404290"><ele>2164.06</ele><time>2019-08-18T09:24:03Z</time></trkpt><trkpt lat="45.0824249536" lon="6.4550672472"><ele>2165.99</ele><time>2019-08-18T09:24:16Z</time></trkpt><trkpt lat="45.0823521987" lon="6.4551700931"><ele>2167.91</ele><time>2019-08-18T09:24:31Z</time></trkpt><trkpt lat="45.0822904240" lon="6.4552696701"><ele>2170.79</ele><time>2019-08-18T09:24:45Z</time></trkpt><trkpt lat="45.0822397135" lon="6.4553789701"><ele>2173.68</ele><time>2019-08-18T09:25:01Z</time></trkpt><trkpt lat="45.0822255481" lon="6.4554116596"><ele>2175.12</ele><time>2019-08-18T09:25:13Z</time></trkpt><trkpt lat="45.0822068565" lon="6.4554580953"><ele>2175.60</ele><time>2019-08-18T09:25:35Z</time></trkpt><trkpt lat="45.0821985584" lon="6.4555362146"><ele>2178.00</ele><time>2019-08-18T09:25:47Z</time></trkpt><trkpt lat="45.0821620971" lon="6.4556261525"><ele>2179.93</ele><time>2019-08-18T09:25:58Z</time></trkpt><trkpt lat="45.0821583252" lon="6.4557495341"><ele>2182.81</ele><time>2019-08-18T09:26:14Z</time></trkpt><trkpt lat="45.0821990613" lon="6.4558082074"><ele>2185.69</ele><time>2019-08-18T09:26:27Z</time></trkpt><trkpt lat="45.0822933577" lon="6.4557599276"><ele>2188.58</ele><time>2019-08-18T09:26:42Z</time></trkpt><trkpt lat="45.0823893305" lon="6.4557523001"><ele>2190.50</ele><time>2019-08-18T09:26:56Z</time></trkpt><trkpt lat="45.0823404640" lon="6.4558131527"><ele>2192.42</ele><time>2019-08-18T09:27:10Z</time></trkpt><trkpt lat="45.0823180005" lon="6.4559164178"><ele>2194.83</ele><time>2019-08-18T09:27:23Z</time></trkpt><trkpt lat="45.0823182520" lon="6.4560061879"><ele>2197.71</ele><time>2019-08-18T09:27:38Z</time></trkpt><trkpt lat="45.0822744984" lon="6.4561124705"><ele>2200.59</ele><time>2019-08-18T09:27:55Z</time></trkpt><trkpt lat="45.0822349358" lon="6.4562293980"><ele>2202.52</ele><time>2019-08-18T09:28:09Z</time></trkpt><trkpt lat="45.0822139811" lon="6.4563298132"><ele>2204.44</ele><time>2019-08-18T09:28:24Z</time></trkpt><trkpt lat="45.0821636897" lon="6.4563965332"><ele>2205.88</ele><time>2019-08-18T09:28:39Z</time></trkpt><trkpt lat="45.0821325928" lon="6.4565118682"><ele>2208.29</ele><time>2019-08-18T09:28:54Z</time></trkpt><trkpt lat="45.0821040105" lon="6.4566204976"><ele>2211.17</ele><time>2019-08-18T09:29:09Z</time></trkpt><trkpt lat="45.0820745062" lon="6.4567050710"><ele>2213.09</ele><time>2019-08-18T09:29:23Z</time></trkpt><trkpt lat="45.0820295792" lon="6.4568059891"><ele>2215.50</ele><time>2019-08-18T09:29:36Z</time></trkpt><trkpt lat="45.0819719955" lon="6.4569069911"><ele>2217.90</ele><time>2019-08-18T09:29:49Z</time></trkpt><trkpt lat="45.0819122326" lon="6.4569656644"><ele>2219.82</ele><time>2019-08-18T09:30:02Z</time></trkpt><trkpt lat="45.0818144158" lon="6.4570664987"><ele>2221.26</ele><time>2019-08-18T09:30:16Z</time></trkpt><trkpt lat="45.0817077979" lon="6.4571738709"><ele>2222.22</ele><time>2019-08-18T09:30:28Z</time></trkpt><trkpt lat="45.0816365518" lon="6.4572736155"><ele>2222.71</ele><time>2019-08-18T09:30:40Z</time></trkpt><trkpt lat="45.0815242343" lon="6.4574217238"><ele>2223.67</ele><time>2019-08-18T09:30:54Z</time></trkpt><trkpt lat="45.0814747810" lon="6.4574687462"><ele>2224.15</ele><time>2019-08-18T09:31:00Z</time></trkpt><trkpt lat="45.0814606994" lon="6.4574930537"><ele>2224.15</ele><time>2019-08-18T09:31:02Z</time></trkpt><trkpt lat="45.0814340450" lon="6.4575279225"><ele>2224.63</ele><time>2019-08-18T09:31:05Z</time></trkpt><trkpt lat="45.0812602881" lon="6.4576274995"><ele>2225.59</ele><time>2019-08-18T09:31:22Z</time></trkpt><trkpt lat="45.0811167900" lon="6.4577982388"><ele>2226.07</ele><time>2019-08-18T09:31:38Z</time></trkpt><trkpt lat="45.0810745452" lon="6.4578663837"><ele>2228.95</ele><time>2019-08-18T09:31:45Z</time></trkpt><trkpt lat="45.0809724536" lon="6.4579495322"><ele>2227.51</ele><time>2019-08-18T09:31:59Z</time></trkpt><trkpt lat="45.0809504930" lon="6.4579571597"><ele>2228.95</ele><time>2019-08-18T09:32:02Z</time></trkpt><trkpt lat="45.0808770675" lon="6.4580213651"><ele>2229.92</ele><time>2019-08-18T09:32:12Z</time></trkpt><trkpt lat="45.0808302965" lon="6.4580706507"><ele>2230.88</ele><time>2019-08-18T09:32:18Z</time></trkpt><trkpt lat="45.0807720423" lon="6.4582145680"><ele>2231.84</ele><time>2019-08-18T09:32:32Z</time></trkpt><trkpt lat="45.0807199068" lon="6.4583493490"><ele>2233.28</ele><time>2019-08-18T09:32:46Z</time></trkpt><trkpt lat="45.0807069149" lon="6.4583931863"><ele>2234.24</ele><time>2019-08-18T09:32:50Z</time></trkpt><trkpt lat="45.0806630775" lon="6.4585298114"><ele>2235.68</ele><time>2019-08-18T09:33:03Z</time></trkpt><trkpt lat="45.0805828627" lon="6.4586570486"><ele>2237.61</ele><time>2019-08-18T09:33:17Z</time></trkpt><trkpt lat="45.0804794300" lon="6.4587906562"><ele>2239.05</ele><time>2019-08-18T09:33:31Z</time></trkpt><trkpt lat="45.0804293063" lon="6.4588255249"><ele>2240.01</ele><time>2019-08-18T09:33:37Z</time></trkpt><trkpt lat="45.0803518575" lon="6.4589288738"><ele>2241.93</ele><time>2019-08-18T09:33:52Z</time></trkpt><trkpt lat="45.0802574772" lon="6.4590048138"><ele>2243.37</ele><time>2019-08-18T09:34:04Z</time></trkpt><trkpt lat="45.0801732391" lon="6.4590632357"><ele>2243.85</ele><time>2019-08-18T09:34:15Z</time></trkpt><trkpt lat="45.0801180862" lon="6.4591086656"><ele>2244.82</ele><time>2019-08-18T09:34:28Z</time></trkpt><trkpt lat="45.0800789427" lon="6.4591631480"><ele>2244.82</ele><time>2019-08-18T09:34:36Z</time></trkpt><trkpt lat="45.0799814612" lon="6.4592764713"><ele>2245.30</ele><time>2019-08-18T09:34:49Z</time></trkpt><trkpt lat="45.0799103826" lon="6.4593458734"><ele>2246.26</ele><time>2019-08-18T09:34:57Z</time></trkpt><trkpt lat="45.0797758531" lon="6.4594946522"><ele>2247.70</ele><time>2019-08-18T09:35:13Z</time></trkpt><trkpt lat="45.0796884298" lon="6.4596028626"><ele>2248.66</ele><time>2019-08-18T09:35:24Z</time></trkpt><trkpt lat="45.0795924570" lon="6.4597055409"><ele>2249.62</ele><time>2019-08-18T09:35:36Z</time></trkpt><trkpt lat="45.0794269983" lon="6.4598292578"><ele>2251.06</ele><time>2019-08-18T09:35:52Z</time></trkpt><trkpt lat="45.0793491304" lon="6.4598924574"><ele>2251.54</ele><time>2019-08-18T09:36:00Z</time></trkpt><trkpt lat="45.0792960729" lon="6.4599505439"><ele>2252.51</ele><time>2019-08-18T09:36:07Z</time></trkpt><trkpt lat="45.0790871959" lon="6.4599973988"><ele>2253.47</ele><time>2019-08-18T09:36:24Z</time></trkpt><trkpt lat="45.0789412670" lon="6.4600953832"><ele>2254.43</ele><time>2019-08-18T09:36:39Z</time></trkpt><trkpt lat="45.0788929872" lon="6.4601333532"><ele>2254.91</ele><time>2019-08-18T09:36:45Z</time></trkpt><trkpt lat="45.0787913986" lon="6.4602116402"><ele>2255.39</ele><time>2019-08-18T09:36:55Z</time></trkpt><trkpt lat="45.0787508301" lon="6.4602403902"><ele>2255.39</ele><time>2019-08-18T09:36:59Z</time></trkpt><trkpt lat="45.0786826015" lon="6.4603202697"><ele>2256.83</ele><time>2019-08-18T09:37:15Z</time></trkpt><trkpt lat="45.0786290411" lon="6.4603873249"><ele>2257.31</ele><time>2019-08-18T09:37:21Z</time></trkpt><trkpt lat="45.0786070805" lon="6.4604307432"><ele>2257.31</ele><time>2019-08-18T09:37:25Z</time></trkpt><trkpt lat="45.0784482434" lon="6.4605742414"><ele>2258.75</ele><time>2019-08-18T09:37:41Z</time></trkpt><trkpt lat="45.0782904960" lon="6.4606543723"><ele>2259.72</ele><time>2019-08-18T09:37:56Z</time></trkpt><trkpt lat="45.0782050844" lon="6.4607531950"><ele>2261.16</ele><time>2019-08-18T09:38:08Z</time></trkpt><trkpt lat="45.0781991333" lon="6.4607635047"><ele>2261.16</ele><time>2019-08-18T09:38:09Z</time></trkpt><trkpt lat="45.0781582296" lon="6.4607910812"><ele>2261.64</ele><time>2019-08-18T09:38:13Z</time></trkpt><trkpt lat="45.0779221114" lon="6.4609159715"><ele>2261.64</ele><time>2019-08-18T09:38:33Z</time></trkpt><trkpt lat="45.0778971333" lon="6.4609484933"><ele>2263.08</ele><time>2019-08-18T09:38:44Z</time></trkpt><trkpt lat="45.0778418127" lon="6.4609401952"><ele>2263.08</ele><time>2019-08-18T09:38:58Z</time></trkpt><trkpt lat="45.0776562374" lon="6.4609836135"><ele>2264.52</ele><time>2019-08-18T09:39:13Z</time></trkpt><trkpt lat="45.0775501225" lon="6.4610339887"><ele>2265.48</ele><time>2019-08-18T09:39:25Z</time></trkpt><trkpt lat="45.0773937162" lon="6.4610940032"><ele>2266.45</ele><time>2019-08-18T09:39:41Z</time></trkpt><trkpt lat="45.0773248170" lon="6.4611534309"><ele>2267.41</ele><time>2019-08-18T09:39:49Z</time></trkpt><trkpt lat="45.0772887748" lon="6.4612128586"><ele>2268.85</ele><time>2019-08-18T09:39:55Z</time></trkpt><trkpt lat="45.0771475397" lon="6.4612733759"><ele>2269.33</ele><time>2019-08-18T09:40:11Z</time></trkpt><trkpt lat="45.0770696718" lon="6.4612263534"><ele>2269.81</ele><time>2019-08-18T09:40:21Z</time></trkpt><trkpt lat="45.0770013593" lon="6.4612295385"><ele>2271.73</ele><time>2019-08-18T09:40:28Z</time></trkpt><trkpt lat="45.0769643951" lon="6.4613221586"><ele>2271.73</ele><time>2019-08-18T09:40:36Z</time></trkpt><trkpt lat="45.0769067276" lon="6.4614426065"><ele>2273.17</ele><time>2019-08-18T09:40:50Z</time></trkpt><trkpt lat="45.0768678356" lon="6.4614902996"><ele>2273.66</ele><time>2019-08-18T09:40:58Z</time></trkpt><trkpt lat="45.0768304523" lon="6.4615594503"><ele>2274.62</ele><time>2019-08-18T09:41:06Z</time></trkpt><trkpt lat="45.0768084079" lon="6.4615638088"><ele>2275.58</ele><time>2019-08-18T09:41:08Z</time></trkpt><trkpt lat="45.0767331384" lon="6.4615873620"><ele>2275.58</ele><time>2019-08-18T09:41:15Z</time></trkpt><trkpt lat="45.0767166261" lon="6.4616010245"><ele>2276.06</ele><time>2019-08-18T09:41:17Z</time></trkpt><trkpt lat="45.0765927415" lon="6.4616823290"><ele>2277.50</ele><time>2019-08-18T09:41:31Z</time></trkpt><trkpt lat="45.0765775703" lon="6.4616968296"><ele>2277.50</ele><time>2019-08-18T09:41:33Z</time></trkpt><trkpt lat="45.0764673483" lon="6.4618305210"><ele>2278.46</ele><time>2019-08-18T09:41:47Z</time></trkpt><trkpt lat="45.0763935037" lon="6.4619029406"><ele>2279.42</ele><time>2019-08-18T09:41:57Z</time></trkpt><trkpt lat="45.0763741415" lon="6.4619153459"><ele>2279.42</ele><time>2019-08-18T09:41:59Z</time></trkpt><trkpt lat="45.0763068348" lon="6.4619806409"><ele>2280.87</ele><time>2019-08-18T09:42:08Z</time></trkpt><trkpt lat="45.0761662703" lon="6.4620312676"><ele>2282.31</ele><time>2019-08-18T09:42:23Z</time></trkpt><trkpt lat="45.0761288032" lon="6.4620709140"><ele>2282.79</ele><time>2019-08-18T09:42:28Z</time></trkpt><trkpt lat="45.0760505162" lon="6.4621241391"><ele>2283.75</ele><time>2019-08-18T09:42:36Z</time></trkpt><trkpt lat="45.0759078562" lon="6.4622156695"><ele>2285.19</ele><time>2019-08-18T09:42:52Z</time></trkpt><trkpt lat="45.0758511946" lon="6.4623691421"><ele>2286.63</ele><time>2019-08-18T09:43:05Z</time></trkpt><trkpt lat="45.0758133922" lon="6.4624209423"><ele>2287.59</ele><time>2019-08-18T09:43:11Z</time></trkpt><trkpt lat="45.0757971313" lon="6.4624301624"><ele>2287.59</ele><time>2019-08-18T09:43:13Z</time></trkpt><trkpt lat="45.0757785235" lon="6.4624366164"><ele>2288.08</ele><time>2019-08-18T09:43:15Z</time></trkpt><trkpt lat="45.0757151563" lon="6.4625473414"><ele>2288.56</ele><time>2019-08-18T09:43:25Z</time></trkpt><trkpt lat="45.0755911879" lon="6.4626433142"><ele>2290.48</ele><time>2019-08-18T09:43:40Z</time></trkpt><trkpt lat="45.0754993223" lon="6.4627086092"><ele>2292.40</ele><time>2019-08-18T09:43:53Z</time></trkpt><trkpt lat="45.0754672196" lon="6.4627930149"><ele>2293.84</ele><time>2019-08-18T09:44:03Z</time></trkpt><trkpt lat="45.0754473545" lon="6.4628178254"><ele>2293.84</ele><time>2019-08-18T09:44:06Z</time></trkpt><trkpt lat="45.0753458496" lon="6.4629931748"><ele>2295.28</ele><time>2019-08-18T09:44:21Z</time></trkpt><trkpt lat="45.0752728432" lon="6.4631344937"><ele>2296.73</ele><time>2019-08-18T09:44:35Z</time></trkpt><trkpt lat="45.0752147567" lon="6.4632396866"><ele>2298.17</ele><time>2019-08-18T09:44:47Z</time></trkpt><trkpt lat="45.0751635432" lon="6.4633509982"><ele>2301.05</ele><time>2019-08-18T09:45:02Z</time></trkpt><trkpt lat="45.0751592685" lon="6.4634687640"><ele>2303.46</ele><time>2019-08-18T09:45:16Z</time></trkpt><trkpt lat="45.0751135033" lon="6.4635404292"><ele>2305.86</ele><time>2019-08-18T09:45:30Z</time></trkpt><trkpt lat="45.0750622060" lon="6.4636541717"><ele>2308.26</ele><time>2019-08-18T09:45:45Z</time></trkpt><trkpt lat="45.0750232302" lon="6.4637104142"><ele>2309.70</ele><time>2019-08-18T09:45:52Z</time></trkpt><trkpt lat="45.0749144331" lon="6.4638429321"><ele>2311.15</ele><time>2019-08-18T09:46:07Z</time></trkpt><trkpt lat="45.0748488866" lon="6.4639937226"><ele>2312.59</ele><time>2019-08-18T09:46:22Z</time></trkpt><trkpt lat="45.0747680012" lon="6.4641176071"><ele>2314.03</ele><time>2019-08-18T09:46:35Z</time></trkpt><trkpt lat="45.0747156981" lon="6.4642512985"><ele>2315.95</ele><time>2019-08-18T09:46:48Z</time></trkpt><trkpt lat="45.0746712741" lon="6.4643590897"><ele>2318.84</ele><time>2019-08-18T09:47:01Z</time></trkpt><trkpt lat="45.0746105053" lon="6.4644324314"><ele>2319.80</ele><time>2019-08-18T09:47:13Z</time></trkpt><trkpt lat="45.0745777320" lon="6.4644786157"><ele>2320.76</ele><time>2019-08-18T09:47:19Z</time></trkpt><trkpt lat="45.0744827650" lon="6.4645403903"><ele>2321.24</ele><time>2019-08-18T09:47:31Z</time></trkpt><trkpt lat="45.0744191464" lon="6.4646023326"><ele>2323.16</ele><time>2019-08-18T09:47:44Z</time></trkpt><trkpt lat="45.0743427034" lon="6.4646506961"><ele>2323.64</ele><time>2019-08-18T09:47:58Z</time></trkpt><trkpt lat="45.0742918253" lon="6.4647236187"><ele>2325.57</ele><time>2019-08-18T09:48:13Z</time></trkpt><trkpt lat="45.0741941761" lon="6.4648210164"><ele>2326.53</ele><time>2019-08-18T09:48:27Z</time></trkpt><trkpt lat="45.0741406996" lon="6.4649001416"><ele>2328.45</ele><time>2019-08-18T09:48:38Z</time></trkpt><trkpt lat="45.0740998797" lon="6.4649712201"><ele>2330.37</ele><time>2019-08-18T09:48:51Z</time></trkpt><trkpt lat="45.0740572158" lon="6.4650462382"><ele>2332.30</ele><time>2019-08-18T09:49:06Z</time></trkpt><trkpt lat="45.0740120374" lon="6.4651444741"><ele>2334.70</ele><time>2019-08-18T09:49:20Z</time></trkpt><trkpt lat="45.0739871431" lon="6.4652334899"><ele>2337.58</ele><time>2019-08-18T09:49:36Z</time></trkpt><trkpt lat="45.0739315711" lon="6.4652963541"><ele>2339.02</ele><time>2019-08-18T09:49:47Z</time></trkpt><trkpt lat="45.0739380252" lon="6.4653415326"><ele>2340.47</ele><time>2019-08-18T09:50:01Z</time></trkpt><trkpt lat="45.0739117898" lon="6.4653490763"><ele>2340.47</ele><time>2019-08-18T09:50:10Z</time></trkpt><trkpt lat="45.0738601573" lon="6.4654180594"><ele>2340.47</ele><time>2019-08-18T09:50:24Z</time></trkpt><trkpt lat="45.0738112908" lon="6.4655136131"><ele>2341.91</ele><time>2019-08-18T09:50:37Z</time></trkpt><trkpt lat="45.0737964548" lon="6.4656028803"><ele>2343.83</ele><time>2019-08-18T09:50:52Z</time></trkpt><trkpt lat="45.0737814512" lon="6.4656403475"><ele>2343.83</ele><time>2019-08-18T09:50:57Z</time></trkpt><trkpt lat="45.0737487618" lon="6.4657612145"><ele>2345.27</ele><time>2019-08-18T09:51:12Z</time></trkpt><trkpt lat="45.0737968739" lon="6.4658556785"><ele>2346.23</ele><time>2019-08-18T09:51:24Z</time></trkpt><trkpt lat="45.0738346763" lon="6.4658942353"><ele>2346.72</ele><time>2019-08-18T09:51:28Z</time></trkpt><trkpt lat="45.0739562139" lon="6.4659345523"><ele>2347.68</ele><time>2019-08-18T09:51:43Z</time></trkpt><trkpt lat="45.0740439724" lon="6.4659436885"><ele>2349.12</ele><time>2019-08-18T09:51:55Z</time></trkpt><trkpt lat="45.0740895700" lon="6.4659960754"><ele>2349.60</ele><time>2019-08-18T09:52:09Z</time></trkpt><trkpt lat="45.0740795117" lon="6.4659849275"><ele>2350.56</ele><time>2019-08-18T09:52:29Z</time></trkpt><trkpt lat="45.0740996283" lon="6.4660326205"><ele>2350.56</ele><time>2019-08-18T09:53:00Z</time></trkpt><trkpt lat="45.0741236005" lon="6.4661143441"><ele>2351.04</ele><time>2019-08-18T09:53:11Z</time></trkpt><trkpt lat="45.0741577987" lon="6.4662248176"><ele>2352.96</ele><time>2019-08-18T09:53:23Z</time></trkpt><trkpt lat="45.0741876382" lon="6.4662643801"><ele>2353.44</ele><time>2019-08-18T09:53:29Z</time></trkpt><trkpt lat="45.0742141251" lon="6.4663418289"><ele>2354.89</ele><time>2019-08-18T09:53:40Z</time></trkpt><trkpt lat="45.0742186513" lon="6.4664175175"><ele>2357.77</ele><time>2019-08-18T09:53:53Z</time></trkpt><trkpt lat="45.0742513407" lon="6.4665106405"><ele>2360.65</ele><time>2019-08-18T09:54:09Z</time></trkpt><trkpt lat="45.0742320623" lon="6.4665395580"><ele>2362.10</ele><time>2019-08-18T09:54:25Z</time></trkpt><trkpt lat="45.0741779152" lon="6.4665595908"><ele>2363.06</ele><time>2019-08-18T09:54:52Z</time></trkpt><trkpt lat="45.0741516799" lon="6.4666838106"><ele>2364.02</ele><time>2019-08-18T09:55:03Z</time></trkpt><trkpt lat="45.0741167273" lon="6.4668291528"><ele>2364.50</ele><time>2019-08-18T09:55:16Z</time></trkpt><trkpt lat="45.0740696210" lon="6.4670288935"><ele>2365.94</ele><time>2019-08-18T09:55:31Z</time></trkpt><trkpt lat="45.0740398653" lon="6.4671477489"><ele>2366.90</ele><time>2019-08-18T09:55:45Z</time></trkpt><trkpt lat="45.0740013085" lon="6.4672655147"><ele>2367.86</ele><time>2019-08-18T09:56:01Z</time></trkpt><trkpt lat="45.0739718881" lon="6.4674471505"><ele>2368.83</ele><time>2019-08-18T09:56:16Z</time></trkpt><trkpt lat="45.0739473291" lon="6.4676275291"><ele>2370.75</ele><time>2019-08-18T09:56:30Z</time></trkpt><trkpt lat="45.0739312358" lon="6.4677214902"><ele>2371.23</ele><time>2019-08-18T09:56:38Z</time></trkpt><trkpt lat="45.0738546252" lon="6.4678299520"><ele>2373.15</ele><time>2019-08-18T09:56:51Z</time></trkpt><trkpt lat="45.0737545453" lon="6.4679099992"><ele>2376.04</ele><time>2019-08-18T09:57:06Z</time></trkpt><trkpt lat="45.0736922678" lon="6.4679457061"><ele>2376.52</ele><time>2019-08-18T09:57:13Z</time></trkpt><trkpt lat="45.0736534595" lon="6.4679819997"><ele>2376.52</ele><time>2019-08-18T09:57:17Z</time></trkpt><trkpt lat="45.0735488534" lon="6.4680259209"><ele>2376.52</ele><time>2019-08-18T09:57:29Z</time></trkpt><trkpt lat="45.0734448340" lon="6.4680578560"><ele>2377.48</ele><time>2019-08-18T09:57:41Z</time></trkpt><trkpt lat="45.0733503699" lon="6.4681437705"><ele>2379.40</ele><time>2019-08-18T09:57:56Z</time></trkpt><trkpt lat="45.0732840691" lon="6.4681777172"><ele>2381.32</ele><time>2019-08-18T09:58:07Z</time></trkpt><trkpt lat="45.0732455123" lon="6.4682544954"><ele>2382.76</ele><time>2019-08-18T09:58:22Z</time></trkpt><trkpt lat="45.0732460152" lon="6.4683176950"><ele>2386.13</ele><time>2019-08-18T09:58:34Z</time></trkpt><trkpt lat="45.0732430816" lon="6.4684139192"><ele>2387.57</ele><time>2019-08-18T09:58:46Z</time></trkpt><trkpt lat="45.0731987413" lon="6.4685084671"><ele>2390.46</ele><time>2019-08-18T09:59:01Z</time></trkpt><trkpt lat="45.0731850788" lon="6.4685918670"><ele>2392.38</ele><time>2019-08-18T09:59:13Z</time></trkpt><trkpt lat="45.0731994957" lon="6.4686449245"><ele>2394.30</ele><time>2019-08-18T09:59:24Z</time></trkpt><trkpt lat="45.0732030999" lon="6.4687065315"><ele>2395.26</ele><time>2019-08-18T09:59:34Z</time></trkpt><trkpt lat="45.0731979031" lon="6.4688038453"><ele>2398.63</ele><time>2019-08-18T09:59:49Z</time></trkpt><trkpt lat="45.0731881801" lon="6.4688040130"><ele>2400.07</ele><time>2019-08-18T10:00:04Z</time></trkpt><trkpt lat="45.0731923711" lon="6.4688725770"><ele>2400.55</ele><time>2019-08-18T10:00:18Z</time></trkpt><trkpt lat="45.0732112303" lon="6.4690000657"><ele>2401.99</ele><time>2019-08-18T10:00:30Z</time></trkpt><trkpt lat="45.0731901918" lon="6.4690883271"><ele>2403.91</ele><time>2019-08-18T10:00:42Z</time></trkpt><trkpt lat="45.0731693208" lon="6.4690920990"><ele>2404.88</ele><time>2019-08-18T10:01:00Z</time></trkpt><trkpt lat="45.0731626991" lon="6.4691214357"><ele>2405.36</ele><time>2019-08-18T10:01:21Z</time></trkpt><trkpt lat="45.0731745176" lon="6.4691436477"><ele>2405.36</ele><time>2019-08-18T10:01:47Z</time></trkpt><trkpt lat="45.0731807202" lon="6.4691456594"><ele>2404.39</ele><time>2019-08-18T10:02:02Z</time></trkpt><trkpt lat="45.0731862523" lon="6.4691485930"><ele>2404.39</ele><time>2019-08-18T10:02:03Z</time></trkpt><trkpt lat="45.0731998309" lon="6.4691304881"><ele>2358.73</ele><time>2019-08-18T10:02:24Z</time></trkpt><trkpt lat="45.0732007530" lon="6.4691316616"><ele>2432.75</ele><time>2019-08-18T10:02:25Z</time></trkpt><trkpt lat="45.0732000824" lon="6.4691324160"><ele>2414.97</ele><time>2019-08-18T10:02:26Z</time></trkpt><trkpt lat="45.0731994957" lon="6.4691317454"><ele>2412.09</ele><time>2019-08-18T10:02:27Z</time></trkpt><trkpt lat="45.0731997471" lon="6.4691297337"><ele>2406.80</ele><time>2019-08-18T10:02:28Z</time></trkpt><trkpt lat="45.0731978193" lon="6.4691296499"><ele>2405.36</ele><time>2019-08-18T10:02:30Z</time></trkpt><trkpt lat="45.0732192770" lon="6.4691423904"><ele>2405.36</ele><time>2019-08-18T10:02:47Z</time></trkpt><trkpt lat="45.0732556544" lon="6.4691480063"><ele>2405.36</ele><time>2019-08-18T10:03:02Z</time></trkpt><trkpt lat="45.0733298343" lon="6.4691459946"><ele>2405.36</ele><time>2019-08-18T10:03:15Z</time></trkpt><trkpt lat="45.0733724143" lon="6.4691924304"><ele>2403.91</ele><time>2019-08-18T10:03:25Z</time></trkpt><trkpt lat="45.0733633619" lon="6.4693351742"><ele>2402.47</ele><time>2019-08-18T10:03:38Z</time></trkpt><trkpt lat="45.0733305886" lon="6.4694899879"><ele>2402.47</ele><time>2019-08-18T10:03:51Z</time></trkpt><trkpt lat="45.0731936283" lon="6.4696743060"><ele>2403.91</ele><time>2019-08-18T10:04:09Z</time></trkpt><trkpt lat="45.0731130783" lon="6.4697947539"><ele>2403.91</ele><time>2019-08-18T10:04:23Z</time></trkpt><trkpt lat="45.0730605237" lon="6.4698463026"><ele>2402.47</ele><time>2019-08-18T10:04:40Z</time></trkpt><trkpt lat="45.0730526447" lon="6.4698584564"><ele>2402.47</ele><time>2019-08-18T10:04:41Z</time></trkpt><trkpt lat="45.0729966536" lon="6.4700654894"><ele>2397.18</ele><time>2019-08-18T10:04:57Z</time></trkpt><trkpt lat="45.0729968213" lon="6.4700782299"><ele>2403.91</ele><time>2019-08-18T10:04:58Z</time></trkpt><trkpt lat="45.0729974918" lon="6.4700887911"><ele>2403.91</ele><time>2019-08-18T10:04:59Z</time></trkpt><trkpt lat="45.0729942229" lon="6.4701186307"><ele>2401.51</ele><time>2019-08-18T10:05:01Z</time></trkpt><trkpt lat="45.0729927141" lon="6.4701467939"><ele>2391.90</ele><time>2019-08-18T10:05:03Z</time></trkpt><trkpt lat="45.0729936361" lon="6.4701573551"><ele>2407.76</ele><time>2019-08-18T10:05:04Z</time></trkpt><trkpt lat="45.0729933847" lon="6.4701710176"><ele>2403.43</ele><time>2019-08-18T10:05:05Z</time></trkpt><trkpt lat="45.0729958154" lon="6.4701984264"><ele>2401.51</ele><time>2019-08-18T10:05:07Z</time></trkpt><trkpt lat="45.0729940552" lon="6.4703079779"><ele>2401.51</ele><time>2019-08-18T10:05:20Z</time></trkpt><trkpt lat="45.0729758665" lon="6.4704832435"><ele>2401.51</ele><time>2019-08-18T10:05:33Z</time></trkpt><trkpt lat="45.0729921274" lon="6.4706547372"><ele>2401.51</ele><time>2019-08-18T10:05:46Z</time></trkpt><trkpt lat="45.0729902834" lon="6.4708124008"><ele>2401.51</ele><time>2019-08-18T10:06:00Z</time></trkpt><trkpt lat="45.0730136689" lon="6.4709154982"><ele>2403.91</ele><time>2019-08-18T10:06:13Z</time></trkpt><trkpt lat="45.0730228052" lon="6.4710227028"><ele>2405.36</ele><time>2019-08-18T10:06:25Z</time></trkpt><trkpt lat="45.0729964860" lon="6.4710398018"><ele>2405.84</ele><time>2019-08-18T10:06:29Z</time></trkpt><trkpt lat="45.0729475357" lon="6.4711730741"><ele>2406.80</ele><time>2019-08-18T10:06:43Z</time></trkpt><trkpt lat="45.0729457755" lon="6.4711851440"><ele>2406.80</ele><time>2019-08-18T10:06:44Z</time></trkpt><trkpt lat="45.0728951488" lon="6.4713319950"><ele>2407.76</ele><time>2019-08-18T10:06:58Z</time></trkpt><trkpt lat="45.0728910416" lon="6.4715386927"><ele>2408.24</ele><time>2019-08-18T10:07:12Z</time></trkpt><trkpt lat="45.0728617888" lon="6.4716686122"><ele>2409.20</ele><time>2019-08-18T10:07:23Z</time></trkpt><trkpt lat="45.0728172809" lon="6.4718183968"><ele>2409.68</ele><time>2019-08-18T10:07:36Z</time></trkpt><trkpt lat="45.0727736112" lon="6.4719586261"><ele>2410.64</ele><time>2019-08-18T10:07:47Z</time></trkpt><trkpt lat="45.0727694202" lon="6.4720296208"><ele>2411.12</ele><time>2019-08-18T10:08:01Z</time></trkpt><trkpt lat="45.0727571826" lon="6.4720564429"><ele>2410.16</ele><time>2019-08-18T10:08:08Z</time></trkpt><trkpt lat="45.0727279298" lon="6.4720341470"><ele>2410.16</ele><time>2019-08-18T10:08:18Z</time></trkpt><trkpt lat="45.0726860203" lon="6.4720302075"><ele>2410.16</ele><time>2019-08-18T10:08:29Z</time></trkpt><trkpt lat="45.0726739503" lon="6.4720369130"><ele>2410.16</ele><time>2019-08-18T10:08:44Z</time></trkpt><trkpt lat="45.0726738665" lon="6.4720465522"><ele>2405.84</ele><time>2019-08-18T10:08:49Z</time></trkpt><trkpt lat="45.0726823322" lon="6.4720521681"><ele>2412.57</ele><time>2019-08-18T10:08:50Z</time></trkpt><trkpt lat="45.0727174524" lon="6.4720511623"><ele>2410.16</ele><time>2019-08-18T10:09:02Z</time></trkpt><trkpt lat="45.0727169495" lon="6.4720567781"><ele>2409.68</ele><time>2019-08-18T10:09:16Z</time></trkpt><trkpt lat="45.0727066398" lon="6.4720967598"><ele>2409.20</ele><time>2019-08-18T10:09:43Z</time></trkpt><trkpt lat="45.0726933964" lon="6.4721138589"><ele>2409.20</ele><time>2019-08-18T10:10:12Z</time></trkpt><trkpt lat="45.0727156084" lon="6.4720900543"><ele>2408.72</ele><time>2019-08-18T10:10:46Z</time></trkpt><trkpt lat="45.0727227330" lon="6.4720862824"><ele>2409.20</ele><time>2019-08-18T10:11:23Z</time></trkpt><trkpt lat="45.0727374014" lon="6.4721229952"><ele>2409.20</ele><time>2019-08-18T10:11:54Z</time></trkpt><trkpt lat="45.0727461185" lon="6.4720738772"><ele>2411.60</ele><time>2019-08-18T10:12:25Z</time></trkpt><trkpt lat="45.0727023650" lon="6.4720427804"><ele>2409.20</ele><time>2019-08-18T10:12:38Z</time></trkpt><trkpt lat="45.0727282651" lon="6.4720709436"><ele>2409.20</ele><time>2019-08-18T10:12:50Z</time></trkpt><trkpt lat="45.0727301929" lon="6.4720711112"><ele>2409.20</ele><time>2019-08-18T10:13:13Z</time></trkpt><trkpt lat="45.0727230683" lon="6.4720412716"><ele>2409.20</ele><time>2019-08-18T10:13:53Z</time></trkpt><trkpt lat="45.0727395806" lon="6.4720432833"><ele>2409.20</ele><time>2019-08-18T10:14:30Z</time></trkpt><trkpt lat="45.0727373175" lon="6.4720197301"><ele>2409.20</ele><time>2019-08-18T10:14:57Z</time></trkpt><trkpt lat="45.0727491360" lon="6.4719957579"><ele>2409.20</ele><time>2019-08-18T10:15:38Z</time></trkpt><trkpt lat="45.0727587752" lon="6.4719985239"><ele>2409.20</ele><time>2019-08-18T10:16:17Z</time></trkpt><trkpt lat="45.0727195479" lon="6.4720739610"><ele>2412.09</ele><time>2019-08-18T10:16:35Z</time></trkpt><trkpt lat="45.0727006886" lon="6.4721112605"><ele>2408.72</ele><time>2019-08-18T10:16:37Z</time></trkpt><trkpt lat="45.0726811588" lon="6.4721539244"><ele>2411.12</ele><time>2019-08-18T10:16:39Z</time></trkpt><trkpt lat="45.0726592820" lon="6.4721929841"><ele>2409.68</ele><time>2019-08-18T10:16:41Z</time></trkpt><trkpt lat="45.0726339687" lon="6.4722163696"><ele>2407.76</ele><time>2019-08-18T10:16:43Z</time></trkpt><trkpt lat="45.0726098288" lon="6.4722327143"><ele>2409.20</ele><time>2019-08-18T10:16:45Z</time></trkpt><trkpt lat="45.0725147780" lon="6.4722680021"><ele>2412.57</ele><time>2019-08-18T10:16:58Z</time></trkpt><trkpt lat="45.0725089107" lon="6.4722664934"><ele>2409.20</ele><time>2019-08-18T10:16:59Z</time></trkpt><trkpt lat="45.0724928174" lon="6.4722580276"><ele>2414.01</ele><time>2019-08-18T10:17:01Z</time></trkpt><trkpt lat="45.0724850222" lon="6.4722590335"><ele>2410.16</ele><time>2019-08-18T10:17:02Z</time></trkpt><trkpt lat="45.0724690966" lon="6.4722657390"><ele>2414.97</ele><time>2019-08-18T10:17:04Z</time></trkpt><trkpt lat="45.0724598765" lon="6.4722689241"><ele>2408.72</ele><time>2019-08-18T10:17:05Z</time></trkpt><trkpt lat="45.0724322163" lon="6.4722817484"><ele>2415.45</ele><time>2019-08-18T10:17:08Z</time></trkpt><trkpt lat="45.0724230800" lon="6.4722825028"><ele>2410.64</ele><time>2019-08-18T10:17:09Z</time></trkpt><trkpt lat="45.0724141113" lon="6.4722870290"><ele>2415.45</ele><time>2019-08-18T10:17:10Z</time></trkpt><trkpt lat="45.0723961741" lon="6.4722974226"><ele>2411.60</ele><time>2019-08-18T10:17:12Z</time></trkpt><trkpt lat="45.0723867025" lon="6.4722985961"><ele>2412.09</ele><time>2019-08-18T10:17:13Z</time></trkpt><trkpt lat="45.0723698549" lon="6.4723135158"><ele>2414.97</ele><time>2019-08-18T10:17:15Z</time></trkpt><trkpt lat="45.0723192282" lon="6.4723518211"><ele>2414.01</ele><time>2019-08-18T10:17:26Z</time></trkpt><trkpt lat="45.0723377522" lon="6.4723720215"><ele>2413.53</ele><time>2019-08-18T10:18:10Z</time></trkpt><trkpt lat="45.0723345671" lon="6.4723581914"><ele>2413.53</ele><time>2019-08-18T10:18:48Z</time></trkpt><trkpt lat="45.0723255146" lon="6.4723576047"><ele>2413.05</ele><time>2019-08-18T10:19:26Z</time></trkpt><trkpt lat="45.0723349024" lon="6.4723436069"><ele>2413.53</ele><time>2019-08-18T10:20:10Z</time></trkpt><trkpt lat="45.0723382551" lon="6.4723623823"><ele>2414.97</ele><time>2019-08-18T10:20:49Z</time></trkpt><trkpt lat="45.0723393448" lon="6.4723663218"><ele>2414.97</ele><time>2019-08-18T10:21:23Z</time></trkpt><trkpt lat="45.0723272748" lon="6.4723486360"><ele>2415.45</ele><time>2019-08-18T10:21:51Z</time></trkpt><trkpt lat="45.0723047275" lon="6.4723099116"><ele>2415.45</ele><time>2019-08-18T10:22:17Z</time></trkpt><trkpt lat="45.0723090023" lon="6.4723330457"><ele>2415.45</ele><time>2019-08-18T10:22:40Z</time></trkpt><trkpt lat="45.0723038893" lon="6.4723290224"><ele>2416.41</ele><time>2019-08-18T10:23:00Z</time></trkpt><trkpt lat="45.0723086670" lon="6.4723331295"><ele>2414.97</ele><time>2019-08-18T10:23:07Z</time></trkpt><trkpt lat="45.0723348185" lon="6.4723804872"><ele>2415.45</ele><time>2019-08-18T10:23:38Z</time></trkpt><trkpt lat="45.0723276101" lon="6.4723763801"><ele>2416.41</ele><time>2019-08-18T10:24:03Z</time></trkpt><trkpt lat="45.0723197311" lon="6.4723496418"><ele>2416.89</ele><time>2019-08-18T10:24:35Z</time></trkpt><trkpt lat="45.0723208208" lon="6.4723493066"><ele>2416.89</ele><time>2019-08-18T10:24:36Z</time></trkpt><trkpt lat="45.0723176356" lon="6.4723558445"><ele>2417.37</ele><time>2019-08-18T10:25:02Z</time></trkpt><trkpt lat="45.0723112654" lon="6.4723389130"><ele>2416.41</ele><time>2019-08-18T10:25:39Z</time></trkpt><trkpt lat="45.0723110978" lon="6.4723305311"><ele>2416.41</ele><time>2019-08-18T10:26:26Z</time></trkpt><trkpt lat="45.0723156240" lon="6.4723423496"><ele>2416.41</ele><time>2019-08-18T10:27:16Z</time></trkpt><trkpt lat="45.0723092537" lon="6.4723445289"><ele>2416.89</ele><time>2019-08-18T10:28:09Z</time></trkpt><trkpt lat="45.0723095052" lon="6.4723469596"><ele>2416.41</ele><time>2019-08-18T10:28:53Z</time></trkpt><trkpt lat="45.0723062363" lon="6.4723464567"><ele>2416.89</ele><time>2019-08-18T10:29:38Z</time></trkpt><trkpt lat="45.0723110978" lon="6.4723503124"><ele>2416.89</ele><time>2019-08-18T10:30:19Z</time></trkpt><trkpt lat="45.0723109301" lon="6.4723607060"><ele>2416.89</ele><time>2019-08-18T10:30:47Z</time></trkpt><trkpt lat="45.0723028835" lon="6.4723560959"><ele>2417.37</ele><time>2019-08-18T10:31:13Z</time></trkpt><trkpt lat="45.0723007042" lon="6.4723494742"><ele>2417.37</ele><time>2019-08-18T10:31:37Z</time></trkpt><trkpt lat="45.0723051466" lon="6.4723498933"><ele>2417.37</ele><time>2019-08-18T10:32:04Z</time></trkpt><trkpt lat="45.0723128580" lon="6.4723434392"><ele>2417.37</ele><time>2019-08-18T10:32:26Z</time></trkpt><trkpt lat="45.0723116845" lon="6.4723555092"><ele>2417.85</ele><time>2019-08-18T10:32:49Z</time></trkpt><trkpt lat="45.0723196473" lon="6.4723453671"><ele>2417.85</ele><time>2019-08-18T10:33:18Z</time></trkpt><trkpt lat="45.0723152887" lon="6.4723487198"><ele>2417.37</ele><time>2019-08-18T10:33:51Z</time></trkpt><trkpt lat="45.0723271072" lon="6.4723506477"><ele>2417.85</ele><time>2019-08-18T10:34:25Z</time></trkpt><trkpt lat="45.0723215751" lon="6.4723467920"><ele>2417.85</ele><time>2019-08-18T10:35:15Z</time></trkpt><trkpt lat="45.0723160431" lon="6.4723567665"><ele>2418.33</ele><time>2019-08-18T10:36:04Z</time></trkpt><trkpt lat="45.0723085832" lon="6.4723543357"><ele>2418.33</ele><time>2019-08-18T10:36:44Z</time></trkpt><trkpt lat="45.0723176356" lon="6.4723675791"><ele>2418.81</ele><time>2019-08-18T10:37:24Z</time></trkpt><trkpt lat="45.0723211560" lon="6.4723675791"><ele>2418.33</ele><time>2019-08-18T10:38:17Z</time></trkpt><trkpt lat="45.0723138638" lon="6.4723633043"><ele>2418.33</ele><time>2019-08-18T10:38:50Z</time></trkpt><trkpt lat="45.0723106787" lon="6.4723577723"><ele>2418.81</ele><time>2019-08-18T10:39:30Z</time></trkpt><trkpt lat="45.0723112654" lon="6.4723691717"><ele>2419.78</ele><time>2019-08-18T10:39:52Z</time></trkpt><trkpt lat="45.0723213237" lon="6.4723812416"><ele>2420.26</ele><time>2019-08-18T10:40:32Z</time></trkpt><trkpt lat="45.0723226648" lon="6.4723780565"><ele>2420.26</ele><time>2019-08-18T10:41:17Z</time></trkpt><trkpt lat="45.0723154563" lon="6.4723601192"><ele>2419.30</ele><time>2019-08-18T10:41:57Z</time></trkpt><trkpt lat="45.0723121874" lon="6.4723714348"><ele>2419.30</ele><time>2019-08-18T10:42:46Z</time></trkpt><trkpt lat="45.0723155402" lon="6.4723737817"><ele>2420.74</ele><time>2019-08-18T10:42:54Z</time></trkpt><trkpt lat="45.0723143667" lon="6.4723665733"><ele>2420.74</ele><time>2019-08-18T10:43:26Z</time></trkpt><trkpt lat="45.0723193958" lon="6.4723754581"><ele>2420.74</ele><time>2019-08-18T10:43:55Z</time></trkpt><trkpt lat="45.0723218266" lon="6.4723756257"><ele>2420.74</ele><time>2019-08-18T10:44:34Z</time></trkpt><trkpt lat="45.0723156240" lon="6.4723648131"><ele>2419.78</ele><time>2019-08-18T10:45:16Z</time></trkpt><trkpt lat="45.0723201502" lon="6.4723705966"><ele>2419.78</ele><time>2019-08-18T10:45:45Z</time></trkpt><trkpt lat="45.0723153725" lon="6.4723802358"><ele>2420.26</ele><time>2019-08-18T10:46:22Z</time></trkpt><trkpt lat="45.0723285321" lon="6.4723755419"><ele>2418.81</ele><time>2019-08-18T10:47:06Z</time></trkpt><trkpt lat="45.0723268557" lon="6.4723928086"><ele>2420.74</ele><time>2019-08-18T10:47:45Z</time></trkpt><trkpt lat="45.0723383389" lon="6.4723974187"><ele>2419.78</ele><time>2019-08-18T10:48:30Z</time></trkpt><trkpt lat="45.0723289512" lon="6.4724014420"><ele>2419.78</ele><time>2019-08-18T10:49:17Z</time></trkpt><trkpt lat="45.0723249279" lon="6.4723942336"><ele>2419.78</ele><time>2019-08-18T10:50:03Z</time></trkpt><trkpt lat="45.0723338965" lon="6.4724039566"><ele>2419.78</ele><time>2019-08-18T10:50:53Z</time></trkpt><trkpt lat="45.0723320525" lon="6.4724045433"><ele>2419.78</ele><time>2019-08-18T10:51:31Z</time></trkpt><trkpt lat="45.0723428652" lon="6.4724068902"><ele>2420.26</ele><time>2019-08-18T10:52:00Z</time></trkpt><trkpt lat="45.0723433681" lon="6.4723985922"><ele>2420.26</ele><time>2019-08-18T10:52:43Z</time></trkpt><trkpt lat="45.0723309629" lon="6.4723861869"><ele>2420.26</ele><time>2019-08-18T10:53:18Z</time></trkpt><trkpt lat="45.0723219104" lon="6.4723810740"><ele>2421.70</ele><time>2019-08-18T10:53:58Z</time></trkpt><trkpt lat="45.0723303761" lon="6.4724019449"><ele>2422.18</ele><time>2019-08-18T10:54:29Z</time></trkpt><trkpt lat="45.0723312143" lon="6.4723917190"><ele>2422.66</ele><time>2019-08-18T10:54:46Z</time></trkpt><trkpt lat="45.0723312143" lon="6.4723883662"><ele>2421.22</ele><time>2019-08-18T10:54:48Z</time></trkpt><trkpt lat="45.0723204855" lon="6.4723643102"><ele>2422.18</ele><time>2019-08-18T10:55:03Z</time></trkpt><trkpt lat="45.0723101757" lon="6.4723550063"><ele>2419.30</ele><time>2019-08-18T10:55:06Z</time></trkpt><trkpt lat="45.0722985249" lon="6.4723478816"><ele>2424.58</ele><time>2019-08-18T10:55:10Z</time></trkpt><trkpt lat="45.0722974353" lon="6.4723470435"><ele>2422.66</ele><time>2019-08-18T10:55:11Z</time></trkpt><trkpt lat="45.0722975191" lon="6.4723400865"><ele>2419.30</ele><time>2019-08-18T10:55:18Z</time></trkpt><trkpt lat="45.0722966809" lon="6.4723401703"><ele>2423.62</ele><time>2019-08-18T10:55:19Z</time></trkpt><trkpt lat="45.0723014586" lon="6.4723279327"><ele>2421.70</ele><time>2019-08-18T10:55:30Z</time></trkpt><trkpt lat="45.0723172165" lon="6.4723395836"><ele>2422.66</ele><time>2019-08-18T10:55:44Z</time></trkpt><trkpt lat="45.0723141152" lon="6.4723476302"><ele>2422.18</ele><time>2019-08-18T10:55:55Z</time></trkpt><trkpt lat="45.0723015424" lon="6.4723405894"><ele>2421.22</ele><time>2019-08-18T10:56:14Z</time></trkpt><trkpt lat="45.0722917356" lon="6.4723292738"><ele>2423.14</ele><time>2019-08-18T10:56:29Z</time></trkpt><trkpt lat="45.0722953398" lon="6.4723252505"><ele>2421.70</ele><time>2019-08-18T10:56:35Z</time></trkpt><trkpt lat="45.0722940825" lon="6.4723248314"><ele>2454.38</ele><time>2019-08-18T10:56:36Z</time></trkpt><trkpt lat="45.0722909812" lon="6.4723101631"><ele>2447.65</ele><time>2019-08-18T10:56:39Z</time></trkpt><trkpt lat="45.0723003689" lon="6.4723156113"><ele>2422.66</ele><time>2019-08-18T10:56:41Z</time></trkpt><trkpt lat="45.0722936634" lon="6.4723091573"><ele>2422.66</ele><time>2019-08-18T10:56:43Z</time></trkpt><trkpt lat="45.0723365787" lon="6.4723053854"><ele>2422.18</ele><time>2019-08-18T10:56:49Z</time></trkpt><trkpt lat="45.0724322163" lon="6.4723263402"><ele>2421.22</ele><time>2019-08-18T10:57:03Z</time></trkpt><trkpt lat="45.0725546759" lon="6.4723304473"><ele>2418.33</ele><time>2019-08-18T10:57:19Z</time></trkpt><trkpt lat="45.0725670811" lon="6.4723346382"><ele>2417.37</ele><time>2019-08-18T10:57:21Z</time></trkpt><trkpt lat="45.0727375690" lon="6.4724094048"><ele>2417.37</ele><time>2019-08-18T10:57:36Z</time></trkpt><trkpt lat="45.0728523172" lon="6.4724021964"><ele>2417.37</ele><time>2019-08-18T10:57:49Z</time></trkpt><trkpt lat="45.0729749445" lon="6.4724035375"><ele>2418.81</ele><time>2019-08-18T10:58:03Z</time></trkpt><trkpt lat="45.0730339531" lon="6.4724354725"><ele>2419.78</ele><time>2019-08-18T10:58:13Z</time></trkpt><trkpt lat="45.0730511360" lon="6.4724218100"><ele>2419.78</ele><time>2019-08-18T10:58:34Z</time></trkpt><trkpt lat="45.0731014274" lon="6.4724612050"><ele>2420.26</ele><time>2019-08-18T10:58:47Z</time></trkpt><trkpt lat="45.0731899403" lon="6.4724861830"><ele>2421.22</ele><time>2019-08-18T10:58:56Z</time></trkpt><trkpt lat="45.0733130705" lon="6.4725297689"><ele>2422.66</ele><time>2019-08-18T10:59:11Z</time></trkpt><trkpt lat="45.0734279025" lon="6.4726034459"><ele>2424.58</ele><time>2019-08-18T10:59:25Z</time></trkpt><trkpt lat="45.0735122245" lon="6.4726652205"><ele>2425.54</ele><time>2019-08-18T10:59:38Z</time></trkpt><trkpt lat="45.0735650305" lon="6.4726804756"><ele>2426.50</ele><time>2019-08-18T10:59:55Z</time></trkpt><trkpt lat="45.0736188423" lon="6.4726992510"><ele>2426.99</ele><time>2019-08-18T11:00:10Z</time></trkpt><trkpt lat="45.0736574829" lon="6.4727275819"><ele>2427.95</ele><time>2019-08-18T11:00:18Z</time></trkpt><trkpt lat="45.0737428106" lon="6.4728388097"><ele>2429.39</ele><time>2019-08-18T11:00:33Z</time></trkpt><trkpt lat="45.0738331676" lon="6.4729300886"><ele>2431.31</ele><time>2019-08-18T11:00:48Z</time></trkpt><trkpt lat="45.0739191659" lon="6.4730414841"><ele>2432.27</ele><time>2019-08-18T11:01:04Z</time></trkpt><trkpt lat="45.0739945192" lon="6.4731394686"><ele>2434.68</ele><time>2019-08-18T11:01:19Z</time></trkpt><trkpt lat="45.0740257837" lon="6.4731994830"><ele>2435.64</ele><time>2019-08-18T11:01:27Z</time></trkpt><trkpt lat="45.0741016399" lon="6.4733047597"><ele>2436.60</ele><time>2019-08-18T11:01:40Z</time></trkpt><trkpt lat="45.0741795916" lon="6.4733934402"><ele>2438.04</ele><time>2019-08-18T11:01:53Z</time></trkpt><trkpt lat="45.0742861256" lon="6.4734861441"><ele>2439.96</ele><time>2019-08-18T11:02:08Z</time></trkpt><trkpt lat="45.0743437931" lon="6.4735497627"><ele>2440.92</ele><time>2019-08-18T11:02:18Z</time></trkpt><trkpt lat="45.0743755605" lon="6.4735749085"><ele>2440.92</ele><time>2019-08-18T11:02:22Z</time></trkpt><trkpt lat="45.0743921567" lon="6.4735995512"><ele>2441.41</ele><time>2019-08-18T11:02:24Z</time></trkpt><trkpt lat="45.0744503271" lon="6.4736474957"><ele>2441.89</ele><time>2019-08-18T11:02:31Z</time></trkpt><trkpt lat="45.0745245907" lon="6.4737033192"><ele>2442.85</ele><time>2019-08-18T11:02:44Z</time></trkpt><trkpt lat="45.0745418575" lon="6.4737305604"><ele>2443.33</ele><time>2019-08-18T11:02:48Z</time></trkpt><trkpt lat="45.0746338908" lon="6.4737866353"><ele>2444.77</ele><time>2019-08-18T11:03:02Z</time></trkpt><trkpt lat="45.0746882893" lon="6.4738543611"><ele>2446.21</ele><time>2019-08-18T11:03:16Z</time></trkpt><trkpt lat="45.0747076515" lon="6.4739781618"><ele>2448.13</ele><time>2019-08-18T11:03:30Z</time></trkpt><trkpt lat="45.0747149438" lon="6.4740971848"><ele>2449.10</ele><time>2019-08-18T11:03:44Z</time></trkpt><trkpt lat="45.0747317076" lon="6.4741178043"><ele>2450.54</ele><time>2019-08-18T11:04:03Z</time></trkpt><trkpt lat="45.0747296959" lon="6.4740859531"><ele>2450.54</ele><time>2019-08-18T11:04:28Z</time></trkpt><trkpt lat="45.0747193862" lon="6.4741756395"><ele>2450.54</ele><time>2019-08-18T11:04:47Z</time></trkpt><trkpt lat="45.0747001916" lon="6.4743047208"><ele>2451.98</ele><time>2019-08-18T11:04:58Z</time></trkpt><trkpt lat="45.0747088250" lon="6.4744467940"><ele>2454.38</ele><time>2019-08-18T11:05:12Z</time></trkpt><trkpt lat="45.0747024547" lon="6.4745636377"><ele>2455.82</ele><time>2019-08-18T11:05:25Z</time></trkpt><trkpt lat="45.0746734533" lon="6.4746741951"><ele>2457.75</ele><time>2019-08-18T11:05:38Z</time></trkpt><trkpt lat="45.0746374950" lon="6.4747859258"><ele>2460.15</ele><time>2019-08-18T11:05:53Z</time></trkpt><trkpt lat="45.0746229943" lon="6.4748159330"><ele>2461.59</ele><time>2019-08-18T11:06:10Z</time></trkpt><trkpt lat="45.0746210665" lon="6.4748522267"><ele>2462.55</ele><time>2019-08-18T11:06:32Z</time></trkpt><trkpt lat="45.0746260118" lon="6.4749715850"><ele>2464.48</ele><time>2019-08-18T11:06:45Z</time></trkpt><trkpt lat="45.0745965075" lon="6.4750850759"><ele>2465.92</ele><time>2019-08-18T11:06:59Z</time></trkpt><trkpt lat="45.0745949987" lon="6.4752049372"><ele>2467.36</ele><time>2019-08-18T11:07:13Z</time></trkpt><trkpt lat="45.0746302865" lon="6.4753461722"><ele>2469.28</ele><time>2019-08-18T11:07:28Z</time></trkpt><trkpt lat="45.0746214017" lon="6.4753602538"><ele>2469.76</ele><time>2019-08-18T11:07:43Z</time></trkpt><trkpt lat="45.0745996088" lon="6.4753764309"><ele>2469.76</ele><time>2019-08-18T11:07:54Z</time></trkpt><trkpt lat="45.0746770576" lon="6.4754472580"><ele>2470.24</ele><time>2019-08-18T11:08:07Z</time></trkpt><trkpt lat="45.0747569371" lon="6.4754696377"><ele>2471.69</ele><time>2019-08-18T11:08:18Z</time></trkpt><trkpt lat="45.0747991819" lon="6.4755470864"><ele>2472.65</ele><time>2019-08-18T11:08:27Z</time></trkpt><trkpt lat="45.0748741161" lon="6.4756577276"><ele>2474.57</ele><time>2019-08-18T11:08:41Z</time></trkpt><trkpt lat="45.0749047939" lon="6.4757542871"><ele>2475.53</ele><time>2019-08-18T11:08:51Z</time></trkpt><trkpt lat="45.0748420134" lon="6.4758797642"><ele>2476.97</ele><time>2019-08-18T11:09:06Z</time></trkpt><trkpt lat="45.0748055521" lon="6.4759849571"><ele>2478.90</ele><time>2019-08-18T11:09:19Z</time></trkpt><trkpt lat="45.0747576077" lon="6.4760650042"><ele>2480.82</ele><time>2019-08-18T11:09:32Z</time></trkpt><trkpt lat="45.0747347251" lon="6.4761796687"><ele>2482.74</ele><time>2019-08-18T11:09:46Z</time></trkpt><trkpt lat="45.0747628044" lon="6.4761831053"><ele>2482.74</ele><time>2019-08-18T11:10:08Z</time></trkpt><trkpt lat="45.0747757964" lon="6.4762893878"><ele>2484.66</ele><time>2019-08-18T11:10:22Z</time></trkpt><trkpt lat="45.0747642294" lon="6.4763503242"><ele>2485.63</ele><time>2019-08-18T11:10:38Z</time></trkpt><trkpt lat="45.0747851003" lon="6.4764669165"><ele>2487.55</ele><time>2019-08-18T11:10:52Z</time></trkpt><trkpt lat="45.0747903809" lon="6.4764752146"><ele>2487.55</ele><time>2019-08-18T11:10:53Z</time></trkpt><trkpt lat="45.0748410076" lon="6.4765325468"><ele>2488.03</ele><time>2019-08-18T11:11:08Z</time></trkpt><trkpt lat="45.0749197137" lon="6.4766221493"><ele>2489.47</ele><time>2019-08-18T11:11:22Z</time></trkpt><trkpt lat="45.0749532413" lon="6.4766762126"><ele>2489.95</ele><time>2019-08-18T11:11:27Z</time></trkpt><trkpt lat="45.0750290975" lon="6.4767348021"><ele>2490.43</ele><time>2019-08-18T11:11:43Z</time></trkpt><trkpt lat="45.0750771258" lon="6.4767822437"><ele>2490.91</ele><time>2019-08-18T11:12:01Z</time></trkpt><trkpt lat="45.0751311053" lon="6.4768704213"><ele>2492.84</ele><time>2019-08-18T11:12:13Z</time></trkpt><trkpt lat="45.0751995016" lon="6.4769684058"><ele>2494.76</ele><time>2019-08-18T11:12:25Z</time></trkpt><trkpt lat="45.0752536487" lon="6.4770284202"><ele>2496.68</ele><time>2019-08-18T11:12:37Z</time></trkpt><trkpt lat="45.0753302593" lon="6.4771114010"><ele>2499.08</ele><time>2019-08-18T11:12:53Z</time></trkpt><trkpt lat="45.0753104780" lon="6.4770811424"><ele>2499.57</ele><time>2019-08-18T11:13:08Z</time></trkpt><trkpt lat="45.0752992462" lon="6.4770907816"><ele>2498.12</ele><time>2019-08-18T11:13:10Z</time></trkpt><trkpt lat="45.0752577558" lon="6.4771279134"><ele>2498.12</ele><time>2019-08-18T11:13:17Z</time></trkpt><trkpt lat="45.0752450991" lon="6.4771401510"><ele>2499.57</ele><time>2019-08-18T11:13:19Z</time></trkpt><trkpt lat="45.0752253179" lon="6.4771940466"><ele>2501.01</ele><time>2019-08-18T11:13:25Z</time></trkpt><trkpt lat="45.0752494577" lon="6.4773103036"><ele>2502.93</ele><time>2019-08-18T11:13:42Z</time></trkpt><trkpt lat="45.0752403215" lon="6.4772984013"><ele>2502.45</ele><time>2019-08-18T11:13:59Z</time></trkpt><trkpt lat="45.0752382260" lon="6.4773214515"><ele>2502.93</ele><time>2019-08-18T11:14:15Z</time></trkpt><trkpt lat="45.0753145851" lon="6.4774123114"><ele>2504.37</ele><time>2019-08-18T11:14:30Z</time></trkpt><trkpt lat="45.0752826501" lon="6.4774132334"><ele>2504.85</ele><time>2019-08-18T11:14:51Z</time></trkpt><trkpt lat="45.0752977375" lon="6.4774475992"><ele>2504.37</ele><time>2019-08-18T11:15:10Z</time></trkpt><trkpt lat="45.0753129087" lon="6.4774542209"><ele>2504.85</ele><time>2019-08-18T11:15:12Z</time></trkpt><trkpt lat="45.0754377991" lon="6.4774298295"><ele>2505.81</ele><time>2019-08-18T11:15:25Z</time></trkpt><trkpt lat="45.0755807944" lon="6.4773907699"><ele>2507.26</ele><time>2019-08-18T11:15:38Z</time></trkpt><trkpt lat="45.0756768510" lon="6.4773274027"><ele>2509.66</ele><time>2019-08-18T11:15:53Z</time></trkpt><trkpt lat="45.0757446606" lon="6.4772906899"><ele>2511.10</ele><time>2019-08-18T11:16:03Z</time></trkpt><trkpt lat="45.0758045074" lon="6.4772577491"><ele>2513.50</ele><time>2019-08-18T11:16:17Z</time></trkpt><trkpt lat="45.0758920144" lon="6.4772703219"><ele>2515.91</ele><time>2019-08-18T11:16:31Z</time></trkpt><trkpt lat="45.0759516098" lon="6.4773034304"><ele>2517.35</ele><time>2019-08-18T11:16:51Z</time></trkpt><trkpt lat="45.0760201737" lon="6.4773364551"><ele>2519.27</ele><time>2019-08-18T11:17:05Z</time></trkpt><trkpt lat="45.0761072617" lon="6.4773364551"><ele>2520.71</ele><time>2019-08-18T11:17:16Z</time></trkpt><trkpt lat="45.0761661027" lon="6.4773816336"><ele>2523.12</ele><time>2019-08-18T11:17:29Z</time></trkpt><trkpt lat="45.0762155559" lon="6.4774071146"><ele>2525.52</ele><time>2019-08-18T11:17:41Z</time></trkpt><trkpt lat="45.0762722176" lon="6.4774175920"><ele>2526.96</ele><time>2019-08-18T11:17:53Z</time></trkpt><trkpt lat="45.0763415359" lon="6.4774595015"><ele>2528.89</ele><time>2019-08-18T11:18:05Z</time></trkpt><trkpt lat="45.0763937552" lon="6.4775240421"><ele>2530.33</ele><time>2019-08-18T11:18:17Z</time></trkpt><trkpt lat="45.0764245167" lon="6.4775301609"><ele>2532.73</ele><time>2019-08-18T11:18:31Z</time></trkpt><trkpt lat="45.0764627382" lon="6.4775338490"><ele>2534.65</ele><time>2019-08-18T11:18:43Z</time></trkpt><trkpt lat="45.0764986966" lon="6.4775284845"><ele>2536.10</ele><time>2019-08-18T11:19:08Z</time></trkpt><trkpt lat="45.0765724573" lon="6.4775284845"><ele>2538.50</ele><time>2019-08-18T11:19:23Z</time></trkpt><trkpt lat="45.0766381714" lon="6.4775254671"><ele>2540.90</ele><time>2019-08-18T11:19:35Z</time></trkpt><trkpt lat="45.0766728725" lon="6.4774837252"><ele>2541.86</ele><time>2019-08-18T11:19:42Z</time></trkpt><trkpt lat="45.0767101720" lon="6.4774569869"><ele>2542.82</ele><time>2019-08-18T11:19:47Z</time></trkpt><trkpt lat="45.0767480582" lon="6.4774418157"><ele>2543.79</ele><time>2019-08-18T11:19:52Z</time></trkpt><trkpt lat="45.0767706893" lon="6.4774342719"><ele>2543.79</ele><time>2019-08-18T11:19:55Z</time></trkpt><trkpt lat="45.0768541731" lon="6.4774228726"><ele>2544.75</ele><time>2019-08-18T11:20:07Z</time></trkpt><trkpt lat="45.0768537540" lon="6.4774268121"><ele>2546.19</ele><time>2019-08-18T11:20:22Z</time></trkpt><trkpt lat="45.0768537540" lon="6.4774241298"><ele>2537.54</ele><time>2019-08-18T11:20:24Z</time></trkpt><trkpt lat="45.0768601242" lon="6.4774237107"><ele>2550.03</ele><time>2019-08-18T11:20:25Z</time></trkpt><trkpt lat="45.0768706016" lon="6.4774253033"><ele>2546.67</ele><time>2019-08-18T11:20:26Z</time></trkpt><trkpt lat="45.0768842641" lon="6.4774245489"><ele>2545.71</ele><time>2019-08-18T11:20:27Z</time></trkpt><trkpt lat="45.0769353937" lon="6.4773906022"><ele>2545.23</ele><time>2019-08-18T11:20:32Z</time></trkpt><trkpt lat="45.0770508964" lon="6.4773030952"><ele>2546.67</ele><time>2019-08-18T11:20:48Z</time></trkpt><trkpt lat="45.0771716796" lon="6.4772520494"><ele>2547.63</ele><time>2019-08-18T11:20:59Z</time></trkpt><trkpt lat="45.0772099011" lon="6.4772405662"><ele>2547.63</ele><time>2019-08-18T11:21:02Z</time></trkpt><trkpt lat="45.0772310235" lon="6.4772253111"><ele>2548.11</ele><time>2019-08-18T11:21:04Z</time></trkpt><trkpt lat="45.0772544928" lon="6.4772139955"><ele>2548.11</ele><time>2019-08-18T11:21:06Z</time></trkpt><trkpt lat="45.0772725139" lon="6.4772026800"><ele>2548.11</ele><time>2019-08-18T11:21:08Z</time></trkpt><trkpt lat="45.0773912854" lon="6.4771448448"><ele>2549.07</ele><time>2019-08-18T11:21:21Z</time></trkpt><trkpt lat="45.0774954725" lon="6.4770767000"><ele>2550.51</ele><time>2019-08-18T11:21:34Z</time></trkpt><trkpt lat="45.0776047725" lon="6.4770315215"><ele>2551.96</ele><time>2019-08-18T11:21:46Z</time></trkpt><trkpt lat="45.0776813831" lon="6.4770326950"><ele>2552.44</ele><time>2019-08-18T11:21:53Z</time></trkpt><trkpt lat="45.0777299982" lon="6.4770263247"><ele>2553.40</ele><time>2019-08-18T11:21:59Z</time></trkpt><trkpt lat="45.0777664594" lon="6.4770241454"><ele>2553.40</ele><time>2019-08-18T11:22:10Z</time></trkpt><trkpt lat="45.0777823012" lon="6.4770276658"><ele>2553.88</ele><time>2019-08-18T11:22:12Z</time></trkpt><trkpt lat="45.0779106282" lon="6.4769939706"><ele>2553.88</ele><time>2019-08-18T11:22:26Z</time></trkpt><trkpt lat="45.0779160764" lon="6.4769853372"><ele>2554.36</ele><time>2019-08-18T11:22:27Z</time></trkpt><trkpt lat="45.0779505260" lon="6.4769684058"><ele>2554.36</ele><time>2019-08-18T11:22:31Z</time></trkpt><trkpt lat="45.0781039149" lon="6.4769270830"><ele>2554.36</ele><time>2019-08-18T11:22:45Z</time></trkpt><trkpt lat="45.0781656895" lon="6.4769111574"><ele>2554.36</ele><time>2019-08-18T11:22:51Z</time></trkpt><trkpt lat="45.0782846287" lon="6.4768637996"><ele>2554.36</ele><time>2019-08-18T11:23:01Z</time></trkpt><trkpt lat="45.0783736445" lon="6.4769017696"><ele>2554.84</ele><time>2019-08-18T11:23:10Z</time></trkpt><trkpt lat="45.0784844533" lon="6.4769380633"><ele>2554.84</ele><time>2019-08-18T11:23:23Z</time></trkpt><trkpt lat="45.0785718765" lon="6.4769503847"><ele>2554.84</ele><time>2019-08-18T11:23:31Z</time></trkpt><trkpt lat="45.0787315518" lon="6.4769452717"><ele>2554.84</ele><time>2019-08-18T11:23:47Z</time></trkpt><trkpt lat="45.0789361540" lon="6.4769011829"><ele>2554.84</ele><time>2019-08-18T11:24:04Z</time></trkpt><trkpt lat="45.0790677499" lon="6.4768839162"><ele>2554.84</ele><time>2019-08-18T11:24:17Z</time></trkpt><trkpt lat="45.0791613758" lon="6.4768591058"><ele>2555.80</ele><time>2019-08-18T11:24:30Z</time></trkpt><trkpt lat="45.0792687479" lon="6.4768206328"><ele>2557.24</ele><time>2019-08-18T11:24:43Z</time></trkpt><trkpt lat="45.0792860985" lon="6.4768279251"><ele>2557.73</ele><time>2019-08-18T11:24:45Z</time></trkpt><trkpt lat="45.0794089772" lon="6.4768000133"><ele>2558.69</ele><time>2019-08-18T11:24:59Z</time></trkpt><trkpt lat="45.0794530660" lon="6.4767658990"><ele>2559.65</ele><time>2019-08-18T11:25:04Z</time></trkpt><trkpt lat="45.0795597676" lon="6.4767339639"><ele>2560.13</ele><time>2019-08-18T11:25:17Z</time></trkpt><trkpt lat="45.0796215422" lon="6.4767015260"><ele>2561.57</ele><time>2019-08-18T11:25:29Z</time></trkpt><trkpt lat="45.0796355400" lon="6.4766988438"><ele>2561.09</ele><time>2019-08-18T11:25:34Z</time></trkpt><trkpt lat="45.0796997454" lon="6.4766793139"><ele>2561.09</ele><time>2019-08-18T11:25:42Z</time></trkpt><trkpt lat="45.0797629450" lon="6.4766664058"><ele>2561.09</ele><time>2019-08-18T11:25:50Z</time></trkpt><trkpt lat="45.0798034295" lon="6.4766637236"><ele>2562.53</ele><time>2019-08-18T11:25:54Z</time></trkpt><trkpt lat="45.0798220374" lon="6.4766694233"><ele>2562.53</ele><time>2019-08-18T11:25:56Z</time></trkpt><trkpt lat="45.0798524637" lon="6.4766710997"><ele>2562.53</ele><time>2019-08-18T11:26:00Z</time></trkpt><trkpt lat="45.0799460895" lon="6.4766307827"><ele>2563.49</ele><time>2019-08-18T11:26:11Z</time></trkpt><trkpt lat="45.0799922738" lon="6.4765825868"><ele>2564.45</ele><time>2019-08-18T11:26:23Z</time></trkpt><trkpt lat="45.0799949560" lon="6.4765353128"><ele>2564.93</ele><time>2019-08-18T11:26:36Z</time></trkpt><trkpt lat="45.0799646974" lon="6.4764997736"><ele>2563.01</ele><time>2019-08-18T11:26:49Z</time></trkpt><trkpt lat="45.0799696427" lon="6.4764954988"><ele>2563.97</ele><time>2019-08-18T11:27:03Z</time></trkpt><trkpt lat="45.0799732469" lon="6.4764532540"><ele>2563.97</ele><time>2019-08-18T11:27:19Z</time></trkpt><trkpt lat="45.0799807068" lon="6.4764943253"><ele>2564.93</ele><time>2019-08-18T11:27:40Z</time></trkpt><trkpt lat="45.0799669605" lon="6.4764919784"><ele>2564.93</ele><time>2019-08-18T11:27:54Z</time></trkpt><trkpt lat="45.0799828861" lon="6.4765145257"><ele>2564.93</ele><time>2019-08-18T11:28:04Z</time></trkpt><trkpt lat="45.0799762644" lon="6.4765026234"><ele>2564.93</ele><time>2019-08-18T11:28:19Z</time></trkpt><trkpt lat="45.0799765997" lon="6.4765039645"><ele>2563.01</ele><time>2019-08-18T11:28:21Z</time></trkpt><trkpt lat="45.0799786113" lon="6.4765033778"><ele>2565.90</ele><time>2019-08-18T11:28:23Z</time></trkpt><trkpt lat="45.0799791142" lon="6.4764968399"><ele>2564.45</ele><time>2019-08-18T11:28:26Z</time></trkpt><trkpt lat="45.0799762644" lon="6.4764972590"><ele>2565.90</ele><time>2019-08-18T11:28:39Z</time></trkpt><trkpt lat="45.0799771026" lon="6.4765079040"><ele>2564.45</ele><time>2019-08-18T11:28:59Z</time></trkpt><trkpt lat="45.0799980573" lon="6.4765003603"><ele>2564.45</ele><time>2019-08-18T11:29:24Z</time></trkpt><trkpt lat="45.0799875800" lon="6.4764700178"><ele>2564.93</ele><time>2019-08-18T11:29:52Z</time></trkpt><trkpt lat="45.0799772702" lon="6.4764673356"><ele>2564.93</ele><time>2019-08-18T11:30:17Z</time></trkpt><trkpt lat="45.0799623504" lon="6.4764998574"><ele>2564.93</ele><time>2019-08-18T11:30:44Z</time></trkpt><trkpt lat="45.0799535494" lon="6.4764772262"><ele>2564.93</ele><time>2019-08-18T11:31:05Z</time></trkpt><trkpt lat="45.0799767673" lon="6.4764663298"><ele>2564.93</ele><time>2019-08-18T11:31:34Z</time></trkpt><trkpt lat="45.0799895916" lon="6.4765129331"><ele>2564.45</ele><time>2019-08-18T11:31:53Z</time></trkpt><trkpt lat="45.0799925253" lon="6.4765000250"><ele>2565.42</ele><time>2019-08-18T11:32:14Z</time></trkpt><trkpt lat="45.0799993984" lon="6.4765042998"><ele>2565.42</ele><time>2019-08-18T11:32:48Z</time></trkpt><trkpt lat="45.0799961295" lon="6.4765022043"><ele>2565.42</ele><time>2019-08-18T11:33:14Z</time></trkpt><trkpt lat="45.0800094567" lon="6.4764732029"><ele>2563.97</ele><time>2019-08-18T11:33:33Z</time></trkpt><trkpt lat="45.0799754262" lon="6.4764613006"><ele>2563.97</ele><time>2019-08-18T11:33:53Z</time></trkpt><trkpt lat="45.0799289905" lon="6.4764825907"><ele>2563.97</ele><time>2019-08-18T11:34:21Z</time></trkpt><trkpt lat="45.0799613446" lon="6.4765097480"><ele>2563.97</ele><time>2019-08-18T11:34:55Z</time></trkpt><trkpt lat="45.0799605902" lon="6.4764873683"><ele>2563.97</ele><time>2019-08-18T11:35:26Z</time></trkpt><trkpt lat="45.0799639430" lon="6.4765035454"><ele>2563.49</ele><time>2019-08-18T11:35:48Z</time></trkpt><trkpt lat="45.0799514540" lon="6.4764678385"><ele>2563.49</ele><time>2019-08-18T11:35:55Z</time></trkpt><trkpt lat="45.0799503643" lon="6.4764203131"><ele>2563.49</ele><time>2019-08-18T11:36:10Z</time></trkpt><trkpt lat="45.0799305830" lon="6.4763400983"><ele>2563.97</ele><time>2019-08-18T11:36:21Z</time></trkpt><trkpt lat="45.0799252186" lon="6.4763140306"><ele>2564.93</ele><time>2019-08-18T11:36:28Z</time></trkpt><trkpt lat="45.0798911043" lon="6.4763116837"><ele>2565.42</ele><time>2019-08-18T11:36:46Z</time></trkpt><trkpt lat="45.0799308345" lon="6.4763770625"><ele>2563.97</ele><time>2019-08-18T11:37:00Z</time></trkpt><trkpt lat="45.0799662899" lon="6.4764301199"><ele>2563.97</ele><time>2019-08-18T11:37:12Z</time></trkpt><trkpt lat="45.0799439102" lon="6.4764325507"><ele>2563.49</ele><time>2019-08-18T11:37:24Z</time></trkpt><trkpt lat="45.0799526274" lon="6.4764712751"><ele>2564.45</ele><time>2019-08-18T11:37:38Z</time></trkpt><trkpt lat="45.0800069422" lon="6.4765268471"><ele>2564.45</ele><time>2019-08-18T11:37:52Z</time></trkpt><trkpt lat="45.0799664576" lon="6.4764515776"><ele>2564.45</ele><time>2019-08-18T11:38:05Z</time></trkpt><trkpt lat="45.0800050143" lon="6.4765152801"><ele>2564.45</ele><time>2019-08-18T11:38:32Z</time></trkpt><trkpt lat="45.0799997337" lon="6.4765480533"><ele>2563.97</ele><time>2019-08-18T11:38:45Z</time></trkpt><trkpt lat="45.0799956266" lon="6.4765487239"><ele>2563.97</ele><time>2019-08-18T11:38:46Z</time></trkpt><trkpt lat="45.0799709838" lon="6.4765381627"><ele>2564.93</ele><time>2019-08-18T11:38:56Z</time></trkpt><trkpt lat="45.0799850654" lon="6.4765513223"><ele>2564.45</ele><time>2019-08-18T11:39:19Z</time></trkpt><trkpt lat="45.0800315849" lon="6.4764619712"><ele>2564.45</ele><time>2019-08-18T11:39:40Z</time></trkpt><trkpt lat="45.0800742488" lon="6.4764126856"><ele>2564.45</ele><time>2019-08-18T11:39:53Z</time></trkpt><trkpt lat="45.0800988078" lon="6.4763773978"><ele>2564.45</ele><time>2019-08-18T11:40:12Z</time></trkpt><trkpt lat="45.0800729915" lon="6.4763878752"><ele>2564.45</ele><time>2019-08-18T11:40:20Z</time></trkpt><trkpt lat="45.0800543837" lon="6.4763944130"><ele>2564.45</ele><time>2019-08-18T11:40:22Z</time></trkpt><trkpt lat="45.0799810421" lon="6.4765042160"><ele>2563.97</ele><time>2019-08-18T11:40:35Z</time></trkpt><trkpt lat="45.0799827185" lon="6.4765187167"><ele>2563.97</ele><time>2019-08-18T11:40:50Z</time></trkpt><trkpt lat="45.0800129771" lon="6.4765265118"><ele>2565.42</ele><time>2019-08-18T11:41:04Z</time></trkpt><trkpt lat="45.0800020806" lon="6.4765691757"><ele>2565.42</ele><time>2019-08-18T11:41:20Z</time></trkpt><trkpt lat="45.0799950399" lon="6.4765051380"><ele>2564.45</ele><time>2019-08-18T11:41:32Z</time></trkpt><trkpt lat="45.0799931120" lon="6.4764633961"><ele>2564.45</ele><time>2019-08-18T11:41:43Z</time></trkpt><trkpt lat="45.0799791981" lon="6.4764296170"><ele>2563.49</ele><time>2019-08-18T11:42:07Z</time></trkpt><trkpt lat="45.0800004881" lon="6.4764542598"><ele>2563.49</ele><time>2019-08-18T11:42:36Z</time></trkpt><trkpt lat="45.0799900107" lon="6.4764745440"><ele>2563.49</ele><time>2019-08-18T11:42:57Z</time></trkpt><trkpt lat="45.0799960457" lon="6.4765006956"><ele>2563.49</ele><time>2019-08-18T11:43:22Z</time></trkpt><trkpt lat="45.0799834728" lon="6.4764970075"><ele>2564.45</ele><time>2019-08-18T11:43:32Z</time></trkpt><trkpt lat="45.0800068583" lon="6.4764816687"><ele>2564.45</ele><time>2019-08-18T11:43:50Z</time></trkpt><trkpt lat="45.0800156593" lon="6.4764696825"><ele>2564.45</ele><time>2019-08-18T11:44:11Z</time></trkpt><trkpt lat="45.0799829699" lon="6.4764503203"><ele>2564.45</ele><time>2019-08-18T11:44:37Z</time></trkpt><trkpt lat="45.0799567346" lon="6.4764101710"><ele>2564.45</ele><time>2019-08-18T11:45:01Z</time></trkpt><trkpt lat="45.0799760129" lon="6.4764193911"><ele>2564.45</ele><time>2019-08-18T11:45:24Z</time></trkpt><trkpt lat="45.0799890887" lon="6.4764280245"><ele>2564.45</ele><time>2019-08-18T11:45:44Z</time></trkpt><trkpt lat="45.0799923576" lon="6.4764218219"><ele>2564.93</ele><time>2019-08-18T11:46:07Z</time></trkpt><trkpt lat="45.0800061040" lon="6.4764979295"><ele>2564.93</ele><time>2019-08-18T11:46:32Z</time></trkpt><trkpt lat="45.0800013263" lon="6.4764984325"><ele>2564.93</ele><time>2019-08-18T11:46:57Z</time></trkpt><trkpt lat="45.0799941178" lon="6.4764996897"><ele>2564.45</ele><time>2019-08-18T11:47:20Z</time></trkpt><trkpt lat="45.0799946208" lon="6.4764876198"><ele>2564.45</ele><time>2019-08-18T11:47:52Z</time></trkpt><trkpt lat="45.0799973030" lon="6.4764868654"><ele>2564.45</ele><time>2019-08-18T11:48:17Z</time></trkpt><trkpt lat="45.0799853168" lon="6.4764841832"><ele>2565.90</ele><time>2019-08-18T11:48:27Z</time></trkpt><trkpt lat="45.0799721573" lon="6.4764909726"><ele>2565.90</ele><time>2019-08-18T11:48:40Z</time></trkpt><trkpt lat="45.0800117198" lon="6.4765024558"><ele>2564.45</ele><time>2019-08-18T11:48:59Z</time></trkpt><trkpt lat="45.0800404698" lon="6.4765171241"><ele>2564.45</ele><time>2019-08-18T11:49:02Z</time></trkpt><trkpt lat="45.0801542960" lon="6.4765232429"><ele>2564.45</ele><time>2019-08-18T11:49:15Z</time></trkpt><trkpt lat="45.0801823754" lon="6.4765301161"><ele>2564.93</ele><time>2019-08-18T11:49:18Z</time></trkpt><trkpt lat="45.0802005641" lon="6.4765220694"><ele>2563.97</ele><time>2019-08-18T11:49:20Z</time></trkpt><trkpt lat="45.0803180784" lon="6.4765366539"><ele>2563.01</ele><time>2019-08-18T11:49:34Z</time></trkpt><trkpt lat="45.0804660190" lon="6.4765295293"><ele>2560.13</ele><time>2019-08-18T11:49:51Z</time></trkpt><trkpt lat="45.0806037337" lon="6.4765260927"><ele>2557.73</ele><time>2019-08-18T11:50:06Z</time></trkpt><trkpt lat="45.0807145424" lon="6.4765527472"><ele>2555.32</ele><time>2019-08-18T11:50:19Z</time></trkpt><trkpt lat="45.0808542687" lon="6.4765292779"><ele>2553.88</ele><time>2019-08-18T11:50:35Z</time></trkpt><trkpt lat="45.0808504969" lon="6.4765185490"><ele>2553.40</ele><time>2019-08-18T11:50:45Z</time></trkpt><trkpt lat="45.0808770675" lon="6.4765168726"><ele>2553.40</ele><time>2019-08-18T11:51:03Z</time></trkpt><trkpt lat="45.0809553545" lon="6.4764312096"><ele>2553.88</ele><time>2019-08-18T11:51:13Z</time></trkpt><trkpt lat="45.0810847711" lon="6.4764075726"><ele>2550.51</ele><time>2019-08-18T11:51:30Z</time></trkpt><trkpt lat="45.0810903031" lon="6.4763830975"><ele>2550.51</ele><time>2019-08-18T11:51:56Z</time></trkpt><trkpt lat="45.0811495632" lon="6.4763921499"><ele>2549.55</ele><time>2019-08-18T11:52:09Z</time></trkpt><trkpt lat="45.0811985135" lon="6.4763921499"><ele>2548.11</ele><time>2019-08-18T11:52:16Z</time></trkpt><trkpt lat="45.0812639762" lon="6.4763877913"><ele>2546.67</ele><time>2019-08-18T11:52:24Z</time></trkpt><trkpt lat="45.0813403353" lon="6.4763195626"><ele>2544.27</ele><time>2019-08-18T11:52:37Z</time></trkpt><trkpt lat="45.0813607872" lon="6.4763042238"><ele>2543.79</ele><time>2019-08-18T11:52:54Z</time></trkpt><trkpt lat="45.0814707577" lon="6.4762857836"><ele>2540.90</ele><time>2019-08-18T11:53:09Z</time></trkpt><trkpt lat="45.0815186184" lon="6.4762690198"><ele>2539.94</ele><time>2019-08-18T11:53:16Z</time></trkpt><trkpt lat="45.0816254877" lon="6.4761487395"><ele>2538.02</ele><time>2019-08-18T11:53:33Z</time></trkpt><trkpt lat="45.0817226339" lon="6.4761235099"><ele>2535.61</ele><time>2019-08-18T11:53:46Z</time></trkpt><trkpt lat="45.0817463547" lon="6.4761211630"><ele>2535.13</ele><time>2019-08-18T11:53:49Z</time></trkpt><trkpt lat="45.0818205345" lon="6.4761489909"><ele>2533.21</ele><time>2019-08-18T11:54:04Z</time></trkpt><trkpt lat="45.0817714166" lon="6.4761383459"><ele>2532.73</ele><time>2019-08-18T11:54:25Z</time></trkpt><trkpt lat="45.0817725062" lon="6.4761404414"><ele>2534.65</ele><time>2019-08-18T11:54:27Z</time></trkpt><trkpt lat="45.0817989931" lon="6.4761507511"><ele>2534.17</ele><time>2019-08-18T11:54:59Z</time></trkpt><trkpt lat="45.0818027649" lon="6.4761507511"><ele>2534.17</ele><time>2019-08-18T11:55:23Z</time></trkpt><trkpt lat="45.0818080455" lon="6.4761619829"><ele>2533.21</ele><time>2019-08-18T11:55:46Z</time></trkpt><trkpt lat="45.0818117335" lon="6.4761623181"><ele>2536.10</ele><time>2019-08-18T11:55:48Z</time></trkpt><trkpt lat="45.0818119012" lon="6.4761617314"><ele>2534.65</ele><time>2019-08-18T11:55:49Z</time></trkpt><trkpt lat="45.0818374660" lon="6.4761767350"><ele>2533.69</ele><time>2019-08-18T11:56:06Z</time></trkpt><trkpt lat="45.0819077902" lon="6.4761814289"><ele>2530.81</ele><time>2019-08-18T11:56:18Z</time></trkpt><trkpt lat="45.0819103885" lon="6.4761904813"><ele>2532.25</ele><time>2019-08-18T11:56:20Z</time></trkpt><trkpt lat="45.0819186866" lon="6.4761970192"><ele>2525.04</ele><time>2019-08-18T11:56:25Z</time></trkpt><trkpt lat="45.0819248892" lon="6.4761974383"><ele>2534.65</ele><time>2019-08-18T11:56:26Z</time></trkpt><trkpt lat="45.0819315948" lon="6.4762020484"><ele>2533.21</ele><time>2019-08-18T11:56:27Z</time></trkpt><trkpt lat="45.0819572434" lon="6.4762075804"><ele>2530.33</ele><time>2019-08-18T11:56:30Z</time></trkpt><trkpt lat="45.0820454210" lon="6.4762270264"><ele>2526.96</ele><time>2019-08-18T11:56:45Z</time></trkpt><trkpt lat="45.0820483547" lon="6.4762271941"><ele>2526.96</ele><time>2019-08-18T11:56:46Z</time></trkpt><trkpt lat="45.0821466744" lon="6.4762140345"><ele>2524.08</ele><time>2019-08-18T11:57:01Z</time></trkpt><trkpt lat="45.0821533799" lon="6.4762922376"><ele>2521.68</ele><time>2019-08-18T11:57:10Z</time></trkpt><trkpt lat="45.0822263863" lon="6.4763317164"><ele>2520.71</ele><time>2019-08-18T11:57:17Z</time></trkpt><trkpt lat="45.0823421404" lon="6.4764456265"><ele>2518.31</ele><time>2019-08-18T11:57:29Z</time></trkpt><trkpt lat="45.0823946949" lon="6.4764661621"><ele>2518.31</ele><time>2019-08-18T11:57:34Z</time></trkpt><trkpt lat="45.0824437290" lon="6.4764859434"><ele>2517.83</ele><time>2019-08-18T11:57:38Z</time></trkpt><trkpt lat="45.0824810285" lon="6.4765022043"><ele>2517.35</ele><time>2019-08-18T11:57:41Z</time></trkpt><trkpt lat="45.0826052483" lon="6.4765013661"><ele>2516.39</ele><time>2019-08-18T11:57:53Z</time></trkpt><trkpt lat="45.0827080943" lon="6.4765234105"><ele>2514.47</ele><time>2019-08-18T11:58:05Z</time></trkpt><trkpt lat="45.0827287976" lon="6.4765180461"><ele>2514.47</ele><time>2019-08-18T11:58:07Z</time></trkpt><trkpt lat="45.0828529336" lon="6.4764973428"><ele>2511.58</ele><time>2019-08-18T11:58:21Z</time></trkpt><trkpt lat="45.0829671789" lon="6.4764952473"><ele>2508.70</ele><time>2019-08-18T11:58:35Z</time></trkpt><trkpt lat="45.0830755569" lon="6.4764558524"><ele>2507.26</ele><time>2019-08-18T11:58:48Z</time></trkpt><trkpt lat="45.0831540953" lon="6.4764012024"><ele>2504.85</ele><time>2019-08-18T11:59:02Z</time></trkpt><trkpt lat="45.0832092483" lon="6.4763593767"><ele>2503.89</ele><time>2019-08-18T11:59:22Z</time></trkpt><trkpt lat="45.0832802430" lon="6.4763450436"><ele>2502.45</ele><time>2019-08-18T11:59:31Z</time></trkpt><trkpt lat="45.0833338033" lon="6.4763214905"><ele>2501.49</ele><time>2019-08-18T11:59:38Z</time></trkpt><trkpt lat="45.0834135991" lon="6.4763116837"><ele>2499.08</ele><time>2019-08-18T11:59:50Z</time></trkpt><trkpt lat="45.0835197140" lon="6.4762985241"><ele>2497.16</ele><time>2019-08-18T12:00:02Z</time></trkpt><trkpt lat="45.0835404173" lon="6.4763004519"><ele>2496.68</ele><time>2019-08-18T12:00:04Z</time></trkpt><trkpt lat="45.0836658105" lon="6.4762772340"><ele>2494.76</ele><time>2019-08-18T12:00:20Z</time></trkpt><trkpt lat="45.0837575085" lon="6.4762527589"><ele>2492.36</ele><time>2019-08-18T12:00:34Z</time></trkpt><trkpt lat="45.0837457739" lon="6.4762276970"><ele>2491.39</ele><time>2019-08-18T12:00:53Z</time></trkpt><trkpt lat="45.0837837439" lon="6.4762298763"><ele>2491.39</ele><time>2019-08-18T12:01:05Z</time></trkpt><trkpt lat="45.0838335324" lon="6.4762538485"><ele>2490.91</ele><time>2019-08-18T12:01:22Z</time></trkpt><trkpt lat="45.0838561635" lon="6.4762417786"><ele>2489.95</ele><time>2019-08-18T12:01:47Z</time></trkpt><trkpt lat="45.0839186925" lon="6.4762483165"><ele>2488.99</ele><time>2019-08-18T12:02:00Z</time></trkpt><trkpt lat="45.0840592571" lon="6.4762318041"><ele>2487.55</ele><time>2019-08-18T12:02:15Z</time></trkpt><trkpt lat="45.0840794574" lon="6.4762299601"><ele>2487.55</ele><time>2019-08-18T12:02:17Z</time></trkpt><trkpt lat="45.0842289068" lon="6.4762966800"><ele>2486.59</ele><time>2019-08-18T12:02:32Z</time></trkpt><trkpt lat="45.0842778571" lon="6.4763255138"><ele>2486.59</ele><time>2019-08-18T12:02:37Z</time></trkpt><trkpt lat="45.0843294896" lon="6.4763688482"><ele>2485.63</ele><time>2019-08-18T12:02:44Z</time></trkpt><trkpt lat="45.0843991432" lon="6.4764112607"><ele>2485.63</ele><time>2019-08-18T12:02:51Z</time></trkpt><trkpt lat="45.0844202656" lon="6.4764382504"><ele>2485.63</ele><time>2019-08-18T12:02:54Z</time></trkpt><trkpt lat="45.0844999775" lon="6.4764779806"><ele>2485.63</ele><time>2019-08-18T12:03:02Z</time></trkpt><trkpt lat="45.0845492631" lon="6.4766081516"><ele>2485.15</ele><time>2019-08-18T12:03:19Z</time></trkpt><trkpt lat="45.0845669489" lon="6.4766327944"><ele>2486.11</ele><time>2019-08-18T12:03:42Z</time></trkpt><trkpt lat="45.0845725648" lon="6.4766398352"><ele>2485.15</ele><time>2019-08-18T12:03:43Z</time></trkpt><trkpt lat="45.0846364349" lon="6.4767369814"><ele>2483.70</ele><time>2019-08-18T12:03:52Z</time></trkpt><trkpt lat="45.0846456550" lon="6.4767962415"><ele>2483.22</ele><time>2019-08-18T12:03:56Z</time></trkpt><trkpt lat="45.0847604871" lon="6.4769764524"><ele>2481.30</ele><time>2019-08-18T12:04:11Z</time></trkpt><trkpt lat="45.0848110300" lon="6.4770790469"><ele>2481.78</ele><time>2019-08-18T12:04:25Z</time></trkpt><trkpt lat="45.0848043244" lon="6.4770943020"><ele>2482.26</ele><time>2019-08-18T12:04:30Z</time></trkpt><trkpt lat="45.0848092698" lon="6.4770985767"><ele>2474.09</ele><time>2019-08-18T12:04:32Z</time></trkpt><trkpt lat="45.0848110300" lon="6.4771067072"><ele>2484.66</ele><time>2019-08-18T12:04:33Z</time></trkpt><trkpt lat="45.0848162267" lon="6.4771233033"><ele>2481.30</ele><time>2019-08-18T12:04:35Z</time></trkpt><trkpt lat="45.0848237704" lon="6.4771405701"><ele>2480.34</ele><time>2019-08-18T12:04:38Z</time></trkpt><trkpt lat="45.0848624948" lon="6.4771828149"><ele>2479.86</ele><time>2019-08-18T12:04:43Z</time></trkpt><trkpt lat="45.0848812703" lon="6.4772364590"><ele>2478.90</ele><time>2019-08-18T12:04:48Z</time></trkpt><trkpt lat="45.0848985370" lon="6.4774008282"><ele>2477.94</ele><time>2019-08-18T12:05:00Z</time></trkpt><trkpt lat="45.0849078409" lon="6.4774369542"><ele>2477.45</ele><time>2019-08-18T12:05:03Z</time></trkpt><trkpt lat="45.0849210005" lon="6.4775406383"><ele>2476.01</ele><time>2019-08-18T12:05:15Z</time></trkpt><trkpt lat="45.0849416200" lon="6.4776132256"><ele>2474.57</ele><time>2019-08-18T12:05:35Z</time></trkpt><trkpt lat="45.0849631615" lon="6.4776863996"><ele>2474.09</ele><time>2019-08-18T12:05:42Z</time></trkpt><trkpt lat="45.0849396084" lon="6.4778367709"><ele>2472.65</ele><time>2019-08-18T12:05:57Z</time></trkpt><trkpt lat="45.0849448889" lon="6.4778351784"><ele>2472.65</ele><time>2019-08-18T12:06:04Z</time></trkpt><trkpt lat="45.0849467330" lon="6.4778692089"><ele>2472.17</ele><time>2019-08-18T12:06:07Z</time></trkpt><trkpt lat="45.0849689450" lon="6.4779956918"><ele>2470.73</ele><time>2019-08-18T12:06:19Z</time></trkpt><trkpt lat="45.0849632453" lon="6.4782126993"><ele>2468.80</ele><time>2019-08-18T12:06:34Z</time></trkpt><trkpt lat="45.0849679392" lon="6.4783266932"><ele>2466.40</ele><time>2019-08-18T12:06:45Z</time></trkpt><trkpt lat="45.0849854574" lon="6.4784886315"><ele>2464.48</ele><time>2019-08-18T12:06:58Z</time></trkpt><trkpt lat="45.0849735551" lon="6.4785501547"><ele>2464.48</ele><time>2019-08-18T12:07:02Z</time></trkpt><trkpt lat="45.0849693641" lon="6.4787275996"><ele>2462.55</ele><time>2019-08-18T12:07:17Z</time></trkpt><trkpt lat="45.0849684421" lon="6.4787400886"><ele>2462.07</ele><time>2019-08-18T12:07:18Z</time></trkpt><trkpt lat="45.0849770755" lon="6.4788991772"><ele>2460.63</ele><time>2019-08-18T12:07:29Z</time></trkpt><trkpt lat="45.0849603117" lon="6.4789762069"><ele>2460.15</ele><time>2019-08-18T12:07:36Z</time></trkpt><trkpt lat="45.0849430449" lon="6.4789995085"><ele>2460.15</ele><time>2019-08-18T12:07:42Z</time></trkpt><trkpt lat="45.0849053264" lon="6.4791614469"><ele>2459.67</ele><time>2019-08-18T12:07:54Z</time></trkpt><trkpt lat="45.0849591382" lon="6.4792563301"><ele>2458.71</ele><time>2019-08-18T12:08:06Z</time></trkpt><trkpt lat="45.0849763211" lon="6.4793010056"><ele>2457.75</ele><time>2019-08-18T12:08:10Z</time></trkpt><trkpt lat="45.0850004610" lon="6.4794004150"><ele>2456.79</ele><time>2019-08-18T12:08:17Z</time></trkpt><trkpt lat="45.0850031432" lon="6.4795311727"><ele>2456.31</ele><time>2019-08-18T12:08:27Z</time></trkpt><trkpt lat="45.0849557016" lon="6.4797158260"><ele>2455.34</ele><time>2019-08-18T12:08:42Z</time></trkpt><trkpt lat="45.0849129539" lon="6.4799362700"><ele>2453.42</ele><time>2019-08-18T12:08:57Z</time></trkpt><trkpt lat="45.0849000458" lon="6.4800682850"><ele>2453.42</ele><time>2019-08-18T12:09:07Z</time></trkpt><trkpt lat="45.0848736428" lon="6.4801189117"><ele>2453.42</ele><time>2019-08-18T12:09:11Z</time></trkpt><trkpt lat="45.0847579725" lon="6.4803037327"><ele>2453.42</ele><time>2019-08-18T12:09:27Z</time></trkpt><trkpt lat="45.0847365148" lon="6.4803394396"><ele>2453.42</ele><time>2019-08-18T12:09:30Z</time></trkpt><trkpt lat="45.0846741535" lon="6.4804903977"><ele>2452.46</ele><time>2019-08-18T12:09:41Z</time></trkpt><trkpt lat="45.0846169051" lon="6.4805831015"><ele>2452.46</ele><time>2019-08-18T12:09:51Z</time></trkpt><trkpt lat="45.0845681224" lon="6.4806491509"><ele>2453.90</ele><time>2019-08-18T12:10:04Z</time></trkpt><trkpt lat="45.0845340919" lon="6.4807038847"><ele>2454.38</ele><time>2019-08-18T12:10:34Z</time></trkpt><trkpt lat="45.0845319126" lon="6.4807051420"><ele>2454.38</ele><time>2019-08-18T12:10:37Z</time></trkpt><trkpt lat="45.0845222734" lon="6.4807503205"><ele>2454.38</ele><time>2019-08-18T12:10:41Z</time></trkpt><trkpt lat="45.0845252909" lon="6.4807763044"><ele>2450.54</ele><time>2019-08-18T12:10:43Z</time></trkpt><trkpt lat="45.0845248718" lon="6.4808731154"><ele>2453.90</ele><time>2019-08-18T12:10:50Z</time></trkpt><trkpt lat="45.0844950322" lon="6.4810142666"><ele>2451.02</ele><time>2019-08-18T12:11:04Z</time></trkpt><trkpt lat="45.0844564755" lon="6.4810965769"><ele>2451.02</ele><time>2019-08-18T12:11:15Z</time></trkpt><trkpt lat="45.0844402146" lon="6.4811373129"><ele>2451.98</ele><time>2019-08-18T12:11:20Z</time></trkpt><trkpt lat="45.0844455790" lon="6.4811663143"><ele>2451.98</ele><time>2019-08-18T12:11:22Z</time></trkpt><trkpt lat="45.0844411366" lon="6.4812042844"><ele>2451.98</ele><time>2019-08-18T12:11:25Z</time></trkpt><trkpt lat="45.0844439864" lon="6.4812400751"><ele>2452.94</ele><time>2019-08-18T12:11:28Z</time></trkpt><trkpt lat="45.0844323356" lon="6.4813222177"><ele>2453.42</ele><time>2019-08-18T12:11:34Z</time></trkpt><trkpt lat="45.0844039209" lon="6.4815141633"><ele>2453.90</ele><time>2019-08-18T12:11:50Z</time></trkpt><trkpt lat="45.0844165776" lon="6.4815647900"><ele>2452.46</ele><time>2019-08-18T12:12:04Z</time></trkpt><trkpt lat="45.0844159909" lon="6.4815745968"><ele>2452.46</ele><time>2019-08-18T12:12:05Z</time></trkpt><trkpt lat="45.0843734946" lon="6.4816592541"><ele>2450.54</ele><time>2019-08-18T12:12:16Z</time></trkpt><trkpt lat="45.0843698066" lon="6.4817839768"><ele>2449.58</ele><time>2019-08-18T12:12:29Z</time></trkpt><trkpt lat="45.0843439903" lon="6.4818832185"><ele>2449.58</ele><time>2019-08-18T12:12:42Z</time></trkpt><trkpt lat="45.0843486842" lon="6.4819271397"><ele>2449.58</ele><time>2019-08-18T12:12:53Z</time></trkpt><trkpt lat="45.0842990633" lon="6.4820039179"><ele>2449.10</ele><time>2019-08-18T12:13:04Z</time></trkpt><trkpt lat="45.0842567347" lon="6.4821500145"><ele>2448.62</ele><time>2019-08-18T12:13:17Z</time></trkpt><trkpt lat="45.0842512026" lon="6.4822345041"><ele>2448.13</ele><time>2019-08-18T12:13:32Z</time></trkpt><trkpt lat="45.0842702296" lon="6.4823410381"><ele>2448.13</ele><time>2019-08-18T12:13:46Z</time></trkpt><trkpt lat="45.0842725765" lon="6.4824244380"><ele>2449.58</ele><time>2019-08-18T12:13:56Z</time></trkpt><trkpt lat="45.0842776895" lon="6.4825417846"><ele>2451.50</ele><time>2019-08-18T12:14:08Z</time></trkpt><trkpt lat="45.0842968002" lon="6.4826236758"><ele>2452.46</ele><time>2019-08-18T12:14:17Z</time></trkpt><trkpt lat="45.0843455829" lon="6.4826945029"><ele>2452.94</ele><time>2019-08-18T12:14:25Z</time></trkpt><trkpt lat="45.0844228640" lon="6.4828148670"><ele>2452.94</ele><time>2019-08-18T12:14:39Z</time></trkpt><trkpt lat="45.0844662823" lon="6.4828673378"><ele>2452.94</ele><time>2019-08-18T12:14:46Z</time></trkpt><trkpt lat="45.0844828784" lon="6.4829020388"><ele>2451.50</ele><time>2019-08-18T12:14:49Z</time></trkpt><trkpt lat="45.0845137239" lon="6.4830406755"><ele>2450.54</ele><time>2019-08-18T12:15:02Z</time></trkpt><trkpt lat="45.0844687968" lon="6.4831493050"><ele>2450.06</ele><time>2019-08-18T12:15:15Z</time></trkpt><trkpt lat="45.0844155718" lon="6.4832109958"><ele>2449.58</ele><time>2019-08-18T12:15:31Z</time></trkpt><trkpt lat="45.0843877438" lon="6.4831925556"><ele>2448.62</ele><time>2019-08-18T12:15:36Z</time></trkpt><trkpt lat="45.0843511987" lon="6.4831320383"><ele>2449.10</ele><time>2019-08-18T12:15:45Z</time></trkpt><trkpt lat="45.0842616800" lon="6.4831210580"><ele>2448.62</ele><time>2019-08-18T12:15:57Z</time></trkpt><trkpt lat="45.0842169207" lon="6.4831705112"><ele>2448.62</ele><time>2019-08-18T12:16:10Z</time></trkpt><trkpt lat="45.0841935351" lon="6.4832612034"><ele>2449.10</ele><time>2019-08-18T12:16:22Z</time></trkpt><trkpt lat="45.0841948763" lon="6.4833618701"><ele>2449.10</ele><time>2019-08-18T12:16:35Z</time></trkpt><trkpt lat="45.0841844827" lon="6.4834471140"><ele>2448.62</ele><time>2019-08-18T12:16:49Z</time></trkpt><trkpt lat="45.0842429046" lon="6.4835949708"><ele>2448.13</ele><time>2019-08-18T12:17:05Z</time></trkpt><trkpt lat="45.0842411444" lon="6.4836799633"><ele>2448.13</ele><time>2019-08-18T12:17:20Z</time></trkpt><trkpt lat="45.0842538849" lon="6.4837411512"><ele>2449.58</ele><time>2019-08-18T12:17:28Z</time></trkpt><trkpt lat="45.0842879992" lon="6.4838174265"><ele>2450.54</ele><time>2019-08-18T12:17:38Z</time></trkpt><trkpt lat="45.0843446609" lon="6.4839574881"><ele>2449.58</ele><time>2019-08-18T12:17:53Z</time></trkpt><trkpt lat="45.0844307430" lon="6.4840884134"><ele>2447.65</ele><time>2019-08-18T12:18:08Z</time></trkpt><trkpt lat="45.0844516139" lon="6.4841189235"><ele>2448.13</ele><time>2019-08-18T12:18:15Z</time></trkpt><trkpt lat="45.0845145620" lon="6.4842030779"><ele>2448.13</ele><time>2019-08-18T12:18:26Z</time></trkpt><trkpt lat="45.0845588185" lon="6.4842802752"><ele>2448.13</ele><time>2019-08-18T12:18:37Z</time></trkpt><trkpt lat="45.0846138038" lon="6.4843956102"><ele>2449.10</ele><time>2019-08-18T12:18:50Z</time></trkpt><trkpt lat="45.0846380275" lon="6.4844642580"><ele>2449.58</ele><time>2019-08-18T12:19:01Z</time></trkpt><trkpt lat="45.0846691243" lon="6.4845557883"><ele>2450.06</ele><time>2019-08-18T12:19:15Z</time></trkpt><trkpt lat="45.0847022329" lon="6.4846006315"><ele>2450.06</ele><time>2019-08-18T12:19:26Z</time></trkpt><trkpt lat="45.0847047474" lon="6.4845832810"><ele>2446.69</ele><time>2019-08-18T12:19:40Z</time></trkpt><trkpt lat="45.0847040769" lon="6.4845833648"><ele>2450.54</ele><time>2019-08-18T12:19:41Z</time></trkpt><trkpt lat="45.0847191643" lon="6.4845869690"><ele>2440.44</ele><time>2019-08-18T12:19:45Z</time></trkpt><trkpt lat="45.0847226009" lon="6.4845907409"><ele>2455.34</ele><time>2019-08-18T12:19:46Z</time></trkpt><trkpt lat="45.0847276300" lon="6.4845958538"><ele>2449.58</ele><time>2019-08-18T12:19:47Z</time></trkpt><trkpt lat="45.0848013069" lon="6.4846241847"><ele>2449.58</ele><time>2019-08-18T12:19:59Z</time></trkpt><trkpt lat="45.0848743133" lon="6.4846939221"><ele>2449.10</ele><time>2019-08-18T12:20:12Z</time></trkpt><trkpt lat="45.0849006325" lon="6.4847098477"><ele>2450.54</ele><time>2019-08-18T12:20:26Z</time></trkpt><trkpt lat="45.0849064998" lon="6.4847098477"><ele>2443.33</ele><time>2019-08-18T12:20:29Z</time></trkpt><trkpt lat="45.0849103555" lon="6.4847136196"><ele>2454.38</ele><time>2019-08-18T12:20:30Z</time></trkpt><trkpt lat="45.0849151332" lon="6.4847141225"><ele>2451.02</ele><time>2019-08-18T12:20:31Z</time></trkpt><trkpt lat="45.0849225931" lon="6.4847129490"><ele>2449.58</ele><time>2019-08-18T12:20:33Z</time></trkpt><trkpt lat="45.0849908218" lon="6.4846583828"><ele>2449.10</ele><time>2019-08-18T12:20:45Z</time></trkpt><trkpt lat="45.0850734673" lon="6.4846377634"><ele>2449.10</ele><time>2019-08-18T12:20:57Z</time></trkpt><trkpt lat="45.0851422828" lon="6.4846443012"><ele>2449.10</ele><time>2019-08-18T12:21:04Z</time></trkpt><trkpt lat="45.0851578731" lon="6.4846879710"><ele>2451.02</ele><time>2019-08-18T12:21:09Z</time></trkpt><trkpt lat="45.0851973519" lon="6.4847254381"><ele>2451.98</ele><time>2019-08-18T12:21:22Z</time></trkpt><trkpt lat="45.0852134451" lon="6.4847347420"><ele>2450.06</ele><time>2019-08-18T12:21:24Z</time></trkpt><trkpt lat="45.0852168817" lon="6.4847386815"><ele>2452.94</ele><time>2019-08-18T12:21:25Z</time></trkpt><trkpt lat="45.0852516666" lon="6.4848162141"><ele>2452.94</ele><time>2019-08-18T12:21:37Z</time></trkpt><trkpt lat="45.0852571987" lon="6.4848323073"><ele>2453.42</ele><time>2019-08-18T12:21:50Z</time></trkpt><trkpt lat="45.0852720346" lon="6.4848234225"><ele>2452.94</ele><time>2019-08-18T12:22:12Z</time></trkpt><trkpt lat="45.0852468889" lon="6.4847974386"><ele>2452.94</ele><time>2019-08-18T12:22:48Z</time></trkpt><trkpt lat="45.0852655806" lon="6.4848262724"><ele>2452.94</ele><time>2019-08-18T12:23:12Z</time></trkpt><trkpt lat="45.0852712803" lon="6.4848307986"><ele>2452.94</ele><time>2019-08-18T12:23:13Z</time></trkpt><trkpt lat="45.0852875412" lon="6.4848743007"><ele>2454.86</ele><time>2019-08-18T12:23:19Z</time></trkpt><trkpt lat="45.0851909816" lon="6.4849945810"><ele>2453.90</ele><time>2019-08-18T12:23:33Z</time></trkpt><trkpt lat="45.0851835217" lon="6.4850044716"><ele>2456.79</ele><time>2019-08-18T12:23:34Z</time></trkpt><trkpt lat="45.0851706974" lon="6.4850208163"><ele>2455.34</ele><time>2019-08-18T12:23:36Z</time></trkpt><trkpt lat="45.0851325598" lon="6.4850752987"><ele>2455.34</ele><time>2019-08-18T12:23:42Z</time></trkpt><trkpt lat="45.0851562805" lon="6.4851322118"><ele>2456.79</ele><time>2019-08-18T12:23:52Z</time></trkpt><trkpt lat="45.0851848628" lon="6.4851786476"><ele>2456.79</ele><time>2019-08-18T12:24:03Z</time></trkpt><trkpt lat="45.0852057338" lon="6.4852065593"><ele>2451.98</ele><time>2019-08-18T12:24:13Z</time></trkpt><trkpt lat="45.0852080807" lon="6.4852089901"><ele>2459.67</ele><time>2019-08-18T12:24:14Z</time></trkpt><trkpt lat="45.0852081645" lon="6.4852138516"><ele>2457.27</ele><time>2019-08-18T12:24:18Z</time></trkpt><trkpt lat="45.0852125231" lon="6.4852265920"><ele>2457.27</ele><time>2019-08-18T12:24:39Z</time></trkpt><trkpt lat="45.0852325559" lon="6.4852343872"><ele>2457.27</ele><time>2019-08-18T12:25:14Z</time></trkpt><trkpt lat="45.0852579530" lon="6.4852361474"><ele>2457.75</ele><time>2019-08-18T12:25:47Z</time></trkpt><trkpt lat="45.0852550194" lon="6.4852240775"><ele>2457.27</ele><time>2019-08-18T12:26:18Z</time></trkpt><trkpt lat="45.0852128584" lon="6.4852116723"><ele>2458.23</ele><time>2019-08-18T12:26:34Z</time></trkpt><trkpt lat="45.0851966813" lon="6.4852382429"><ele>2452.46</ele><time>2019-08-18T12:27:01Z</time></trkpt><trkpt lat="45.0851968490" lon="6.4852379914"><ele>2461.59</ele><time>2019-08-18T12:27:02Z</time></trkpt><trkpt lat="45.0851994473" lon="6.4852374047"><ele>2458.71</ele><time>2019-08-18T12:27:03Z</time></trkpt><trkpt lat="45.0852011237" lon="6.4852382429"><ele>2457.75</ele><time>2019-08-18T12:27:05Z</time></trkpt><trkpt lat="45.0852162112" lon="6.4852017816"><ele>2457.27</ele><time>2019-08-18T12:27:18Z</time></trkpt><trkpt lat="45.0851893052" lon="6.4852426853"><ele>2456.79</ele><time>2019-08-18T12:27:37Z</time></trkpt><trkpt lat="45.0851671770" lon="6.4852155279"><ele>2456.79</ele><time>2019-08-18T12:27:49Z</time></trkpt><trkpt lat="45.0851250999" lon="6.4851578604"><ele>2456.79</ele><time>2019-08-18T12:28:01Z</time></trkpt><trkpt lat="45.0851183105" lon="6.4851672482"><ele>2456.79</ele><time>2019-08-18T12:28:02Z</time></trkpt><trkpt lat="45.0850071665" lon="6.4852967486"><ele>2456.31</ele><time>2019-08-18T12:28:16Z</time></trkpt><trkpt lat="45.0849859603" lon="6.4853883628"><ele>2457.75</ele><time>2019-08-18T12:28:27Z</time></trkpt><trkpt lat="45.0849246047" lon="6.4854679070"><ele>2458.23</ele><time>2019-08-18T12:28:37Z</time></trkpt><trkpt lat="45.0848878920" lon="6.4855737705"><ele>2458.71</ele><time>2019-08-18T12:28:48Z</time></trkpt><trkpt lat="45.0848723017" lon="6.4856089745"><ele>2457.27</ele><time>2019-08-18T12:29:04Z</time></trkpt><trkpt lat="45.0848762412" lon="6.4855964854"><ele>2453.42</ele><time>2019-08-18T12:29:21Z</time></trkpt><trkpt lat="45.0848734751" lon="6.4855987485"><ele>2462.55</ele><time>2019-08-18T12:29:22Z</time></trkpt><trkpt lat="45.0848720502" lon="6.4855984133"><ele>2459.19</ele><time>2019-08-18T12:29:23Z</time></trkpt><trkpt lat="45.0848686136" lon="6.4856011793"><ele>2458.23</ele><time>2019-08-18T12:29:25Z</time></trkpt><trkpt lat="45.0848842040" lon="6.4856839925"><ele>2457.75</ele><time>2019-08-18T12:29:37Z</time></trkpt><trkpt lat="45.0848743971" lon="6.4858236350"><ele>2457.27</ele><time>2019-08-18T12:29:50Z</time></trkpt><trkpt lat="45.0848743971" lon="6.4858378842"><ele>2457.27</ele><time>2019-08-18T12:30:02Z</time></trkpt><trkpt lat="45.0848755706" lon="6.4858297538"><ele>2457.27</ele><time>2019-08-18T12:30:16Z</time></trkpt><trkpt lat="45.0848691165" lon="6.4858589228"><ele>2457.27</ele><time>2019-08-18T12:30:35Z</time></trkpt><trkpt lat="45.0848680269" lon="6.4858682267"><ele>2456.31</ele><time>2019-08-18T12:30:50Z</time></trkpt><trkpt lat="45.0848696195" lon="6.4858637843"><ele>2456.31</ele><time>2019-08-18T12:31:10Z</time></trkpt><trkpt lat="45.0848629978" lon="6.4858772792"><ele>2449.10</ele><time>2019-08-18T12:31:16Z</time></trkpt><trkpt lat="45.0848594774" lon="6.4858886786"><ele>2458.23</ele><time>2019-08-18T12:31:17Z</time></trkpt><trkpt lat="45.0848526880" lon="6.4858923666"><ele>2459.19</ele><time>2019-08-18T12:31:19Z</time></trkpt><trkpt lat="45.0848659314" lon="6.4859154169"><ele>2456.31</ele><time>2019-08-18T12:31:32Z</time></trkpt><trkpt lat="45.0848374330" lon="6.4859942906"><ele>2456.31</ele><time>2019-08-18T12:31:48Z</time></trkpt><trkpt lat="45.0848171487" lon="6.4861007407"><ele>2457.75</ele><time>2019-08-18T12:31:56Z</time></trkpt><trkpt lat="45.0847915001" lon="6.4861931931"><ele>2458.71</ele><time>2019-08-18T12:32:08Z</time></trkpt><trkpt lat="45.0848044921" lon="6.4863122161"><ele>2448.62</ele><time>2019-08-18T12:32:21Z</time></trkpt><trkpt lat="45.0848127063" lon="6.4863165747"><ele>2464.96</ele><time>2019-08-18T12:32:22Z</time></trkpt><trkpt lat="45.0848200824" lon="6.4863247890"><ele>2459.67</ele><time>2019-08-18T12:32:23Z</time></trkpt><trkpt lat="45.0848316494" lon="6.4863356017"><ele>2458.23</ele><time>2019-08-18T12:32:25Z</time></trkpt><trkpt lat="45.0848451443" lon="6.4863686264"><ele>2459.67</ele><time>2019-08-18T12:32:30Z</time></trkpt><trkpt lat="45.0848619081" lon="6.4864153136"><ele>2461.11</ele><time>2019-08-18T12:32:37Z</time></trkpt><trkpt lat="45.0849246886" lon="6.4865008090"><ele>2463.04</ele><time>2019-08-18T12:32:51Z</time></trkpt><trkpt lat="45.0849240180" lon="6.4865464065"><ele>2464.00</ele><time>2019-08-18T12:33:08Z</time></trkpt><trkpt lat="45.0850105193" lon="6.4865970332"><ele>2465.92</ele><time>2019-08-18T12:33:21Z</time></trkpt><trkpt lat="45.0850810949" lon="6.4866488334"><ele>2468.80</ele><time>2019-08-18T12:33:36Z</time></trkpt><trkpt lat="45.0851097610" lon="6.4866888989"><ele>2469.28</ele><time>2019-08-18T12:33:50Z</time></trkpt><trkpt lat="45.0851142872" lon="6.4867007174"><ele>2469.28</ele><time>2019-08-18T12:34:08Z</time></trkpt><trkpt lat="45.0851064920" lon="6.4867525175"><ele>2469.28</ele><time>2019-08-18T12:34:16Z</time></trkpt><trkpt lat="45.0851697754" lon="6.4867365919"><ele>2470.24</ele><time>2019-08-18T12:34:31Z</time></trkpt><trkpt lat="45.0850197393" lon="6.4866742305"><ele>2470.73</ele><time>2019-08-18T12:34:45Z</time></trkpt><trkpt lat="45.0850330666" lon="6.4866620768"><ele>2460.63</ele><time>2019-08-18T12:34:56Z</time></trkpt><trkpt lat="45.0850275345" lon="6.4866662677"><ele>2475.05</ele><time>2019-08-18T12:34:57Z</time></trkpt><trkpt lat="45.0850245170" lon="6.4866715483"><ele>2470.73</ele><time>2019-08-18T12:34:58Z</time></trkpt><trkpt lat="45.0850229245" lon="6.4866916649"><ele>2469.76</ele><time>2019-08-18T12:35:00Z</time></trkpt><trkpt lat="45.0850306358" lon="6.4866877254"><ele>2469.76</ele><time>2019-08-18T12:35:26Z</time></trkpt><trkpt lat="45.0851461384" lon="6.4866661001"><ele>2469.76</ele><time>2019-08-18T12:35:56Z</time></trkpt><trkpt lat="45.0853448734" lon="6.4866728894"><ele>2471.21</ele><time>2019-08-18T12:36:19Z</time></trkpt><trkpt lat="45.0827797595" lon="6.4862716477"><ele>2471.21</ele><time>2019-08-18T12:36:36Z</time></trkpt><trkpt lat="45.0835177861" lon="6.4868194051"><ele>2470.73</ele><time>2019-08-18T12:36:52Z</time></trkpt><trkpt lat="45.0838471111" lon="6.4866589755"><ele>2471.69</ele><time>2019-08-18T12:37:09Z</time></trkpt><trkpt lat="45.0840639509" lon="6.4865992963"><ele>2470.24</ele><time>2019-08-18T12:37:21Z</time></trkpt><trkpt lat="45.0843113847" lon="6.4866381045"><ele>2470.24</ele><time>2019-08-18T12:37:33Z</time></trkpt><trkpt lat="45.0847629178" lon="6.4867273718"><ele>2471.21</ele><time>2019-08-18T12:37:55Z</time></trkpt><trkpt lat="45.0848241057" lon="6.4865707979"><ele>2470.73</ele><time>2019-08-18T12:38:10Z</time></trkpt><trkpt lat="45.0848581363" lon="6.4864634257"><ele>2469.28</ele><time>2019-08-18T12:38:30Z</time></trkpt><trkpt lat="45.0848158076" lon="6.4863678720"><ele>2467.84</ele><time>2019-08-18T12:38:43Z</time></trkpt><trkpt lat="45.0847991277" lon="6.4862645231"><ele>2465.92</ele><time>2019-08-18T12:38:55Z</time></trkpt><trkpt lat="45.0848422945" lon="6.4861283172"><ele>2465.44</ele><time>2019-08-18T12:39:08Z</time></trkpt><trkpt lat="45.0848747324" lon="6.4859971404"><ele>2464.00</ele><time>2019-08-18T12:39:22Z</time></trkpt><trkpt lat="45.0848916639" lon="6.4859367069"><ele>2463.52</ele><time>2019-08-18T12:39:37Z</time></trkpt><trkpt lat="45.0848786719" lon="6.4858244732"><ele>2463.52</ele><time>2019-08-18T12:39:47Z</time></trkpt><trkpt lat="45.0848827790" lon="6.4857273269"><ele>2464.96</ele><time>2019-08-18T12:39:56Z</time></trkpt><trkpt lat="45.0848843716" lon="6.4856805559"><ele>2464.96</ele><time>2019-08-18T12:40:15Z</time></trkpt><trkpt lat="45.0848972797" lon="6.4856185298"><ele>2464.96</ele><time>2019-08-18T12:40:38Z</time></trkpt><trkpt lat="45.0848943461" lon="6.4855596051"><ele>2464.00</ele><time>2019-08-18T12:40:44Z</time></trkpt><trkpt lat="45.0849097688" lon="6.4855169412"><ele>2464.96</ele><time>2019-08-18T12:40:49Z</time></trkpt><trkpt lat="45.0849458110" lon="6.4854705893"><ele>2464.96</ele><time>2019-08-18T12:41:00Z</time></trkpt><trkpt lat="45.0849664304" lon="6.4854147658"><ele>2464.96</ele><time>2019-08-18T12:41:13Z</time></trkpt><trkpt lat="45.0849696156" lon="6.4853652287"><ele>2464.96</ele><time>2019-08-18T12:41:20Z</time></trkpt><trkpt lat="45.0849718787" lon="6.4853312820"><ele>2464.48</ele><time>2019-08-18T12:41:23Z</time></trkpt><trkpt lat="45.0850181468" lon="6.4852211438"><ele>2463.52</ele><time>2019-08-18T12:41:36Z</time></trkpt><trkpt lat="45.0850630738" lon="6.4851839282"><ele>2463.52</ele><time>2019-08-18T12:41:41Z</time></trkpt><trkpt lat="45.0850817654" lon="6.4851668291"><ele>2466.88</ele><time>2019-08-18T12:41:43Z</time></trkpt><trkpt lat="45.0850884710" lon="6.4851592015"><ele>2466.88</ele><time>2019-08-18T12:41:44Z</time></trkpt><trkpt lat="45.0850920752" lon="6.4851539209"><ele>2463.52</ele><time>2019-08-18T12:41:45Z</time></trkpt><trkpt lat="45.0850966014" lon="6.4851479698"><ele>2450.06</ele><time>2019-08-18T12:41:46Z</time></trkpt><trkpt lat="45.0851045642" lon="6.4851374924"><ele>2473.61</ele><time>2019-08-18T12:41:47Z</time></trkpt><trkpt lat="45.0851120241" lon="6.4851262607"><ele>2466.88</ele><time>2019-08-18T12:41:48Z</time></trkpt><trkpt lat="45.0851240940" lon="6.4851058088"><ele>2463.52</ele><time>2019-08-18T12:41:50Z</time></trkpt><trkpt lat="45.0852021296" lon="6.4850060642"><ele>2463.52</ele><time>2019-08-18T12:42:03Z</time></trkpt><trkpt lat="45.0852072425" lon="6.4849746320"><ele>2463.52</ele><time>2019-08-18T12:42:25Z</time></trkpt><trkpt lat="45.0852704421" lon="6.4848861191"><ele>2462.55</ele><time>2019-08-18T12:42:35Z</time></trkpt><trkpt lat="45.0853758864" lon="6.4847520925"><ele>2461.59</ele><time>2019-08-18T12:42:49Z</time></trkpt><trkpt lat="45.0854188856" lon="6.4846852887"><ele>2461.59</ele><time>2019-08-18T12:42:59Z</time></trkpt><trkpt lat="45.0854260940" lon="6.4846622385"><ele>2461.11</ele><time>2019-08-18T12:43:01Z</time></trkpt><trkpt lat="45.0854863599" lon="6.4845188241"><ele>2460.63</ele><time>2019-08-18T12:43:12Z</time></trkpt><trkpt lat="45.0855011959" lon="6.4844977856"><ele>2460.63</ele><time>2019-08-18T12:43:14Z</time></trkpt><trkpt lat="45.0855406746" lon="6.4844251145"><ele>2460.63</ele><time>2019-08-18T12:43:20Z</time></trkpt><trkpt lat="45.0855667423" lon="6.4843788464"><ele>2459.67</ele><time>2019-08-18T12:43:24Z</time></trkpt><trkpt lat="45.0856441073" lon="6.4841884933"><ele>2458.23</ele><time>2019-08-18T12:43:39Z</time></trkpt><trkpt lat="45.0856508128" lon="6.4841766749"><ele>2458.23</ele><time>2019-08-18T12:43:40Z</time></trkpt><trkpt lat="45.0857605319" lon="6.4840076957"><ele>2458.23</ele><time>2019-08-18T12:43:55Z</time></trkpt><trkpt lat="45.0857827440" lon="6.4838847332"><ele>2458.23</ele><time>2019-08-18T12:44:03Z</time></trkpt><trkpt lat="45.0858317781" lon="6.4837907720"><ele>2458.23</ele><time>2019-08-18T12:44:18Z</time></trkpt><trkpt lat="45.0859109871" lon="6.4836762752"><ele>2458.23</ele><time>2019-08-18T12:44:32Z</time></trkpt><trkpt lat="45.0859408267" lon="6.4835724235"><ele>2459.67</ele><time>2019-08-18T12:44:40Z</time></trkpt><trkpt lat="45.0860309321" lon="6.4833818190"><ele>2460.15</ele><time>2019-08-18T12:44:55Z</time></trkpt><trkpt lat="45.0861644559" lon="6.4831943996"><ele>2459.67</ele><time>2019-08-18T12:45:13Z</time></trkpt><trkpt lat="45.0861783698" lon="6.4831767976"><ele>2459.67</ele><time>2019-08-18T12:45:15Z</time></trkpt><trkpt lat="45.0862422399" lon="6.4831203036"><ele>2459.67</ele><time>2019-08-18T12:45:22Z</time></trkpt><trkpt lat="45.0862678885" lon="6.4830660727"><ele>2459.67</ele><time>2019-08-18T12:45:26Z</time></trkpt><trkpt lat="45.0863015838" lon="6.4829347283"><ele>2460.15</ele><time>2019-08-18T12:45:38Z</time></trkpt><trkpt lat="45.0863646995" lon="6.4827431180"><ele>2461.11</ele><time>2019-08-18T12:45:52Z</time></trkpt><trkpt lat="45.0864470936" lon="6.4825474005"><ele>2462.07</ele><time>2019-08-18T12:46:08Z</time></trkpt><trkpt lat="45.0864440762" lon="6.4825333189"><ele>2462.07</ele><time>2019-08-18T12:46:22Z</time></trkpt><trkpt lat="45.0865030009" lon="6.4824394416"><ele>2462.07</ele><time>2019-08-18T12:46:44Z</time></trkpt><trkpt lat="45.0865641888" lon="6.4823456481"><ele>2462.55</ele><time>2019-08-18T12:46:53Z</time></trkpt><trkpt lat="45.0865899213" lon="6.4822977874"><ele>2462.55</ele><time>2019-08-18T12:46:57Z</time></trkpt><trkpt lat="45.0866265502" lon="6.4822653495"><ele>2462.55</ele><time>2019-08-18T12:47:01Z</time></trkpt><trkpt lat="45.0866412185" lon="6.4822234400"><ele>2462.55</ele><time>2019-08-18T12:47:04Z</time></trkpt><trkpt lat="45.0867272168" lon="6.4821192529"><ele>2462.55</ele><time>2019-08-18T12:47:14Z</time></trkpt><trkpt lat="45.0867641810" lon="6.4820211846"><ele>2461.11</ele><time>2019-08-18T12:47:31Z</time></trkpt><trkpt lat="45.0867541227" lon="6.4820566401"><ele>2461.11</ele><time>2019-08-18T12:47:54Z</time></trkpt><trkpt lat="45.0867442321" lon="6.4820606634"><ele>2461.11</ele><time>2019-08-18T12:48:01Z</time></trkpt><trkpt lat="45.0867677853" lon="6.4819961227"><ele>2461.11</ele><time>2019-08-18T12:48:07Z</time></trkpt><trkpt lat="45.0868877303" lon="6.4818258025"><ele>2461.11</ele><time>2019-08-18T12:48:22Z</time></trkpt><trkpt lat="45.0869165640" lon="6.4817954600"><ele>2461.11</ele><time>2019-08-18T12:48:25Z</time></trkpt><trkpt lat="45.0869346689" lon="6.4816619363"><ele>2461.11</ele><time>2019-08-18T12:48:35Z</time></trkpt><trkpt lat="45.0869805180" lon="6.4814448450"><ele>2459.19</ele><time>2019-08-18T12:48:52Z</time></trkpt><trkpt lat="45.0870287977" lon="6.4812960662"><ele>2458.23</ele><time>2019-08-18T12:49:06Z</time></trkpt><trkpt lat="45.0870667677" lon="6.4811365586"><ele>2456.79</ele><time>2019-08-18T12:49:20Z</time></trkpt><trkpt lat="45.0870473217" lon="6.4810594451"><ele>2455.34</ele><time>2019-08-18T12:49:34Z</time></trkpt><trkpt lat="45.0870434660" lon="6.4810544159"><ele>2454.86</ele><time>2019-08-18T12:49:57Z</time></trkpt><trkpt lat="45.0871119462" lon="6.4809641428"><ele>2454.38</ele><time>2019-08-18T12:50:09Z</time></trkpt><trkpt lat="45.0871107727" lon="6.4809115883"><ele>2454.38</ele><time>2019-08-18T12:50:13Z</time></trkpt><trkpt lat="45.0870816037" lon="6.4807644859"><ele>2453.90</ele><time>2019-08-18T12:50:26Z</time></trkpt><trkpt lat="45.0870509259" lon="6.4805550221"><ele>2453.42</ele><time>2019-08-18T12:50:41Z</time></trkpt><trkpt lat="45.0870415382" lon="6.4805279486"><ele>2453.42</ele><time>2019-08-18T12:50:43Z</time></trkpt><trkpt lat="45.0869915821" lon="6.4802326541"><ele>2453.42</ele><time>2019-08-18T12:51:00Z</time></trkpt><trkpt lat="45.0869775843" lon="6.4801684488"><ele>2454.86</ele><time>2019-08-18T12:51:06Z</time></trkpt><trkpt lat="45.0869645085" lon="6.4800999686"><ele>2454.86</ele><time>2019-08-18T12:51:28Z</time></trkpt><trkpt lat="45.0869778357" lon="6.4801262878"><ele>2454.86</ele><time>2019-08-18T12:51:50Z</time></trkpt><trkpt lat="45.0869615749" lon="6.4800082706"><ele>2454.86</ele><time>2019-08-18T12:52:13Z</time></trkpt><trkpt lat="45.0869602337" lon="6.4799293131"><ele>2454.86</ele><time>2019-08-18T12:52:18Z</time></trkpt><trkpt lat="45.0869605690" lon="6.4798205998"><ele>2455.34</ele><time>2019-08-18T12:52:25Z</time></trkpt><trkpt lat="45.0869640056" lon="6.4797008224"><ele>2455.34</ele><time>2019-08-18T12:52:41Z</time></trkpt><trkpt lat="45.0869821943" lon="6.4795442484"><ele>2455.34</ele><time>2019-08-18T12:52:54Z</time></trkpt><trkpt lat="45.0869771652" lon="6.4794534724"><ele>2455.34</ele><time>2019-08-18T12:53:00Z</time></trkpt><trkpt lat="45.0869691186" lon="6.4793896023"><ele>2455.34</ele><time>2019-08-18T12:53:05Z</time></trkpt><trkpt lat="45.0869324896" lon="6.4793000836"><ele>2455.82</ele><time>2019-08-18T12:53:18Z</time></trkpt><trkpt lat="45.0869101938" lon="6.4792598505"><ele>2455.82</ele><time>2019-08-18T12:53:41Z</time></trkpt><trkpt lat="45.0869102776" lon="6.4792905282"><ele>2455.82</ele><time>2019-08-18T12:54:03Z</time></trkpt><trkpt lat="45.0869241077" lon="6.4792802185"><ele>2455.82</ele><time>2019-08-18T12:54:15Z</time></trkpt><trkpt lat="45.0869086012" lon="6.4790219720"><ele>2456.31</ele><time>2019-08-18T12:54:32Z</time></trkpt><trkpt lat="45.0869062543" lon="6.4789796434"><ele>2454.86</ele><time>2019-08-18T12:54:35Z</time></trkpt><trkpt lat="45.0869055837" lon="6.4789529052"><ele>2456.31</ele><time>2019-08-18T12:54:37Z</time></trkpt><trkpt lat="45.0869039074" lon="6.4788368996"><ele>2457.27</ele><time>2019-08-18T12:54:47Z</time></trkpt><trkpt lat="45.0869289692" lon="6.4786355663"><ele>2445.73</ele><time>2019-08-18T12:55:02Z</time></trkpt><trkpt lat="45.0869281311" lon="6.4786169585"><ele>2460.15</ele><time>2019-08-18T12:55:03Z</time></trkpt><trkpt lat="45.0869243592" lon="6.4783991128"><ele>2457.75</ele><time>2019-08-18T12:55:17Z</time></trkpt><trkpt lat="45.0868938491" lon="6.4782173932"><ele>2459.19</ele><time>2019-08-18T12:55:29Z</time></trkpt><trkpt lat="45.0868900772" lon="6.4781994559"><ele>2459.19</ele><time>2019-08-18T12:55:30Z</time></trkpt><trkpt lat="45.0868656021" lon="6.4780096896"><ele>2459.67</ele><time>2019-08-18T12:55:43Z</time></trkpt><trkpt lat="45.0868513528" lon="6.4777533710"><ele>2460.15</ele><time>2019-08-18T12:56:00Z</time></trkpt><trkpt lat="45.0868273806" lon="6.4776035026"><ele>2460.63</ele><time>2019-08-18T12:56:10Z</time></trkpt><trkpt lat="45.0868265424" lon="6.4775672927"><ele>2460.63</ele><time>2019-08-18T12:56:12Z</time></trkpt><trkpt lat="45.0868260395" lon="6.4772842359"><ele>2461.59</ele><time>2019-08-18T12:56:29Z</time></trkpt><trkpt lat="45.0868136343" lon="6.4771592617"><ele>2461.59</ele><time>2019-08-18T12:56:37Z</time></trkpt><trkpt lat="45.0868050847" lon="6.4769808110"><ele>2463.04</ele><time>2019-08-18T12:56:50Z</time></trkpt><trkpt lat="45.0867801905" lon="6.4768374804"><ele>2464.96</ele><time>2019-08-18T12:57:03Z</time></trkpt><trkpt lat="45.0867621694" lon="6.4767933078"><ele>2464.96</ele><time>2019-08-18T12:57:07Z</time></trkpt><trkpt lat="45.0867506862" lon="6.4767643902"><ele>2464.96</ele><time>2019-08-18T12:57:10Z</time></trkpt><trkpt lat="45.0866728183" lon="6.4766584430"><ele>2466.88</ele><time>2019-08-18T12:57:22Z</time></trkpt><trkpt lat="45.0866643526" lon="6.4766468760"><ele>2467.36</ele><time>2019-08-18T12:57:24Z</time></trkpt><trkpt lat="45.0866142288" lon="6.4765365701"><ele>2468.80</ele><time>2019-08-18T12:57:34Z</time></trkpt><trkpt lat="45.0866059307" lon="6.4764715265"><ele>2469.28</ele><time>2019-08-18T12:57:39Z</time></trkpt><trkpt lat="45.0865982193" lon="6.4764203131"><ele>2469.76</ele><time>2019-08-18T12:57:43Z</time></trkpt><trkpt lat="45.0866033323" lon="6.4763965085"><ele>2469.76</ele><time>2019-08-18T12:57:45Z</time></trkpt><trkpt lat="45.0865966268" lon="6.4762473106"><ele>2470.73</ele><time>2019-08-18T12:57:57Z</time></trkpt><trkpt lat="45.0865299068" lon="6.4760580473"><ele>2471.21</ele><time>2019-08-18T12:58:12Z</time></trkpt><trkpt lat="45.0864558946" lon="6.4758551214"><ele>2472.65</ele><time>2019-08-18T12:58:27Z</time></trkpt><trkpt lat="45.0864147395" lon="6.4756792691"><ele>2473.13</ele><time>2019-08-18T12:58:40Z</time></trkpt><trkpt lat="45.0863864087" lon="6.4755570609"><ele>2474.09</ele><time>2019-08-18T12:58:49Z</time></trkpt><trkpt lat="45.0863714889" lon="6.4754779357"><ele>2474.57</ele><time>2019-08-18T12:58:55Z</time></trkpt><trkpt lat="45.0863761827" lon="6.4754208550"><ele>2475.53</ele><time>2019-08-18T12:59:09Z</time></trkpt><trkpt lat="45.0863572396" lon="6.4752871636"><ele>2476.01</ele><time>2019-08-18T12:59:23Z</time></trkpt><trkpt lat="45.0863592513" lon="6.4752025902"><ele>2476.01</ele><time>2019-08-18T12:59:42Z</time></trkpt><trkpt lat="45.0863485225" lon="6.4752191026"><ele>2475.53</ele><time>2019-08-18T13:00:01Z</time></trkpt><trkpt lat="45.0863427389" lon="6.4752272330"><ele>2475.53</ele><time>2019-08-18T13:00:26Z</time></trkpt><trkpt lat="45.0863776915" lon="6.4751559030"><ele>2475.53</ele><time>2019-08-18T13:00:49Z</time></trkpt><trkpt lat="45.0864534639" lon="6.4749741834"><ele>2473.61</ele><time>2019-08-18T13:01:07Z</time></trkpt><trkpt lat="45.0864569843" lon="6.4749609400"><ele>2473.61</ele><time>2019-08-18T13:01:08Z</time></trkpt><trkpt lat="45.0864975527" lon="6.4747413341"><ele>2472.17</ele><time>2019-08-18T13:01:25Z</time></trkpt><trkpt lat="45.0865216088" lon="6.4745075628"><ele>2471.21</ele><time>2019-08-18T13:01:42Z</time></trkpt><trkpt lat="45.0865377020" lon="6.4742768090"><ele>2472.65</ele><time>2019-08-18T13:01:56Z</time></trkpt><trkpt lat="45.0865620933" lon="6.4741460513"><ele>2474.09</ele><time>2019-08-18T13:02:08Z</time></trkpt><trkpt lat="45.0865419768" lon="6.4741608035"><ele>2474.57</ele><time>2019-08-18T13:02:27Z</time></trkpt><trkpt lat="45.0865320861" lon="6.4741592109"><ele>2462.55</ele><time>2019-08-18T13:02:51Z</time></trkpt><trkpt lat="45.0865386240" lon="6.4741516672"><ele>2479.86</ele><time>2019-08-18T13:02:52Z</time></trkpt><trkpt lat="45.0865469221" lon="6.4741500746"><ele>2475.05</ele><time>2019-08-18T13:02:53Z</time></trkpt><trkpt lat="45.0865592435" lon="6.4741363283"><ele>2474.09</ele><time>2019-08-18T13:02:55Z</time></trkpt><trkpt lat="45.0865772646" lon="6.4741260186"><ele>2474.09</ele><time>2019-08-18T13:02:57Z</time></trkpt><trkpt lat="45.0866840500" lon="6.4740146231"><ele>2474.09</ele><time>2019-08-18T13:03:11Z</time></trkpt><trkpt lat="45.0867742393" lon="6.4739087597"><ele>2476.01</ele><time>2019-08-18T13:03:22Z</time></trkpt><trkpt lat="45.0868631713" lon="6.4737293869"><ele>2477.45</ele><time>2019-08-18T13:03:36Z</time></trkpt><trkpt lat="45.0869074278" lon="6.4735751599"><ele>2479.86</ele><time>2019-08-18T13:03:47Z</time></trkpt><trkpt lat="45.0869434699" lon="6.4733654447"><ele>2481.78</ele><time>2019-08-18T13:04:01Z</time></trkpt><trkpt lat="45.0869841222" lon="6.4731481858"><ele>2481.78</ele><time>2019-08-18T13:04:14Z</time></trkpt><trkpt lat="45.0869631674" lon="6.4730400592"><ele>2481.78</ele><time>2019-08-18T13:04:22Z</time></trkpt><trkpt lat="45.0869516842" lon="6.4728454314"><ele>2480.82</ele><time>2019-08-18T13:04:38Z</time></trkpt><trkpt lat="45.0869523548" lon="6.4725896157"><ele>2480.34</ele><time>2019-08-18T13:04:55Z</time></trkpt><trkpt lat="45.0869531929" lon="6.4724793099"><ele>2479.86</ele><time>2019-08-18T13:05:06Z</time></trkpt><trkpt lat="45.0869113673" lon="6.4723357279"><ele>2479.38</ele><time>2019-08-18T13:05:17Z</time></trkpt><trkpt lat="45.0868141372" lon="6.4721397590"><ele>2477.45</ele><time>2019-08-18T13:05:32Z</time></trkpt><trkpt lat="45.0867467467" lon="6.4719781559"><ele>2476.01</ele><time>2019-08-18T13:05:45Z</time></trkpt><trkpt lat="45.0866538752" lon="6.4718546905"><ele>2477.45</ele><time>2019-08-18T13:05:57Z</time></trkpt><trkpt lat="45.0866250414" lon="6.4718142059"><ele>2478.42</ele><time>2019-08-18T13:06:01Z</time></trkpt><trkpt lat="45.0866063498" lon="6.4717853721"><ele>2479.38</ele><time>2019-08-18T13:06:04Z</time></trkpt><trkpt lat="45.0865509454" lon="6.4716847055"><ele>2478.42</ele><time>2019-08-18T13:06:16Z</time></trkpt><trkpt lat="45.0865123048" lon="6.4716495853"><ele>2479.38</ele><time>2019-08-18T13:06:20Z</time></trkpt><trkpt lat="45.0864452496" lon="6.4715851285"><ele>2479.86</ele><time>2019-08-18T13:06:27Z</time></trkpt><trkpt lat="45.0863400567" lon="6.4714878984"><ele>2479.86</ele><time>2019-08-18T13:06:40Z</time></trkpt><trkpt lat="45.0862574112" lon="6.4714386128"><ele>2480.34</ele><time>2019-08-18T13:06:53Z</time></trkpt><trkpt lat="45.0862566568" lon="6.4714345057"><ele>2471.69</ele><time>2019-08-18T13:06:57Z</time></trkpt><trkpt lat="45.0862504542" lon="6.4714294765"><ele>2485.63</ele><time>2019-08-18T13:06:58Z</time></trkpt><trkpt lat="45.0862449221" lon="6.4714228548"><ele>2481.78</ele><time>2019-08-18T13:06:59Z</time></trkpt><trkpt lat="45.0862289127" lon="6.4714080188"><ele>2479.86</ele><time>2019-08-18T13:07:02Z</time></trkpt><trkpt lat="45.0861417409" lon="6.4713882376"><ele>2483.22</ele><time>2019-08-18T13:07:12Z</time></trkpt><trkpt lat="45.0860605203" lon="6.4713773411"><ele>2484.66</ele><time>2019-08-18T13:07:23Z</time></trkpt><trkpt lat="45.0859722588" lon="6.4713678695"><ele>2485.63</ele><time>2019-08-18T13:07:36Z</time></trkpt><trkpt lat="45.0859063771" lon="6.4713713061"><ele>2488.51</ele><time>2019-08-18T13:07:49Z</time></trkpt><trkpt lat="45.0858520623" lon="6.4713471662"><ele>2490.43</ele><time>2019-08-18T13:08:01Z</time></trkpt><trkpt lat="45.0858404115" lon="6.4713236131"><ele>2490.43</ele><time>2019-08-18T13:08:06Z</time></trkpt><trkpt lat="45.0858128350" lon="6.4713020716"><ele>2490.43</ele><time>2019-08-18T13:08:22Z</time></trkpt><trkpt lat="45.0858210493" lon="6.4713262115"><ele>2490.91</ele><time>2019-08-18T13:08:39Z</time></trkpt><trkpt lat="45.0858284254" lon="6.4713317435"><ele>2496.20</ele><time>2019-08-18T13:08:52Z</time></trkpt><trkpt lat="45.0858316105" lon="6.4713345096"><ele>2493.32</ele><time>2019-08-18T13:08:53Z</time></trkpt><trkpt lat="45.0858419202" lon="6.4713497646"><ele>2490.91</ele><time>2019-08-18T13:08:56Z</time></trkpt><trkpt lat="45.0858486257" lon="6.4713453222"><ele>2487.07</ele><time>2019-08-18T13:08:59Z</time></trkpt><trkpt lat="45.0858566724" lon="6.4713412989"><ele>2492.84</ele><time>2019-08-18T13:09:00Z</time></trkpt><trkpt lat="45.0858490448" lon="6.4713299833"><ele>2488.03</ele><time>2019-08-18T13:09:10Z</time></trkpt><trkpt lat="45.0858505536" lon="6.4713365212"><ele>2491.39</ele><time>2019-08-18T13:09:12Z</time></trkpt><trkpt lat="45.0858515594" lon="6.4713395387"><ele>2491.39</ele><time>2019-08-18T13:09:13Z</time></trkpt><trkpt lat="45.0858491287" lon="6.4713506028"><ele>2480.82</ele><time>2019-08-18T13:09:22Z</time></trkpt><trkpt lat="45.0858502183" lon="6.4713539556"><ele>2488.51</ele><time>2019-08-18T13:09:23Z</time></trkpt><trkpt lat="45.0858575106" lon="6.4713451546"><ele>2491.87</ele><time>2019-08-18T13:09:24Z</time></trkpt><trkpt lat="45.0858630426" lon="6.4713422209"><ele>2491.87</ele><time>2019-08-18T13:09:25Z</time></trkpt><trkpt lat="45.0858804770" lon="6.4713672828"><ele>2489.95</ele><time>2019-08-18T13:09:27Z</time></trkpt><trkpt lat="45.0858847518" lon="6.4713775087"><ele>2493.80</ele><time>2019-08-18T13:09:28Z</time></trkpt><trkpt lat="45.0859033596" lon="6.4713728987"><ele>2490.43</ele><time>2019-08-18T13:09:31Z</time></trkpt><trkpt lat="45.0859209616" lon="6.4713686239"><ele>2488.99</ele><time>2019-08-18T13:09:36Z</time></trkpt><trkpt lat="45.0859859213" lon="6.4713667799"><ele>2486.11</ele><time>2019-08-18T13:09:47Z</time></trkpt><trkpt lat="45.0860253163" lon="6.4713594876"><ele>2484.66</ele><time>2019-08-18T13:09:49Z</time></trkpt><trkpt lat="45.0860416610" lon="6.4713718928"><ele>2486.11</ele><time>2019-08-18T13:09:50Z</time></trkpt><trkpt lat="45.0860549044" lon="6.4713784307"><ele>2486.11</ele><time>2019-08-18T13:09:51Z</time></trkpt><trkpt lat="45.0860941317" lon="6.4713792689"><ele>2486.11</ele><time>2019-08-18T13:09:57Z</time></trkpt><trkpt lat="45.0861096382" lon="6.4713823702"><ele>2486.11</ele><time>2019-08-18T13:09:58Z</time></trkpt><trkpt lat="45.0861196965" lon="6.4713881537"><ele>2484.18</ele><time>2019-08-18T13:09:59Z</time></trkpt><trkpt lat="45.0861344486" lon="6.4713976253"><ele>2485.63</ele><time>2019-08-18T13:10:00Z</time></trkpt><trkpt lat="45.0861472730" lon="6.4713975415"><ele>2482.26</ele><time>2019-08-18T13:10:03Z</time></trkpt><trkpt lat="45.0861536432" lon="6.4713896625"><ele>2483.22</ele><time>2019-08-18T13:10:04Z</time></trkpt><trkpt lat="45.0861678086" lon="6.4713926800"><ele>2482.26</ele><time>2019-08-18T13:10:05Z</time></trkpt><trkpt lat="45.0862624403" lon="6.4714382775"><ele>2481.30</ele><time>2019-08-18T13:10:14Z</time></trkpt><trkpt lat="45.0862875860" lon="6.4714377746"><ele>2479.38</ele><time>2019-08-18T13:10:22Z</time></trkpt><trkpt lat="45.0864894222" lon="6.4716330729"><ele>2477.45</ele><time>2019-08-18T13:10:32Z</time></trkpt><trkpt lat="45.0865206867" lon="6.4717132039"><ele>2476.97</ele><time>2019-08-18T13:10:41Z</time></trkpt><trkpt lat="45.0865537953" lon="6.4717643335"><ele>2475.53</ele><time>2019-08-18T13:10:47Z</time></trkpt><trkpt lat="45.0865634345" lon="6.4717853721"><ele>2475.53</ele><time>2019-08-18T13:10:48Z</time></trkpt><trkpt lat="45.0865720678" lon="6.4718090091"><ele>2475.05</ele><time>2019-08-18T13:10:52Z</time></trkpt><trkpt lat="45.0865807012" lon="6.4718278684"><ele>2475.05</ele><time>2019-08-18T13:10:53Z</time></trkpt><trkpt lat="45.0865955371" lon="6.4718521759"><ele>2475.05</ele><time>2019-08-18T13:11:06Z</time></trkpt><trkpt lat="45.0866211019" lon="6.4718501642"><ele>2475.05</ele><time>2019-08-18T13:11:10Z</time></trkpt><trkpt lat="45.0866321661" lon="6.4718456380"><ele>2474.09</ele><time>2019-08-18T13:11:11Z</time></trkpt><trkpt lat="45.0866476726" lon="6.4718435425"><ele>2473.61</ele><time>2019-08-18T13:11:13Z</time></trkpt><trkpt lat="45.0866628438" lon="6.4718288742"><ele>2475.05</ele><time>2019-08-18T13:11:16Z</time></trkpt><trkpt lat="45.0866903365" lon="6.4717922453"><ele>2476.97</ele><time>2019-08-18T13:11:27Z</time></trkpt><trkpt lat="45.0867284741" lon="6.4717582148"><ele>2477.45</ele><time>2019-08-18T13:11:36Z</time></trkpt><trkpt lat="45.0867675338" lon="6.4717638306"><ele>2476.01</ele><time>2019-08-18T13:11:50Z</time></trkpt><trkpt lat="45.0867784303" lon="6.4717830252"><ele>2478.90</ele><time>2019-08-18T13:11:53Z</time></trkpt><trkpt lat="45.0867863931" lon="6.4717885572"><ele>2467.84</ele><time>2019-08-18T13:11:58Z</time></trkpt><trkpt lat="45.0867895782" lon="6.4717872161"><ele>2482.26</ele><time>2019-08-18T13:11:59Z</time></trkpt><trkpt lat="45.0867910869" lon="6.4717870485"><ele>2479.86</ele><time>2019-08-18T13:12:00Z</time></trkpt><trkpt lat="45.0867974572" lon="6.4717762358"><ele>2478.90</ele><time>2019-08-18T13:12:02Z</time></trkpt><trkpt lat="45.0868071802" lon="6.4717762358"><ele>2476.97</ele><time>2019-08-18T13:12:04Z</time></trkpt><trkpt lat="45.0868080184" lon="6.4717746433"><ele>2480.34</ele><time>2019-08-18T13:12:05Z</time></trkpt><trkpt lat="45.0868090242" lon="6.4717724640"><ele>2480.82</ele><time>2019-08-18T13:12:06Z</time></trkpt><trkpt lat="45.0868154783" lon="6.4717673510"><ele>2477.94</ele><time>2019-08-18T13:12:11Z</time></trkpt><trkpt lat="45.0868253689" lon="6.4717583824"><ele>2481.30</ele><time>2019-08-18T13:12:13Z</time></trkpt><trkpt lat="45.0868304819" lon="6.4717530180"><ele>2481.30</ele><time>2019-08-18T13:12:14Z</time></trkpt><trkpt lat="45.0868375227" lon="6.4717583824"><ele>2479.86</ele><time>2019-08-18T13:12:16Z</time></trkpt><trkpt lat="45.0868557114" lon="6.4717564546"><ele>2479.86</ele><time>2019-08-18T13:12:21Z</time></trkpt><trkpt lat="45.0868909992" lon="6.4717343263"><ele>2482.74</ele><time>2019-08-18T13:12:29Z</time></trkpt><trkpt lat="45.0869288016" lon="6.4716952667"><ele>2484.18</ele><time>2019-08-18T13:12:42Z</time></trkpt><trkpt lat="45.0869394466" lon="6.4716714621"><ele>2485.63</ele><time>2019-08-18T13:12:54Z</time></trkpt><trkpt lat="45.0869468227" lon="6.4716746472"><ele>2478.90</ele><time>2019-08-18T13:13:00Z</time></trkpt><trkpt lat="45.0869503431" lon="6.4716730546"><ele>2482.26</ele><time>2019-08-18T13:13:01Z</time></trkpt><trkpt lat="45.0869536959" lon="6.4716675226"><ele>2489.47</ele><time>2019-08-18T13:13:03Z</time></trkpt><trkpt lat="45.0869575515" lon="6.4716666844"><ele>2489.47</ele><time>2019-08-18T13:13:04Z</time></trkpt><trkpt lat="45.0869696215" lon="6.4716672711"><ele>2487.07</ele><time>2019-08-18T13:13:06Z</time></trkpt><trkpt lat="45.0869556237" lon="6.4716564585"><ele>2486.11</ele><time>2019-08-18T13:13:11Z</time></trkpt><trkpt lat="45.0869742315" lon="6.4716396108"><ele>2488.03</ele><time>2019-08-18T13:13:15Z</time></trkpt><trkpt lat="45.0869935937" lon="6.4716194104"><ele>2489.95</ele><time>2019-08-18T13:13:20Z</time></trkpt><trkpt lat="45.0869988743" lon="6.4716173988"><ele>2488.51</ele><time>2019-08-18T13:13:22Z</time></trkpt><trkpt lat="45.0870080944" lon="6.4716194943"><ele>2488.51</ele><time>2019-08-18T13:13:33Z</time></trkpt><trkpt lat="45.0869898219" lon="6.4716140460"><ele>2489.95</ele><time>2019-08-18T13:13:43Z</time></trkpt><trkpt lat="45.0869975332" lon="6.4716251940"><ele>2485.15</ele><time>2019-08-18T13:13:55Z</time></trkpt><trkpt lat="45.0870003831" lon="6.4716238528"><ele>2491.39</ele><time>2019-08-18T13:13:56Z</time></trkpt><trkpt lat="45.0870006345" lon="6.4716338273"><ele>2491.39</ele><time>2019-08-18T13:14:00Z</time></trkpt><trkpt lat="45.0870026462" lon="6.4716161415"><ele>2487.55</ele><time>2019-08-18T13:14:03Z</time></trkpt><trkpt lat="45.0870044064" lon="6.4716199972"><ele>2489.47</ele><time>2019-08-18T13:14:04Z</time></trkpt><trkpt lat="45.0870096032" lon="6.4716286305"><ele>2492.36</ele><time>2019-08-18T13:14:10Z</time></trkpt><trkpt lat="45.0870125368" lon="6.4716256130"><ele>2489.47</ele><time>2019-08-18T13:14:13Z</time></trkpt><trkpt lat="45.0870049093" lon="6.4716412872"><ele>2493.80</ele><time>2019-08-18T13:14:20Z</time></trkpt><trkpt lat="45.0870065019" lon="6.4716447238"><ele>2486.11</ele><time>2019-08-18T13:14:21Z</time></trkpt><trkpt lat="45.0870085973" lon="6.4716483280"><ele>2490.91</ele><time>2019-08-18T13:14:22Z</time></trkpt><trkpt lat="45.0870180689" lon="6.4716603141"><ele>2489.95</ele><time>2019-08-18T13:14:27Z</time></trkpt><trkpt lat="45.0870684441" lon="6.4716775808"><ele>2490.91</ele><time>2019-08-18T13:14:39Z</time></trkpt><trkpt lat="45.0870951824" lon="6.4717079233"><ele>2492.84</ele><time>2019-08-18T13:14:58Z</time></trkpt><trkpt lat="45.0871219207" lon="6.4716840349"><ele>2493.80</ele><time>2019-08-18T13:15:11Z</time></trkpt><trkpt lat="45.0870967750" lon="6.4716386888"><ele>2494.76</ele><time>2019-08-18T13:15:28Z</time></trkpt><trkpt lat="45.0870868005" lon="6.4716817718"><ele>2494.28</ele><time>2019-08-18T13:15:39Z</time></trkpt><trkpt lat="45.0870940089" lon="6.4716861304"><ele>2495.72</ele><time>2019-08-18T13:15:43Z</time></trkpt><trkpt lat="45.0870747305" lon="6.4715990424"><ele>2493.80</ele><time>2019-08-18T13:15:56Z</time></trkpt><trkpt lat="45.0870686118" lon="6.4716273732"><ele>2492.36</ele><time>2019-08-18T13:16:02Z</time></trkpt><trkpt lat="45.0870707072" lon="6.4716538601"><ele>2490.91</ele><time>2019-08-18T13:16:08Z</time></trkpt><trkpt lat="45.0870085973" lon="6.4716978651"><ele>2494.28</ele><time>2019-08-18T13:16:23Z</time></trkpt><trkpt lat="45.0870010536" lon="6.4717131201"><ele>2493.80</ele><time>2019-08-18T13:16:25Z</time></trkpt><trkpt lat="45.0870098546" lon="6.4717186522"><ele>2490.91</ele><time>2019-08-18T13:16:29Z</time></trkpt><trkpt lat="45.0870174821" lon="6.4717195742"><ele>2490.91</ele><time>2019-08-18T13:16:30Z</time></trkpt><trkpt lat="45.0870391075" lon="6.4717327338"><ele>2492.36</ele><time>2019-08-18T13:16:33Z</time></trkpt><trkpt lat="45.0870301388" lon="6.4716908243"><ele>2489.47</ele><time>2019-08-18T13:16:50Z</time></trkpt><trkpt lat="45.0870065857" lon="6.4717401937"><ele>2488.51</ele><time>2019-08-18T13:17:07Z</time></trkpt><trkpt lat="45.0870059989" lon="6.4717389364"><ele>2490.43</ele><time>2019-08-18T13:17:10Z</time></trkpt><trkpt lat="45.0870178174" lon="6.4717815164"><ele>2491.87</ele><time>2019-08-18T13:17:31Z</time></trkpt><trkpt lat="45.0870232657" lon="6.4717884734"><ele>2491.87</ele><time>2019-08-18T13:17:32Z</time></trkpt><trkpt lat="45.0870692823" lon="6.4717349969"><ele>2492.84</ele><time>2019-08-18T13:17:51Z</time></trkpt><trkpt lat="45.0870806817" lon="6.4716535248"><ele>2491.87</ele><time>2019-08-18T13:17:54Z</time></trkpt><trkpt lat="45.0870986190" lon="6.4716156386"><ele>2490.43</ele><time>2019-08-18T13:17:58Z</time></trkpt><trkpt lat="45.0869643409" lon="6.4715772495"><ele>2488.99</ele><time>2019-08-18T13:18:18Z</time></trkpt><trkpt lat="45.0869963598" lon="6.4716502558"><ele>2488.03</ele><time>2019-08-18T13:18:39Z</time></trkpt><trkpt lat="45.0870319828" lon="6.4716505911"><ele>2489.47</ele><time>2019-08-18T13:18:50Z</time></trkpt><trkpt lat="45.0870088488" lon="6.4716475736"><ele>2489.95</ele><time>2019-08-18T13:18:59Z</time></trkpt><trkpt lat="45.0870064180" lon="6.4716892317"><ele>2487.07</ele><time>2019-08-18T13:19:10Z</time></trkpt><trkpt lat="45.0869633351" lon="6.4716987032"><ele>2487.07</ele><time>2019-08-18T13:19:19Z</time></trkpt><trkpt lat="45.0870059989" lon="6.4715907443"><ele>2488.03</ele><time>2019-08-18T13:19:36Z</time></trkpt><trkpt lat="45.0870185718" lon="6.4715754893"><ele>2486.11</ele><time>2019-08-18T13:19:54Z</time></trkpt><trkpt lat="45.0870167278" lon="6.4715721365"><ele>2488.03</ele><time>2019-08-18T13:19:56Z</time></trkpt><trkpt lat="45.0869352557" lon="6.4716296364"><ele>2488.03</ele><time>2019-08-18T13:20:12Z</time></trkpt><trkpt lat="45.0868666917" lon="6.4717894793"><ele>2489.95</ele><time>2019-08-18T13:20:33Z</time></trkpt><trkpt lat="45.0867923442" lon="6.4718841109"><ele>2488.51</ele><time>2019-08-18T13:20:45Z</time></trkpt><trkpt lat="45.0869377702" lon="6.4716645889"><ele>2488.99</ele><time>2019-08-18T13:21:02Z</time></trkpt><trkpt lat="45.0868937653" lon="6.4717657585"><ele>2490.43</ele><time>2019-08-18T13:21:09Z</time></trkpt><trkpt lat="45.0868754089" lon="6.4717401937"><ele>2488.99</ele><time>2019-08-18T13:21:17Z</time></trkpt><trkpt lat="45.0869990420" lon="6.4716007188"><ele>2487.55</ele><time>2019-08-18T13:21:34Z</time></trkpt><trkpt lat="45.0869744830" lon="6.4715946000"><ele>2488.99</ele><time>2019-08-18T13:21:45Z</time></trkpt><trkpt lat="45.0868341699" lon="6.4713589847"><ele>2488.51</ele><time>2019-08-18T13:22:05Z</time></trkpt><trkpt lat="45.0867267977" lon="6.4712931029"><ele>2489.95</ele><time>2019-08-18T13:22:17Z</time></trkpt><trkpt lat="45.0865154061" lon="6.4712247066"><ele>2488.51</ele><time>2019-08-18T13:22:36Z</time></trkpt><trkpt lat="45.0865035038" lon="6.4712202642"><ele>2488.51</ele><time>2019-08-18T13:22:37Z</time></trkpt><trkpt lat="45.0864928588" lon="6.4712138940"><ele>2488.51</ele><time>2019-08-18T13:22:38Z</time></trkpt><trkpt lat="45.0864796154" lon="6.4712066017"><ele>2488.51</ele><time>2019-08-18T13:22:39Z</time></trkpt><trkpt lat="45.0864666235" lon="6.4711992256"><ele>2488.51</ele><time>2019-08-18T13:22:40Z</time></trkpt><trkpt lat="45.0864558946" lon="6.4711931907"><ele>2488.51</ele><time>2019-08-18T13:22:41Z</time></trkpt><trkpt lat="45.0863807928" lon="6.4712171629"><ele>2485.15</ele><time>2019-08-18T13:22:54Z</time></trkpt><trkpt lat="45.0863329321" lon="6.4712927677"><ele>2486.11</ele><time>2019-08-18T13:23:04Z</time></trkpt><trkpt lat="45.0863030087" lon="6.4713739883"><ele>2484.66</ele><time>2019-08-18T13:23:10Z</time></trkpt><trkpt lat="45.0862869993" lon="6.4714000560"><ele>2483.22</ele><time>2019-08-18T13:23:13Z</time></trkpt><trkpt lat="45.0861106440" lon="6.4714542031"><ele>2483.70</ele><time>2019-08-18T13:23:24Z</time></trkpt><trkpt lat="45.0860387273" lon="6.4713717252"><ele>2486.11</ele><time>2019-08-18T13:23:35Z</time></trkpt><trkpt lat="45.0858875178" lon="6.4712788537"><ele>2487.55</ele><time>2019-08-18T13:23:52Z</time></trkpt><trkpt lat="45.0858390704" lon="6.4713078551"><ele>2490.91</ele><time>2019-08-18T13:23:57Z</time></trkpt><trkpt lat="45.0858599413" lon="6.4714329969"><ele>2490.43</ele><time>2019-08-18T13:24:07Z</time></trkpt><trkpt lat="45.0858545769" lon="6.4714324102"><ele>2491.39</ele><time>2019-08-18T13:24:22Z</time></trkpt><trkpt lat="45.0858487096" lon="6.4714298118"><ele>2493.32</ele><time>2019-08-18T13:24:27Z</time></trkpt><trkpt lat="45.0858482905" lon="6.4714307338"><ele>2495.24</ele><time>2019-08-18T13:24:31Z</time></trkpt><trkpt lat="45.0858513080" lon="6.4714344218"><ele>2491.39</ele><time>2019-08-18T13:24:33Z</time></trkpt><trkpt lat="45.0858554989" lon="6.4714366011"><ele>2491.39</ele><time>2019-08-18T13:24:34Z</time></trkpt><trkpt lat="45.0858386513" lon="6.4714402892"><ele>2486.59</ele><time>2019-08-18T13:25:04Z</time></trkpt><trkpt lat="45.0858385675" lon="6.4714390319"><ele>2491.39</ele><time>2019-08-18T13:25:05Z</time></trkpt><trkpt lat="45.0858407468" lon="6.4714405406"><ele>2491.39</ele><time>2019-08-18T13:25:06Z</time></trkpt><trkpt lat="45.0858450215" lon="6.4714468271"><ele>2489.95</ele><time>2019-08-18T13:25:08Z</time></trkpt><trkpt lat="45.0858599413" lon="6.4714557119"><ele>2488.51</ele><time>2019-08-18T13:25:30Z</time></trkpt><trkpt lat="45.0858664792" lon="6.4714343380"><ele>2488.51</ele><time>2019-08-18T13:25:55Z</time></trkpt><trkpt lat="45.0858817343" lon="6.4714429714"><ele>2488.03</ele><time>2019-08-18T13:26:13Z</time></trkpt><trkpt lat="45.0858782977" lon="6.4714340866"><ele>2488.03</ele><time>2019-08-18T13:26:28Z</time></trkpt><trkpt lat="45.0858779624" lon="6.4714252017"><ele>2488.03</ele><time>2019-08-18T13:26:57Z</time></trkpt><trkpt lat="45.0858778786" lon="6.4714400377"><ele>2487.55</ele><time>2019-08-18T13:27:18Z</time></trkpt><trkpt lat="45.0858684909" lon="6.4714349248"><ele>2488.99</ele><time>2019-08-18T13:27:39Z</time></trkpt><trkpt lat="45.0858504698" lon="6.4714604896"><ele>2488.99</ele><time>2019-08-18T13:28:10Z</time></trkpt><trkpt lat="45.0858562533" lon="6.4714644291"><ele>2488.03</ele><time>2019-08-18T13:28:35Z</time></trkpt><trkpt lat="45.0858516432" lon="6.4714593161"><ele>2488.51</ele><time>2019-08-18T13:29:10Z</time></trkpt><trkpt lat="45.0858653057" lon="6.4714513533"><ele>2488.51</ele><time>2019-08-18T13:29:38Z</time></trkpt><trkpt lat="45.0858648028" lon="6.4714391995"><ele>2488.51</ele><time>2019-08-18T13:29:58Z</time></trkpt><trkpt lat="45.0858548284" lon="6.4714351762"><ele>2488.03</ele><time>2019-08-18T13:30:26Z</time></trkpt><trkpt lat="45.0858566724" lon="6.4714334160"><ele>2489.47</ele><time>2019-08-18T13:30:30Z</time></trkpt><trkpt lat="45.0858424231" lon="6.4714517724"><ele>2489.95</ele><time>2019-08-18T13:31:04Z</time></trkpt><trkpt lat="45.0858445186" lon="6.4714559633"><ele>2490.91</ele><time>2019-08-18T13:31:30Z</time></trkpt><trkpt lat="45.0858542416" lon="6.4714568015"><ele>2489.95</ele><time>2019-08-18T13:32:00Z</time></trkpt><trkpt lat="45.0858569238" lon="6.4714581426"><ele>2491.87</ele><time>2019-08-18T13:32:29Z</time></trkpt><trkpt lat="45.0858772919" lon="6.4714428876"><ele>2492.36</ele><time>2019-08-18T13:32:45Z</time></trkpt><trkpt lat="45.0858776271" lon="6.4714475814"><ele>2490.91</ele><time>2019-08-18T13:32:48Z</time></trkpt><trkpt lat="45.0858746096" lon="6.4714390319"><ele>2492.84</ele><time>2019-08-18T13:33:22Z</time></trkpt><trkpt lat="45.0858584326" lon="6.4714366011"><ele>2489.95</ele><time>2019-08-18T13:33:45Z</time></trkpt><trkpt lat="45.0858593546" lon="6.4714407921"><ele>2491.39</ele><time>2019-08-18T13:33:50Z</time></trkpt><trkpt lat="45.0858617853" lon="6.4714527782"><ele>2490.43</ele><time>2019-08-18T13:34:11Z</time></trkpt><trkpt lat="45.0858493801" lon="6.4714639261"><ele>2489.95</ele><time>2019-08-18T13:34:38Z</time></trkpt><trkpt lat="45.0858482067" lon="6.4714589808"><ele>2491.87</ele><time>2019-08-18T13:34:46Z</time></trkpt><trkpt lat="45.0858469494" lon="6.4714548737"><ele>2490.43</ele><time>2019-08-18T13:34:56Z</time></trkpt><trkpt lat="45.0858509727" lon="6.4714540355"><ele>2489.47</ele><time>2019-08-18T13:35:21Z</time></trkpt><trkpt lat="45.0858631264" lon="6.4714565501"><ele>2490.91</ele><time>2019-08-18T13:35:31Z</time></trkpt><trkpt lat="45.0858600251" lon="6.4714552090"><ele>2489.47</ele><time>2019-08-18T13:35:56Z</time></trkpt><trkpt lat="45.0858613662" lon="6.4714573044"><ele>2490.43</ele><time>2019-08-18T13:36:10Z</time></trkpt><trkpt lat="45.0858597737" lon="6.4714498445"><ele>2490.91</ele><time>2019-08-18T13:36:27Z</time></trkpt><trkpt lat="45.0858584326" lon="6.4714656863"><ele>2489.95</ele><time>2019-08-18T13:36:56Z</time></trkpt><trkpt lat="45.0858726818" lon="6.4714480843"><ele>2491.39</ele><time>2019-08-18T13:37:28Z</time></trkpt><trkpt lat="45.0858717598" lon="6.4714517724"><ele>2491.39</ele><time>2019-08-18T13:37:29Z</time></trkpt><trkpt lat="45.0858653057" lon="6.4714574721"><ele>2490.43</ele><time>2019-08-18T13:37:39Z</time></trkpt><trkpt lat="45.0858679041" lon="6.4714514371"><ele>2489.95</ele><time>2019-08-18T13:38:09Z</time></trkpt><trkpt lat="45.0858813152" lon="6.4714545384"><ele>2489.47</ele><time>2019-08-18T13:38:43Z</time></trkpt><trkpt lat="45.0858674850" lon="6.4714536164"><ele>2489.47</ele><time>2019-08-18T13:39:19Z</time></trkpt><trkpt lat="45.0858777948" lon="6.4714431390"><ele>2489.47</ele><time>2019-08-18T13:39:47Z</time></trkpt><trkpt lat="45.0858692452" lon="6.4714595675"><ele>2488.51</ele><time>2019-08-18T13:40:18Z</time></trkpt><trkpt lat="45.0858652219" lon="6.4714212622"><ele>2483.70</ele><time>2019-08-18T13:40:42Z</time></trkpt><trkpt lat="45.0858640485" lon="6.4714269619"><ele>2489.47</ele><time>2019-08-18T13:40:43Z</time></trkpt><trkpt lat="45.0858626235" lon="6.4714288060"><ele>2494.76</ele><time>2019-08-18T13:40:44Z</time></trkpt><trkpt lat="45.0858621206" lon="6.4714293927"><ele>2490.91</ele><time>2019-08-18T13:40:45Z</time></trkpt><trkpt lat="45.0858639646" lon="6.4714268781"><ele>2475.53</ele><time>2019-08-18T13:40:46Z</time></trkpt><trkpt lat="45.0858661439" lon="6.4714261238"><ele>2475.53</ele><time>2019-08-18T13:40:47Z</time></trkpt><trkpt lat="45.0858651381" lon="6.4714330807"><ele>2507.74</ele><time>2019-08-18T13:40:48Z</time></trkpt><trkpt lat="45.0858627073" lon="6.4714353438"><ele>2496.20</ele><time>2019-08-18T13:40:49Z</time></trkpt><trkpt lat="45.0858632103" lon="6.4714335836"><ele>2490.43</ele><time>2019-08-18T13:40:50Z</time></trkpt><trkpt lat="45.0858634617" lon="6.4714319911"><ele>2488.99</ele><time>2019-08-18T13:40:52Z</time></trkpt><trkpt lat="45.0858575106" lon="6.4714588970"><ele>2490.43</ele><time>2019-08-18T13:41:08Z</time></trkpt><trkpt lat="45.0858562533" lon="6.4714568853"><ele>2491.39</ele><time>2019-08-18T13:41:16Z</time></trkpt><trkpt lat="45.0858549122" lon="6.4714559633"><ele>2489.95</ele><time>2019-08-18T13:41:18Z</time></trkpt><trkpt lat="45.0858679041" lon="6.4714129642"><ele>2489.47</ele><time>2019-08-18T13:41:59Z</time></trkpt><trkpt lat="45.0858646352" lon="6.4714184124"><ele>2481.78</ele><time>2019-08-18T13:42:26Z</time></trkpt><trkpt lat="45.0858632103" lon="6.4714191668"><ele>2488.03</ele><time>2019-08-18T13:42:27Z</time></trkpt><trkpt lat="45.0858616177" lon="6.4714176580"><ele>2492.84</ele><time>2019-08-18T13:42:29Z</time></trkpt><trkpt lat="45.0858603604" lon="6.4714164846"><ele>2490.91</ele><time>2019-08-18T13:42:30Z</time></trkpt><trkpt lat="45.0858595222" lon="6.4714160655"><ele>2490.43</ele><time>2019-08-18T13:42:32Z</time></trkpt><trkpt lat="45.0858565047" lon="6.4714159817"><ele>2493.32</ele><time>2019-08-18T13:42:40Z</time></trkpt><trkpt lat="45.0858566724" lon="6.4714162331"><ele>2491.39</ele><time>2019-08-18T13:42:41Z</time></trkpt><trkpt lat="45.0858591031" lon="6.4714116231"><ele>2486.59</ele><time>2019-08-18T13:42:47Z</time></trkpt><trkpt lat="45.0858586840" lon="6.4714084379"><ele>2494.28</ele><time>2019-08-18T13:42:48Z</time></trkpt><trkpt lat="45.0858582649" lon="6.4714058395"><ele>2492.36</ele><time>2019-08-18T13:42:49Z</time></trkpt><trkpt lat="45.0858570915" lon="6.4714045823"><ele>2489.95</ele><time>2019-08-18T13:42:51Z</time></trkpt><trkpt lat="45.0858594384" lon="6.4714050014"><ele>2491.39</ele><time>2019-08-18T13:42:53Z</time></trkpt><trkpt lat="45.0858550798" lon="6.4713744074"><ele>2492.36</ele><time>2019-08-18T13:43:34Z</time></trkpt><trkpt lat="45.0858574267" lon="6.4714028221"><ele>2500.53</ele><time>2019-08-18T13:43:50Z</time></trkpt><trkpt lat="45.0858641323" lon="6.4714122936"><ele>2496.20</ele><time>2019-08-18T13:43:51Z</time></trkpt><trkpt lat="45.0858689100" lon="6.4714285545"><ele>2493.32</ele><time>2019-08-18T13:43:53Z</time></trkpt><trkpt lat="45.0858686585" lon="6.4714283030"><ele>2493.32</ele><time>2019-08-18T13:43:54Z</time></trkpt><trkpt lat="45.0858760346" lon="6.4714427199"><ele>2496.68</ele><time>2019-08-18T13:44:06Z</time></trkpt><trkpt lat="45.0858770404" lon="6.4714383613"><ele>2496.68</ele><time>2019-08-18T13:44:07Z</time></trkpt><trkpt lat="45.0858926307" lon="6.4714314882"><ele>2493.32</ele><time>2019-08-18T13:44:11Z</time></trkpt><trkpt lat="45.0859186985" lon="6.4714468271"><ele>2492.36</ele><time>2019-08-18T13:44:21Z</time></trkpt><trkpt lat="45.0858983304" lon="6.4714878146"><ele>2491.87</ele><time>2019-08-18T13:44:38Z</time></trkpt><trkpt lat="45.0858970731" lon="6.4714875631"><ele>2493.32</ele><time>2019-08-18T13:44:40Z</time></trkpt><trkpt lat="45.0859320257" lon="6.4714642614"><ele>2494.28</ele><time>2019-08-18T13:45:02Z</time></trkpt><trkpt lat="45.0859537348" lon="6.4714454021"><ele>2496.68</ele><time>2019-08-18T13:45:10Z</time></trkpt><trkpt lat="45.0858736038" lon="6.4714479167"><ele>2495.24</ele><time>2019-08-18T13:45:38Z</time></trkpt><trkpt lat="45.0858498830" lon="6.4714740682"><ele>2496.68</ele><time>2019-08-18T13:46:07Z</time></trkpt><trkpt lat="45.0858441833" lon="6.4714744873"><ele>2495.24</ele><time>2019-08-18T13:46:25Z</time></trkpt><trkpt lat="45.0858405791" lon="6.4714706317"><ele>2496.68</ele><time>2019-08-18T13:46:30Z</time></trkpt><trkpt lat="45.0858409144" lon="6.4714661054"><ele>2495.24</ele><time>2019-08-18T13:46:33Z</time></trkpt><trkpt lat="45.0858445186" lon="6.4714627527"><ele>2496.20</ele><time>2019-08-18T13:46:38Z</time></trkpt><trkpt lat="45.0858459435" lon="6.4714599028"><ele>2497.64</ele><time>2019-08-18T13:46:40Z</time></trkpt><trkpt lat="45.0858572591" lon="6.4714428876"><ele>2487.07</ele><time>2019-08-18T13:46:42Z</time></trkpt><trkpt lat="45.0858586002" lon="6.4714368526"><ele>2498.12</ele><time>2019-08-18T13:46:43Z</time></trkpt><trkpt lat="45.0858563371" lon="6.4714340027"><ele>2489.95</ele><time>2019-08-18T13:46:44Z</time></trkpt><trkpt lat="45.0858542416" lon="6.4714329131"><ele>2499.08</ele><time>2019-08-18T13:46:45Z</time></trkpt><trkpt lat="45.0858539063" lon="6.4714248665"><ele>2496.20</ele><time>2019-08-18T13:46:47Z</time></trkpt><trkpt lat="45.0858242344" lon="6.4713179972"><ele>2495.72</ele><time>2019-08-18T13:46:58Z</time></trkpt><trkpt lat="45.0858023576" lon="6.4712648559"><ele>2491.39</ele><time>2019-08-18T13:47:04Z</time></trkpt><trkpt lat="45.0857984181" lon="6.4712578990"><ele>2498.12</ele><time>2019-08-18T13:47:05Z</time></trkpt><trkpt lat="45.0857951492" lon="6.4712485950"><ele>2498.12</ele><time>2019-08-18T13:47:06Z</time></trkpt><trkpt lat="45.0857829116" lon="6.4712358546"><ele>2496.20</ele><time>2019-08-18T13:47:08Z</time></trkpt><trkpt lat="45.0857767928" lon="6.4712224435"><ele>2509.66</ele><time>2019-08-18T13:47:09Z</time></trkpt><trkpt lat="45.0857710093" lon="6.4712047577"><ele>2500.53</ele><time>2019-08-18T13:47:10Z</time></trkpt><trkpt lat="45.0857591908" lon="6.4711801149"><ele>2496.68</ele><time>2019-08-18T13:47:12Z</time></trkpt><trkpt lat="45.0857531559" lon="6.4711731579"><ele>2496.68</ele><time>2019-08-18T13:47:13Z</time></trkpt><trkpt lat="45.0856630504" lon="6.4710732456"><ele>2496.68</ele><time>2019-08-18T13:47:27Z</time></trkpt><trkpt lat="45.0855923072" lon="6.4710303303"><ele>2496.68</ele><time>2019-08-18T13:47:36Z</time></trkpt><trkpt lat="45.0855428539" lon="6.4710006583"><ele>2501.01</ele><time>2019-08-18T13:47:43Z</time></trkpt><trkpt lat="45.0854794867" lon="6.4709641971"><ele>2502.45</ele><time>2019-08-18T13:47:58Z</time></trkpt><trkpt lat="45.0854827557" lon="6.4709649514"><ele>2501.49</ele><time>2019-08-18T13:48:03Z</time></trkpt><trkpt lat="45.0854307879" lon="6.4709362853"><ele>2501.49</ele><time>2019-08-18T13:48:21Z</time></trkpt><trkpt lat="45.0853921473" lon="6.4708835632"><ele>2501.49</ele><time>2019-08-18T13:48:36Z</time></trkpt><trkpt lat="45.0853146985" lon="6.4707458485"><ele>2499.08</ele><time>2019-08-18T13:48:48Z</time></trkpt><trkpt lat="45.0853063166" lon="6.4707418252"><ele>2499.08</ele><time>2019-08-18T13:48:49Z</time></trkpt><trkpt lat="45.0852882117" lon="6.4707243070"><ele>2500.53</ele><time>2019-08-18T13:48:51Z</time></trkpt><trkpt lat="45.0852432009" lon="6.4706988260"><ele>2503.41</ele><time>2019-08-18T13:49:02Z</time></trkpt><trkpt lat="45.0852428656" lon="6.4707032684"><ele>2504.37</ele><time>2019-08-18T13:49:04Z</time></trkpt><trkpt lat="45.0852426142" lon="6.4707044419"><ele>2502.93</ele><time>2019-08-18T13:49:07Z</time></trkpt><trkpt lat="45.0852353219" lon="6.4707151707"><ele>2502.93</ele><time>2019-08-18T13:49:16Z</time></trkpt><trkpt lat="45.0852354057" lon="6.4707259834"><ele>2504.37</ele><time>2019-08-18T13:49:23Z</time></trkpt><trkpt lat="45.0852354895" lon="6.4707279950"><ele>2504.85</ele><time>2019-08-18T13:49:28Z</time></trkpt><trkpt lat="45.0852276944" lon="6.4707206190"><ele>2500.53</ele><time>2019-08-18T13:49:35Z</time></trkpt><trkpt lat="45.0852258503" lon="6.4707234688"><ele>2500.53</ele><time>2019-08-18T13:49:36Z</time></trkpt><trkpt lat="45.0852235872" lon="6.4707202837"><ele>2502.45</ele><time>2019-08-18T13:49:40Z</time></trkpt><trkpt lat="45.0852138642" lon="6.4707170147"><ele>2501.01</ele><time>2019-08-18T13:49:42Z</time></trkpt><trkpt lat="45.0852228329" lon="6.4707089681"><ele>2500.05</ele><time>2019-08-18T13:50:02Z</time></trkpt><trkpt lat="45.0852238387" lon="6.4706970658"><ele>2501.01</ele><time>2019-08-18T13:50:13Z</time></trkpt><trkpt lat="45.0852198992" lon="6.4707041904"><ele>2502.45</ele><time>2019-08-18T13:50:20Z</time></trkpt><trkpt lat="45.0852309633" lon="6.4706844091"><ele>2500.53</ele><time>2019-08-18T13:50:23Z</time></trkpt><trkpt lat="45.0852358248" lon="6.4706704952"><ele>2499.57</ele><time>2019-08-18T13:50:25Z</time></trkpt><trkpt lat="45.0852363277" lon="6.4706595149"><ele>2501.01</ele><time>2019-08-18T13:50:28Z</time></trkpt><trkpt lat="45.0852190610" lon="6.4706914499"><ele>2501.97</ele><time>2019-08-18T13:50:47Z</time></trkpt><trkpt lat="45.0852209050" lon="6.4707082137"><ele>2501.49</ele><time>2019-08-18T13:51:08Z</time></trkpt><trkpt lat="45.0852058176" lon="6.4706995804"><ele>2501.97</ele><time>2019-08-18T13:51:30Z</time></trkpt><trkpt lat="45.0852035545" lon="6.4706796315"><ele>2500.05</ele><time>2019-08-18T13:51:55Z</time></trkpt><trkpt lat="45.0851987768" lon="6.4707077108"><ele>2500.05</ele><time>2019-08-18T13:52:21Z</time></trkpt><trkpt lat="45.0851820130" lon="6.4707062859"><ele>2500.05</ele><time>2019-08-18T13:52:41Z</time></trkpt><trkpt lat="45.0852058176" lon="6.4707175177"><ele>2498.60</ele><time>2019-08-18T13:53:12Z</time></trkpt><trkpt lat="45.0851955917" lon="6.4707119856"><ele>2500.53</ele><time>2019-08-18T13:53:40Z</time></trkpt><trkpt lat="45.0852029677" lon="6.4707169309"><ele>2499.57</ele><time>2019-08-18T13:53:56Z</time></trkpt><trkpt lat="45.0851862878" lon="6.4707160927"><ele>2499.08</ele><time>2019-08-18T13:54:14Z</time></trkpt><trkpt lat="45.0851890538" lon="6.4707347006"><ele>2500.53</ele><time>2019-08-18T13:54:28Z</time></trkpt><trkpt lat="45.0852000341" lon="6.4707569964"><ele>2501.49</ele><time>2019-08-18T13:55:00Z</time></trkpt><trkpt lat="45.0851959269" lon="6.4707622770"><ele>2500.05</ele><time>2019-08-18T13:55:07Z</time></trkpt><trkpt lat="45.0852240063" lon="6.4707318507"><ele>2499.08</ele><time>2019-08-18T13:55:35Z</time></trkpt><trkpt lat="45.0852121878" lon="6.4706912823"><ele>2499.08</ele><time>2019-08-18T13:56:07Z</time></trkpt><trkpt lat="45.0852044765" lon="6.4706753567"><ele>2498.60</ele><time>2019-08-18T13:56:28Z</time></trkpt><trkpt lat="45.0851927418" lon="6.4706740994"><ele>2499.08</ele><time>2019-08-18T13:56:33Z</time></trkpt><trkpt lat="45.0852024648" lon="6.4706994966"><ele>2500.05</ele><time>2019-08-18T13:56:56Z</time></trkpt><trkpt lat="45.0852169655" lon="6.4706825651"><ele>2501.49</ele><time>2019-08-18T13:57:24Z</time></trkpt><trkpt lat="45.0852105115" lon="6.4706790447"><ele>2501.49</ele><time>2019-08-18T13:57:34Z</time></trkpt><trkpt lat="45.0852084160" lon="6.4706873428"><ele>2501.01</ele><time>2019-08-18T13:57:45Z</time></trkpt><trkpt lat="45.0852152891" lon="6.4706917852"><ele>2499.57</ele><time>2019-08-18T13:57:54Z</time></trkpt><trkpt lat="45.0852133613" lon="6.4706855826"><ele>2500.53</ele><time>2019-08-18T13:58:02Z</time></trkpt><trkpt lat="45.0852135289" lon="6.4706835710"><ele>2500.05</ele><time>2019-08-18T13:58:15Z</time></trkpt><trkpt lat="45.0852125231" lon="6.4706970658"><ele>2499.57</ele><time>2019-08-18T13:58:44Z</time></trkpt><trkpt lat="45.0852070749" lon="6.4706994966"><ele>2501.01</ele><time>2019-08-18T13:58:49Z</time></trkpt><trkpt lat="45.0852061529" lon="6.4707072917"><ele>2500.53</ele><time>2019-08-18T13:59:10Z</time></trkpt><trkpt lat="45.0852096733" lon="6.4706985746"><ele>2499.57</ele><time>2019-08-18T13:59:27Z</time></trkpt><trkpt lat="45.0852046441" lon="6.4706923719"><ele>2500.05</ele><time>2019-08-18T13:59:38Z</time></trkpt><trkpt lat="45.0852140319" lon="6.4707058668"><ele>2498.12</ele><time>2019-08-18T13:59:50Z</time></trkpt><trkpt lat="45.0852074102" lon="6.4707050286"><ele>2501.01</ele><time>2019-08-18T13:59:59Z</time></trkpt><trkpt lat="45.0852251798" lon="6.4706922043"><ele>2499.57</ele><time>2019-08-18T14:00:07Z</time></trkpt><trkpt lat="45.0852121040" lon="6.4707125723"><ele>2500.53</ele><time>2019-08-18T14:00:26Z</time></trkpt><trkpt lat="45.0852073263" lon="6.4706982393"><ele>2500.05</ele><time>2019-08-18T14:00:41Z</time></trkpt><trkpt lat="45.0852058176" lon="6.4706832357"><ele>2499.08</ele><time>2019-08-18T14:01:10Z</time></trkpt><trkpt lat="45.0851983577" lon="6.4706828166"><ele>2498.12</ele><time>2019-08-18T14:01:39Z</time></trkpt><trkpt lat="45.0852015428" lon="6.4706911147"><ele>2499.08</ele><time>2019-08-18T14:01:59Z</time></trkpt><trkpt lat="45.0851924066" lon="6.4706876781"><ele>2498.60</ele><time>2019-08-18T14:02:19Z</time></trkpt><trkpt lat="45.0851981062" lon="6.4706979878"><ele>2499.08</ele><time>2019-08-18T14:02:42Z</time></trkpt><trkpt lat="45.0852004532" lon="6.4706963953"><ele>2499.57</ele><time>2019-08-18T14:03:11Z</time></trkpt><trkpt lat="45.0852079969" lon="6.4706915338"><ele>2500.05</ele><time>2019-08-18T14:03:37Z</time></trkpt><trkpt lat="45.0852042250" lon="6.4707030170"><ele>2500.05</ele><time>2019-08-18T14:03:44Z</time></trkpt><trkpt lat="45.0851939153" lon="6.4706888516"><ele>2499.08</ele><time>2019-08-18T14:03:58Z</time></trkpt><trkpt lat="45.0851882156" lon="6.4706885163"><ele>2499.08</ele><time>2019-08-18T14:04:08Z</time></trkpt><trkpt lat="45.0851659197" lon="6.4706731774"><ele>2499.08</ele><time>2019-08-18T14:04:11Z</time></trkpt><trkpt lat="45.0851572864" lon="6.4706782065"><ele>2500.53</ele><time>2019-08-18T14:04:12Z</time></trkpt><trkpt lat="45.0851180591" lon="6.4707005024"><ele>2501.01</ele><time>2019-08-18T14:04:24Z</time></trkpt><trkpt lat="45.0851185620" lon="6.4706984069"><ele>2502.45</ele><time>2019-08-18T14:04:30Z</time></trkpt><trkpt lat="45.0851222500" lon="6.4706991613"><ele>2501.01</ele><time>2019-08-18T14:04:32Z</time></trkpt><trkpt lat="45.0851432886" lon="6.4706942160"><ele>2493.32</ele><time>2019-08-18T14:04:36Z</time></trkpt><trkpt lat="45.0851646625" lon="6.4707047772"><ele>2507.74</ele><time>2019-08-18T14:04:37Z</time></trkpt><trkpt lat="45.0851739664" lon="6.4707106445"><ele>2502.93</ele><time>2019-08-18T14:04:38Z</time></trkpt><trkpt lat="45.0851639919" lon="6.4707255643"><ele>2501.49</ele><time>2019-08-18T14:04:40Z</time></trkpt><trkpt lat="45.0851323083" lon="6.4707046933"><ele>2501.97</ele><time>2019-08-18T14:04:45Z</time></trkpt><trkpt lat="45.0851194840" lon="6.4706993289"><ele>2500.05</ele><time>2019-08-18T14:04:47Z</time></trkpt><trkpt lat="45.0850352459" lon="6.4707048610"><ele>2497.64</ele><time>2019-08-18T14:04:59Z</time></trkpt><trkpt lat="45.0850022212" lon="6.4706930425"><ele>2495.24</ele><time>2019-08-18T14:05:04Z</time></trkpt><trkpt lat="45.0849395245" lon="6.4706911985"><ele>2491.87</ele><time>2019-08-18T14:05:15Z</time></trkpt><trkpt lat="45.0849121995" lon="6.4706577547"><ele>2490.43</ele><time>2019-08-18T14:05:21Z</time></trkpt><trkpt lat="45.0847897399" lon="6.4706050325"><ele>2488.51</ele><time>2019-08-18T14:05:35Z</time></trkpt><trkpt lat="45.0847247802" lon="6.4705687389"><ele>2487.55</ele><time>2019-08-18T14:05:42Z</time></trkpt><trkpt lat="45.0845877361" lon="6.4705565013"><ele>2485.15</ele><time>2019-08-18T14:05:57Z</time></trkpt><trkpt lat="45.0844667014" lon="6.4705491252"><ele>2483.22</ele><time>2019-08-18T14:06:11Z</time></trkpt><trkpt lat="45.0844476745" lon="6.4705363009"><ele>2482.74</ele><time>2019-08-18T14:06:14Z</time></trkpt><trkpt lat="45.0843459181" lon="6.4704504702"><ele>2480.34</ele><time>2019-08-18T14:06:28Z</time></trkpt><trkpt lat="45.0842649490" lon="6.4703820739"><ele>2477.94</ele><time>2019-08-18T14:06:42Z</time></trkpt><trkpt lat="45.0842329301" lon="6.4703393262"><ele>2476.97</ele><time>2019-08-18T14:06:51Z</time></trkpt><trkpt lat="45.0842181779" lon="6.4702840056"><ele>2476.01</ele><time>2019-08-18T14:06:57Z</time></trkpt><trkpt lat="45.0842138194" lon="6.4702684991"><ele>2475.05</ele><time>2019-08-18T14:06:58Z</time></trkpt><trkpt lat="45.0842625182" lon="6.4701390825"><ele>2475.53</ele><time>2019-08-18T14:07:12Z</time></trkpt><trkpt lat="45.0842760969" lon="6.4701018669"><ele>2466.40</ele><time>2019-08-18T14:07:17Z</time></trkpt><trkpt lat="45.0842816290" lon="6.4700843487"><ele>2483.70</ele><time>2019-08-18T14:07:18Z</time></trkpt><trkpt lat="45.0842833892" lon="6.4700710215"><ele>2477.45</ele><time>2019-08-18T14:07:19Z</time></trkpt><trkpt lat="45.0842949562" lon="6.4700500667"><ele>2475.05</ele><time>2019-08-18T14:07:21Z</time></trkpt><trkpt lat="45.0842855684" lon="6.4699205663"><ele>2472.65</ele><time>2019-08-18T14:07:32Z</time></trkpt><trkpt lat="45.0842595007" lon="6.4698043931"><ele>2469.76</ele><time>2019-08-18T14:07:44Z</time></trkpt><trkpt lat="45.0842814613" lon="6.4697853662"><ele>2467.36</ele><time>2019-08-18T14:07:49Z</time></trkpt><trkpt lat="45.0843754224" lon="6.4697346557"><ele>2466.40</ele><time>2019-08-18T14:08:02Z</time></trkpt><trkpt lat="45.0844234508" lon="6.4696620684"><ele>2465.92</ele><time>2019-08-18T14:08:09Z</time></trkpt><trkpt lat="45.0844771788" lon="6.4695759024"><ele>2463.52</ele><time>2019-08-18T14:08:19Z</time></trkpt><trkpt lat="45.0844985526" lon="6.4695569593"><ele>2460.15</ele><time>2019-08-18T14:08:22Z</time></trkpt><trkpt lat="45.0845009834" lon="6.4695459791"><ele>2463.52</ele><time>2019-08-18T14:08:23Z</time></trkpt><trkpt lat="45.0845058449" lon="6.4695371781"><ele>2462.55</ele><time>2019-08-18T14:08:24Z</time></trkpt><trkpt lat="45.0845164061" lon="6.4695197437"><ele>2461.11</ele><time>2019-08-18T14:08:26Z</time></trkpt><trkpt lat="45.0845490117" lon="6.4694338292"><ele>2461.59</ele><time>2019-08-18T14:08:42Z</time></trkpt><trkpt lat="45.0845511910" lon="6.4694271237"><ele>2461.59</ele><time>2019-08-18T14:08:43Z</time></trkpt><trkpt lat="45.0845976267" lon="6.4692822844"><ele>2459.67</ele><time>2019-08-18T14:08:55Z</time></trkpt><trkpt lat="45.0846051704" lon="6.4692695439"><ele>2459.67</ele><time>2019-08-18T14:08:56Z</time></trkpt><trkpt lat="45.0846545398" lon="6.4691288956"><ele>2458.23</ele><time>2019-08-18T14:09:09Z</time></trkpt><trkpt lat="45.0846585631" lon="6.4691174123"><ele>2458.23</ele><time>2019-08-18T14:09:10Z</time></trkpt><trkpt lat="45.0846621674" lon="6.4691032469"><ele>2454.86</ele><time>2019-08-18T14:09:11Z</time></trkpt><trkpt lat="45.0846637599" lon="6.4690872375"><ele>2454.38</ele><time>2019-08-18T14:09:12Z</time></trkpt><trkpt lat="45.0846670289" lon="6.4690711442"><ele>2463.52</ele><time>2019-08-18T14:09:13Z</time></trkpt><trkpt lat="45.0846706331" lon="6.4690547157"><ele>2460.15</ele><time>2019-08-18T14:09:14Z</time></trkpt><trkpt lat="45.0846830383" lon="6.4690218586"><ele>2458.71</ele><time>2019-08-18T14:09:16Z</time></trkpt><trkpt lat="45.0846967008" lon="6.4688702300"><ele>2456.79</ele><time>2019-08-18T14:09:28Z</time></trkpt><trkpt lat="45.0846883189" lon="6.4686769433"><ele>2455.82</ele><time>2019-08-18T14:09:43Z</time></trkpt><trkpt lat="45.0846971199" lon="6.4686336927"><ele>2455.34</ele><time>2019-08-18T14:09:49Z</time></trkpt><trkpt lat="45.0847604033" lon="6.4685242251"><ele>2452.94</ele><time>2019-08-18T14:10:02Z</time></trkpt><trkpt lat="45.0847955234" lon="6.4685160108"><ele>2455.82</ele><time>2019-08-18T14:10:07Z</time></trkpt><trkpt lat="45.0848047435" lon="6.4685253985"><ele>2454.38</ele><time>2019-08-18T14:10:08Z</time></trkpt><trkpt lat="45.0848143827" lon="6.4685371332"><ele>2453.90</ele><time>2019-08-18T14:10:09Z</time></trkpt><trkpt lat="45.0848246086" lon="6.4685467724"><ele>2453.90</ele><time>2019-08-18T14:10:10Z</time></trkpt><trkpt lat="45.0848785881" lon="6.4685331099"><ele>2451.98</ele><time>2019-08-18T14:10:20Z</time></trkpt><trkpt lat="45.0848428812" lon="6.4684787113"><ele>2451.02</ele><time>2019-08-18T14:10:31Z</time></trkpt><trkpt lat="45.0848236866" lon="6.4684851654"><ele>2450.06</ele><time>2019-08-18T14:10:41Z</time></trkpt><trkpt lat="45.0848195795" lon="6.4684764482"><ele>2454.38</ele><time>2019-08-18T14:10:46Z</time></trkpt><trkpt lat="45.0848149695" lon="6.4684837405"><ele>2454.38</ele><time>2019-08-18T14:10:47Z</time></trkpt><trkpt lat="45.0848023128" lon="6.4684801362"><ele>2451.50</ele><time>2019-08-18T14:10:50Z</time></trkpt><trkpt lat="45.0847976189" lon="6.4684899431"><ele>2451.50</ele><time>2019-08-18T14:11:00Z</time></trkpt><trkpt lat="45.0847968645" lon="6.4684890211"><ele>2451.02</ele><time>2019-08-18T14:11:16Z</time></trkpt><trkpt lat="45.0848190766" lon="6.4685158432"><ele>2451.02</ele><time>2019-08-18T14:11:36Z</time></trkpt><trkpt lat="45.0848226808" lon="6.4685362950"><ele>2450.54</ele><time>2019-08-18T14:11:57Z</time></trkpt><trkpt lat="45.0848125387" lon="6.4685304277"><ele>2450.54</ele><time>2019-08-18T14:12:19Z</time></trkpt><trkpt lat="45.0847960263" lon="6.4685175195"><ele>2450.54</ele><time>2019-08-18T14:12:56Z</time></trkpt><trkpt lat="45.0848342478" lon="6.4685676433"><ele>2450.54</ele><time>2019-08-18T14:13:24Z</time></trkpt><trkpt lat="45.0848019775" lon="6.4685104787"><ele>2451.98</ele><time>2019-08-18T14:13:53Z</time></trkpt><trkpt lat="45.0847749878" lon="6.4684982412"><ele>2451.50</ele><time>2019-08-18T14:14:23Z</time></trkpt><trkpt lat="45.0848029833" lon="6.4685035218"><ele>2451.50</ele><time>2019-08-18T14:14:49Z</time></trkpt><trkpt lat="45.0847925898" lon="6.4685304277"><ele>2451.50</ele><time>2019-08-18T14:15:09Z</time></trkpt><trkpt lat="45.0848096050" lon="6.4685079642"><ele>2451.50</ele><time>2019-08-18T14:15:31Z</time></trkpt><trkpt lat="45.0848253630" lon="6.4684468601"><ele>2449.58</ele><time>2019-08-18T14:15:47Z</time></trkpt><trkpt lat="45.0848923344" lon="6.4683633763"><ele>2450.54</ele><time>2019-08-18T14:15:59Z</time></trkpt><trkpt lat="45.0849254429" lon="6.4682941418"><ele>2444.29</ele><time>2019-08-18T14:16:07Z</time></trkpt><trkpt lat="45.0849292148" lon="6.4682831615"><ele>2445.25</ele><time>2019-08-18T14:16:08Z</time></trkpt><trkpt lat="45.0849301368" lon="6.4682693314"><ele>2452.46</ele><time>2019-08-18T14:16:09Z</time></trkpt><trkpt lat="45.0849352498" lon="6.4682622906"><ele>2448.62</ele><time>2019-08-18T14:16:10Z</time></trkpt><trkpt lat="45.0849648379" lon="6.4681994263"><ele>2447.17</ele><time>2019-08-18T14:16:16Z</time></trkpt><trkpt lat="45.0850027241" lon="6.4681349695"><ele>2443.33</ele><time>2019-08-18T14:16:24Z</time></trkpt><trkpt lat="45.0850404426" lon="6.4680698421"><ele>2443.33</ele><time>2019-08-18T14:16:31Z</time></trkpt><trkpt lat="45.0850554463" lon="6.4680567663"><ele>2443.33</ele><time>2019-08-18T14:16:33Z</time></trkpt><trkpt lat="45.0850867108" lon="6.4680331293"><ele>2442.85</ele><time>2019-08-18T14:16:37Z</time></trkpt><trkpt lat="45.0851161312" lon="6.4680290222"><ele>2442.85</ele><time>2019-08-18T14:16:40Z</time></trkpt><trkpt lat="45.0851504132" lon="6.4680115879"><ele>2441.41</ele><time>2019-08-18T14:16:45Z</time></trkpt><trkpt lat="45.0852794945" lon="6.4679410122"><ele>2439.48</ele><time>2019-08-18T14:17:03Z</time></trkpt><trkpt lat="45.0852884632" lon="6.4679234102"><ele>2439.00</ele><time>2019-08-18T14:17:20Z</time></trkpt><trkpt lat="45.0853778142" lon="6.4678680059"><ele>2437.08</ele><time>2019-08-18T14:17:37Z</time></trkpt><trkpt lat="45.0854065642" lon="6.4678567741"><ele>2437.08</ele><time>2019-08-18T14:17:47Z</time></trkpt><trkpt lat="45.0855032913" lon="6.4677887969"><ele>2436.12</ele><time>2019-08-18T14:17:57Z</time></trkpt><trkpt lat="45.0855264254" lon="6.4677577000"><ele>2434.20</ele><time>2019-08-18T14:18:00Z</time></trkpt><trkpt lat="45.0855402555" lon="6.4677385893"><ele>2434.20</ele><time>2019-08-18T14:18:02Z</time></trkpt><trkpt lat="45.0855906308" lon="6.4676961768"><ele>2433.71</ele><time>2019-08-18T14:18:08Z</time></trkpt><trkpt lat="45.0856064726" lon="6.4677000325"><ele>2432.27</ele><time>2019-08-18T14:18:10Z</time></trkpt><trkpt lat="45.0856212247" lon="6.4677123539"><ele>2436.12</ele><time>2019-08-18T14:18:12Z</time></trkpt><trkpt lat="45.0856294390" lon="6.4677161258"><ele>2434.68</ele><time>2019-08-18T14:18:13Z</time></trkpt><trkpt lat="45.0856576860" lon="6.4677306265"><ele>2433.71</ele><time>2019-08-18T14:18:16Z</time></trkpt><trkpt lat="45.0857845042" lon="6.4677664172"><ele>2435.16</ele><time>2019-08-18T14:18:28Z</time></trkpt><trkpt lat="45.0858014356" lon="6.4677794091"><ele>2433.23</ele><time>2019-08-18T14:18:30Z</time></trkpt><trkpt lat="45.0858396571" lon="6.4678087458"><ele>2431.79</ele><time>2019-08-18T14:18:36Z</time></trkpt><trkpt lat="45.0858415850" lon="6.4677986037"><ele>2431.79</ele><time>2019-08-18T14:18:37Z</time></trkpt><trkpt lat="45.0858824048" lon="6.4677562751"><ele>2432.27</ele><time>2019-08-18T14:18:42Z</time></trkpt><trkpt lat="45.0858992524" lon="6.4677235857"><ele>2431.79</ele><time>2019-08-18T14:18:46Z</time></trkpt><trkpt lat="45.0859679002" lon="6.4677871205"><ele>2430.35</ele><time>2019-08-18T14:18:54Z</time></trkpt><trkpt lat="45.0859754439" lon="6.4677916467"><ele>2430.35</ele><time>2019-08-18T14:18:55Z</time></trkpt><trkpt lat="45.0861097220" lon="6.4677963406"><ele>2428.43</ele><time>2019-08-18T14:19:09Z</time></trkpt><trkpt lat="45.0862100534" lon="6.4677982684"><ele>2427.47</ele><time>2019-08-18T14:19:18Z</time></trkpt><trkpt lat="45.0862655416" lon="6.4677995257"><ele>2424.58</ele><time>2019-08-18T14:19:25Z</time></trkpt><trkpt lat="45.0862715766" lon="6.4678034652"><ele>2427.95</ele><time>2019-08-18T14:19:26Z</time></trkpt><trkpt lat="45.0862801261" lon="6.4678058121"><ele>2427.95</ele><time>2019-08-18T14:19:27Z</time></trkpt><trkpt lat="45.0863046013" lon="6.4678056445"><ele>2411.12</ele><time>2019-08-18T14:19:29Z</time></trkpt><trkpt lat="45.0863185991" lon="6.4678023756"><ele>2434.68</ele><time>2019-08-18T14:19:30Z</time></trkpt><trkpt lat="45.0863271486" lon="6.4678023756"><ele>2433.23</ele><time>2019-08-18T14:19:31Z</time></trkpt><trkpt lat="45.0863348600" lon="6.4678025432"><ele>2428.91</ele><time>2019-08-18T14:19:32Z</time></trkpt><trkpt lat="45.0863880012" lon="6.4678006992"><ele>2426.02</ele><time>2019-08-18T14:19:43Z</time></trkpt><trkpt lat="45.0864000712" lon="6.4677933231"><ele>2422.66</ele><time>2019-08-18T14:19:47Z</time></trkpt><trkpt lat="45.0864092074" lon="6.4677912276"><ele>2433.71</ele><time>2019-08-18T14:19:49Z</time></trkpt><trkpt lat="45.0864153262" lon="6.4677867014"><ele>2429.39</ele><time>2019-08-18T14:19:50Z</time></trkpt><trkpt lat="45.0864475127" lon="6.4677667525"><ele>2426.02</ele><time>2019-08-18T14:19:54Z</time></trkpt><trkpt lat="45.0864656176" lon="6.4677651599"><ele>2426.50</ele><time>2019-08-18T14:20:06Z</time></trkpt><trkpt lat="45.0864623487" lon="6.4677639864"><ele>2422.66</ele><time>2019-08-18T14:20:14Z</time></trkpt><trkpt lat="45.0864666235" lon="6.4677606337"><ele>2430.83</ele><time>2019-08-18T14:20:15Z</time></trkpt><trkpt lat="45.0864646956" lon="6.4677635673"><ele>2427.95</ele><time>2019-08-18T14:20:16Z</time></trkpt><trkpt lat="45.0864631869" lon="6.4677654952"><ele>2426.50</ele><time>2019-08-18T14:20:18Z</time></trkpt><trkpt lat="45.0864569843" lon="6.4677501563"><ele>2425.54</ele><time>2019-08-18T14:20:38Z</time></trkpt><trkpt lat="45.0864404719" lon="6.4677201491"><ele>2425.06</ele><time>2019-08-18T14:20:57Z</time></trkpt><trkpt lat="45.0864444114" lon="6.4676834363"><ele>2424.10</ele><time>2019-08-18T14:21:24Z</time></trkpt><trkpt lat="45.0864487700" lon="6.4677177183"><ele>2424.10</ele><time>2019-08-18T14:21:51Z</time></trkpt><trkpt lat="45.0864441600" lon="6.4677242562"><ele>2425.54</ele><time>2019-08-18T14:21:55Z</time></trkpt><trkpt lat="45.0864449982" lon="6.4677103423"><ele>2426.02</ele><time>2019-08-18T14:22:18Z</time></trkpt><trkpt lat="45.0864575710" lon="6.4677022956"><ele>2426.50</ele><time>2019-08-18T14:22:39Z</time></trkpt><trkpt lat="45.0864682999" lon="6.4677108452"><ele>2426.50</ele><time>2019-08-18T14:23:06Z</time></trkpt><trkpt lat="45.0864693057" lon="6.4677161258"><ele>2426.02</ele><time>2019-08-18T14:23:29Z</time></trkpt><trkpt lat="45.0864439923" lon="6.4677645732"><ele>2426.02</ele><time>2019-08-18T14:23:56Z</time></trkpt><trkpt lat="45.0864408910" lon="6.4677780680"><ele>2426.02</ele><time>2019-08-18T14:24:18Z</time></trkpt><trkpt lat="45.0864449982" lon="6.4677599631"><ele>2424.58</ele><time>2019-08-18T14:24:22Z</time></trkpt><trkpt lat="45.0864282344" lon="6.4677190594"><ele>2426.02</ele><time>2019-08-18T14:24:50Z</time></trkpt><trkpt lat="45.0864377059" lon="6.4677358232"><ele>2426.50</ele><time>2019-08-18T14:25:04Z</time></trkpt><trkpt lat="45.0864475965" lon="6.4677324705"><ele>2425.06</ele><time>2019-08-18T14:25:17Z</time></trkpt><trkpt lat="45.0864150748" lon="6.4676693548"><ele>2424.58</ele><time>2019-08-18T14:25:31Z</time></trkpt><trkpt lat="45.0864043459" lon="6.4675721247"><ele>2424.10</ele><time>2019-08-18T14:25:42Z</time></trkpt><trkpt lat="45.0864216965" lon="6.4674883056"><ele>2411.12</ele><time>2019-08-18T14:25:49Z</time></trkpt><trkpt lat="45.0864237919" lon="6.4674712066"><ele>2428.43</ele><time>2019-08-18T14:25:50Z</time></trkpt><trkpt lat="45.0864232052" lon="6.4674608968"><ele>2425.54</ele><time>2019-08-18T14:25:51Z</time></trkpt><trkpt lat="45.0864250492" lon="6.4674380142"><ele>2424.10</ele><time>2019-08-18T14:25:53Z</time></trkpt><trkpt lat="45.0864211936" lon="6.4672228508"><ele>2423.62</ele><time>2019-08-18T14:26:09Z</time></trkpt><trkpt lat="45.0864442438" lon="6.4670266304"><ele>2422.66</ele><time>2019-08-18T14:26:23Z</time></trkpt><trkpt lat="45.0864872430" lon="6.4669607487"><ele>2422.18</ele><time>2019-08-18T14:26:30Z</time></trkpt><trkpt lat="45.0865641050" lon="6.4668671228"><ele>2422.18</ele><time>2019-08-18T14:26:40Z</time></trkpt><trkpt lat="45.0866056792" lon="6.4667491894"><ele>2421.22</ele><time>2019-08-18T14:26:50Z</time></trkpt><trkpt lat="45.0866147317" lon="6.4666236285"><ele>2420.26</ele><time>2019-08-18T14:27:05Z</time></trkpt><trkpt lat="45.0866123009" lon="6.4666262269"><ele>2419.78</ele><time>2019-08-18T14:27:25Z</time></trkpt><trkpt lat="45.0866165757" lon="6.4666274004"><ele>2421.22</ele><time>2019-08-18T14:27:30Z</time></trkpt><trkpt lat="45.0865834672" lon="6.4665854070"><ele>2419.78</ele><time>2019-08-18T14:27:40Z</time></trkpt><trkpt lat="45.0865992252" lon="6.4663326088"><ele>2419.78</ele><time>2019-08-18T14:27:56Z</time></trkpt><trkpt lat="45.0866843015" lon="6.4662546571"><ele>2419.30</ele><time>2019-08-18T14:28:11Z</time></trkpt><trkpt lat="45.0866654422" lon="6.4662979916"><ele>2419.30</ele><time>2019-08-18T14:28:37Z</time></trkpt><trkpt lat="45.0866257958" lon="6.4661009330"><ele>2418.81</ele><time>2019-08-18T14:28:52Z</time></trkpt><trkpt lat="45.0865487661" lon="6.4658778068"><ele>2418.33</ele><time>2019-08-18T14:29:07Z</time></trkpt><trkpt lat="45.0864822138" lon="6.4656127710"><ele>2417.85</ele><time>2019-08-18T14:29:23Z</time></trkpt><trkpt lat="45.0864794478" lon="6.4655517507"><ele>2418.81</ele><time>2019-08-18T14:29:27Z</time></trkpt><trkpt lat="45.0864596665" lon="6.4652909059"><ele>2416.89</ele><time>2019-08-18T14:29:45Z</time></trkpt><trkpt lat="45.0864574872" lon="6.4652554505"><ele>2409.68</ele><time>2019-08-18T14:29:47Z</time></trkpt><trkpt lat="45.0864562299" lon="6.4652414527"><ele>2422.66</ele><time>2019-08-18T14:29:48Z</time></trkpt><trkpt lat="45.0864610914" lon="6.4652199112"><ele>2418.81</ele><time>2019-08-18T14:29:49Z</time></trkpt><trkpt lat="45.0864772685" lon="6.4651489165"><ele>2415.93</ele><time>2019-08-18T14:29:53Z</time></trkpt><trkpt lat="45.0866905041" lon="6.4649221860"><ele>2414.97</ele><time>2019-08-18T14:30:13Z</time></trkpt><trkpt lat="45.0868458208" lon="6.4647857286"><ele>2414.49</ele><time>2019-08-18T14:30:27Z</time></trkpt><trkpt lat="45.0870189071" lon="6.4646313339"><ele>2414.01</ele><time>2019-08-18T14:30:41Z</time></trkpt><trkpt lat="45.0872164685" lon="6.4644105546"><ele>2414.01</ele><time>2019-08-18T14:30:58Z</time></trkpt><trkpt lat="45.0873174705" lon="6.4643617719"><ele>2414.01</ele><time>2019-08-18T14:31:10Z</time></trkpt><trkpt lat="45.0873252656" lon="6.4643139113"><ele>2414.01</ele><time>2019-08-18T14:31:14Z</time></trkpt><trkpt lat="45.0873869564" lon="6.4640591852"><ele>2411.60</ele><time>2019-08-18T14:31:30Z</time></trkpt><trkpt lat="45.0873931590" lon="6.4640399069"><ele>2416.41</ele><time>2019-08-18T14:31:31Z</time></trkpt><trkpt lat="45.0873982720" lon="6.4640250709"><ele>2414.97</ele><time>2019-08-18T14:31:32Z</time></trkpt><trkpt lat="45.0874934066" lon="6.4637595322"><ele>2412.09</ele><time>2019-08-18T14:31:50Z</time></trkpt><trkpt lat="45.0875177979" lon="6.4634684287"><ele>2411.60</ele><time>2019-08-18T14:32:06Z</time></trkpt><trkpt lat="45.0874925684" lon="6.4632989466"><ele>2411.12</ele><time>2019-08-18T14:32:18Z</time></trkpt><trkpt lat="45.0874890480" lon="6.4633012936"><ele>2412.09</ele><time>2019-08-18T14:32:20Z</time></trkpt><trkpt lat="45.0874871202" lon="6.4633013774"><ele>2408.72</ele><time>2019-08-18T14:32:21Z</time></trkpt><trkpt lat="45.0874925684" lon="6.4632986952"><ele>2413.53</ele><time>2019-08-18T14:32:22Z</time></trkpt><trkpt lat="45.0874939933" lon="6.4632990304"><ele>2413.53</ele><time>2019-08-18T14:32:23Z</time></trkpt><trkpt lat="45.0874922331" lon="6.4633071609"><ele>2410.64</ele><time>2019-08-18T14:32:54Z</time></trkpt><trkpt lat="45.0875015371" lon="6.4633034728"><ele>2413.05</ele><time>2019-08-18T14:32:56Z</time></trkpt><trkpt lat="45.0875191391" lon="6.4632991143"><ele>2411.60</ele><time>2019-08-18T14:32:59Z</time></trkpt><trkpt lat="45.0875567738" lon="6.4632846136"><ele>2410.64</ele><time>2019-08-18T14:33:05Z</time></trkpt><trkpt lat="45.0875862781" lon="6.4632915705"><ele>2412.57</ele><time>2019-08-18T14:33:07Z</time></trkpt><trkpt lat="45.0876152795" lon="6.4632929955"><ele>2408.72</ele><time>2019-08-18T14:33:10Z</time></trkpt><trkpt lat="45.0876210630" lon="6.4632795844"><ele>2398.15</ele><time>2019-08-18T14:33:11Z</time></trkpt><trkpt lat="45.0876316242" lon="6.4632699452"><ele>2415.45</ele><time>2019-08-18T14:33:12Z</time></trkpt><trkpt lat="45.0876403414" lon="6.4632607251"><ele>2413.53</ele><time>2019-08-18T14:33:13Z</time></trkpt><trkpt lat="45.0876491424" lon="6.4632567856"><ele>2409.68</ele><time>2019-08-18T14:33:14Z</time></trkpt><trkpt lat="45.0877113361" lon="6.4631830249"><ele>2406.80</ele><time>2019-08-18T14:33:22Z</time></trkpt><trkpt lat="45.0877305306" lon="6.4630988706"><ele>2406.80</ele><time>2019-08-18T14:33:27Z</time></trkpt><trkpt lat="45.0878135115" lon="6.4628920890"><ele>2403.43</ele><time>2019-08-18T14:33:43Z</time></trkpt><trkpt lat="45.0878867693" lon="6.4627660252"><ele>2401.03</ele><time>2019-08-18T14:33:57Z</time></trkpt><trkpt lat="45.0879395753" lon="6.4626906719"><ele>2396.70</ele><time>2019-08-18T14:34:06Z</time></trkpt><trkpt lat="45.0879472028" lon="6.4626760874"><ele>2392.38</ele><time>2019-08-18T14:34:08Z</time></trkpt><trkpt lat="45.0879508909" lon="6.4626703039"><ele>2405.36</ele><time>2019-08-18T14:34:09Z</time></trkpt><trkpt lat="45.0879564229" lon="6.4626573119"><ele>2400.07</ele><time>2019-08-18T14:34:10Z</time></trkpt><trkpt lat="45.0879774615" lon="6.4625861496"><ele>2396.70</ele><time>2019-08-18T14:34:17Z</time></trkpt><trkpt lat="45.0879944768" lon="6.4624922723"><ele>2394.78</ele><time>2019-08-18T14:34:31Z</time></trkpt><trkpt lat="45.0880071335" lon="6.4624963794"><ele>2395.74</ele><time>2019-08-18T14:34:54Z</time></trkpt><trkpt lat="45.0880181976" lon="6.4624846447"><ele>2395.74</ele><time>2019-08-18T14:35:08Z</time></trkpt><trkpt lat="45.0880215503" lon="6.4624605048"><ele>2394.78</ele><time>2019-08-18T14:35:10Z</time></trkpt><trkpt lat="45.0880138390" lon="6.4624256361"><ele>2393.34</ele><time>2019-08-18T14:35:14Z</time></trkpt><trkpt lat="45.0880202092" lon="6.4623706508"><ele>2393.34</ele><time>2019-08-18T14:35:19Z</time></trkpt><trkpt lat="45.0880379789" lon="6.4622087963"><ele>2389.49</ele><time>2019-08-18T14:35:33Z</time></trkpt><trkpt lat="45.0880344585" lon="6.4621958882"><ele>2389.49</ele><time>2019-08-18T14:35:34Z</time></trkpt><trkpt lat="45.0880281720" lon="6.4620975684"><ele>2386.61</ele><time>2019-08-18T14:35:42Z</time></trkpt><trkpt lat="45.0880234782" lon="6.4619631227"><ele>2383.25</ele><time>2019-08-18T14:35:57Z</time></trkpt><trkpt lat="45.0880514737" lon="6.4618738554"><ele>2380.36</ele><time>2019-08-18T14:36:12Z</time></trkpt><trkpt lat="45.0880477857" lon="6.4617875218"><ele>2377.48</ele><time>2019-08-18T14:36:24Z</time></trkpt><trkpt lat="45.0880416669" lon="6.4616682474"><ele>2375.55</ele><time>2019-08-18T14:36:35Z</time></trkpt><trkpt lat="45.0880345423" lon="6.4615329634"><ele>2373.63</ele><time>2019-08-18T14:36:47Z</time></trkpt><trkpt lat="45.0880010985" lon="6.4613691811"><ele>2370.27</ele><time>2019-08-18T14:37:00Z</time></trkpt><trkpt lat="45.0879556686" lon="6.4612043928"><ele>2368.35</ele><time>2019-08-18T14:37:13Z</time></trkpt><trkpt lat="45.0879159383" lon="6.4610548597"><ele>2366.90</ele><time>2019-08-18T14:37:23Z</time></trkpt><trkpt lat="45.0878484640" lon="6.4608796779"><ele>2365.94</ele><time>2019-08-18T14:37:35Z</time></trkpt><trkpt lat="45.0878634676" lon="6.4607619960"><ele>2365.46</ele><time>2019-08-18T14:37:43Z</time></trkpt><trkpt lat="45.0878521521" lon="6.4606687892"><ele>2364.50</ele><time>2019-08-18T14:37:50Z</time></trkpt><trkpt lat="45.0877871923" lon="6.4605221059"><ele>2360.65</ele><time>2019-08-18T14:38:03Z</time></trkpt><trkpt lat="45.0877849292" lon="6.4604915958"><ele>2360.65</ele><time>2019-08-18T14:38:05Z</time></trkpt><trkpt lat="45.0877788942" lon="6.4604590740"><ele>2360.17</ele><time>2019-08-18T14:38:07Z</time></trkpt><trkpt lat="45.0877197180" lon="6.4603163302"><ele>2357.29</ele><time>2019-08-18T14:38:19Z</time></trkpt><trkpt lat="45.0876709353" lon="6.4601357840"><ele>2354.41</ele><time>2019-08-18T14:38:34Z</time></trkpt><trkpt lat="45.0876614638" lon="6.4601120632"><ele>2353.93</ele><time>2019-08-18T14:38:36Z</time></trkpt><trkpt lat="45.0875837635" lon="6.4599059522"><ele>2350.08</ele><time>2019-08-18T14:38:53Z</time></trkpt><trkpt lat="45.0875249226" lon="6.4597909525"><ele>2347.68</ele><time>2019-08-18T14:39:05Z</time></trkpt><trkpt lat="45.0874790736" lon="6.4596291818"><ele>2343.83</ele><time>2019-08-18T14:39:18Z</time></trkpt><trkpt lat="45.0874798279" lon="6.4596155193"><ele>2343.83</ele><time>2019-08-18T14:39:19Z</time></trkpt><trkpt lat="45.0874791574" lon="6.4596101549"><ele>2345.27</ele><time>2019-08-18T14:39:21Z</time></trkpt><trkpt lat="45.0874767266" lon="6.4596013539"><ele>2343.83</ele><time>2019-08-18T14:39:24Z</time></trkpt><trkpt lat="45.0874739606" lon="6.4595861826"><ele>2345.75</ele><time>2019-08-18T14:39:26Z</time></trkpt><trkpt lat="45.0874564424" lon="6.4595479611"><ele>2342.87</ele><time>2019-08-18T14:39:31Z</time></trkpt><trkpt lat="45.0874528382" lon="6.4595364779"><ele>2342.87</ele><time>2019-08-18T14:39:32Z</time></trkpt><trkpt lat="45.0874488987" lon="6.4595276769"><ele>2338.54</ele><time>2019-08-18T14:39:33Z</time></trkpt><trkpt lat="45.0874467194" lon="6.4595169481"><ele>2341.91</ele><time>2019-08-18T14:39:34Z</time></trkpt><trkpt lat="45.0874431152" lon="6.4595124219"><ele>2348.16</ele><time>2019-08-18T14:39:35Z</time></trkpt><trkpt lat="45.0874394272" lon="6.4595111646"><ele>2343.35</ele><time>2019-08-18T14:39:36Z</time></trkpt><trkpt lat="45.0873682648" lon="6.4593459573"><ele>2339.51</ele><time>2019-08-18T14:39:51Z</time></trkpt><trkpt lat="45.0873391796" lon="6.4592679217"><ele>2336.62</ele><time>2019-08-18T14:40:05Z</time></trkpt><trkpt lat="45.0873458013" lon="6.4592048898"><ele>2335.66</ele><time>2019-08-18T14:40:16Z</time></trkpt><trkpt lat="45.0873432867" lon="6.4591469709"><ele>2332.78</ele><time>2019-08-18T14:40:29Z</time></trkpt><trkpt lat="45.0873687677" lon="6.4591047261"><ele>2330.85</ele><time>2019-08-18T14:40:41Z</time></trkpt><trkpt lat="45.0874180533" lon="6.4590707794"><ele>2328.45</ele><time>2019-08-18T14:40:53Z</time></trkpt><trkpt lat="45.0874276925" lon="6.4590661693"><ele>2328.45</ele><time>2019-08-18T14:40:54Z</time></trkpt><trkpt lat="45.0874385890" lon="6.4590341505"><ele>2327.97</ele><time>2019-08-18T14:40:57Z</time></trkpt><trkpt lat="45.0874125212" lon="6.4589341544"><ele>2327.97</ele><time>2019-08-18T14:41:05Z</time></trkpt><trkpt lat="45.0874097552" lon="6.4588549454"><ele>2326.53</ele><time>2019-08-18T14:41:12Z</time></trkpt><trkpt lat="45.0874060672" lon="6.4588230941"><ele>2329.41</ele><time>2019-08-18T14:41:14Z</time></trkpt><trkpt lat="45.0874076597" lon="6.4588070847"><ele>2327.97</ele><time>2019-08-18T14:41:15Z</time></trkpt><trkpt lat="45.0874099229" lon="6.4587101061"><ele>2327.01</ele><time>2019-08-18T14:41:23Z</time></trkpt><trkpt lat="45.0874068215" lon="6.4586764947"><ele>2327.01</ele><time>2019-08-18T14:41:26Z</time></trkpt><trkpt lat="45.0873971824" lon="6.4586344175"><ele>2327.01</ele><time>2019-08-18T14:41:30Z</time></trkpt><trkpt lat="45.0873929914" lon="6.4586084336"><ele>2326.53</ele><time>2019-08-18T14:41:32Z</time></trkpt><trkpt lat="45.0873935781" lon="6.4585749898"><ele>2325.57</ele><time>2019-08-18T14:41:34Z</time></trkpt><trkpt lat="45.0873858668" lon="6.4585309848"><ele>2325.57</ele><time>2019-08-18T14:41:37Z</time></trkpt><trkpt lat="45.0873810891" lon="6.4584169909"><ele>2324.61</ele><time>2019-08-18T14:41:44Z</time></trkpt><trkpt lat="45.0873810053" lon="6.4583201800"><ele>2323.16</ele><time>2019-08-18T14:41:52Z</time></trkpt><trkpt lat="45.0873555243" lon="6.4581470098"><ele>2320.76</ele><time>2019-08-18T14:42:04Z</time></trkpt><trkpt lat="45.0873243436" lon="6.4579948783"><ele>2319.80</ele><time>2019-08-18T14:42:14Z</time></trkpt><trkpt lat="45.0873240083" lon="6.4579835627"><ele>2319.80</ele><time>2019-08-18T14:42:15Z</time></trkpt><trkpt lat="45.0873184763" lon="6.4578405675"><ele>2317.88</ele><time>2019-08-18T14:42:27Z</time></trkpt><trkpt lat="45.0873267744" lon="6.4578348678"><ele>2317.40</ele><time>2019-08-18T14:42:44Z</time></trkpt><trkpt lat="45.0873271096" lon="6.4578182716"><ele>2313.55</ele><time>2019-08-18T14:42:49Z</time></trkpt><trkpt lat="45.0873242598" lon="6.4578167628"><ele>2320.76</ele><time>2019-08-18T14:42:50Z</time></trkpt><trkpt lat="45.0873182248" lon="6.4578119013"><ele>2319.80</ele><time>2019-08-18T14:42:51Z</time></trkpt><trkpt lat="45.0873095915" lon="6.4578041062"><ele>2318.36</ele><time>2019-08-18T14:42:52Z</time></trkpt><trkpt lat="45.0872925762" lon="6.4577820618"><ele>2322.20</ele><time>2019-08-18T14:42:54Z</time></trkpt><trkpt lat="45.0872815121" lon="6.4577333629"><ele>2317.40</ele><time>2019-08-18T14:42:57Z</time></trkpt><trkpt lat="45.0872541033" lon="6.4576035272"><ele>2314.99</ele><time>2019-08-18T14:43:08Z</time></trkpt><trkpt lat="45.0872782432" lon="6.4576057903"><ele>2316.43</ele><time>2019-08-18T14:43:12Z</time></trkpt><trkpt lat="45.0872985274" lon="6.4576098975"><ele>2317.40</ele><time>2019-08-18T14:43:14Z</time></trkpt><trkpt lat="45.0873050652" lon="6.4575964864"><ele>2318.36</ele><time>2019-08-18T14:43:22Z</time></trkpt><trkpt lat="45.0873203203" lon="6.4575569239"><ele>2316.91</ele><time>2019-08-18T14:43:26Z</time></trkpt><trkpt lat="45.0873224158" lon="6.4575498831"><ele>2316.91</ele><time>2019-08-18T14:43:27Z</time></trkpt><trkpt lat="45.0873592123" lon="6.4575012680"><ele>2313.07</ele><time>2019-08-18T14:43:36Z</time></trkpt><trkpt lat="45.0873596314" lon="6.4575032797"><ele>2318.84</ele><time>2019-08-18T14:43:37Z</time></trkpt><trkpt lat="45.0873603020" lon="6.4575053751"><ele>2318.84</ele><time>2019-08-18T14:43:38Z</time></trkpt><trkpt lat="45.0873641577" lon="6.4574952330"><ele>2311.63</ele><time>2019-08-18T14:43:40Z</time></trkpt><trkpt lat="45.0873665884" lon="6.4574846718"><ele>2322.20</ele><time>2019-08-18T14:43:41Z</time></trkpt><trkpt lat="45.0873711146" lon="6.4574744459"><ele>2317.88</ele><time>2019-08-18T14:43:42Z</time></trkpt><trkpt lat="45.0873746350" lon="6.4574638009"><ele>2316.91</ele><time>2019-08-18T14:43:43Z</time></trkpt><trkpt lat="45.0874017924" lon="6.4573747013"><ele>2317.40</ele><time>2019-08-18T14:43:57Z</time></trkpt><trkpt lat="45.0874057319" lon="6.4573893696"><ele>2321.72</ele><time>2019-08-18T14:44:07Z</time></trkpt><trkpt lat="45.0874012057" lon="6.4573889505"><ele>2321.72</ele><time>2019-08-18T14:44:08Z</time></trkpt><trkpt lat="45.0873932429" lon="6.4573794790"><ele>2317.88</ele><time>2019-08-18T14:44:09Z</time></trkpt><trkpt lat="45.0873899739" lon="6.4573596139"><ele>2317.40</ele><time>2019-08-18T14:44:11Z</time></trkpt><trkpt lat="45.0874006189" lon="6.4573151059"><ele>2316.91</ele><time>2019-08-18T14:44:21Z</time></trkpt><trkpt lat="45.0874058995" lon="6.4573301096"><ele>2316.91</ele><time>2019-08-18T14:44:41Z</time></trkpt><trkpt lat="45.0874035526" lon="6.4573277626"><ele>2288.56</ele><time>2019-08-18T14:44:43Z</time></trkpt><trkpt lat="45.0874022953" lon="6.4573282655"><ele>2334.70</ele><time>2019-08-18T14:44:44Z</time></trkpt><trkpt lat="45.0874022115" lon="6.4573249966"><ele>2327.49</ele><time>2019-08-18T14:44:45Z</time></trkpt><trkpt lat="45.0874058157" lon="6.4573243260"><ele>2319.80</ele><time>2019-08-18T14:44:46Z</time></trkpt><trkpt lat="45.0874098390" lon="6.4572888706"><ele>2317.88</ele><time>2019-08-18T14:45:00Z</time></trkpt><trkpt lat="45.0874349009" lon="6.4572442789"><ele>2316.91</ele><time>2019-08-18T14:45:12Z</time></trkpt><trkpt lat="45.0874223281" lon="6.4572491404"><ele>2318.36</ele><time>2019-08-18T14:45:23Z</time></trkpt><trkpt lat="45.0874248426" lon="6.4572518226"><ele>2316.43</ele><time>2019-08-18T14:45:26Z</time></trkpt><trkpt lat="45.0874214061" lon="6.4572549239"><ele>2317.40</ele><time>2019-08-18T14:45:28Z</time></trkpt><trkpt lat="45.0874129403" lon="6.4572768845"><ele>2318.36</ele><time>2019-08-18T14:45:30Z</time></trkpt><trkpt lat="45.0873981882" lon="6.4573235717"><ele>2316.43</ele><time>2019-08-18T14:45:43Z</time></trkpt><trkpt lat="45.0874151196" lon="6.4573222306"><ele>2316.43</ele><time>2019-08-18T14:46:16Z</time></trkpt><trkpt lat="45.0874067377" lon="6.4573364798"><ele>2318.36</ele><time>2019-08-18T14:46:30Z</time></trkpt><trkpt lat="45.0873862021" lon="6.4573630504"><ele>2316.91</ele><time>2019-08-18T14:46:43Z</time></trkpt><trkpt lat="45.0873832684" lon="6.4573388267"><ele>2315.47</ele><time>2019-08-18T14:46:56Z</time></trkpt><trkpt lat="45.0873723719" lon="6.4573425986"><ele>2316.43</ele><time>2019-08-18T14:47:10Z</time></trkpt><trkpt lat="45.0873854477" lon="6.4573611226"><ele>2307.78</ele><time>2019-08-18T14:47:17Z</time></trkpt><trkpt lat="45.0873856153" lon="6.4573606197"><ele>2316.91</ele><time>2019-08-18T14:47:18Z</time></trkpt><trkpt lat="45.0873841904" lon="6.4573580213"><ele>2320.28</ele><time>2019-08-18T14:47:19Z</time></trkpt><trkpt lat="45.0873826817" lon="6.4573539980"><ele>2317.40</ele><time>2019-08-18T14:47:20Z</time></trkpt><trkpt lat="45.0873803347" lon="6.4573193807"><ele>2315.47</ele><time>2019-08-18T14:47:59Z</time></trkpt><trkpt lat="45.0874013733" lon="6.4573234040"><ele>2315.47</ele><time>2019-08-18T14:48:10Z</time></trkpt><trkpt lat="45.0874209870" lon="6.4573509805"><ele>2318.84</ele><time>2019-08-18T14:48:25Z</time></trkpt><trkpt lat="45.0874260161" lon="6.4573484659"><ele>2318.36</ele><time>2019-08-18T14:48:40Z</time></trkpt><trkpt lat="45.0874165446" lon="6.4573366474"><ele>2318.36</ele><time>2019-08-18T14:49:06Z</time></trkpt><trkpt lat="45.0874131080" lon="6.4573089033"><ele>2316.91</ele><time>2019-08-18T14:49:11Z</time></trkpt><trkpt lat="45.0874182209" lon="6.4572337177"><ele>2316.43</ele><time>2019-08-18T14:49:23Z</time></trkpt><trkpt lat="45.0874250941" lon="6.4572135173"><ele>2316.43</ele><time>2019-08-18T14:49:38Z</time></trkpt><trkpt lat="45.0874250941" lon="6.4572265930"><ele>2319.80</ele><time>2019-08-18T14:49:50Z</time></trkpt><trkpt lat="45.0874250941" lon="6.4572322089"><ele>2317.88</ele><time>2019-08-18T14:49:51Z</time></trkpt><trkpt lat="45.0874393433" lon="6.4572233241"><ele>2316.43</ele><time>2019-08-18T14:49:53Z</time></trkpt><trkpt lat="45.0874443725" lon="6.4572395850"><ele>2303.94</ele><time>2019-08-18T14:50:08Z</time></trkpt><trkpt lat="45.0874395948" lon="6.4572426025"><ele>2323.64</ele><time>2019-08-18T14:50:09Z</time></trkpt><trkpt lat="45.0874323025" lon="6.4572474640"><ele>2319.32</ele><time>2019-08-18T14:50:10Z</time></trkpt><trkpt lat="45.0874212384" lon="6.4572633896"><ele>2315.95</ele><time>2019-08-18T14:50:12Z</time></trkpt><trkpt lat="45.0874202326" lon="6.4572719391"><ele>2315.95</ele><time>2019-08-18T14:50:13Z</time></trkpt><trkpt lat="45.0873976853" lon="6.4573138487"><ele>2315.47</ele><time>2019-08-18T14:50:24Z</time></trkpt><trkpt lat="45.0873842742" lon="6.4573606197"><ele>2314.51</ele><time>2019-08-18T14:50:35Z</time></trkpt><trkpt lat="45.0873856992" lon="6.4573613741"><ele>2315.95</ele><time>2019-08-18T14:50:38Z</time></trkpt><trkpt lat="45.0873955898" lon="6.4573669061"><ele>2337.10</ele><time>2019-08-18T14:50:56Z</time></trkpt><trkpt lat="45.0874002837" lon="6.4573616255"><ele>2321.72</ele><time>2019-08-18T14:50:57Z</time></trkpt><trkpt lat="45.0874069054" lon="6.4573564287"><ele>2317.88</ele><time>2019-08-18T14:50:58Z</time></trkpt><trkpt lat="45.0874135271" lon="6.4573470410"><ele>2316.91</ele><time>2019-08-18T14:51:00Z</time></trkpt><trkpt lat="45.0874102581" lon="6.4573090710"><ele>2316.91</ele><time>2019-08-18T14:51:11Z</time></trkpt><trkpt lat="45.0874068215" lon="6.4573103283"><ele>2313.55</ele><time>2019-08-18T14:51:23Z</time></trkpt><trkpt lat="45.0874079950" lon="6.4573097415"><ele>2321.72</ele><time>2019-08-18T14:51:25Z</time></trkpt><trkpt lat="45.0874065701" lon="6.4573102444"><ele>2317.88</ele><time>2019-08-18T14:51:26Z</time></trkpt><trkpt lat="45.0874056481" lon="6.4573122561"><ele>2315.95</ele><time>2019-08-18T14:51:28Z</time></trkpt><trkpt lat="45.0874069892" lon="6.4573155250"><ele>2316.43</ele><time>2019-08-18T14:51:46Z</time></trkpt><trkpt lat="45.0874053966" lon="6.4573147707"><ele>2315.47</ele><time>2019-08-18T14:51:49Z</time></trkpt><trkpt lat="45.0873959251" lon="6.4573104959"><ele>2315.95</ele><time>2019-08-18T14:52:02Z</time></trkpt><trkpt lat="45.0874110963" lon="6.4573286846"><ele>2315.47</ele><time>2019-08-18T14:52:15Z</time></trkpt><trkpt lat="45.0873779040" lon="6.4573384915"><ele>2314.03</ele><time>2019-08-18T14:52:29Z</time></trkpt><trkpt lat="45.0873601343" lon="6.4574095700"><ele>2312.59</ele><time>2019-08-18T14:52:42Z</time></trkpt><trkpt lat="45.0872894749" lon="6.4574011043"><ele>2309.22</ele><time>2019-08-18T14:52:56Z</time></trkpt><trkpt lat="45.0872919057" lon="6.4573940635"><ele>2305.86</ele><time>2019-08-18T14:53:20Z</time></trkpt><trkpt lat="45.0872883014" lon="6.4573918842"><ele>2302.01</ele><time>2019-08-18T14:53:21Z</time></trkpt><trkpt lat="45.0872876309" lon="6.4573850948"><ele>2317.40</ele><time>2019-08-18T14:53:22Z</time></trkpt><trkpt lat="45.0872877147" lon="6.4573702589"><ele>2313.55</ele><time>2019-08-18T14:53:23Z</time></trkpt><trkpt lat="45.0872950908" lon="6.4573312830"><ele>2309.70</ele><time>2019-08-18T14:53:26Z</time></trkpt><trkpt lat="45.0872982759" lon="6.4572725259"><ele>2309.22</ele><time>2019-08-18T14:53:39Z</time></trkpt><trkpt lat="45.0872820150" lon="6.4571618848"><ele>2307.30</ele><time>2019-08-18T14:53:51Z</time></trkpt><trkpt lat="45.0872658379" lon="6.4571131859"><ele>2306.34</ele><time>2019-08-18T14:54:06Z</time></trkpt><trkpt lat="45.0872722082" lon="6.4570971765"><ele>2306.34</ele><time>2019-08-18T14:54:34Z</time></trkpt><trkpt lat="45.0872692745" lon="6.4570651576"><ele>2305.86</ele><time>2019-08-18T14:54:54Z</time></trkpt><trkpt lat="45.0872355793" lon="6.4569382556"><ele>2303.94</ele><time>2019-08-18T14:55:08Z</time></trkpt><trkpt lat="45.0872222520" lon="6.4568023849"><ele>2301.53</ele><time>2019-08-18T14:55:22Z</time></trkpt><trkpt lat="45.0871821027" lon="6.4565697033"><ele>2299.61</ele><time>2019-08-18T14:55:39Z</time></trkpt><trkpt lat="45.0871589687" lon="6.4563719742"><ele>2298.17</ele><time>2019-08-18T14:55:54Z</time></trkpt><trkpt lat="45.0871103536" lon="6.4562190045"><ele>2295.28</ele><time>2019-08-18T14:56:07Z</time></trkpt><trkpt lat="45.0870992057" lon="6.4561171643"><ele>2292.40</ele><time>2019-08-18T14:56:17Z</time></trkpt><trkpt lat="45.0870312285" lon="6.4559127297"><ele>2290.96</ele><time>2019-08-18T14:56:33Z</time></trkpt><trkpt lat="45.0870282948" lon="6.4558843151"><ele>2290.96</ele><time>2019-08-18T14:56:35Z</time></trkpt><trkpt lat="45.0870105252" lon="6.4558500331"><ele>2290.96</ele><time>2019-08-18T14:56:38Z</time></trkpt><trkpt lat="45.0868995488" lon="6.4556820597"><ele>2288.08</ele><time>2019-08-18T14:56:54Z</time></trkpt><trkpt lat="45.0867801905" lon="6.4555240609"><ele>2285.19</ele><time>2019-08-18T14:57:09Z</time></trkpt><trkpt lat="45.0867516082" lon="6.4554201253"><ele>2283.75</ele><time>2019-08-18T14:57:20Z</time></trkpt><trkpt lat="45.0867044181" lon="6.4553021081"><ele>2281.83</ele><time>2019-08-18T14:57:33Z</time></trkpt><trkpt lat="45.0866951980" lon="6.4551410917"><ele>2278.46</ele><time>2019-08-18T14:57:47Z</time></trkpt><trkpt lat="45.0866602454" lon="6.4550668281"><ele>2274.62</ele><time>2019-08-18T14:57:54Z</time></trkpt><trkpt lat="45.0866379496" lon="6.4550430235"><ele>2276.06</ele><time>2019-08-18T14:57:59Z</time></trkpt><trkpt lat="45.0866321661" lon="6.4550167043"><ele>2275.10</ele><time>2019-08-18T14:58:01Z</time></trkpt><trkpt lat="45.0866320822" lon="6.4550052211"><ele>2270.77</ele><time>2019-08-18T14:58:02Z</time></trkpt><trkpt lat="45.0866293162" lon="6.4549943246"><ele>2280.38</ele><time>2019-08-18T14:58:03Z</time></trkpt><trkpt lat="45.0866252929" lon="6.4549805783"><ele>2275.10</ele><time>2019-08-18T14:58:04Z</time></trkpt><trkpt lat="45.0865786057" lon="6.4548572805"><ele>2265.96</ele><time>2019-08-18T14:58:14Z</time></trkpt><trkpt lat="45.0865713973" lon="6.4548433665"><ele>2270.29</ele><time>2019-08-18T14:58:15Z</time></trkpt><trkpt lat="45.0865658652" lon="6.4548296202"><ele>2273.66</ele><time>2019-08-18T14:58:16Z</time></trkpt><trkpt lat="45.0865590759" lon="6.4548170473"><ele>2278.94</ele><time>2019-08-18T14:58:17Z</time></trkpt><trkpt lat="45.0865523703" lon="6.4548026305"><ele>2274.14</ele><time>2019-08-18T14:58:18Z</time></trkpt><trkpt lat="45.0865399651" lon="6.4547658339"><ele>2269.33</ele><time>2019-08-18T14:58:21Z</time></trkpt><trkpt lat="45.0865337625" lon="6.4547544345"><ele>2269.33</ele><time>2019-08-18T14:58:22Z</time></trkpt><trkpt lat="45.0865230337" lon="6.4547158778"><ele>2279.90</ele><time>2019-08-18T14:58:25Z</time></trkpt><trkpt lat="45.0865219440" lon="6.4547033049"><ele>2272.21</ele><time>2019-08-18T14:58:26Z</time></trkpt><trkpt lat="45.0865079463" lon="6.4545548614"><ele>2268.37</ele><time>2019-08-18T14:58:37Z</time></trkpt><trkpt lat="45.0865110476" lon="6.4545510057"><ele>2271.73</ele><time>2019-08-18T14:58:38Z</time></trkpt><trkpt lat="45.0865093712" lon="6.4545463957"><ele>2271.73</ele><time>2019-08-18T14:58:39Z</time></trkpt><trkpt lat="45.0865047611" lon="6.4545380976"><ele>2267.89</ele><time>2019-08-18T14:58:40Z</time></trkpt><trkpt lat="45.0865014084" lon="6.4545264468"><ele>2273.66</ele><time>2019-08-18T14:58:41Z</time></trkpt><trkpt lat="45.0864970498" lon="6.4545042347"><ele>2269.81</ele><time>2019-08-18T14:58:43Z</time></trkpt><trkpt lat="45.0864559785" lon="6.4543567970"><ele>2266.93</ele><time>2019-08-18T14:58:58Z</time></trkpt><trkpt lat="45.0864190981" lon="6.4542067610"><ele>2264.52</ele><time>2019-08-18T14:59:13Z</time></trkpt><trkpt lat="45.0864114705" lon="6.4540205989"><ele>2261.64</ele><time>2019-08-18T14:59:29Z</time></trkpt><trkpt lat="45.0864479318" lon="6.4538848959"><ele>2257.31</ele><time>2019-08-18T14:59:43Z</time></trkpt><trkpt lat="45.0864506979" lon="6.4538804535"><ele>2257.31</ele><time>2019-08-18T14:59:44Z</time></trkpt><trkpt lat="45.0864508655" lon="6.4538649470"><ele>2258.75</ele><time>2019-08-18T14:59:46Z</time></trkpt><trkpt lat="45.0864478480" lon="6.4538466744"><ele>2257.31</ele><time>2019-08-18T14:59:48Z</time></trkpt><trkpt lat="45.0864495244" lon="6.4538284019"><ele>2258.75</ele><time>2019-08-18T14:59:52Z</time></trkpt><trkpt lat="45.0864512008" lon="6.4538332634"><ele>2252.03</ele><time>2019-08-18T14:59:54Z</time></trkpt><trkpt lat="45.0864509493" lon="6.4538325090"><ele>2261.16</ele><time>2019-08-18T14:59:55Z</time></trkpt><trkpt lat="45.0864484347" lon="6.4538176730"><ele>2257.79</ele><time>2019-08-18T15:00:01Z</time></trkpt><trkpt lat="45.0864420645" lon="6.4538163319"><ele>2253.47</ele><time>2019-08-18T15:00:15Z</time></trkpt><trkpt lat="45.0864420645" lon="6.4538193494"><ele>2256.83</ele><time>2019-08-18T15:00:16Z</time></trkpt><trkpt lat="45.0864367001" lon="6.4537993167"><ele>2255.87</ele><time>2019-08-18T15:00:24Z</time></trkpt><trkpt lat="45.0864133984" lon="6.4537799545"><ele>2253.47</ele><time>2019-08-18T15:00:36Z</time></trkpt><trkpt lat="45.0864113867" lon="6.4537978917"><ele>2253.95</ele><time>2019-08-18T15:00:46Z</time></trkpt><trkpt lat="45.0864094589" lon="6.4538077824"><ele>2253.47</ele><time>2019-08-18T15:00:51Z</time></trkpt><trkpt lat="45.0864164997" lon="6.4538113028"><ele>2253.47</ele><time>2019-08-18T15:01:05Z</time></trkpt><trkpt lat="45.0864067767" lon="6.4537963830"><ele>2252.99</ele><time>2019-08-18T15:01:29Z</time></trkpt><trkpt lat="45.0864009093" lon="6.4537869114"><ele>2252.99</ele><time>2019-08-18T15:01:52Z</time></trkpt><trkpt lat="45.0863939524" lon="6.4537754282"><ele>2253.95</ele><time>2019-08-18T15:02:12Z</time></trkpt><trkpt lat="45.0864022505" lon="6.4537818823"><ele>2246.74</ele><time>2019-08-18T15:02:20Z</time></trkpt><trkpt lat="45.0864040945" lon="6.4537803736"><ele>2249.62</ele><time>2019-08-18T15:02:21Z</time></trkpt><trkpt lat="45.0864057709" lon="6.4537794515"><ele>2253.95</ele><time>2019-08-18T15:02:22Z</time></trkpt><trkpt lat="45.0864068605" lon="6.4537803736"><ele>2251.54</ele><time>2019-08-18T15:02:23Z</time></trkpt><trkpt lat="45.0864038430" lon="6.4537763502"><ele>2247.22</ele><time>2019-08-18T15:02:40Z</time></trkpt><trkpt lat="45.0864038430" lon="6.4537817985"><ele>2253.95</ele><time>2019-08-18T15:02:41Z</time></trkpt><trkpt lat="45.0864055194" lon="6.4537869114"><ele>2253.95</ele><time>2019-08-18T15:02:42Z</time></trkpt><trkpt lat="45.0864012446" lon="6.4537811279"><ele>2252.51</ele><time>2019-08-18T15:02:46Z</time></trkpt><trkpt lat="45.0864060223" lon="6.4537747577"><ele>2252.03</ele><time>2019-08-18T15:03:11Z</time></trkpt><trkpt lat="45.0864076149" lon="6.4537791163"><ele>2252.99</ele><time>2019-08-18T15:03:36Z</time></trkpt><trkpt lat="45.0864070281" lon="6.4537843131"><ele>2251.06</ele><time>2019-08-18T15:03:58Z</time></trkpt><trkpt lat="45.0863994844" lon="6.4537891746"><ele>2251.06</ele><time>2019-08-18T15:04:15Z</time></trkpt><trkpt lat="45.0864332635" lon="6.4537908509"><ele>2252.51</ele><time>2019-08-18T15:04:29Z</time></trkpt><trkpt lat="45.0864637736" lon="6.4537734166"><ele>2253.95</ele><time>2019-08-18T15:04:40Z</time></trkpt><trkpt lat="45.0864891708" lon="6.4537689742"><ele>2254.43</ele><time>2019-08-18T15:04:56Z</time></trkpt><trkpt lat="45.0864887517" lon="6.4537789486"><ele>2248.66</ele><time>2019-08-18T15:05:07Z</time></trkpt><trkpt lat="45.0864847284" lon="6.4537735004"><ele>2255.87</ele><time>2019-08-18T15:05:08Z</time></trkpt><trkpt lat="45.0864777714" lon="6.4537672140"><ele>2254.43</ele><time>2019-08-18T15:05:35Z</time></trkpt><trkpt lat="45.0864942838" lon="6.4537792001"><ele>2254.43</ele><time>2019-08-18T15:05:56Z</time></trkpt><trkpt lat="45.0865294877" lon="6.4536971413"><ele>2253.95</ele><time>2019-08-18T15:06:16Z</time></trkpt><trkpt lat="45.0865306612" lon="6.4535328560"><ele>2251.06</ele><time>2019-08-18T15:06:31Z</time></trkpt><trkpt lat="45.0865602493" lon="6.4534297585"><ele>2247.70</ele><time>2019-08-18T15:06:45Z</time></trkpt><trkpt lat="45.0865531247" lon="6.4533405751"><ele>2244.82</ele><time>2019-08-18T15:06:58Z</time></trkpt><trkpt lat="45.0865416415" lon="6.4532834943"><ele>2243.37</ele><time>2019-08-18T15:07:11Z</time></trkpt><trkpt lat="45.0865131430" lon="6.4531660639"><ele>2240.01</ele><time>2019-08-18T15:07:24Z</time></trkpt><trkpt lat="45.0865068566" lon="6.4531256631"><ele>2238.57</ele><time>2019-08-18T15:07:35Z</time></trkpt><trkpt lat="45.0865001511" lon="6.4530199673"><ele>2236.64</ele><time>2019-08-18T15:07:48Z</time></trkpt><trkpt lat="45.0864909310" lon="6.4529884513"><ele>2234.72</ele><time>2019-08-18T15:08:02Z</time></trkpt><trkpt lat="45.0864878297" lon="6.4529223181"><ele>2232.80</ele><time>2019-08-18T15:08:14Z</time></trkpt><trkpt lat="45.0864882488" lon="6.4528662432"><ele>2232.32</ele><time>2019-08-18T15:08:19Z</time></trkpt><trkpt lat="45.0864962954" lon="6.4527252596"><ele>2229.92</ele><time>2019-08-18T15:08:32Z</time></trkpt><trkpt lat="45.0864864886" lon="6.4526224136"><ele>2227.51</ele><time>2019-08-18T15:08:45Z</time></trkpt><trkpt lat="45.0864800345" lon="6.4525280334"><ele>2225.59</ele><time>2019-08-18T15:08:57Z</time></trkpt><trkpt lat="45.0864527933" lon="6.4524838608"><ele>2223.67</ele><time>2019-08-18T15:09:09Z</time></trkpt><trkpt lat="45.0864523742" lon="6.4523722138"><ele>2220.30</ele><time>2019-08-18T15:09:23Z</time></trkpt><trkpt lat="45.0864440762" lon="6.4522862155"><ele>2217.90</ele><time>2019-08-18T15:09:35Z</time></trkpt><trkpt lat="45.0864469260" lon="6.4522427972"><ele>2216.46</ele><time>2019-08-18T15:09:42Z</time></trkpt><trkpt lat="45.0864288211" lon="6.4521787595"><ele>2213.09</ele><time>2019-08-18T15:09:54Z</time></trkpt><trkpt lat="45.0863816310" lon="6.4520831220"><ele>2210.21</ele><time>2019-08-18T15:10:08Z</time></trkpt><trkpt lat="45.0863499474" lon="6.4520700462"><ele>2208.29</ele><time>2019-08-18T15:10:24Z</time></trkpt><trkpt lat="45.0863460917" lon="6.4520288073"><ele>2209.73</ele><time>2019-08-18T15:10:48Z</time></trkpt><trkpt lat="45.0863335188" lon="6.4519761689"><ele>2208.29</ele><time>2019-08-18T15:10:53Z</time></trkpt><trkpt lat="45.0863197725" lon="6.4518579841"><ele>2205.88</ele><time>2019-08-18T15:11:05Z</time></trkpt><trkpt lat="45.0863258913" lon="6.4517528750"><ele>2202.52</ele><time>2019-08-18T15:11:20Z</time></trkpt><trkpt lat="45.0863124803" lon="6.4516310859"><ele>2200.11</ele><time>2019-08-18T15:11:34Z</time></trkpt><trkpt lat="45.0862685591" lon="6.4515546430"><ele>2196.75</ele><time>2019-08-18T15:11:45Z</time></trkpt><trkpt lat="45.0862642005" lon="6.4514529705"><ele>2193.87</ele><time>2019-08-18T15:11:59Z</time></trkpt><trkpt lat="45.0861915294" lon="6.4514872525"><ele>2192.42</ele><time>2019-08-18T15:12:10Z</time></trkpt><trkpt lat="45.0862124842" lon="6.4513812214"><ele>2190.50</ele><time>2019-08-18T15:12:22Z</time></trkpt><trkpt lat="45.0862430781" lon="6.4512602706"><ele>2187.62</ele><time>2019-08-18T15:12:36Z</time></trkpt><trkpt lat="45.0862604287" lon="6.4511973225"><ele>2185.69</ele><time>2019-08-18T15:12:48Z</time></trkpt><trkpt lat="45.0861744303" lon="6.4512196183"><ele>2183.77</ele><time>2019-08-18T15:13:02Z</time></trkpt><trkpt lat="45.0861051120" lon="6.4512518886"><ele>2181.37</ele><time>2019-08-18T15:13:15Z</time></trkpt><trkpt lat="45.0861243904" lon="6.4511840791"><ele>2179.45</ele><time>2019-08-18T15:13:22Z</time></trkpt><trkpt lat="45.0861344486" lon="6.4511426724"><ele>2178.48</ele><time>2019-08-18T15:13:26Z</time></trkpt><trkpt lat="45.0861673895" lon="6.4509775490"><ele>2175.60</ele><time>2019-08-18T15:13:41Z</time></trkpt><trkpt lat="45.0861649588" lon="6.4508876950"><ele>2172.72</ele><time>2019-08-18T15:13:56Z</time></trkpt><trkpt lat="45.0860531442" lon="6.4509486314"><ele>2169.83</ele><time>2019-08-18T15:14:11Z</time></trkpt><trkpt lat="45.0860746019" lon="6.4508438576"><ele>2167.43</ele><time>2019-08-18T15:14:23Z</time></trkpt><trkpt lat="45.0861189421" lon="6.4506607968"><ele>2165.99</ele><time>2019-08-18T15:14:40Z</time></trkpt><trkpt lat="45.0861446746" lon="6.4505707752"><ele>2164.55</ele><time>2019-08-18T15:14:54Z</time></trkpt><trkpt lat="45.0861929543" lon="6.4505138621"><ele>2162.14</ele><time>2019-08-18T15:15:07Z</time></trkpt><trkpt lat="45.0861998275" lon="6.4505069051"><ele>2162.14</ele><time>2019-08-18T15:15:08Z</time></trkpt><trkpt lat="45.0862468500" lon="6.4504043106"><ele>2160.22</ele><time>2019-08-18T15:15:19Z</time></trkpt><trkpt lat="45.0862538069" lon="6.4502701163"><ele>2158.30</ele><time>2019-08-18T15:15:31Z</time></trkpt><trkpt lat="45.0862485263" lon="6.4501633309"><ele>2156.86</ele><time>2019-08-18T15:15:42Z</time></trkpt><trkpt lat="45.0862874184" lon="6.4498857222"><ele>2154.45</ele><time>2019-08-18T15:16:02Z</time></trkpt><trkpt lat="45.0863064453" lon="6.4498305693"><ele>2153.97</ele><time>2019-08-18T15:16:06Z</time></trkpt><trkpt lat="45.0864429027" lon="6.4496636856"><ele>2150.61</ele><time>2019-08-18T15:16:22Z</time></trkpt><trkpt lat="45.0865589920" lon="6.4495413098"><ele>2148.20</ele><time>2019-08-18T15:16:35Z</time></trkpt><trkpt lat="45.0865823776" lon="6.4495067764"><ele>2148.20</ele><time>2019-08-18T15:16:38Z</time></trkpt><trkpt lat="45.0866114628" lon="6.4493989851"><ele>2147.72</ele><time>2019-08-18T15:16:45Z</time></trkpt><trkpt lat="45.0866184197" lon="6.4493160043"><ele>2147.24</ele><time>2019-08-18T15:16:50Z</time></trkpt><trkpt lat="45.0866351835" lon="6.4492297545"><ele>2146.28</ele><time>2019-08-18T15:16:55Z</time></trkpt><trkpt lat="45.0866676215" lon="6.4490260743"><ele>2144.36</ele><time>2019-08-18T15:17:10Z</time></trkpt><trkpt lat="45.0866930187" lon="6.4488638844"><ele>2142.44</ele><time>2019-08-18T15:17:24Z</time></trkpt><trkpt lat="45.0867057592" lon="6.4486690052"><ele>2140.99</ele><time>2019-08-18T15:17:38Z</time></trkpt><trkpt lat="45.0866489299" lon="6.4484766405"><ele>2139.07</ele><time>2019-08-18T15:17:51Z</time></trkpt><trkpt lat="45.0866403803" lon="6.4482401032"><ele>2136.67</ele><time>2019-08-18T15:18:07Z</time></trkpt><trkpt lat="45.0866419729" lon="6.4482177235"><ele>2136.19</ele><time>2019-08-18T15:18:09Z</time></trkpt><trkpt lat="45.0866487622" lon="6.4480591379"><ele>2134.74</ele><time>2019-08-18T15:18:22Z</time></trkpt><trkpt lat="45.0866280589" lon="6.4479800127"><ele>2134.26</ele><time>2019-08-18T15:18:28Z</time></trkpt><trkpt lat="45.0866435654" lon="6.4477597363"><ele>2131.86</ele><time>2019-08-18T15:18:44Z</time></trkpt><trkpt lat="45.0866332557" lon="6.4477064274"><ele>2130.90</ele><time>2019-08-18T15:18:47Z</time></trkpt><trkpt lat="45.0866319984" lon="6.4475201815"><ele>2129.46</ele><time>2019-08-18T15:19:01Z</time></trkpt><trkpt lat="45.0866376981" lon="6.4475097880"><ele>2129.46</ele><time>2019-08-18T15:19:02Z</time></trkpt><trkpt lat="45.0866928510" lon="6.4473073650"><ele>2125.61</ele><time>2019-08-18T15:19:18Z</time></trkpt><trkpt lat="45.0866965391" lon="6.4472953789"><ele>2125.61</ele><time>2019-08-18T15:19:19Z</time></trkpt><trkpt lat="45.0867779274" lon="6.4470932912"><ele>2123.69</ele><time>2019-08-18T15:19:34Z</time></trkpt><trkpt lat="45.0868055876" lon="6.4470229670"><ele>2123.21</ele><time>2019-08-18T15:19:40Z</time></trkpt><trkpt lat="45.0868296437" lon="6.4469546545"><ele>2122.73</ele><time>2019-08-18T15:19:46Z</time></trkpt><trkpt lat="45.0868876465" lon="6.4467937220"><ele>2118.88</ele><time>2019-08-18T15:20:00Z</time></trkpt><trkpt lat="45.0869243592" lon="6.4466925524"><ele>2116.48</ele><time>2019-08-18T15:20:11Z</time></trkpt><trkpt lat="45.0869512651" lon="6.4466281794"><ele>2116.48</ele><time>2019-08-18T15:20:16Z</time></trkpt><trkpt lat="45.0869634189" lon="6.4465923049"><ele>2116.00</ele><time>2019-08-18T15:20:19Z</time></trkpt><trkpt lat="45.0869868882" lon="6.4465585258"><ele>2114.56</ele><time>2019-08-18T15:20:22Z</time></trkpt><trkpt lat="45.0870163087" lon="6.4463657420"><ele>2113.12</ele><time>2019-08-18T15:20:35Z</time></trkpt><trkpt lat="45.0870190747" lon="6.4462022949"><ele>2112.15</ele><time>2019-08-18T15:20:48Z</time></trkpt><trkpt lat="45.0870119501" lon="6.4461176377"><ele>2110.71</ele><time>2019-08-18T15:20:54Z</time></trkpt><trkpt lat="45.0870232657" lon="6.4460766502"><ele>2110.71</ele><time>2019-08-18T15:20:57Z</time></trkpt><trkpt lat="45.0870272890" lon="6.4460044820"><ele>2109.75</ele><time>2019-08-18T15:21:03Z</time></trkpt><trkpt lat="45.0870253611" lon="6.4459365886"><ele>2107.83</ele><time>2019-08-18T15:21:16Z</time></trkpt><trkpt lat="45.0870168954" lon="6.4459311403"><ele>2107.35</ele><time>2019-08-18T15:21:17Z</time></trkpt><trkpt lat="45.0869233534" lon="6.4459086768"><ele>2105.42</ele><time>2019-08-18T15:21:33Z</time></trkpt><trkpt lat="45.0869178213" lon="6.4459034801"><ele>2105.42</ele><time>2019-08-18T15:21:44Z</time></trkpt><trkpt lat="45.0868891552" lon="6.4458940923"><ele>2100.62</ele><time>2019-08-18T15:21:49Z</time></trkpt><trkpt lat="45.0868857186" lon="6.4458895661"><ele>2107.83</ele><time>2019-08-18T15:21:50Z</time></trkpt><trkpt lat="45.0868819468" lon="6.4458598942"><ele>2103.50</ele><time>2019-08-18T15:21:53Z</time></trkpt><trkpt lat="45.0868489221" lon="6.4458358381"><ele>2102.54</ele><time>2019-08-18T15:21:57Z</time></trkpt><trkpt lat="45.0867248699" lon="6.4457848761"><ele>2100.62</ele><time>2019-08-18T15:22:11Z</time></trkpt><trkpt lat="45.0866026618" lon="6.4457482472"><ele>2099.18</ele><time>2019-08-18T15:22:23Z</time></trkpt><trkpt lat="45.0864992291" lon="6.4457029011"><ele>2097.73</ele><time>2019-08-18T15:22:37Z</time></trkpt><trkpt lat="45.0864369515" lon="6.4456429705"><ele>2097.73</ele><time>2019-08-18T15:22:51Z</time></trkpt><trkpt lat="45.0864376221" lon="6.4456458203"><ele>2097.73</ele><time>2019-08-18T15:22:52Z</time></trkpt><trkpt lat="45.0864400528" lon="6.4456464071"><ele>2096.77</ele><time>2019-08-18T15:22:56Z</time></trkpt><trkpt lat="45.0864418969" lon="6.4456384443"><ele>2096.77</ele><time>2019-08-18T15:22:58Z</time></trkpt><trkpt lat="45.0864376221" lon="6.4456122927"><ele>2090.04</ele><time>2019-08-18T15:23:04Z</time></trkpt><trkpt lat="45.0864350237" lon="6.4456178248"><ele>2100.14</ele><time>2019-08-18T15:23:05Z</time></trkpt><trkpt lat="45.0864312518" lon="6.4456259552"><ele>2097.25</ele><time>2019-08-18T15:23:06Z</time></trkpt><trkpt lat="45.0864122249" lon="6.4456433896"><ele>2098.21</ele><time>2019-08-18T15:23:13Z</time></trkpt><trkpt lat="45.0864170864" lon="6.4456392825"><ele>2095.33</ele><time>2019-08-18T15:23:19Z</time></trkpt><trkpt lat="45.0864170026" lon="6.4456340019"><ele>2096.77</ele><time>2019-08-18T15:23:23Z</time></trkpt><trkpt lat="45.0864137337" lon="6.4456234407"><ele>2095.33</ele><time>2019-08-18T15:23:28Z</time></trkpt><trkpt lat="45.0864097103" lon="6.4456247818"><ele>2096.77</ele><time>2019-08-18T15:23:54Z</time></trkpt><trkpt lat="45.0864169188" lon="6.4456246141"><ele>2095.33</ele><time>2019-08-18T15:24:08Z</time></trkpt><trkpt lat="45.0864003226" lon="6.4456727263"><ele>2093.89</ele><time>2019-08-18T15:24:21Z</time></trkpt><trkpt lat="45.0863645319" lon="6.4457362611"><ele>2093.89</ele><time>2019-08-18T15:24:34Z</time></trkpt><trkpt lat="45.0863412302" lon="6.4457727224"><ele>2093.89</ele><time>2019-08-18T15:24:52Z</time></trkpt><trkpt lat="45.0863424037" lon="6.4458007179"><ele>2094.85</ele><time>2019-08-18T15:25:01Z</time></trkpt><trkpt lat="45.0863708183" lon="6.4457622450"><ele>2095.81</ele><time>2019-08-18T15:25:13Z</time></trkpt><trkpt lat="45.0863826368" lon="6.4457206707"><ele>2095.81</ele><time>2019-08-18T15:25:24Z</time></trkpt><trkpt lat="45.0863995682" lon="6.4457604848"><ele>2094.37</ele><time>2019-08-18T15:25:32Z</time></trkpt><trkpt lat="45.0864243787" lon="6.4457941800"><ele>2093.89</ele><time>2019-08-18T15:25:50Z</time></trkpt><trkpt lat="45.0864538830" lon="6.4456626680"><ele>2093.89</ele><time>2019-08-18T15:26:02Z</time></trkpt><trkpt lat="45.0864527095" lon="6.4456492569"><ele>2093.89</ele><time>2019-08-18T15:26:09Z</time></trkpt><trkpt lat="45.0864055194" lon="6.4456163161"><ele>2093.89</ele><time>2019-08-18T15:26:43Z</time></trkpt><trkpt lat="45.0864057709" lon="6.4456075151"><ele>2089.08</ele><time>2019-08-18T15:26:50Z</time></trkpt><trkpt lat="45.0864061899" lon="6.4456123766"><ele>2101.10</ele><time>2019-08-18T15:26:52Z</time></trkpt><trkpt lat="45.0864059385" lon="6.4456174057"><ele>2095.33</ele><time>2019-08-18T15:26:53Z</time></trkpt><trkpt lat="45.0864143204" lon="6.4456124604"><ele>2093.41</ele><time>2019-08-18T15:26:56Z</time></trkpt><trkpt lat="45.0864310004" lon="6.4456127957"><ele>2091.97</ele><time>2019-08-18T15:27:10Z</time></trkpt><trkpt lat="45.0864455849" lon="6.4455925953"><ele>2093.41</ele><time>2019-08-18T15:27:22Z</time></trkpt><trkpt lat="45.0864536315" lon="6.4455815312"><ele>2093.41</ele><time>2019-08-18T15:27:24Z</time></trkpt><trkpt lat="45.0864882488" lon="6.4455640130"><ele>2090.52</ele><time>2019-08-18T15:27:30Z</time></trkpt><trkpt lat="45.0864786934" lon="6.4455230255"><ele>2089.56</ele><time>2019-08-18T15:27:45Z</time></trkpt><trkpt lat="45.0864742510" lon="6.4454821218"><ele>2087.64</ele><time>2019-08-18T15:27:58Z</time></trkpt><trkpt lat="45.0864529610" lon="6.4455088601"><ele>2086.68</ele><time>2019-08-18T15:28:12Z</time></trkpt><trkpt lat="45.0864351075" lon="6.4454895817"><ele>2085.72</ele><time>2019-08-18T15:28:38Z</time></trkpt><trkpt lat="45.0864172541" lon="6.4455224387"><ele>2087.16</ele><time>2019-08-18T15:28:44Z</time></trkpt><trkpt lat="45.0864257198" lon="6.4455286413"><ele>2088.12</ele><time>2019-08-18T15:28:55Z</time></trkpt><trkpt lat="45.0863986462" lon="6.4455208462"><ele>2088.12</ele><time>2019-08-18T15:29:04Z</time></trkpt><trkpt lat="45.0863801222" lon="6.4454986341"><ele>2086.20</ele><time>2019-08-18T15:29:07Z</time></trkpt><trkpt lat="45.0863517914" lon="6.4454553835"><ele>2084.28</ele><time>2019-08-18T15:29:21Z</time></trkpt><trkpt lat="45.0863707345" lon="6.4454708062"><ele>2083.79</ele><time>2019-08-18T15:29:34Z</time></trkpt><trkpt lat="45.0863750931" lon="6.4454765897"><ele>2084.28</ele><time>2019-08-18T15:29:52Z</time></trkpt><trkpt lat="45.0863997359" lon="6.4454805292"><ele>2085.24</ele><time>2019-08-18T15:30:03Z</time></trkpt><trkpt lat="45.0864084531" lon="6.4454867318"><ele>2084.76</ele><time>2019-08-18T15:30:17Z</time></trkpt><trkpt lat="45.0863950420" lon="6.4455107041"><ele>2081.87</ele><time>2019-08-18T15:30:21Z</time></trkpt><trkpt lat="45.0863868278" lon="6.4455138054"><ele>2091.00</ele><time>2019-08-18T15:30:22Z</time></trkpt><trkpt lat="45.0863802899" lon="6.4455206785"><ele>2087.64</ele><time>2019-08-18T15:30:23Z</time></trkpt><trkpt lat="45.0863770209" lon="6.4455394540"><ele>2086.68</ele><time>2019-08-18T15:30:25Z</time></trkpt><trkpt lat="45.0863900967" lon="6.4455770049"><ele>2088.12</ele><time>2019-08-18T15:30:37Z</time></trkpt><trkpt lat="45.0863716565" lon="6.4456074312"><ele>2089.08</ele><time>2019-08-18T15:30:49Z</time></trkpt><trkpt lat="45.0864082854" lon="6.4456324931"><ele>2090.52</ele><time>2019-08-18T15:31:00Z</time></trkpt><trkpt lat="45.0864126440" lon="6.4456241950"><ele>2091.00</ele><time>2019-08-18T15:31:11Z</time></trkpt><trkpt lat="45.0863833912" lon="6.4456464071"><ele>2091.00</ele><time>2019-08-18T15:31:22Z</time></trkpt><trkpt lat="45.0864073634" lon="6.4456581417"><ele>2090.52</ele><time>2019-08-18T15:31:33Z</time></trkpt><trkpt lat="45.0863825530" lon="6.4456684515"><ele>2089.56</ele><time>2019-08-18T15:31:46Z</time></trkpt><trkpt lat="45.0863902643" lon="6.4456872270"><ele>2088.60</ele><time>2019-08-18T15:31:53Z</time></trkpt><trkpt lat="45.0863787811" lon="6.4457251132"><ele>2093.89</ele><time>2019-08-18T15:31:56Z</time></trkpt><trkpt lat="45.0863730814" lon="6.4457357582"><ele>2091.00</ele><time>2019-08-18T15:31:57Z</time></trkpt><trkpt lat="45.0863619335" lon="6.4457532763"><ele>2089.56</ele><time>2019-08-18T15:31:59Z</time></trkpt><trkpt lat="45.0863433257" lon="6.4457743987"><ele>2088.60</ele><time>2019-08-18T15:32:13Z</time></trkpt><trkpt lat="45.0863375422" lon="6.4457708783"><ele>2088.12</ele><time>2019-08-18T15:32:30Z</time></trkpt><trkpt lat="45.0863520429" lon="6.4457982033"><ele>2090.04</ele><time>2019-08-18T15:32:42Z</time></trkpt><trkpt lat="45.0863430742" lon="6.4457814395"><ele>2089.08</ele><time>2019-08-18T15:32:56Z</time></trkpt><trkpt lat="45.0863524619" lon="6.4457713813"><ele>2085.24</ele><time>2019-08-18T15:33:02Z</time></trkpt><trkpt lat="45.0863560662" lon="6.4457673579"><ele>2090.52</ele><time>2019-08-18T15:33:03Z</time></trkpt><trkpt lat="45.0863601733" lon="6.4457708783"><ele>2089.08</ele><time>2019-08-18T15:33:04Z</time></trkpt><trkpt lat="45.0863719918" lon="6.4457647596"><ele>2064.57</ele><time>2019-08-18T15:33:12Z</time></trkpt><trkpt lat="45.0863711536" lon="6.4457639214"><ele>2106.39</ele><time>2019-08-18T15:33:13Z</time></trkpt><trkpt lat="45.0863695610" lon="6.4457655139"><ele>2095.33</ele><time>2019-08-18T15:33:14Z</time></trkpt><trkpt lat="45.0863675494" lon="6.4457657654"><ele>2090.04</ele><time>2019-08-18T15:33:15Z</time></trkpt><trkpt lat="45.0863545574" lon="6.4457516838"><ele>2088.60</ele><time>2019-08-18T15:33:43Z</time></trkpt><trkpt lat="45.0863673817" lon="6.4457423799"><ele>2088.12</ele><time>2019-08-18T15:34:00Z</time></trkpt><trkpt lat="45.0863670465" lon="6.4457433019"><ele>2088.12</ele><time>2019-08-18T15:34:14Z</time></trkpt><trkpt lat="45.0863729976" lon="6.4457423799"><ele>2089.56</ele><time>2019-08-18T15:34:20Z</time></trkpt><trkpt lat="45.0863694772" lon="6.4457453974"><ele>2085.24</ele><time>2019-08-18T15:34:21Z</time></trkpt><trkpt lat="45.0863637775" lon="6.4457452297"><ele>2078.99</ele><time>2019-08-18T15:34:22Z</time></trkpt><trkpt lat="45.0863562338" lon="6.4457468223"><ele>2096.77</ele><time>2019-08-18T15:34:23Z</time></trkpt><trkpt lat="45.0863530487" lon="6.4457460679"><ele>2090.52</ele><time>2019-08-18T15:34:24Z</time></trkpt><trkpt lat="45.0863343570" lon="6.4457452297"><ele>2087.16</ele><time>2019-08-18T15:34:28Z</time></trkpt><trkpt lat="45.0863322616" lon="6.4457464870"><ele>2085.72</ele><time>2019-08-18T15:34:45Z</time></trkpt><trkpt lat="45.0863350276" lon="6.4457313996"><ele>2085.72</ele><time>2019-08-18T15:35:00Z</time></trkpt><trkpt lat="45.0863555633" lon="6.4457231015"><ele>2085.24</ele><time>2019-08-18T15:35:14Z</time></trkpt><trkpt lat="45.0863584969" lon="6.4457069244"><ele>2086.68</ele><time>2019-08-18T15:35:23Z</time></trkpt><trkpt lat="45.0863621850" lon="6.4456925914"><ele>2087.16</ele><time>2019-08-18T15:35:39Z</time></trkpt><trkpt lat="45.0863398891" lon="6.4456796832"><ele>2085.72</ele><time>2019-08-18T15:35:48Z</time></trkpt><trkpt lat="45.0863118935" lon="6.4456756599"><ele>2082.35</ele><time>2019-08-18T15:36:01Z</time></trkpt><trkpt lat="45.0863078702" lon="6.4456096943"><ele>2082.35</ele><time>2019-08-18T15:36:13Z</time></trkpt><trkpt lat="45.0862865802" lon="6.4456095267"><ele>2080.91</ele><time>2019-08-18T15:36:23Z</time></trkpt><trkpt lat="45.0862862449" lon="6.4455683716"><ele>2080.43</ele><time>2019-08-18T15:36:36Z</time></trkpt><trkpt lat="45.0862926152" lon="6.4455203433"><ele>2078.99</ele><time>2019-08-18T15:36:49Z</time></trkpt><trkpt lat="45.0862807129" lon="6.4454557188"><ele>2078.03</ele><time>2019-08-18T15:37:01Z</time></trkpt><trkpt lat="45.0862408988" lon="6.4454155695"><ele>2075.62</ele><time>2019-08-18T15:37:13Z</time></trkpt><trkpt lat="45.0862730853" lon="6.4453364443"><ele>2073.70</ele><time>2019-08-18T15:37:24Z</time></trkpt><trkpt lat="45.0862639491" lon="6.4453335106"><ele>2073.22</ele><time>2019-08-18T15:37:38Z</time></trkpt><trkpt lat="45.0862772763" lon="6.4453221112"><ele>2073.22</ele><time>2019-08-18T15:38:00Z</time></trkpt><trkpt lat="45.0862685591" lon="6.4452742506"><ele>2073.22</ele><time>2019-08-18T15:38:29Z</time></trkpt><trkpt lat="45.0863070320" lon="6.4452107996"><ele>2072.26</ele><time>2019-08-18T15:38:48Z</time></trkpt><trkpt lat="45.0863118097" lon="6.4452004898"><ele>2072.26</ele><time>2019-08-18T15:38:49Z</time></trkpt><trkpt lat="45.0864326768" lon="6.4450228773"><ele>2070.82</ele><time>2019-08-18T15:39:07Z</time></trkpt><trkpt lat="45.0865281466" lon="6.4448554069"><ele>2069.38</ele><time>2019-08-18T15:39:23Z</time></trkpt><trkpt lat="45.0865609199" lon="6.4447629545"><ele>2068.89</ele><time>2019-08-18T15:39:30Z</time></trkpt><trkpt lat="45.0865936931" lon="6.4446448535"><ele>2068.41</ele><time>2019-08-18T15:39:39Z</time></trkpt><trkpt lat="45.0865959562" lon="6.4444016106"><ele>2067.93</ele><time>2019-08-18T15:39:58Z</time></trkpt><trkpt lat="45.0865657814" lon="6.4443602040"><ele>2067.45</ele><time>2019-08-18T15:40:11Z</time></trkpt><trkpt lat="45.0865294039" lon="6.4442621358"><ele>2066.97</ele><time>2019-08-18T15:40:38Z</time></trkpt><trkpt lat="45.0865543820" lon="6.4440350700"><ele>2066.97</ele><time>2019-08-18T15:40:54Z</time></trkpt><trkpt lat="45.0866083615" lon="6.4438723773"><ele>2066.49</ele><time>2019-08-18T15:41:06Z</time></trkpt><trkpt lat="45.0866134744" lon="6.4438417833"><ele>2066.49</ele><time>2019-08-18T15:41:08Z</time></trkpt><trkpt lat="45.0866857264" lon="6.4435474947"><ele>2065.53</ele><time>2019-08-18T15:41:26Z</time></trkpt><trkpt lat="45.0867242832" lon="6.4432744961"><ele>2064.57</ele><time>2019-08-18T15:41:42Z</time></trkpt><trkpt lat="45.0867499318" lon="6.4429826383"><ele>2062.17</ele><time>2019-08-18T15:41:59Z</time></trkpt><trkpt lat="45.0867695455" lon="6.4426761959"><ele>2060.72</ele><time>2019-08-18T15:42:17Z</time></trkpt><trkpt lat="45.0868070964" lon="6.4425442647"><ele>2059.76</ele><time>2019-08-18T15:42:27Z</time></trkpt><trkpt lat="45.0868535321" lon="6.4422764629"><ele>2058.80</ele><time>2019-08-18T15:42:44Z</time></trkpt><trkpt lat="45.0869060028" lon="6.4420461282"><ele>2057.36</ele><time>2019-08-18T15:43:00Z</time></trkpt><trkpt lat="45.0869842060" lon="6.4418422803"><ele>2056.40</ele><time>2019-08-18T15:43:15Z</time></trkpt><trkpt lat="45.0870852079" lon="6.4416304696"><ele>2054.96</ele><time>2019-08-18T15:43:31Z</time></trkpt><trkpt lat="45.0871942565" lon="6.4413890708"><ele>2053.99</ele><time>2019-08-18T15:43:49Z</time></trkpt><trkpt lat="45.0873020478" lon="6.4412186667"><ele>2053.03</ele><time>2019-08-18T15:44:04Z</time></trkpt><trkpt lat="45.0873872079" lon="6.4410838857"><ele>2052.07</ele><time>2019-08-18T15:44:16Z</time></trkpt><trkpt lat="45.0874929037" lon="6.4408953767"><ele>2049.19</ele><time>2019-08-18T15:44:32Z</time></trkpt><trkpt lat="45.0875070691" lon="6.4408434089"><ele>2048.71</ele><time>2019-08-18T15:44:36Z</time></trkpt><trkpt lat="45.0875773095" lon="6.4407290798"><ele>2047.75</ele><time>2019-08-18T15:44:47Z</time></trkpt><trkpt lat="45.0876031257" lon="6.4406352863"><ele>2046.78</ele><time>2019-08-18T15:44:55Z</time></trkpt><trkpt lat="45.0876104180" lon="6.4406144153"><ele>2046.30</ele><time>2019-08-18T15:44:57Z</time></trkpt><trkpt lat="45.0876503997" lon="6.4404854178"><ele>2045.34</ele><time>2019-08-18T15:45:07Z</time></trkpt><trkpt lat="45.0877575204" lon="6.4402928855"><ele>2043.42</ele><time>2019-08-18T15:45:25Z</time></trkpt><trkpt lat="45.0877766311" lon="6.4402772114"><ele>2042.94</ele><time>2019-08-18T15:45:27Z</time></trkpt><trkpt lat="45.0877877790" lon="6.4402383193"><ele>2042.46</ele><time>2019-08-18T15:45:30Z</time></trkpt><trkpt lat="45.0878370646" lon="6.4400257543"><ele>2040.05</ele><time>2019-08-18T15:45:46Z</time></trkpt><trkpt lat="45.0879132561" lon="6.4398618042"><ele>2037.65</ele><time>2019-08-18T15:46:01Z</time></trkpt><trkpt lat="45.0879331212" lon="6.4397954196"><ele>2036.21</ele><time>2019-08-18T15:46:08Z</time></trkpt><trkpt lat="45.0879786350" lon="6.4397474751"><ele>2035.25</ele><time>2019-08-18T15:46:15Z</time></trkpt><trkpt lat="45.0879985001" lon="6.4397289511"><ele>2035.25</ele><time>2019-08-18T15:46:17Z</time></trkpt><trkpt lat="45.0880645495" lon="6.4395950921"><ele>2033.33</ele><time>2019-08-18T15:46:30Z</time></trkpt><trkpt lat="45.0881158467" lon="6.4394421224"><ele>2031.88</ele><time>2019-08-18T15:46:43Z</time></trkpt><trkpt lat="45.0881859194" lon="6.4393272903"><ele>2029.48</ele><time>2019-08-18T15:46:56Z</time></trkpt><trkpt lat="45.0882684812" lon="6.4391608257"><ele>2027.56</ele><time>2019-08-18T15:47:11Z</time></trkpt><trkpt lat="45.0883434992" lon="6.4389869850"><ele>2025.64</ele><time>2019-08-18T15:47:26Z</time></trkpt><trkpt lat="45.0883736741" lon="6.4389167447"><ele>2024.67</ele><time>2019-08-18T15:47:32Z</time></trkpt><trkpt lat="45.0884169247" lon="6.4388377871"><ele>2023.71</ele><time>2019-08-18T15:47:39Z</time></trkpt><trkpt lat="45.0884680543" lon="6.4387868252"><ele>2022.75</ele><time>2019-08-18T15:47:45Z</time></trkpt><trkpt lat="45.0885597523" lon="6.4386091288"><ele>2020.35</ele><time>2019-08-18T15:48:00Z</time></trkpt><trkpt lat="45.0886165816" lon="6.4385032654"><ele>2018.91</ele><time>2019-08-18T15:48:11Z</time></trkpt><trkpt lat="45.0886926055" lon="6.4383941330"><ele>2016.98</ele><time>2019-08-18T15:48:22Z</time></trkpt><trkpt lat="45.0887925178" lon="6.4382354636"><ele>2015.06</ele><time>2019-08-18T15:48:39Z</time></trkpt><trkpt lat="45.0888129696" lon="6.4381808974"><ele>2014.10</ele><time>2019-08-18T15:48:43Z</time></trkpt><trkpt lat="45.0888970401" lon="6.4380518999"><ele>2012.66</ele><time>2019-08-18T15:48:55Z</time></trkpt><trkpt lat="45.0889609940" lon="6.4379263390"><ele>2011.22</ele><time>2019-08-18T15:49:06Z</time></trkpt><trkpt lat="45.0890815258" lon="6.4377509896"><ele>2009.77</ele><time>2019-08-18T15:49:23Z</time></trkpt><trkpt lat="45.0891110301" lon="6.4376694337"><ele>2008.81</ele><time>2019-08-18T15:49:30Z</time></trkpt><trkpt lat="45.0891198311" lon="6.4376306254"><ele>2008.33</ele><time>2019-08-18T15:49:34Z</time></trkpt><trkpt lat="45.0891681109" lon="6.4375520870"><ele>2007.37</ele><time>2019-08-18T15:49:41Z</time></trkpt><trkpt lat="45.0891960226" lon="6.4375126082"><ele>2006.41</ele><time>2019-08-18T15:49:45Z</time></trkpt><trkpt lat="45.0892137922" lon="6.4374696929"><ele>2006.41</ele><time>2019-08-18T15:49:48Z</time></trkpt><trkpt lat="45.0893152971" lon="6.4373383485"><ele>2004.01</ele><time>2019-08-18T15:50:02Z</time></trkpt><trkpt lat="45.0893358327" lon="6.4373148791"><ele>2004.01</ele><time>2019-08-18T15:50:05Z</time></trkpt><trkpt lat="45.0893847831" lon="6.4372598100"><ele>2003.04</ele><time>2019-08-18T15:50:12Z</time></trkpt><trkpt lat="45.0893878005" lon="6.4372448903"><ele>2002.56</ele><time>2019-08-18T15:50:14Z</time></trkpt><trkpt lat="45.0894904789" lon="6.4371161442"><ele>2000.16</ele><time>2019-08-18T15:50:29Z</time></trkpt><trkpt lat="45.0895939115" lon="6.4369907510"><ele>1998.72</ele><time>2019-08-18T15:50:43Z</time></trkpt><trkpt lat="45.0896430295" lon="6.4369251207"><ele>1997.76</ele><time>2019-08-18T15:50:53Z</time></trkpt><trkpt lat="45.0896599609" lon="6.4369219355"><ele>1997.28</ele><time>2019-08-18T15:50:55Z</time></trkpt><trkpt lat="45.0897131860" lon="6.4368770923"><ele>1996.80</ele><time>2019-08-18T15:51:01Z</time></trkpt><trkpt lat="45.0898081530" lon="6.4368012361"><ele>1995.35</ele><time>2019-08-18T15:51:17Z</time></trkpt><trkpt lat="45.0898364000" lon="6.4368434809"><ele>1994.87</ele><time>2019-08-18T15:51:26Z</time></trkpt><trkpt lat="45.0899357256" lon="6.4368573111"><ele>1994.87</ele><time>2019-08-18T15:51:39Z</time></trkpt><trkpt lat="45.0899453647" lon="6.4368792716"><ele>1993.91</ele><time>2019-08-18T15:51:55Z</time></trkpt><trkpt lat="45.0899457000" lon="6.4369067643"><ele>1993.91</ele><time>2019-08-18T15:52:15Z</time></trkpt><trkpt lat="45.0899783894" lon="6.4369166549"><ele>1993.91</ele><time>2019-08-18T15:52:32Z</time></trkpt><trkpt lat="45.0899625476" lon="6.4369131345"><ele>1990.55</ele><time>2019-08-18T15:52:37Z</time></trkpt></trkseg></trk></gpx>


Partager le fichier

Télécharger Current.gpx

Télécharger le fichier (445 Ko)